<?xml version="1.0" encoding="utf-8"?>
<gpx xmlns:xsi="http://www.w3.org/2001/XMLSchema-instance" xmlns:xsd="http://www.w3.org/2001/XMLSchema" version="1.1" creator="Shapelink.com" xmlns="http://www.topografix.com/GPX/1/1" xmlns:gpxtpx="http://www.garmin.com/xmlschemas/TrackPointExtension/v1">
  <metadata>
    <name>Löpning 8.83 km, 2018-02-18</name>
    <desc></desc>
    <author><name>Bengt-Åke Forslund</name></author> 
    <time>2018-02-18T13:29:59Z</time>
  </metadata>
  <trk>
    <name>Löpning 8.83 km, 2018-02-18</name>
    <trkseg>
      <trkpt lat="62.635862671008" lon="17.96768726786">
        <ele>64.8</ele>
        <time>2018-02-18T13:29:59Z</time>
      </trkpt>
      <trkpt lat="62.635946070913" lon="17.967964624931">
        <ele>64.6</ele>
        <time>2018-02-18T13:30:36Z</time>
      </trkpt>
      <trkpt lat="62.635957889392" lon="17.96799739816">
        <ele>64.6</ele>
        <time>2018-02-18T13:30:37Z</time>
      </trkpt>
      <trkpt lat="62.635971719527" lon="17.968042408963">
        <ele>64.6</ele>
        <time>2018-02-18T13:30:38Z</time>
      </trkpt>
      <trkpt lat="62.63598823187" lon="17.968078451133">
        <ele>64.6</ele>
        <time>2018-02-18T13:30:39Z</time>
      </trkpt>
      <trkpt lat="62.635999463616" lon="17.968116504959">
        <ele>64.8</ele>
        <time>2018-02-18T13:30:40Z</time>
      </trkpt>
      <trkpt lat="62.636015473045" lon="17.968163192142">
        <ele>64.6</ele>
        <time>2018-02-18T13:30:41Z</time>
      </trkpt>
      <trkpt lat="62.636028967904" lon="17.968201832701">
        <ele>64.6</ele>
        <time>2018-02-18T13:30:42Z</time>
      </trkpt>
      <trkpt lat="62.636041624573" lon="17.968231672265">
        <ele>64.8</ele>
        <time>2018-02-18T13:30:43Z</time>
      </trkpt>
      <trkpt lat="62.636057382545" lon="17.968270815738">
        <ele>64.8</ele>
        <time>2018-02-18T13:30:44Z</time>
      </trkpt>
      <trkpt lat="62.63607288906" lon="17.968309791573">
        <ele>64.8</ele>
        <time>2018-02-18T13:30:45Z</time>
      </trkpt>
      <trkpt lat="62.636090239593" lon="17.96833267416">
        <ele>65</ele>
        <time>2018-02-18T13:30:46Z</time>
      </trkpt>
      <trkpt lat="62.636110104696" lon="17.968363603371">
        <ele>65.2</ele>
        <time>2018-02-18T13:30:47Z</time>
      </trkpt>
      <trkpt lat="62.636133322559" lon="17.968383887569">
        <ele>65.2</ele>
        <time>2018-02-18T13:30:48Z</time>
      </trkpt>
      <trkpt lat="62.636153271481" lon="17.968396628057">
        <ele>65.2</ele>
        <time>2018-02-18T13:30:49Z</time>
      </trkpt>
      <trkpt lat="62.636176154068" lon="17.968423701594">
        <ele>65.4</ele>
        <time>2018-02-18T13:30:50Z</time>
      </trkpt>
      <trkpt lat="62.636201802682" lon="17.968442309412">
        <ele>65.4</ele>
        <time>2018-02-18T13:30:51Z</time>
      </trkpt>
      <trkpt lat="62.636218566482" lon="17.968461420144">
        <ele>65.4</ele>
        <time>2018-02-18T13:30:52Z</time>
      </trkpt>
      <trkpt lat="62.636247148761" lon="17.968489750966">
        <ele>65.4</ele>
        <time>2018-02-18T13:30:53Z</time>
      </trkpt>
      <trkpt lat="62.636275311945" lon="17.96851288501">
        <ele>65.4</ele>
        <time>2018-02-18T13:30:54Z</time>
      </trkpt>
      <trkpt lat="62.63630003855" lon="17.968541467289">
        <ele>65.6</ele>
        <time>2018-02-18T13:30:55Z</time>
      </trkpt>
      <trkpt lat="62.636329626657" lon="17.968577760916">
        <ele>65.6</ele>
        <time>2018-02-18T13:30:56Z</time>
      </trkpt>
      <trkpt lat="62.636354185624" lon="17.968610450326">
        <ele>65.6</ele>
        <time>2018-02-18T13:30:57Z</time>
      </trkpt>
      <trkpt lat="62.636374721279" lon="17.968639032605">
        <ele>65.6</ele>
        <time>2018-02-18T13:30:58Z</time>
      </trkpt>
      <trkpt lat="62.636402130092" lon="17.968691251842">
        <ele>65.4</ele>
        <time>2018-02-18T13:30:59Z</time>
      </trkpt>
      <trkpt lat="62.636426521421" lon="17.968735340636">
        <ele>65.4</ele>
        <time>2018-02-18T13:31:00Z</time>
      </trkpt>
      <trkpt lat="62.636443871954" lon="17.968773226824">
        <ele>65.4</ele>
        <time>2018-02-18T13:31:01Z</time>
      </trkpt>
      <trkpt lat="62.636463653238" lon="17.968820836016">
        <ele>65.4</ele>
        <time>2018-02-18T13:31:02Z</time>
      </trkpt>
      <trkpt lat="62.636488296024" lon="17.968873139072">
        <ele>65.2</ele>
        <time>2018-02-18T13:31:03Z</time>
      </trkpt>
      <trkpt lat="62.636505562738" lon="17.968906666672">
        <ele>65.2</ele>
        <time>2018-02-18T13:31:04Z</time>
      </trkpt>
      <trkpt lat="62.636528361506" lon="17.968955616968">
        <ele>65.2</ele>
        <time>2018-02-18T13:31:05Z</time>
      </trkpt>
      <trkpt lat="62.63654981917" lon="17.968994760441">
        <ele>65.4</ele>
        <time>2018-02-18T13:31:06Z</time>
      </trkpt>
      <trkpt lat="62.636566331513" lon="17.969035580294">
        <ele>65.4</ele>
        <time>2018-02-18T13:31:07Z</time>
      </trkpt>
      <trkpt lat="62.63658837591" lon="17.969094169775">
        <ele>65.4</ele>
        <time>2018-02-18T13:31:08Z</time>
      </trkpt>
      <trkpt lat="62.636608408651" lon="17.96913733656">
        <ele>65.4</ele>
        <time>2018-02-18T13:31:09Z</time>
      </trkpt>
      <trkpt lat="62.636620897682" lon="17.969189723435">
        <ele>65.4</ele>
        <time>2018-02-18T13:31:10Z</time>
      </trkpt>
      <trkpt lat="62.636639337862" lon="17.969250324572">
        <ele>65.6</ele>
        <time>2018-02-18T13:31:11Z</time>
      </trkpt>
      <trkpt lat="62.636650653427" lon="17.969297766126">
        <ele>65.6</ele>
        <time>2018-02-18T13:31:12Z</time>
      </trkpt>
      <trkpt lat="62.636665237933" lon="17.969360630376">
        <ele>65.6</ele>
        <time>2018-02-18T13:31:13Z</time>
      </trkpt>
      <trkpt lat="62.636678313697" lon="17.969416872925">
        <ele>65.6</ele>
        <time>2018-02-18T13:31:14Z</time>
      </trkpt>
      <trkpt lat="62.636691640918" lon="17.969455094389">
        <ele>65.8</ele>
        <time>2018-02-18T13:31:15Z</time>
      </trkpt>
      <trkpt lat="62.636703878492" lon="17.96951033111">
        <ele>65.8</ele>
        <time>2018-02-18T13:31:16Z</time>
      </trkpt>
      <trkpt lat="62.63671578079" lon="17.969561795976">
        <ele>65.8</ele>
        <time>2018-02-18T13:31:17Z</time>
      </trkpt>
      <trkpt lat="62.636727934545" lon="17.969602112915">
        <ele>66</ele>
        <time>2018-02-18T13:31:18Z</time>
      </trkpt>
      <trkpt lat="62.636741848499" lon="17.969656427627">
        <ele>65.8</ele>
        <time>2018-02-18T13:31:19Z</time>
      </trkpt>
      <trkpt lat="62.636758444661" lon="17.969696157833">
        <ele>66</ele>
        <time>2018-02-18T13:31:20Z</time>
      </trkpt>
      <trkpt lat="62.636770179321" lon="17.969743264111">
        <ele>66</ele>
        <time>2018-02-18T13:31:21Z</time>
      </trkpt>
      <trkpt lat="62.636785434379" lon="17.969786598534">
        <ele>66</ele>
        <time>2018-02-18T13:31:22Z</time>
      </trkpt>
      <trkpt lat="62.636807478776" lon="17.96983387245">
        <ele>66.2</ele>
        <time>2018-02-18T13:31:23Z</time>
      </trkpt>
      <trkpt lat="62.636829942268" lon="17.969886175506">
        <ele>66.2</ele>
        <time>2018-02-18T13:31:24Z</time>
      </trkpt>
      <trkpt lat="62.636858859823" lon="17.969922552952">
        <ele>66.4</ele>
        <time>2018-02-18T13:31:25Z</time>
      </trkpt>
      <trkpt lat="62.636876964727" lon="17.969959098036">
        <ele>66.4</ele>
        <time>2018-02-18T13:31:26Z</time>
      </trkpt>
      <trkpt lat="62.636903283893" lon="17.969992877093">
        <ele>66.4</ele>
        <time>2018-02-18T13:31:27Z</time>
      </trkpt>
      <trkpt lat="62.636932872" lon="17.970009473255">
        <ele>66.6</ele>
        <time>2018-02-18T13:31:28Z</time>
      </trkpt>
      <trkpt lat="62.636966483419" lon="17.970044174321">
        <ele>66.4</ele>
        <time>2018-02-18T13:31:29Z</time>
      </trkpt>
      <trkpt lat="62.636996071526" lon="17.970070493487">
        <ele>66.4</ele>
        <time>2018-02-18T13:31:30Z</time>
      </trkpt>
      <trkpt lat="62.637023731796" lon="17.970093292255">
        <ele>66.4</ele>
        <time>2018-02-18T13:31:31Z</time>
      </trkpt>
      <trkpt lat="62.63705608593" lon="17.970103937268">
        <ele>66.4</ele>
        <time>2018-02-18T13:31:32Z</time>
      </trkpt>
      <trkpt lat="62.637097743973" lon="17.970114749919">
        <ele>66.4</ele>
        <time>2018-02-18T13:31:33Z</time>
      </trkpt>
      <trkpt lat="62.637136971265" lon="17.970105781286">
        <ele>66.4</ele>
        <time>2018-02-18T13:31:34Z</time>
      </trkpt>
      <trkpt lat="62.637180724783" lon="17.97009203497">
        <ele>66.4</ele>
        <time>2018-02-18T13:31:35Z</time>
      </trkpt>
      <trkpt lat="62.637218610971" lon="17.97007946212">
        <ele>66.4</ele>
        <time>2018-02-18T13:31:36Z</time>
      </trkpt>
      <trkpt lat="62.637258005901" lon="17.97004341995">
        <ele>66.2</ele>
        <time>2018-02-18T13:31:37Z</time>
      </trkpt>
      <trkpt lat="62.637304273989" lon="17.970016178775">
        <ele>66.2</ele>
        <time>2018-02-18T13:31:38Z</time>
      </trkpt>
      <trkpt lat="62.637349368611" lon="17.9699973195">
        <ele>66</ele>
        <time>2018-02-18T13:31:39Z</time>
      </trkpt>
      <trkpt lat="62.63739220012" lon="17.969971503248">
        <ele>65.6</ele>
        <time>2018-02-18T13:31:40Z</time>
      </trkpt>
      <trkpt lat="62.637437546199" lon="17.969949961765">
        <ele>65.4</ele>
        <time>2018-02-18T13:31:41Z</time>
      </trkpt>
      <trkpt lat="62.637478030776" lon="17.969939652028">
        <ele>65.2</ele>
        <time>2018-02-18T13:31:42Z</time>
      </trkpt>
      <trkpt lat="62.637521113742" lon="17.969949877946">
        <ele>64.8</ele>
        <time>2018-02-18T13:31:43Z</time>
      </trkpt>
      <trkpt lat="62.637560424853" lon="17.969971419429">
        <ele>64.6</ele>
        <time>2018-02-18T13:31:44Z</time>
      </trkpt>
      <trkpt lat="62.637598730136" lon="17.970001258993">
        <ele>64.4</ele>
        <time>2018-02-18T13:31:45Z</time>
      </trkpt>
      <trkpt lat="62.637633347383" lon="17.970035457145">
        <ele>64</ele>
        <time>2018-02-18T13:31:46Z</time>
      </trkpt>
      <trkpt lat="62.637661762024" lon="17.9700811385">
        <ele>64</ele>
        <time>2018-02-18T13:31:47Z</time>
      </trkpt>
      <trkpt lat="62.637691182493" lon="17.970144757121">
        <ele>63.8</ele>
        <time>2018-02-18T13:31:48Z</time>
      </trkpt>
      <trkpt lat="62.63772579974" lon="17.970194042693">
        <ele>63.6</ele>
        <time>2018-02-18T13:31:49Z</time>
      </trkpt>
      <trkpt lat="62.637750023431" lon="17.970234778727">
        <ele>63.6</ele>
        <time>2018-02-18T13:31:50Z</time>
      </trkpt>
      <trkpt lat="62.637767876878" lon="17.970292949113">
        <ele>63.6</ele>
        <time>2018-02-18T13:31:51Z</time>
      </trkpt>
      <trkpt lat="62.637782461384" lon="17.970341396495">
        <ele>63.4</ele>
        <time>2018-02-18T13:31:52Z</time>
      </trkpt>
      <trkpt lat="62.637795872424" lon="17.970405601849">
        <ele>63.4</ele>
        <time>2018-02-18T13:31:53Z</time>
      </trkpt>
      <trkpt lat="62.63781045693" lon="17.970465532434">
        <ele>63.4</ele>
        <time>2018-02-18T13:31:54Z</time>
      </trkpt>
      <trkpt lat="62.637820850486" lon="17.970518086947">
        <ele>63.4</ele>
        <time>2018-02-18T13:31:55Z</time>
      </trkpt>
      <trkpt lat="62.637829064748" lon="17.970562175741">
        <ele>63.4</ele>
        <time>2018-02-18T13:31:56Z</time>
      </trkpt>
      <trkpt lat="62.637838452476" lon="17.970614897892">
        <ele>63.4</ele>
        <time>2018-02-18T13:31:57Z</time>
      </trkpt>
      <trkpt lat="62.637846834376" lon="17.970663177636">
        <ele>63.6</ele>
        <time>2018-02-18T13:31:58Z</time>
      </trkpt>
      <trkpt lat="62.637854797181" lon="17.970724616963">
        <ele>63.6</ele>
        <time>2018-02-18T13:31:59Z</time>
      </trkpt>
      <trkpt lat="62.637865274556" lon="17.970778428761">
        <ele>63.6</ele>
        <time>2018-02-18T13:32:00Z</time>
      </trkpt>
      <trkpt lat="62.637877595949" lon="17.970819164795">
        <ele>63.6</ele>
        <time>2018-02-18T13:32:01Z</time>
      </trkpt>
      <trkpt lat="62.637887989505" lon="17.970878927742">
        <ele>63.8</ele>
        <time>2018-02-18T13:32:02Z</time>
      </trkpt>
      <trkpt lat="62.637898969794" lon="17.9709444742">
        <ele>64</ele>
        <time>2018-02-18T13:32:03Z</time>
      </trkpt>
      <trkpt lat="62.637905675314" lon="17.970996944894">
        <ele>64</ele>
        <time>2018-02-18T13:32:04Z</time>
      </trkpt>
      <trkpt lat="62.637921349467" lon="17.971060395877">
        <ele>64</ele>
        <time>2018-02-18T13:32:05Z</time>
      </trkpt>
      <trkpt lat="62.637930653376" lon="17.971108843259">
        <ele>64.2</ele>
        <time>2018-02-18T13:32:06Z</time>
      </trkpt>
      <trkpt lat="62.637940879294" lon="17.971158547926">
        <ele>64.2</ele>
        <time>2018-02-18T13:32:07Z</time>
      </trkpt>
      <trkpt lat="62.637950350841" lon="17.971228955886">
        <ele>64.2</ele>
        <time>2018-02-18T13:32:08Z</time>
      </trkpt>
      <trkpt lat="62.63795714018" lon="17.971278660553">
        <ele>64.4</ele>
        <time>2018-02-18T13:32:09Z</time>
      </trkpt>
      <trkpt lat="62.637962923691" lon="17.971328868134">
        <ele>64.4</ele>
        <time>2018-02-18T13:32:10Z</time>
      </trkpt>
      <trkpt lat="62.637971221772" lon="17.971396845343">
        <ele>64.6</ele>
        <time>2018-02-18T13:32:11Z</time>
      </trkpt>
      <trkpt lat="62.637976753826" lon="17.971450070408">
        <ele>64.8</ele>
        <time>2018-02-18T13:32:12Z</time>
      </trkpt>
      <trkpt lat="62.637983375527" lon="17.971502792559">
        <ele>64.8</ele>
        <time>2018-02-18T13:32:13Z</time>
      </trkpt>
      <trkpt lat="62.637990248685" lon="17.971581247143">
        <ele>64.8</ele>
        <time>2018-02-18T13:32:14Z</time>
      </trkpt>
      <trkpt lat="62.637998546766" lon="17.971641680642">
        <ele>65</ele>
        <time>2018-02-18T13:32:15Z</time>
      </trkpt>
      <trkpt lat="62.637999804051" lon="17.971707059462">
        <ele>65</ele>
        <time>2018-02-18T13:32:16Z</time>
      </trkpt>
      <trkpt lat="62.638001731888" lon="17.971771097178">
        <ele>65</ele>
        <time>2018-02-18T13:32:17Z</time>
      </trkpt>
      <trkpt lat="62.638002150983" lon="17.971824908976">
        <ele>65.2</ele>
        <time>2018-02-18T13:32:18Z</time>
      </trkpt>
      <trkpt lat="62.637999468775" lon="17.971896238945">
        <ele>65</ele>
        <time>2018-02-18T13:32:19Z</time>
      </trkpt>
      <trkpt lat="62.63799988787" lon="17.971955918073">
        <ele>65</ele>
        <time>2018-02-18T13:32:20Z</time>
      </trkpt>
      <trkpt lat="62.637997624757" lon="17.972028505327">
        <ele>65.2</ele>
        <time>2018-02-18T13:32:21Z</time>
      </trkpt>
      <trkpt lat="62.637998798223" lon="17.972082652401">
        <ele>65.2</ele>
        <time>2018-02-18T13:32:22Z</time>
      </trkpt>
      <trkpt lat="62.638001145155" lon="17.972127579385">
        <ele>65.2</ele>
        <time>2018-02-18T13:32:23Z</time>
      </trkpt>
      <trkpt lat="62.63800324063" lon="17.972203770856">
        <ele>65.2</ele>
        <time>2018-02-18T13:32:24Z</time>
      </trkpt>
      <trkpt lat="62.638004665553" lon="17.972268479124">
        <ele>65.4</ele>
        <time>2018-02-18T13:32:25Z</time>
      </trkpt>
      <trkpt lat="62.638005419924" lon="17.972322207103">
        <ele>65.4</ele>
        <time>2018-02-18T13:32:26Z</time>
      </trkpt>
      <trkpt lat="62.638007515399" lon="17.972368139915">
        <ele>65.6</ele>
        <time>2018-02-18T13:32:27Z</time>
      </trkpt>
      <trkpt lat="62.638008688865" lon="17.972424047188">
        <ele>65.6</ele>
        <time>2018-02-18T13:32:28Z</time>
      </trkpt>
      <trkpt lat="62.638013382729" lon="17.97249596389">
        <ele>66</ele>
        <time>2018-02-18T13:32:29Z</time>
      </trkpt>
      <trkpt lat="62.63801497529" lon="17.972550278602">
        <ele>66.2</ele>
        <time>2018-02-18T13:32:30Z</time>
      </trkpt>
      <trkpt lat="62.638017154584" lon="17.972609370997">
        <ele>66.2</ele>
        <time>2018-02-18T13:32:31Z</time>
      </trkpt>
      <trkpt lat="62.638021513172" lon="17.972672402885">
        <ele>66.2</ele>
        <time>2018-02-18T13:32:32Z</time>
      </trkpt>
      <trkpt lat="62.638024614475" lon="17.972727891063">
        <ele>66.4</ele>
        <time>2018-02-18T13:32:33Z</time>
      </trkpt>
      <trkpt lat="62.63802670995" lon="17.972767285993">
        <ele>66.4</ele>
        <time>2018-02-18T13:32:34Z</time>
      </trkpt>
      <trkpt lat="62.638028805425" lon="17.972825540198">
        <ele>66.4</ele>
        <time>2018-02-18T13:32:35Z</time>
      </trkpt>
      <trkpt lat="62.638031068538" lon="17.972883710584">
        <ele>66.6</ele>
        <time>2018-02-18T13:32:36Z</time>
      </trkpt>
      <trkpt lat="62.638033834565" lon="17.972926374455">
        <ele>66.6</ele>
        <time>2018-02-18T13:32:37Z</time>
      </trkpt>
      <trkpt lat="62.63803425366" lon="17.972986807954">
        <ele>66.6</ele>
        <time>2018-02-18T13:32:38Z</time>
      </trkpt>
      <trkpt lat="62.638032661099" lon="17.973054785163">
        <ele>66.8</ele>
        <time>2018-02-18T13:32:39Z</time>
      </trkpt>
      <trkpt lat="62.63803173909" lon="17.973111698264">
        <ele>66.8</ele>
        <time>2018-02-18T13:32:40Z</time>
      </trkpt>
      <trkpt lat="62.638032996375" lon="17.973166264433">
        <ele>66.8</ele>
        <time>2018-02-18T13:32:41Z</time>
      </trkpt>
      <trkpt lat="62.638032242004" lon="17.973215047091">
        <ele>67</ele>
        <time>2018-02-18T13:32:42Z</time>
      </trkpt>
      <trkpt lat="62.638026542312" lon="17.973283443395">
        <ele>67.2</ele>
        <time>2018-02-18T13:32:43Z</time>
      </trkpt>
      <trkpt lat="62.638025201208" lon="17.973347900206">
        <ele>67.4</ele>
        <time>2018-02-18T13:32:44Z</time>
      </trkpt>
      <trkpt lat="62.638021764629" lon="17.973398610701">
        <ele>67.4</ele>
        <time>2018-02-18T13:32:45Z</time>
      </trkpt>
      <trkpt lat="62.638018076593" lon="17.973455356164">
        <ele>67.6</ele>
        <time>2018-02-18T13:32:46Z</time>
      </trkpt>
      <trkpt lat="62.638016567851" lon="17.973514280921">
        <ele>67.6</ele>
        <time>2018-02-18T13:32:47Z</time>
      </trkpt>
      <trkpt lat="62.638017992774" lon="17.973576558438">
        <ele>67.8</ele>
        <time>2018-02-18T13:32:48Z</time>
      </trkpt>
      <trkpt lat="62.638023105733" lon="17.973628945313">
        <ele>68</ele>
        <time>2018-02-18T13:32:49Z</time>
      </trkpt>
      <trkpt lat="62.638025285027" lon="17.973687702432">
        <ele>68.2</ele>
        <time>2018-02-18T13:32:50Z</time>
      </trkpt>
      <trkpt lat="62.638029811253" lon="17.973745621361">
        <ele>68.4</ele>
        <time>2018-02-18T13:32:51Z</time>
      </trkpt>
      <trkpt lat="62.638033834565" lon="17.973789123422">
        <ele>68.4</ele>
        <time>2018-02-18T13:32:52Z</time>
      </trkpt>
      <trkpt lat="62.638039785714" lon="17.973855256613">
        <ele>68.4</ele>
        <time>2018-02-18T13:32:53Z</time>
      </trkpt>
      <trkpt lat="62.638048921985" lon="17.973904542185">
        <ele>68.4</ele>
        <time>2018-02-18T13:32:54Z</time>
      </trkpt>
      <trkpt lat="62.63805856117" lon="17.973962461114">
        <ele>68.4</ele>
        <time>2018-02-18T13:32:55Z</time>
      </trkpt>
      <trkpt lat="62.638061997749" lon="17.974024487174">
        <ele>68.4</ele>
        <time>2018-02-18T13:32:56Z</time>
      </trkpt>
      <trkpt lat="62.638064512319" lon="17.974081316456">
        <ele>68.4</ele>
        <time>2018-02-18T13:32:57Z</time>
      </trkpt>
      <trkpt lat="62.638068787088" lon="17.97414049267">
        <ele>68.4</ele>
        <time>2018-02-18T13:32:58Z</time>
      </trkpt>
      <trkpt lat="62.638073313314" lon="17.974201009988">
        <ele>68.4</ele>
        <time>2018-02-18T13:32:59Z</time>
      </trkpt>
      <trkpt lat="62.638075157332" lon="17.974272423776">
        <ele>68.2</ele>
        <time>2018-02-18T13:33:00Z</time>
      </trkpt>
      <trkpt lat="62.638075660246" lon="17.974337299682">
        <ele>68.4</ele>
        <time>2018-02-18T13:33:01Z</time>
      </trkpt>
      <trkpt lat="62.638073397133" lon="17.974396811172">
        <ele>68.4</ele>
        <time>2018-02-18T13:33:02Z</time>
      </trkpt>
      <trkpt lat="62.638071217839" lon="17.974468560236">
        <ele>68.4</ele>
        <time>2018-02-18T13:33:03Z</time>
      </trkpt>
      <trkpt lat="62.638070714925" lon="17.974521366206">
        <ele>68.4</ele>
        <time>2018-02-18T13:33:04Z</time>
      </trkpt>
      <trkpt lat="62.638062249206" lon="17.974595713659">
        <ele>68.4</ele>
        <time>2018-02-18T13:33:05Z</time>
      </trkpt>
      <trkpt lat="62.638057220066" lon="17.974658661728">
        <ele>68.4</ele>
        <time>2018-02-18T13:33:06Z</time>
      </trkpt>
      <trkpt lat="62.638049676356" lon="17.974704259264">
        <ele>68.4</ele>
        <time>2018-02-18T13:33:07Z</time>
      </trkpt>
      <trkpt lat="62.638038696067" lon="17.974760585632">
        <ele>68.4</ele>
        <time>2018-02-18T13:33:08Z</time>
      </trkpt>
      <trkpt lat="62.638026877588" lon="17.974799561467">
        <ele>68.4</ele>
        <time>2018-02-18T13:33:09Z</time>
      </trkpt>
      <trkpt lat="62.638013969462" lon="17.974839291673">
        <ele>68.4</ele>
        <time>2018-02-18T13:33:10Z</time>
      </trkpt>
      <trkpt lat="62.637996367472" lon="17.974885978856">
        <ele>68.4</ele>
        <time>2018-02-18T13:33:11Z</time>
      </trkpt>
      <trkpt lat="62.637980777138" lon="17.97492420032">
        <ele>68.6</ele>
        <time>2018-02-18T13:33:12Z</time>
      </trkpt>
      <trkpt lat="62.637965270623" lon="17.974956554454">
        <ele>68.6</ele>
        <time>2018-02-18T13:33:13Z</time>
      </trkpt>
      <trkpt lat="62.637948506823" lon="17.974991926072">
        <ele>68.8</ele>
        <time>2018-02-18T13:33:14Z</time>
      </trkpt>
      <trkpt lat="62.637930569557" lon="17.975032913563">
        <ele>69</ele>
        <time>2018-02-18T13:33:15Z</time>
      </trkpt>
      <trkpt lat="62.637912883748" lon="17.975067614629">
        <ele>69.2</ele>
        <time>2018-02-18T13:33:16Z</time>
      </trkpt>
      <trkpt lat="62.63789427593" lon="17.975102902428">
        <ele>69.4</ele>
        <time>2018-02-18T13:33:17Z</time>
      </trkpt>
      <trkpt lat="62.637874494646" lon="17.975135256562">
        <ele>69.6</ele>
        <time>2018-02-18T13:33:18Z</time>
      </trkpt>
      <trkpt lat="62.63785907195" lon="17.975168281248">
        <ele>69.6</ele>
        <time>2018-02-18T13:33:19Z</time>
      </trkpt>
      <trkpt lat="62.637844571263" lon="17.975199881011">
        <ele>69.8</ele>
        <time>2018-02-18T13:33:20Z</time>
      </trkpt>
      <trkpt lat="62.637823113599" lon="17.975238270113">
        <ele>70</ele>
        <time>2018-02-18T13:33:21Z</time>
      </trkpt>
      <trkpt lat="62.637806182161" lon="17.975269115505">
        <ele>70</ele>
        <time>2018-02-18T13:33:22Z</time>
      </trkpt>
      <trkpt lat="62.637785059773" lon="17.975309683901">
        <ele>70</ele>
        <time>2018-02-18T13:33:23Z</time>
      </trkpt>
      <trkpt lat="62.637769637077" lon="17.975343043863">
        <ele>70</ele>
        <time>2018-02-18T13:33:24Z</time>
      </trkpt>
      <trkpt lat="62.637753879105" lon="17.975370620314">
        <ele>70</ele>
        <time>2018-02-18T13:33:25Z</time>
      </trkpt>
      <trkpt lat="62.6377375344" lon="17.975395011643">
        <ele>70.2</ele>
        <time>2018-02-18T13:33:26Z</time>
      </trkpt>
      <trkpt lat="62.637721944066" lon="17.975415212022">
        <ele>70.2</ele>
        <time>2018-02-18T13:33:27Z</time>
      </trkpt>
      <trkpt lat="62.637707108103" lon="17.975427617234">
        <ele>70.6</ele>
        <time>2018-02-18T13:33:28Z</time>
      </trkpt>
      <trkpt lat="62.637688667923" lon="17.97544471631">
        <ele>70.6</ele>
        <time>2018-02-18T13:33:29Z</time>
      </trkpt>
      <trkpt lat="62.637674251055" lon="17.975464246137">
        <ele>71</ele>
        <time>2018-02-18T13:33:30Z</time>
      </trkpt>
      <trkpt lat="62.637656900522" lon="17.975482015765">
        <ele>71.2</ele>
        <time>2018-02-18T13:33:31Z</time>
      </trkpt>
      <trkpt lat="62.637631587184" lon="17.975493834244">
        <ele>71.6</ele>
        <time>2018-02-18T13:33:32Z</time>
      </trkpt>
      <trkpt lat="62.637608956054" lon="17.975507832017">
        <ele>72</ele>
        <time>2018-02-18T13:33:33Z</time>
      </trkpt>
      <trkpt lat="62.637590348236" lon="17.975521075419">
        <ele>72</ele>
        <time>2018-02-18T13:33:34Z</time>
      </trkpt>
      <trkpt lat="62.637571321323" lon="17.975529708776">
        <ele>72</ele>
        <time>2018-02-18T13:33:35Z</time>
      </trkpt>
      <trkpt lat="62.637539134827" lon="17.975545634386">
        <ele>72.2</ele>
        <time>2018-02-18T13:33:36Z</time>
      </trkpt>
      <trkpt lat="62.637518934448" lon="17.975560135073">
        <ele>72.4</ele>
        <time>2018-02-18T13:33:37Z</time>
      </trkpt>
      <trkpt lat="62.637495800404" lon="17.97557631214">
        <ele>72.6</ele>
        <time>2018-02-18T13:33:38Z</time>
      </trkpt>
      <trkpt lat="62.637475935301" lon="17.975589387904">
        <ele>72.8</ele>
        <time>2018-02-18T13:33:39Z</time>
      </trkpt>
      <trkpt lat="62.637459003863" lon="17.97560145784">
        <ele>73</ele>
        <time>2018-02-18T13:33:40Z</time>
      </trkpt>
      <trkpt lat="62.637440396045" lon="17.97561067793">
        <ele>73.4</ele>
        <time>2018-02-18T13:33:41Z</time>
      </trkpt>
      <trkpt lat="62.637422458779" lon="17.975621909676">
        <ele>73.6</ele>
        <time>2018-02-18T13:33:42Z</time>
      </trkpt>
      <trkpt lat="62.637398738002" lon="17.975638505838">
        <ele>73.8</ele>
        <time>2018-02-18T13:33:43Z</time>
      </trkpt>
      <trkpt lat="62.637374849587" lon="17.975656107828">
        <ele>73.8</ele>
        <time>2018-02-18T13:33:44Z</time>
      </trkpt>
      <trkpt lat="62.63736118709" lon="17.975670524696">
        <ele>74</ele>
        <time>2018-02-18T13:33:45Z</time>
      </trkpt>
      <trkpt lat="62.637339813245" lon="17.975692066179">
        <ele>74.2</ele>
        <time>2018-02-18T13:33:46Z</time>
      </trkpt>
      <trkpt lat="62.637317098296" lon="17.97571126073">
        <ele>74.2</ele>
        <time>2018-02-18T13:33:47Z</time>
      </trkpt>
      <trkpt lat="62.637296311184" lon="17.97573556824">
        <ele>74.4</ele>
        <time>2018-02-18T13:33:48Z</time>
      </trkpt>
      <trkpt lat="62.637279547384" lon="17.975766078356">
        <ele>74.4</ele>
        <time>2018-02-18T13:33:49Z</time>
      </trkpt>
      <trkpt lat="62.637263370317" lon="17.975791391694">
        <ele>74.4</ele>
        <time>2018-02-18T13:33:50Z</time>
      </trkpt>
      <trkpt lat="62.637248115259" lon="17.975821315077">
        <ele>74.4</ele>
        <time>2018-02-18T13:33:51Z</time>
      </trkpt>
      <trkpt lat="62.637233698391" lon="17.975847801881">
        <ele>74.8</ele>
        <time>2018-02-18T13:33:52Z</time>
      </trkpt>
      <trkpt lat="62.637214420021" lon="17.97588811882">
        <ele>75</ele>
        <time>2018-02-18T13:33:53Z</time>
      </trkpt>
      <trkpt lat="62.637199584058" lon="17.9759233228">
        <ele>75.2</ele>
        <time>2018-02-18T13:33:54Z</time>
      </trkpt>
      <trkpt lat="62.637188436131" lon="17.975957520952">
        <ele>75.6</ele>
        <time>2018-02-18T13:33:55Z</time>
      </trkpt>
      <trkpt lat="62.637177958756" lon="17.975991383828">
        <ele>76</ele>
        <time>2018-02-18T13:33:56Z</time>
      </trkpt>
      <trkpt lat="62.637166559372" lon="17.976030275844">
        <ele>76.2</ele>
        <time>2018-02-18T13:33:57Z</time>
      </trkpt>
      <trkpt lat="62.637156333454" lon="17.976071179516">
        <ele>76.4</ele>
        <time>2018-02-18T13:33:58Z</time>
      </trkpt>
      <trkpt lat="62.637148035373" lon="17.976118872527">
        <ele>76.6</ele>
        <time>2018-02-18T13:33:59Z</time>
      </trkpt>
      <trkpt lat="62.6371340376" lon="17.976176539999">
        <ele>76.8</ele>
        <time>2018-02-18T13:34:00Z</time>
      </trkpt>
      <trkpt lat="62.637122805854" lon="17.976223227182">
        <ele>76.8</ele>
        <time>2018-02-18T13:34:01Z</time>
      </trkpt>
      <trkpt lat="62.637114675411" lon="17.976265639596">
        <ele>76.8</ele>
        <time>2018-02-18T13:34:02Z</time>
      </trkpt>
      <trkpt lat="62.637106293511" lon="17.976311823865">
        <ele>77</ele>
        <time>2018-02-18T13:34:03Z</time>
      </trkpt>
      <trkpt lat="62.637097911611" lon="17.976353398089">
        <ele>77</ele>
        <time>2018-02-18T13:34:04Z</time>
      </trkpt>
      <trkpt lat="62.63709464267" lon="17.976396648693">
        <ele>77.2</ele>
        <time>2018-02-18T13:34:05Z</time>
      </trkpt>
      <trkpt lat="62.637087769512" lon="17.976453561794">
        <ele>77.4</ele>
        <time>2018-02-18T13:34:06Z</time>
      </trkpt>
      <trkpt lat="62.637082740372" lon="17.976508714696">
        <ele>77.4</ele>
        <time>2018-02-18T13:34:07Z</time>
      </trkpt>
      <trkpt lat="62.637078633241" lon="17.976559676648">
        <ele>77.4</ele>
        <time>2018-02-18T13:34:08Z</time>
      </trkpt>
      <trkpt lat="62.637070754255" lon="17.976615332464">
        <ele>77.4</ele>
        <time>2018-02-18T13:34:09Z</time>
      </trkpt>
      <trkpt lat="62.637067317676" lon="17.976664534217">
        <ele>77.6</ele>
        <time>2018-02-18T13:34:10Z</time>
      </trkpt>
      <trkpt lat="62.6370669824" lon="17.976715579988">
        <ele>77.6</ele>
        <time>2018-02-18T13:34:11Z</time>
      </trkpt>
      <trkpt lat="62.637065054563" lon="17.976773834193">
        <ele>77.8</ele>
        <time>2018-02-18T13:34:12Z</time>
      </trkpt>
      <trkpt lat="62.637068910237" lon="17.976827981267">
        <ele>77.8</ele>
        <time>2018-02-18T13:34:13Z</time>
      </trkpt>
      <trkpt lat="62.637070167522" lon="17.976904256557">
        <ele>77.8</ele>
        <time>2018-02-18T13:34:14Z</time>
      </trkpt>
      <trkpt lat="62.637072430635" lon="17.976963097495">
        <ele>78</ele>
        <time>2018-02-18T13:34:15Z</time>
      </trkpt>
      <trkpt lat="62.63707201154" lon="17.97702051351">
        <ele>78</ele>
        <time>2018-02-18T13:34:16Z</time>
      </trkpt>
      <trkpt lat="62.637077459775" lon="17.97708253957">
        <ele>78</ele>
        <time>2018-02-18T13:34:17Z</time>
      </trkpt>
      <trkpt lat="62.637079303793" lon="17.977143056888">
        <ele>78.2</ele>
        <time>2018-02-18T13:34:18Z</time>
      </trkpt>
      <trkpt lat="62.637075280481" lon="17.977204244758">
        <ele>78.2</ele>
        <time>2018-02-18T13:34:19Z</time>
      </trkpt>
      <trkpt lat="62.637076453947" lon="17.977258224194">
        <ele>78.2</ele>
        <time>2018-02-18T13:34:20Z</time>
      </trkpt>
      <trkpt lat="62.637069329332" lon="17.977321172263">
        <ele>78.2</ele>
        <time>2018-02-18T13:34:21Z</time>
      </trkpt>
      <trkpt lat="62.637061701803" lon="17.977372218034">
        <ele>78</ele>
        <time>2018-02-18T13:34:22Z</time>
      </trkpt>
      <trkpt lat="62.637052816989" lon="17.977429131135">
        <ele>78</ele>
        <time>2018-02-18T13:34:23Z</time>
      </trkpt>
      <trkpt lat="62.637040076501" lon="17.977486295693">
        <ele>78</ele>
        <time>2018-02-18T13:34:24Z</time>
      </trkpt>
      <trkpt lat="62.637034879723" lon="17.977530887401">
        <ele>78</ele>
        <time>2018-02-18T13:34:25Z</time>
      </trkpt>
      <trkpt lat="62.63702004376" lon="17.977591739995">
        <ele>78</ele>
        <time>2018-02-18T13:34:26Z</time>
      </trkpt>
      <trkpt lat="62.637008644376" lon="17.977644294508">
        <ele>78</ele>
        <time>2018-02-18T13:34:27Z</time>
      </trkpt>
      <trkpt lat="62.636998921372" lon="17.977688467121">
        <ele>78.2</ele>
        <time>2018-02-18T13:34:28Z</time>
      </trkpt>
      <trkpt lat="62.636985091237" lon="17.977752756294">
        <ele>78.2</ele>
        <time>2018-02-18T13:34:29Z</time>
      </trkpt>
      <trkpt lat="62.63697897245" lon="17.977798018554">
        <ele>78.2</ele>
        <time>2018-02-18T13:34:30Z</time>
      </trkpt>
      <trkpt lat="62.636969249446" lon="17.97785618894">
        <ele>78.2</ele>
        <time>2018-02-18T13:34:31Z</time>
      </trkpt>
      <trkpt lat="62.636962543926" lon="17.977909749281">
        <ele>78.2</ele>
        <time>2018-02-18T13:34:32Z</time>
      </trkpt>
      <trkpt lat="62.636958436795" lon="17.977963561079">
        <ele>78.4</ele>
        <time>2018-02-18T13:34:33Z</time>
      </trkpt>
      <trkpt lat="62.636951731275" lon="17.978009242434">
        <ele>78.4</ele>
        <time>2018-02-18T13:34:34Z</time>
      </trkpt>
      <trkpt lat="62.636948881429" lon="17.978062886594">
        <ele>78.6</ele>
        <time>2018-02-18T13:34:35Z</time>
      </trkpt>
      <trkpt lat="62.636938823149" lon="17.978121559894">
        <ele>78.6</ele>
        <time>2018-02-18T13:34:36Z</time>
      </trkpt>
      <trkpt lat="62.636930189792" lon="17.978173360036">
        <ele>78.6</ele>
        <time>2018-02-18T13:34:37Z</time>
      </trkpt>
      <trkpt lat="62.636921472616" lon="17.978217281192">
        <ele>78.8</ele>
        <time>2018-02-18T13:34:38Z</time>
      </trkpt>
      <trkpt lat="62.636910073232" lon="17.978267321135">
        <ele>78.8</ele>
        <time>2018-02-18T13:34:39Z</time>
      </trkpt>
      <trkpt lat="62.636906301377" lon="17.978312415757">
        <ele>78.8</ele>
        <time>2018-02-18T13:34:40Z</time>
      </trkpt>
      <trkpt lat="62.636892471242" lon="17.978367903935">
        <ele>78.8</ele>
        <time>2018-02-18T13:34:41Z</time>
      </trkpt>
      <trkpt lat="62.636878724926" lon="17.978417692421">
        <ele>78.8</ele>
        <time>2018-02-18T13:34:42Z</time>
      </trkpt>
      <trkpt lat="62.636868834284" lon="17.978461194482">
        <ele>78.8</ele>
        <time>2018-02-18T13:34:43Z</time>
      </trkpt>
      <trkpt lat="62.636853495407" lon="17.978510480054">
        <ele>79</ele>
        <time>2018-02-18T13:34:44Z</time>
      </trkpt>
      <trkpt lat="62.636837653616" lon="17.978558089246">
        <ele>79</ele>
        <time>2018-02-18T13:34:45Z</time>
      </trkpt>
      <trkpt lat="62.63682474549" lon="17.978590946294">
        <ele>79.2</ele>
        <time>2018-02-18T13:34:46Z</time>
      </trkpt>
      <trkpt lat="62.636808652242" lon="17.978624473894">
        <ele>79</ele>
        <time>2018-02-18T13:34:47Z</time>
      </trkpt>
      <trkpt lat="62.636795660297" lon="17.978656828028">
        <ele>79.2</ele>
        <time>2018-02-18T13:34:48Z</time>
      </trkpt>
      <trkpt lat="62.636779231773" lon="17.978685075031">
        <ele>79.2</ele>
        <time>2018-02-18T13:34:49Z</time>
      </trkpt>
      <trkpt lat="62.636757606471" lon="17.978708963446">
        <ele>79.2</ele>
        <time>2018-02-18T13:34:50Z</time>
      </trkpt>
      <trkpt lat="62.636745452716" lon="17.978728660911">
        <ele>79.2</ele>
        <time>2018-02-18T13:34:51Z</time>
      </trkpt>
      <trkpt lat="62.6367317064" lon="17.978741904313">
        <ele>79.2</ele>
        <time>2018-02-18T13:34:52Z</time>
      </trkpt>
      <trkpt lat="62.636704968139" lon="17.978755482991">
        <ele>79.2</ele>
        <time>2018-02-18T13:34:53Z</time>
      </trkpt>
      <trkpt lat="62.636677726964" lon="17.978760428312">
        <ele>79.4</ele>
        <time>2018-02-18T13:34:54Z</time>
      </trkpt>
      <trkpt lat="62.636651910712" lon="17.978764619262">
        <ele>79.4</ele>
        <time>2018-02-18T13:34:55Z</time>
      </trkpt>
      <trkpt lat="62.636629531039" lon="17.978769313126">
        <ele>79.4</ele>
        <time>2018-02-18T13:34:56Z</time>
      </trkpt>
      <trkpt lat="62.63660765428" lon="17.978767972022">
        <ele>79.6</ele>
        <time>2018-02-18T13:34:57Z</time>
      </trkpt>
      <trkpt lat="62.636588292091" lon="17.978762523787">
        <ele>79.8</ele>
        <time>2018-02-18T13:34:58Z</time>
      </trkpt>
      <trkpt lat="62.636563565486" lon="17.978756572638">
        <ele>80</ele>
        <time>2018-02-18T13:34:59Z</time>
      </trkpt>
      <trkpt lat="62.63654395184" lon="17.978757075552">
        <ele>80.2</ele>
        <time>2018-02-18T13:35:00Z</time>
      </trkpt>
      <trkpt lat="62.636519309054" lon="17.978754225706">
        <ele>80.4</ele>
        <time>2018-02-18T13:35:01Z</time>
      </trkpt>
      <trkpt lat="62.636493241345" lon="17.978745173254">
        <ele>80.6</ele>
        <time>2018-02-18T13:35:02Z</time>
      </trkpt>
      <trkpt lat="62.636469772025" lon="17.978737294268">
        <ele>80.8</ele>
        <time>2018-02-18T13:35:03Z</time>
      </trkpt>
      <trkpt lat="62.636450661293" lon="17.978735785526">
        <ele>80.8</ele>
        <time>2018-02-18T13:35:04Z</time>
      </trkpt>
      <trkpt lat="62.636429371267" lon="17.9787396412">
        <ele>81</ele>
        <time>2018-02-18T13:35:05Z</time>
      </trkpt>
      <trkpt lat="62.63641487058" lon="17.978740395571">
        <ele>81</ele>
        <time>2018-02-18T13:35:06Z</time>
      </trkpt>
      <trkpt lat="62.636402046273" lon="17.978745592349">
        <ele>81.2</ele>
        <time>2018-02-18T13:35:07Z</time>
      </trkpt>
      <trkpt lat="62.636385701568" lon="17.978752884602">
        <ele>81.6</ele>
        <time>2018-02-18T13:35:08Z</time>
      </trkpt>
      <trkpt lat="62.636366171741" lon="17.978765960366">
        <ele>81.8</ele>
        <time>2018-02-18T13:35:09Z</time>
      </trkpt>
      <trkpt lat="62.636350749045" lon="17.978778281759">
        <ele>82</ele>
        <time>2018-02-18T13:35:10Z</time>
      </trkpt>
      <trkpt lat="62.636329207562" lon="17.97879663812">
        <ele>82.2</ele>
        <time>2018-02-18T13:35:11Z</time>
      </trkpt>
      <trkpt lat="62.63631344959" lon="17.978815329757">
        <ele>82.2</ele>
        <time>2018-02-18T13:35:12Z</time>
      </trkpt>
      <trkpt lat="62.636291908107" lon="17.978834943403">
        <ele>82.4</ele>
        <time>2018-02-18T13:35:13Z</time>
      </trkpt>
      <trkpt lat="62.636268774063" lon="17.978857658352">
        <ele>82.6</ele>
        <time>2018-02-18T13:35:14Z</time>
      </trkpt>
      <trkpt lat="62.636248992779" lon="17.978882468776">
        <ele>82.8</ele>
        <time>2018-02-18T13:35:15Z</time>
      </trkpt>
      <trkpt lat="62.636235078825" lon="17.978906692467">
        <ele>83.2</ele>
        <time>2018-02-18T13:35:16Z</time>
      </trkpt>
      <trkpt lat="62.636216890102" lon="17.978931335253">
        <ele>83.4</ele>
        <time>2018-02-18T13:35:17Z</time>
      </trkpt>
      <trkpt lat="62.63620113213" lon="17.97895086508">
        <ele>83.6</ele>
        <time>2018-02-18T13:35:18Z</time>
      </trkpt>
      <trkpt lat="62.636186296167" lon="17.978972909477">
        <ele>83.8</ele>
        <time>2018-02-18T13:35:19Z</time>
      </trkpt>
      <trkpt lat="62.63617347186" lon="17.97898690725">
        <ele>84.4</ele>
        <time>2018-02-18T13:35:20Z</time>
      </trkpt>
      <trkpt lat="62.636161150467" lon="17.979004593059">
        <ele>84.8</ele>
        <time>2018-02-18T13:35:21Z</time>
      </trkpt>
      <trkpt lat="62.636147739427" lon="17.979028146198">
        <ele>85</ele>
        <time>2018-02-18T13:35:22Z</time>
      </trkpt>
      <trkpt lat="62.636130640351" lon="17.979064942739">
        <ele>85.4</ele>
        <time>2018-02-18T13:35:23Z</time>
      </trkpt>
      <trkpt lat="62.636116810216" lon="17.979091429543">
        <ele>85.6</ele>
        <time>2018-02-18T13:35:24Z</time>
      </trkpt>
      <trkpt lat="62.636104907918" lon="17.979122777849">
        <ele>85.8</ele>
        <time>2018-02-18T13:35:25Z</time>
      </trkpt>
      <trkpt lat="62.636084204625" lon="17.979172398697">
        <ele>86</ele>
        <time>2018-02-18T13:35:27Z</time>
      </trkpt>
      <trkpt lat="62.636077834381" lon="17.979196538569">
        <ele>86.2</ele>
        <time>2018-02-18T13:35:28Z</time>
      </trkpt>
      <trkpt lat="62.636059226563" lon="17.979234340938">
        <ele>86.4</ele>
        <time>2018-02-18T13:35:29Z</time>
      </trkpt>
      <trkpt lat="62.636052185767" lon="17.979265689244">
        <ele>86.8</ele>
        <time>2018-02-18T13:35:30Z</time>
      </trkpt>
      <trkpt lat="62.636043971505" lon="17.979320171594">
        <ele>87</ele>
        <time>2018-02-18T13:35:31Z</time>
      </trkpt>
      <trkpt lat="62.636039026184" lon="17.979372642288">
        <ele>87.4</ele>
        <time>2018-02-18T13:35:32Z</time>
      </trkpt>
      <trkpt lat="62.636032404483" lon="17.979420670575">
        <ele>87.6</ele>
        <time>2018-02-18T13:35:33Z</time>
      </trkpt>
      <trkpt lat="62.636025698963" lon="17.979497448779">
        <ele>87.8</ele>
        <time>2018-02-18T13:35:34Z</time>
      </trkpt>
      <trkpt lat="62.636018658167" lon="17.979561486495">
        <ele>87.6</ele>
        <time>2018-02-18T13:35:35Z</time>
      </trkpt>
      <trkpt lat="62.636016814149" lon="17.979659303268">
        <ele>87.8</ele>
        <time>2018-02-18T13:35:36Z</time>
      </trkpt>
      <trkpt lat="62.636007091145" lon="17.979758796421">
        <ele>88</ele>
        <time>2018-02-18T13:35:37Z</time>
      </trkpt>
      <trkpt lat="62.636001056177" lon="17.979888967328">
        <ele>87.8</ele>
        <time>2018-02-18T13:35:38Z</time>
      </trkpt>
      <trkpt lat="62.635995607942" lon="17.980046295591">
        <ele>87.4</ele>
        <time>2018-02-18T13:35:39Z</time>
      </trkpt>
      <trkpt lat="62.636008180792" lon="17.980172191729">
        <ele>86.6</ele>
        <time>2018-02-18T13:35:40Z</time>
      </trkpt>
      <trkpt lat="62.636024357859" lon="17.980281240248">
        <ele>85.4</ele>
        <time>2018-02-18T13:35:41Z</time>
      </trkpt>
      <trkpt lat="62.636040367288" lon="17.980422978177">
        <ele>84.2</ele>
        <time>2018-02-18T13:35:42Z</time>
      </trkpt>
      <trkpt lat="62.636056795812" lon="17.980540743872">
        <ele>83</ele>
        <time>2018-02-18T13:35:43Z</time>
      </trkpt>
      <trkpt lat="62.636078504933" lon="17.980652809875">
        <ele>82</ele>
        <time>2018-02-18T13:35:44Z</time>
      </trkpt>
      <trkpt lat="62.636099208226" lon="17.980762277489">
        <ele>81.6</ele>
        <time>2018-02-18T13:35:45Z</time>
      </trkpt>
      <trkpt lat="62.63612066589" lon="17.980866464506">
        <ele>81.4</ele>
        <time>2018-02-18T13:35:46Z</time>
      </trkpt>
      <trkpt lat="62.636137345871" lon="17.980969561876">
        <ele>81.2</ele>
        <time>2018-02-18T13:35:47Z</time>
      </trkpt>
      <trkpt lat="62.636152852386" lon="17.981114987841">
        <ele>81</ele>
        <time>2018-02-18T13:35:48Z</time>
      </trkpt>
      <trkpt lat="62.636169783824" lon="17.981229736052">
        <ele>81</ele>
        <time>2018-02-18T13:35:49Z</time>
      </trkpt>
      <trkpt lat="62.636186547624" lon="17.981322439866">
        <ele>81</ele>
        <time>2018-02-18T13:35:50Z</time>
      </trkpt>
      <trkpt lat="62.636200042483" lon="17.981419166992">
        <ele>81.2</ele>
        <time>2018-02-18T13:35:51Z</time>
      </trkpt>
      <trkpt lat="62.636215129903" lon="17.981510613521">
        <ele>81</ele>
        <time>2018-02-18T13:35:52Z</time>
      </trkpt>
      <trkpt lat="62.636220913414" lon="17.981575154151">
        <ele>81.2</ele>
        <time>2018-02-18T13:35:53Z</time>
      </trkpt>
      <trkpt lat="62.636235665558" lon="17.981677078055">
        <ele>80.8</ele>
        <time>2018-02-18T13:35:54Z</time>
      </trkpt>
      <trkpt lat="62.636251758806" lon="17.981756454648">
        <ele>81</ele>
        <time>2018-02-18T13:35:55Z</time>
      </trkpt>
      <trkpt lat="62.636265253665" lon="17.981819654174">
        <ele>80.8</ele>
        <time>2018-02-18T13:35:56Z</time>
      </trkpt>
      <trkpt lat="62.636266427131" lon="17.98192979234">
        <ele>80.8</ele>
        <time>2018-02-18T13:35:57Z</time>
      </trkpt>
      <trkpt lat="62.63626567276" lon="17.982010510037">
        <ele>80.6</ele>
        <time>2018-02-18T13:35:58Z</time>
      </trkpt>
      <trkpt lat="62.636274976669" lon="17.982074715391">
        <ele>80.6</ele>
        <time>2018-02-18T13:35:59Z</time>
      </trkpt>
      <trkpt lat="62.63627992199" lon="17.982153086156">
        <ele>80.6</ele>
        <time>2018-02-18T13:36:00Z</time>
      </trkpt>
      <trkpt lat="62.63628327475" lon="17.982227768885">
        <ele>80.4</ele>
        <time>2018-02-18T13:36:01Z</time>
      </trkpt>
      <trkpt lat="62.636283442388" lon="17.982295662275">
        <ele>80.4</ele>
        <time>2018-02-18T13:36:02Z</time>
      </trkpt>
      <trkpt lat="62.636293835944" lon="17.982352826833">
        <ele>80.4</ele>
        <time>2018-02-18T13:36:03Z</time>
      </trkpt>
      <trkpt lat="62.636300122369" lon="17.982415188169">
        <ele>80.6</ele>
        <time>2018-02-18T13:36:04Z</time>
      </trkpt>
      <trkpt lat="62.636299787093" lon="17.98249221783">
        <ele>80.6</ele>
        <time>2018-02-18T13:36:05Z</time>
      </trkpt>
      <trkpt lat="62.636299451817" lon="17.982552316053">
        <ele>80.4</ele>
        <time>2018-02-18T13:36:06Z</time>
      </trkpt>
      <trkpt lat="62.636296601971" lon="17.982614761208">
        <ele>80.4</ele>
        <time>2018-02-18T13:36:07Z</time>
      </trkpt>
      <trkpt lat="62.636299703274" lon="17.982687097005">
        <ele>80.6</ele>
        <time>2018-02-18T13:36:08Z</time>
      </trkpt>
      <trkpt lat="62.636299954731" lon="17.982756666775">
        <ele>80.4</ele>
        <time>2018-02-18T13:36:09Z</time>
      </trkpt>
      <trkpt lat="62.636288052433" lon="17.982825901269">
        <ele>80.6</ele>
        <time>2018-02-18T13:36:10Z</time>
      </trkpt>
      <trkpt lat="62.636291237555" lon="17.982878371963">
        <ele>80.6</ele>
        <time>2018-02-18T13:36:11Z</time>
      </trkpt>
      <trkpt lat="62.636290650822" lon="17.982932938132">
        <ele>80.6</ele>
        <time>2018-02-18T13:36:12Z</time>
      </trkpt>
      <trkpt lat="62.636279335257" lon="17.983021199539">
        <ele>80.8</ele>
        <time>2018-02-18T13:36:13Z</time>
      </trkpt>
      <trkpt lat="62.636280089628" lon="17.983088254739">
        <ele>80.8</ele>
        <time>2018-02-18T13:36:14Z</time>
      </trkpt>
      <trkpt lat="62.636280173447" lon="17.983141563623">
        <ele>80.8</ele>
        <time>2018-02-18T13:36:15Z</time>
      </trkpt>
      <trkpt lat="62.636276066316" lon="17.983200572199">
        <ele>81</ele>
        <time>2018-02-18T13:36:16Z</time>
      </trkpt>
      <trkpt lat="62.63628495113" lon="17.983259245499">
        <ele>81</ele>
        <time>2018-02-18T13:36:17Z</time>
      </trkpt>
      <trkpt lat="62.636278329429" lon="17.983337616264">
        <ele>81</ele>
        <time>2018-02-18T13:36:18Z</time>
      </trkpt>
      <trkpt lat="62.636276736868" lon="17.983398887953">
        <ele>81</ele>
        <time>2018-02-18T13:36:19Z</time>
      </trkpt>
      <trkpt lat="62.636279670533" lon="17.983457058339">
        <ele>81</ele>
        <time>2018-02-18T13:36:20Z</time>
      </trkpt>
      <trkpt lat="62.636269193158" lon="17.983513468526">
        <ele>81.2</ele>
        <time>2018-02-18T13:36:21Z</time>
      </trkpt>
      <trkpt lat="62.636267852054" lon="17.983570549265">
        <ele>81.2</ele>
        <time>2018-02-18T13:36:22Z</time>
      </trkpt>
      <trkpt lat="62.636265756579" lon="17.983611788213">
        <ele>81</ele>
        <time>2018-02-18T13:36:23Z</time>
      </trkpt>
      <trkpt lat="62.636255698299" lon="17.983673646635">
        <ele>81.2</ele>
        <time>2018-02-18T13:36:24Z</time>
      </trkpt>
      <trkpt lat="62.636246981123" lon="17.983726787881">
        <ele>81.4</ele>
        <time>2018-02-18T13:36:25Z</time>
      </trkpt>
      <trkpt lat="62.636242538716" lon="17.983775067625">
        <ele>81.6</ele>
        <time>2018-02-18T13:36:26Z</time>
      </trkpt>
      <trkpt lat="62.636233402445" lon="17.983839021522">
        <ele>81.8</ele>
        <time>2018-02-18T13:36:27Z</time>
      </trkpt>
      <trkpt lat="62.636231223151" lon="17.983892665682">
        <ele>81.8</ele>
        <time>2018-02-18T13:36:28Z</time>
      </trkpt>
      <trkpt lat="62.636232312798" lon="17.983940274874">
        <ele>82</ele>
        <time>2018-02-18T13:36:29Z</time>
      </trkpt>
      <trkpt lat="62.636222170699" lon="17.984008922635">
        <ele>82.2</ele>
        <time>2018-02-18T13:36:30Z</time>
      </trkpt>
      <trkpt lat="62.636219488491" lon="17.984070697238">
        <ele>82.2</ele>
        <time>2018-02-18T13:36:31Z</time>
      </trkpt>
      <trkpt lat="62.636218231206" lon="17.984117803516">
        <ele>82.2</ele>
        <time>2018-02-18T13:36:32Z</time>
      </trkpt>
      <trkpt lat="62.636216554826" lon="17.98416021593">
        <ele>82.2</ele>
        <time>2018-02-18T13:36:33Z</time>
      </trkpt>
      <trkpt lat="62.636218315025" lon="17.984207070751">
        <ele>82.4</ele>
        <time>2018-02-18T13:36:34Z</time>
      </trkpt>
      <trkpt lat="62.636212531514" lon="17.984244202568">
        <ele>82.4</ele>
        <time>2018-02-18T13:36:35Z</time>
      </trkpt>
      <trkpt lat="62.636206748003" lon="17.984304133153">
        <ele>82.6</ele>
        <time>2018-02-18T13:36:36Z</time>
      </trkpt>
      <trkpt lat="62.636209094935" lon="17.98435970515">
        <ele>82.4</ele>
        <time>2018-02-18T13:36:37Z</time>
      </trkpt>
      <trkpt lat="62.636204401071" lon="17.984410415645">
        <ele>82.6</ele>
        <time>2018-02-18T13:36:38Z</time>
      </trkpt>
      <trkpt lat="62.636200545397" lon="17.984464730357">
        <ele>82.6</ele>
        <time>2018-02-18T13:36:39Z</time>
      </trkpt>
      <trkpt lat="62.636194678067" lon="17.984509322065">
        <ele>82.6</ele>
        <time>2018-02-18T13:36:40Z</time>
      </trkpt>
      <trkpt lat="62.636193504601" lon="17.984566318985">
        <ele>82.6</ele>
        <time>2018-02-18T13:36:41Z</time>
      </trkpt>
      <trkpt lat="62.636186296167" lon="17.984629518511">
        <ele>82.6</ele>
        <time>2018-02-18T13:36:42Z</time>
      </trkpt>
      <trkpt lat="62.636183697778" lon="17.984682743576">
        <ele>82.8</ele>
        <time>2018-02-18T13:36:43Z</time>
      </trkpt>
      <trkpt lat="62.636174393869" lon="17.984754995554">
        <ele>82.8</ele>
        <time>2018-02-18T13:36:44Z</time>
      </trkpt>
      <trkpt lat="62.636170370557" lon="17.984804951678">
        <ele>83</ele>
        <time>2018-02-18T13:36:45Z</time>
      </trkpt>
      <trkpt lat="62.636169029453" lon="17.98485675182">
        <ele>83.2</ele>
        <time>2018-02-18T13:36:46Z</time>
      </trkpt>
      <trkpt lat="62.636159390268" lon="17.984922298278">
        <ele>83.4</ele>
        <time>2018-02-18T13:36:47Z</time>
      </trkpt>
      <trkpt lat="62.636156959517" lon="17.984989353478">
        <ele>83.4</ele>
        <time>2018-02-18T13:36:48Z</time>
      </trkpt>
      <trkpt lat="62.63615838444" lon="17.985032352625">
        <ele>83.6</ele>
        <time>2018-02-18T13:36:49Z</time>
      </trkpt>
      <trkpt lat="62.636152265653" lon="17.985088511355">
        <ele>83.6</ele>
        <time>2018-02-18T13:36:50Z</time>
      </trkpt>
      <trkpt lat="62.636144889581" lon="17.98515598565">
        <ele>83.8</ele>
        <time>2018-02-18T13:36:51Z</time>
      </trkpt>
      <trkpt lat="62.636146901237" lon="17.985198062788">
        <ele>84</ele>
        <time>2018-02-18T13:36:52Z</time>
      </trkpt>
      <trkpt lat="62.636137848785" lon="17.985247767455">
        <ele>84</ele>
        <time>2018-02-18T13:36:53Z</time>
      </trkpt>
      <trkpt lat="62.636120079157" lon="17.985341896192">
        <ele>84.2</ele>
        <time>2018-02-18T13:36:54Z</time>
      </trkpt>
      <trkpt lat="62.636116223483" lon="17.985376178163">
        <ele>84.2</ele>
        <time>2018-02-18T13:36:55Z</time>
      </trkpt>
      <trkpt lat="62.63610725485" lon="17.985456812041">
        <ele>84.2</ele>
        <time>2018-02-18T13:36:56Z</time>
      </trkpt>
      <trkpt lat="62.636101303701" lon="17.985514479513">
        <ele>84.2</ele>
        <time>2018-02-18T13:36:57Z</time>
      </trkpt>
      <trkpt lat="62.63609635838" lon="17.98556418418">
        <ele>84.2</ele>
        <time>2018-02-18T13:36:58Z</time>
      </trkpt>
      <trkpt lat="62.636092921801" lon="17.98562285748">
        <ele>84.4</ele>
        <time>2018-02-18T13:36:59Z</time>
      </trkpt>
      <trkpt lat="62.636081773874" lon="17.985676585459">
        <ele>84.4</ele>
        <time>2018-02-18T13:37:00Z</time>
      </trkpt>
      <trkpt lat="62.636074146345" lon="17.98572763123">
        <ele>84.6</ele>
        <time>2018-02-18T13:37:01Z</time>
      </trkpt>
      <trkpt lat="62.636058891287" lon="17.985768786359">
        <ele>84.6</ele>
        <time>2018-02-18T13:37:02Z</time>
      </trkpt>
      <trkpt lat="62.63604774336" lon="17.985803152149">
        <ele>84.8</ele>
        <time>2018-02-18T13:37:03Z</time>
      </trkpt>
      <trkpt lat="62.636048162455" lon="17.985844055821">
        <ele>84.8</ele>
        <time>2018-02-18T13:37:04Z</time>
      </trkpt>
      <trkpt lat="62.636030895741" lon="17.985883199294">
        <ele>84.8</ele>
        <time>2018-02-18T13:37:05Z</time>
      </trkpt>
      <trkpt lat="62.636019077262" lon="17.985918403274">
        <ele>85</ele>
        <time>2018-02-18T13:37:06Z</time>
      </trkpt>
      <trkpt lat="62.636007761697" lon="17.985949081028">
        <ele>85</ele>
        <time>2018-02-18T13:37:07Z</time>
      </trkpt>
      <trkpt lat="62.635996949046" lon="17.985967269751">
        <ele>85.2</ele>
        <time>2018-02-18T13:37:08Z</time>
      </trkpt>
      <trkpt lat="62.635974485554" lon="17.985992331632">
        <ele>85.2</ele>
        <time>2018-02-18T13:37:09Z</time>
      </trkpt>
      <trkpt lat="62.635960990695" lon="17.985998785695">
        <ele>85.4</ele>
        <time>2018-02-18T13:37:10Z</time>
      </trkpt>
      <trkpt lat="62.635948250207" lon="17.986018315522">
        <ele>85.6</ele>
        <time>2018-02-18T13:37:11Z</time>
      </trkpt>
      <trkpt lat="62.635932408416" lon="17.986026613603">
        <ele>85.6</ele>
        <time>2018-02-18T13:37:12Z</time>
      </trkpt>
      <trkpt lat="62.635920087023" lon="17.986038934996">
        <ele>85.8</ele>
        <time>2018-02-18T13:37:13Z</time>
      </trkpt>
      <trkpt lat="62.635900305739" lon="17.986068355465">
        <ele>86</ele>
        <time>2018-02-18T13:37:14Z</time>
      </trkpt>
      <trkpt lat="62.635877423152" lon="17.98609308207">
        <ele>85.8</ele>
        <time>2018-02-18T13:37:15Z</time>
      </trkpt>
      <trkpt lat="62.635858982972" lon="17.986136081217">
        <ele>85.8</ele>
        <time>2018-02-18T13:37:16Z</time>
      </trkpt>
      <trkpt lat="62.635838614955" lon="17.98615846089">
        <ele>85.8</ele>
        <time>2018-02-18T13:37:17Z</time>
      </trkpt>
      <trkpt lat="62.635815313273" lon="17.986184780056">
        <ele>85.8</ele>
        <time>2018-02-18T13:37:18Z</time>
      </trkpt>
      <trkpt lat="62.635794442342" lon="17.986221073683">
        <ele>86</ele>
        <time>2018-02-18T13:37:19Z</time>
      </trkpt>
      <trkpt lat="62.635782791501" lon="17.986260133337">
        <ele>86</ele>
        <time>2018-02-18T13:37:20Z</time>
      </trkpt>
      <trkpt lat="62.63576275876" lon="17.986292906566">
        <ele>86.2</ele>
        <time>2018-02-18T13:37:21Z</time>
      </trkpt>
      <trkpt lat="62.635735517585" lon="17.986341773043">
        <ele>86.4</ele>
        <time>2018-02-18T13:37:22Z</time>
      </trkpt>
      <trkpt lat="62.63572923116" lon="17.986368176028">
        <ele>86.6</ele>
        <time>2018-02-18T13:37:23Z</time>
      </trkpt>
      <trkpt lat="62.635698804863" lon="17.986435315047">
        <ele>86.8</ele>
        <time>2018-02-18T13:37:24Z</time>
      </trkpt>
      <trkpt lat="62.635673826801" lon="17.986476553995">
        <ele>87</ele>
        <time>2018-02-18T13:37:25Z</time>
      </trkpt>
      <trkpt lat="62.635664355254" lon="17.986514272545">
        <ele>87.2</ele>
        <time>2018-02-18T13:37:26Z</time>
      </trkpt>
      <trkpt lat="62.63565127949" lon="17.98657252675">
        <ele>87.4</ele>
        <time>2018-02-18T13:37:27Z</time>
      </trkpt>
      <trkpt lat="62.635638203726" lon="17.986619716847">
        <ele>87.6</ele>
        <time>2018-02-18T13:37:28Z</time>
      </trkpt>
      <trkpt lat="62.635622529573" lon="17.986662045442">
        <ele>87.6</ele>
        <time>2018-02-18T13:37:29Z</time>
      </trkpt>
      <trkpt lat="62.635606268687" lon="17.986695824499">
        <ele>87.6</ele>
        <time>2018-02-18T13:37:30Z</time>
      </trkpt>
      <trkpt lat="62.635586655041" lon="17.986732201945">
        <ele>87.6</ele>
        <time>2018-02-18T13:37:31Z</time>
      </trkpt>
      <trkpt lat="62.635570897069" lon="17.986767908839">
        <ele>87.8</ele>
        <time>2018-02-18T13:37:32Z</time>
      </trkpt>
      <trkpt lat="62.635552456889" lon="17.986801604077">
        <ele>87.8</ele>
        <time>2018-02-18T13:37:33Z</time>
      </trkpt>
      <trkpt lat="62.635540470772" lon="17.986851895477">
        <ele>88</ele>
        <time>2018-02-18T13:37:34Z</time>
      </trkpt>
      <trkpt lat="62.635517336728" lon="17.986914005356">
        <ele>88.2</ele>
        <time>2018-02-18T13:37:35Z</time>
      </trkpt>
      <trkpt lat="62.635503422774" lon="17.986941581807">
        <ele>88.4</ele>
        <time>2018-02-18T13:37:36Z</time>
      </trkpt>
      <trkpt lat="62.635476852151" lon="17.986978126891">
        <ele>88.4</ele>
        <time>2018-02-18T13:37:37Z</time>
      </trkpt>
      <trkpt lat="62.635460423627" lon="17.987010313387">
        <ele>88.4</ele>
        <time>2018-02-18T13:37:38Z</time>
      </trkpt>
      <trkpt lat="62.635437038126" lon="17.98706538247">
        <ele>88.6</ele>
        <time>2018-02-18T13:37:39Z</time>
      </trkpt>
      <trkpt lat="62.635412646797" lon="17.987104442124">
        <ele>88.6</ele>
        <time>2018-02-18T13:37:40Z</time>
      </trkpt>
      <trkpt lat="62.635399738671" lon="17.987130258376">
        <ele>88.6</ele>
        <time>2018-02-18T13:37:41Z</time>
      </trkpt>
      <trkpt lat="62.635373084229" lon="17.987184321631">
        <ele>88.8</ele>
        <time>2018-02-18T13:37:42Z</time>
      </trkpt>
      <trkpt lat="62.635362271578" lon="17.987218687421">
        <ele>88.8</ele>
        <time>2018-02-18T13:37:43Z</time>
      </trkpt>
      <trkpt lat="62.6353486929" lon="17.98726235712">
        <ele>89</ele>
        <time>2018-02-18T13:37:44Z</time>
      </trkpt>
      <trkpt lat="62.635324553028" lon="17.987302506421">
        <ele>89</ele>
        <time>2018-02-18T13:37:45Z</time>
      </trkpt>
      <trkpt lat="62.635313991834" lon="17.987335950202">
        <ele>89.2</ele>
        <time>2018-02-18T13:37:46Z</time>
      </trkpt>
      <trkpt lat="62.635301586622" lon="17.987373165838">
        <ele>89.2</ele>
        <time>2018-02-18T13:37:47Z</time>
      </trkpt>
      <trkpt lat="62.635281972976" lon="17.987419769202">
        <ele>89.4</ele>
        <time>2018-02-18T13:37:48Z</time>
      </trkpt>
      <trkpt lat="62.635261353502" lon="17.987462935987">
        <ele>89.6</ele>
        <time>2018-02-18T13:37:49Z</time>
      </trkpt>
      <trkpt lat="62.6352481101" lon="17.987499648709">
        <ele>89.6</ele>
        <time>2018-02-18T13:37:50Z</time>
      </trkpt>
      <trkpt lat="62.635225395151" lon="17.987536193793">
        <ele>89.8</ele>
        <time>2018-02-18T13:37:51Z</time>
      </trkpt>
      <trkpt lat="62.635216510337" lon="17.987568045013">
        <ele>89.8</ele>
        <time>2018-02-18T13:37:52Z</time>
      </trkpt>
      <trkpt lat="62.635204188944" lon="17.987611966169">
        <ele>90.4</ele>
        <time>2018-02-18T13:37:53Z</time>
      </trkpt>
      <trkpt lat="62.635195639406" lon="17.987677009713">
        <ele>90.4</ele>
        <time>2018-02-18T13:37:54Z</time>
      </trkpt>
      <trkpt lat="62.635192119008" lon="17.98773090533">
        <ele>90.6</ele>
        <time>2018-02-18T13:37:55Z</time>
      </trkpt>
      <trkpt lat="62.635187592782" lon="17.98776946207">
        <ele>90.8</ele>
        <time>2018-02-18T13:37:56Z</time>
      </trkpt>
      <trkpt lat="62.635179881434" lon="17.987814808149">
        <ele>91</ele>
        <time>2018-02-18T13:37:57Z</time>
      </trkpt>
      <trkpt lat="62.635162782358" lon="17.987860573323">
        <ele>90.8</ele>
        <time>2018-02-18T13:37:58Z</time>
      </trkpt>
      <trkpt lat="62.635159597236" lon="17.987894603837">
        <ele>90.8</ele>
        <time>2018-02-18T13:37:59Z</time>
      </trkpt>
      <trkpt lat="62.635145683282" lon="17.987946571617">
        <ele>91.2</ele>
        <time>2018-02-18T13:38:00Z</time>
      </trkpt>
      <trkpt lat="62.635134786812" lon="17.987997952664">
        <ele>91.2</ele>
        <time>2018-02-18T13:38:01Z</time>
      </trkpt>
      <trkpt lat="62.635126069636" lon="17.988048495521">
        <ele>91.2</ele>
        <time>2018-02-18T13:38:02Z</time>
      </trkpt>
      <trkpt lat="62.635115592261" lon="17.988095769437">
        <ele>91.4</ele>
        <time>2018-02-18T13:38:03Z</time>
      </trkpt>
      <trkpt lat="62.635089524552" lon="17.988159639515">
        <ele>91.4</ele>
        <time>2018-02-18T13:38:04Z</time>
      </trkpt>
      <trkpt lat="62.635080136824" lon="17.988198363893">
        <ele>91.4</ele>
        <time>2018-02-18T13:38:05Z</time>
      </trkpt>
      <trkpt lat="62.635069659449" lon="17.98823214295">
        <ele>91.4</ele>
        <time>2018-02-18T13:38:06Z</time>
      </trkpt>
      <trkpt lat="62.635054152934" lon="17.98828075797">
        <ele>91.4</ele>
        <time>2018-02-18T13:38:07Z</time>
      </trkpt>
      <trkpt lat="62.635036802401" lon="17.988313531199">
        <ele>91.4</ele>
        <time>2018-02-18T13:38:08Z</time>
      </trkpt>
      <trkpt lat="62.635008806855" lon="17.988353429043">
        <ele>91.6</ele>
        <time>2018-02-18T13:38:09Z</time>
      </trkpt>
      <trkpt lat="62.63500084405" lon="17.988372204499">
        <ele>91.8</ele>
        <time>2018-02-18T13:38:10Z</time>
      </trkpt>
      <trkpt lat="62.634992210693" lon="17.988388381566">
        <ele>92</ele>
        <time>2018-02-18T13:38:11Z</time>
      </trkpt>
      <trkpt lat="62.634964718061" lon="17.988408581945">
        <ele>92.2</ele>
        <time>2018-02-18T13:38:12Z</time>
      </trkpt>
      <trkpt lat="62.634917276507" lon="17.988435152568">
        <ele>92.4</ele>
        <time>2018-02-18T13:38:13Z</time>
      </trkpt>
      <trkpt lat="62.634902105268" lon="17.988449150341">
        <ele>92.4</ele>
        <time>2018-02-18T13:38:14Z</time>
      </trkpt>
      <trkpt lat="62.634888861866" lon="17.988458202793">
        <ele>92.4</ele>
        <time>2018-02-18T13:38:15Z</time>
      </trkpt>
      <trkpt lat="62.634863045614" lon="17.98846515977">
        <ele>92.6</ele>
        <time>2018-02-18T13:38:16Z</time>
      </trkpt>
      <trkpt lat="62.63484494071" lon="17.988487539443">
        <ele>92.6</ele>
        <time>2018-02-18T13:38:17Z</time>
      </trkpt>
      <trkpt lat="62.634831697308" lon="17.988503129777">
        <ele>92.8</ele>
        <time>2018-02-18T13:38:18Z</time>
      </trkpt>
      <trkpt lat="62.634805294323" lon="17.988521067043">
        <ele>93</ele>
        <time>2018-02-18T13:38:19Z</time>
      </trkpt>
      <trkpt lat="62.634786770324" lon="17.988544117268">
        <ele>93</ele>
        <time>2018-02-18T13:38:20Z</time>
      </trkpt>
      <trkpt lat="62.634771431447" lon="17.988561803077">
        <ele>93</ele>
        <time>2018-02-18T13:38:21Z</time>
      </trkpt>
      <trkpt lat="62.634744106453" lon="17.988573202461">
        <ele>93.2</ele>
        <time>2018-02-18T13:38:22Z</time>
      </trkpt>
      <trkpt lat="62.634724995721" lon="17.988583260741">
        <ele>93.2</ele>
        <time>2018-02-18T13:38:23Z</time>
      </trkpt>
      <trkpt lat="62.634702280772" lon="17.988595833591">
        <ele>93.2</ele>
        <time>2018-02-18T13:38:24Z</time>
      </trkpt>
      <trkpt lat="62.634680320194" lon="17.988615866332">
        <ele>93.2</ele>
        <time>2018-02-18T13:38:25Z</time>
      </trkpt>
      <trkpt lat="62.634633800649" lon="17.988630534657">
        <ele>93.2</ele>
        <time>2018-02-18T13:38:26Z</time>
      </trkpt>
      <trkpt lat="62.634608403492" lon="17.988633133046">
        <ele>93.4</ele>
        <time>2018-02-18T13:38:27Z</time>
      </trkpt>
      <trkpt lat="62.634595579185" lon="17.988643107507">
        <ele>93.6</ele>
        <time>2018-02-18T13:38:28Z</time>
      </trkpt>
      <trkpt lat="62.634585772362" lon="17.988656602366">
        <ele>93.6</ele>
        <time>2018-02-18T13:38:29Z</time>
      </trkpt>
      <trkpt lat="62.634572361322" lon="17.988665822456">
        <ele>93.6</ele>
        <time>2018-02-18T13:38:30Z</time>
      </trkpt>
      <trkpt lat="62.634557022445" lon="17.988686190473">
        <ele>93.8</ele>
        <time>2018-02-18T13:38:31Z</time>
      </trkpt>
      <trkpt lat="62.634541935025" lon="17.988701696988">
        <ele>94</ele>
        <time>2018-02-18T13:38:32Z</time>
      </trkpt>
      <trkpt lat="62.634519303895" lon="17.988727429421">
        <ele>94.2</ele>
        <time>2018-02-18T13:38:33Z</time>
      </trkpt>
      <trkpt lat="62.63449457729" lon="17.988748887085">
        <ele>94.6</ele>
        <time>2018-02-18T13:38:34Z</time>
      </trkpt>
      <trkpt lat="62.634481752983" lon="17.988769003645">
        <ele>94.8</ele>
        <time>2018-02-18T13:38:35Z</time>
      </trkpt>
      <trkpt lat="62.634463396622" lon="17.988803537073">
        <ele>95</ele>
        <time>2018-02-18T13:38:36Z</time>
      </trkpt>
      <trkpt lat="62.634442441872" lon="17.988841087985">
        <ele>95</ele>
        <time>2018-02-18T13:38:37Z</time>
      </trkpt>
      <trkpt lat="62.634435568714" lon="17.988871765739">
        <ele>95.2</ele>
        <time>2018-02-18T13:38:38Z</time>
      </trkpt>
      <trkpt lat="62.634417212353" lon="17.98891107685">
        <ele>95.2</ele>
        <time>2018-02-18T13:38:39Z</time>
      </trkpt>
      <trkpt lat="62.634404304227" lon="17.988946867563">
        <ele>95.4</ele>
        <time>2018-02-18T13:38:40Z</time>
      </trkpt>
      <trkpt lat="62.634391563739" lon="17.988971342711">
        <ele>95.6</ele>
        <time>2018-02-18T13:38:41Z</time>
      </trkpt>
      <trkpt lat="62.634363735831" lon="17.989011492012">
        <ele>95.8</ele>
        <time>2018-02-18T13:38:42Z</time>
      </trkpt>
      <trkpt lat="62.63435292318" lon="17.989046360716">
        <ele>95.8</ele>
        <time>2018-02-18T13:38:43Z</time>
      </trkpt>
      <trkpt lat="62.634342278167" lon="17.989076284099">
        <ele>96</ele>
        <time>2018-02-18T13:38:44Z</time>
      </trkpt>
      <trkpt lat="62.634321993969" lon="17.989107632405">
        <ele>96</ele>
        <time>2018-02-18T13:38:45Z</time>
      </trkpt>
      <trkpt lat="62.634316461915" lon="17.989152810846">
        <ele>96.2</ele>
        <time>2018-02-18T13:38:46Z</time>
      </trkpt>
      <trkpt lat="62.634294836613" lon="17.989179549107">
        <ele>96.2</ele>
        <time>2018-02-18T13:38:47Z</time>
      </trkpt>
      <trkpt lat="62.63427916246" lon="17.989226487747">
        <ele>96.2</ele>
        <time>2018-02-18T13:38:48Z</time>
      </trkpt>
      <trkpt lat="62.634250161086" lon="17.98926311665">
        <ele>96.2</ele>
        <time>2018-02-18T13:38:49Z</time>
      </trkpt>
      <trkpt lat="62.63422384192" lon="17.989296728069">
        <ele>96.2</ele>
        <time>2018-02-18T13:38:50Z</time>
      </trkpt>
      <trkpt lat="62.634208335405" lon="17.989344504899">
        <ele>96.2</ele>
        <time>2018-02-18T13:38:51Z</time>
      </trkpt>
      <trkpt lat="62.634183524981" lon="17.989367219848">
        <ele>96.4</ele>
        <time>2018-02-18T13:38:52Z</time>
      </trkpt>
      <trkpt lat="62.634166258267" lon="17.989376775214">
        <ele>96.4</ele>
        <time>2018-02-18T13:38:53Z</time>
      </trkpt>
      <trkpt lat="62.634140525834" lon="17.989407117692">
        <ele>96.4</ele>
        <time>2018-02-18T13:38:54Z</time>
      </trkpt>
      <trkpt lat="62.634126192785" lon="17.989427150433">
        <ele>96.6</ele>
        <time>2018-02-18T13:38:55Z</time>
      </trkpt>
      <trkpt lat="62.634098364877" lon="17.989454726884">
        <ele>96.8</ele>
        <time>2018-02-18T13:38:56Z</time>
      </trkpt>
      <trkpt lat="62.634078583593" lon="17.989477860928">
        <ele>96.8</ele>
        <time>2018-02-18T13:38:57Z</time>
      </trkpt>
      <trkpt lat="62.634061819793" lon="17.989503258085">
        <ele>96.8</ele>
        <time>2018-02-18T13:38:58Z</time>
      </trkpt>
      <trkpt lat="62.634044553079" lon="17.989519267514">
        <ele>97</ele>
        <time>2018-02-18T13:38:59Z</time>
      </trkpt>
      <trkpt lat="62.634013959144" lon="17.989535779857">
        <ele>97</ele>
        <time>2018-02-18T13:39:00Z</time>
      </trkpt>
      <trkpt lat="62.633990238367" lon="17.989565032688">
        <ele>97</ele>
        <time>2018-02-18T13:39:01Z</time>
      </trkpt>
      <trkpt lat="62.633974480395" lon="17.989581125936">
        <ele>97.2</ele>
        <time>2018-02-18T13:39:02Z</time>
      </trkpt>
      <trkpt lat="62.633960734079" lon="17.989603673247">
        <ele>97.2</ele>
        <time>2018-02-18T13:39:03Z</time>
      </trkpt>
      <trkpt lat="62.633914885086" lon="17.989636530295">
        <ele>97.4</ele>
        <time>2018-02-18T13:39:04Z</time>
      </trkpt>
      <trkpt lat="62.633899797666" lon="17.989666956592">
        <ele>97.4</ele>
        <time>2018-02-18T13:39:05Z</time>
      </trkpt>
      <trkpt lat="62.633879513468" lon="17.989683552754">
        <ele>97.4</ele>
        <time>2018-02-18T13:39:06Z</time>
      </trkpt>
      <trkpt lat="62.633851098827" lon="17.989723031503">
        <ele>97.4</ele>
        <time>2018-02-18T13:39:07Z</time>
      </trkpt>
      <trkpt lat="62.633825953127" lon="17.98977105979">
        <ele>97.4</ele>
        <time>2018-02-18T13:39:08Z</time>
      </trkpt>
      <trkpt lat="62.633809943698" lon="17.98981380748">
        <ele>97.4</ele>
        <time>2018-02-18T13:39:09Z</time>
      </trkpt>
      <trkpt lat="62.633779852677" lon="17.98988170087">
        <ele>97.6</ele>
        <time>2018-02-18T13:39:10Z</time>
      </trkpt>
      <trkpt lat="62.633765100533" lon="17.989917659221">
        <ele>97.6</ele>
        <time>2018-02-18T13:39:11Z</time>
      </trkpt>
      <trkpt lat="62.633741966489" lon="17.989957305608">
        <ele>97.6</ele>
        <time>2018-02-18T13:39:12Z</time>
      </trkpt>
      <trkpt lat="62.63372008973" lon="17.989998376918">
        <ele>97.8</ele>
        <time>2018-02-18T13:39:13Z</time>
      </trkpt>
      <trkpt lat="62.633699218799" lon="17.990043303902">
        <ele>97.8</ele>
        <time>2018-02-18T13:39:14Z</time>
      </trkpt>
      <trkpt lat="62.633704331758" lon="17.990057050218">
        <ele>97.8</ele>
        <time>2018-02-18T13:39:15Z</time>
      </trkpt>
      <trkpt lat="62.633676587669" lon="17.990104994686">
        <ele>97.8</ele>
        <time>2018-02-18T13:39:16Z</time>
      </trkpt>
      <trkpt lat="62.633662003163" lon="17.990145814539">
        <ele>97.8</ele>
        <time>2018-02-18T13:39:17Z</time>
      </trkpt>
      <trkpt lat="62.633645407001" lon="17.99018428746">
        <ele>97.8</ele>
        <time>2018-02-18T13:39:18Z</time>
      </trkpt>
      <trkpt lat="62.633618836378" lon="17.990233573032">
        <ele>97.8</ele>
        <time>2018-02-18T13:39:19Z</time>
      </trkpt>
      <trkpt lat="62.633599222732" lon="17.990277075093">
        <ele>98</ele>
        <time>2018-02-18T13:39:20Z</time>
      </trkpt>
      <trkpt lat="62.633587236615" lon="17.990294677083">
        <ele>98.4</ele>
        <time>2018-02-18T13:39:21Z</time>
      </trkpt>
      <trkpt lat="62.633567706788" lon="17.990314542186">
        <ele>98.4</ele>
        <time>2018-02-18T13:39:22Z</time>
      </trkpt>
      <trkpt lat="62.633546752038" lon="17.990334826384">
        <ele>98.6</ele>
        <time>2018-02-18T13:39:23Z</time>
      </trkpt>
      <trkpt lat="62.63351557137" lon="17.99035863098">
        <ele>98.8</ele>
        <time>2018-02-18T13:39:24Z</time>
      </trkpt>
      <trkpt lat="62.633486653815" lon="17.99037455659">
        <ele>98.8</ele>
        <time>2018-02-18T13:39:25Z</time>
      </trkpt>
      <trkpt lat="62.633482211408" lon="17.990402384498">
        <ele>98.8</ele>
        <time>2018-02-18T13:39:26Z</time>
      </trkpt>
      <trkpt lat="62.633447091247" lon="17.99042484799">
        <ele>99</ele>
        <time>2018-02-18T13:39:27Z</time>
      </trkpt>
      <trkpt lat="62.633420436805" lon="17.990439767772">
        <ele>99</ele>
        <time>2018-02-18T13:39:28Z</time>
      </trkpt>
      <trkpt lat="62.633401912806" lon="17.990455106649">
        <ele>99</ele>
        <time>2018-02-18T13:39:29Z</time>
      </trkpt>
      <trkpt lat="62.633369893948" lon="17.990467428042">
        <ele>99</ele>
        <time>2018-02-18T13:39:30Z</time>
      </trkpt>
      <trkpt lat="62.633348017189" lon="17.990484024204">
        <ele>99</ele>
        <time>2018-02-18T13:39:31Z</time>
      </trkpt>
      <trkpt lat="62.633315579236" lon="17.990509086085">
        <ele>99.2</ele>
        <time>2018-02-18T13:39:32Z</time>
      </trkpt>
      <trkpt lat="62.633285320577" lon="17.990530711387">
        <ele>99.2</ele>
        <time>2018-02-18T13:39:33Z</time>
      </trkpt>
      <trkpt lat="62.633261432162" lon="17.990550911766">
        <ele>99</ele>
        <time>2018-02-18T13:39:34Z</time>
      </trkpt>
      <trkpt lat="62.633231927874" lon="17.990585109918">
        <ele>99</ele>
        <time>2018-02-18T13:39:35Z</time>
      </trkpt>
      <trkpt lat="62.633212314228" lon="17.99060924979">
        <ele>99</ele>
        <time>2018-02-18T13:39:36Z</time>
      </trkpt>
      <trkpt lat="62.633185911243" lon="17.990656942801">
        <ele>99</ele>
        <time>2018-02-18T13:39:37Z</time>
      </trkpt>
      <trkpt lat="62.633163447751" lon="17.99070145069">
        <ele>98.8</ele>
        <time>2018-02-18T13:39:38Z</time>
      </trkpt>
      <trkpt lat="62.633149952892" lon="17.99074336019">
        <ele>98.8</ele>
        <time>2018-02-18T13:39:39Z</time>
      </trkpt>
      <trkpt lat="62.633130506884" lon="17.99079029883">
        <ele>98.8</ele>
        <time>2018-02-18T13:39:40Z</time>
      </trkpt>
      <trkpt lat="62.633116173835" lon="17.990829945217">
        <ele>98.8</ele>
        <time>2018-02-18T13:39:41Z</time>
      </trkpt>
      <trkpt lat="62.633105612641" lon="17.990881912997">
        <ele>98.8</ele>
        <time>2018-02-18T13:39:42Z</time>
      </trkpt>
      <trkpt lat="62.633085160805" lon="17.990933126406">
        <ele>98.8</ele>
        <time>2018-02-18T13:39:43Z</time>
      </trkpt>
      <trkpt lat="62.633061104752" lon="17.990987189661">
        <ele>98.8</ele>
        <time>2018-02-18T13:39:44Z</time>
      </trkpt>
      <trkpt lat="62.633058422544" lon="17.991031613731">
        <ele>98.8</ele>
        <time>2018-02-18T13:39:45Z</time>
      </trkpt>
      <trkpt lat="62.633029840265" lon="17.991084335882">
        <ele>99</ele>
        <time>2018-02-18T13:39:46Z</time>
      </trkpt>
      <trkpt lat="62.633012070637" lon="17.991129262866">
        <ele>98.8</ele>
        <time>2018-02-18T13:39:47Z</time>
      </trkpt>
      <trkpt lat="62.633001928538" lon="17.991171004728">
        <ele>98.8</ele>
        <time>2018-02-18T13:39:48Z</time>
      </trkpt>
      <trkpt lat="62.632984829462" lon="17.991223056327">
        <ele>98.8</ele>
        <time>2018-02-18T13:39:49Z</time>
      </trkpt>
      <trkpt lat="62.632960605771" lon="17.991268737682">
        <ele>98.8</ele>
        <time>2018-02-18T13:39:50Z</time>
      </trkpt>
      <trkpt lat="62.632941159763" lon="17.991323555308">
        <ele>98.8</ele>
        <time>2018-02-18T13:39:51Z</time>
      </trkpt>
      <trkpt lat="62.632918947728" lon="17.99136697355">
        <ele>98.8</ele>
        <time>2018-02-18T13:39:52Z</time>
      </trkpt>
      <trkpt lat="62.63291207457" lon="17.991416007665">
        <ele>98.8</ele>
        <time>2018-02-18T13:39:53Z</time>
      </trkpt>
      <trkpt lat="62.632883995205" lon="17.991475435336">
        <ele>98.8</ele>
        <time>2018-02-18T13:39:54Z</time>
      </trkpt>
      <trkpt lat="62.63285843041" lon="17.991532180799">
        <ele>98.8</ele>
        <time>2018-02-18T13:39:55Z</time>
      </trkpt>
      <trkpt lat="62.632845438465" lon="17.991594542135">
        <ele>98.8</ele>
        <time>2018-02-18T13:39:56Z</time>
      </trkpt>
      <trkpt lat="62.632820208946" lon="17.991642821879">
        <ele>98.8</ele>
        <time>2018-02-18T13:39:57Z</time>
      </trkpt>
      <trkpt lat="62.632796069074" lon="17.991681043343">
        <ele>98.8</ele>
        <time>2018-02-18T13:39:58Z</time>
      </trkpt>
      <trkpt lat="62.632778131808" lon="17.991738794634">
        <ele>98.6</ele>
        <time>2018-02-18T13:39:59Z</time>
      </trkpt>
      <trkpt lat="62.632759188714" lon="17.991794953364">
        <ele>98.6</ele>
        <time>2018-02-18T13:40:00Z</time>
      </trkpt>
      <trkpt lat="62.632753908117" lon="17.991840467081">
        <ele>98.6</ele>
        <time>2018-02-18T13:40:01Z</time>
      </trkpt>
      <trkpt lat="62.632743263104" lon="17.991909701575">
        <ele>98.8</ele>
        <time>2018-02-18T13:40:02Z</time>
      </trkpt>
      <trkpt lat="62.632747454054" lon="17.99195622112">
        <ele>98.8</ele>
        <time>2018-02-18T13:40:03Z</time>
      </trkpt>
      <trkpt lat="62.63276120037" lon="17.991995364593">
        <ele>99</ele>
        <time>2018-02-18T13:40:04Z</time>
      </trkpt>
      <trkpt lat="62.632776455428" lon="17.992020342655">
        <ele>99</ele>
        <time>2018-02-18T13:40:05Z</time>
      </trkpt>
      <trkpt lat="62.632794979427" lon="17.992027634908">
        <ele>99.2</ele>
        <time>2018-02-18T13:40:06Z</time>
      </trkpt>
      <trkpt lat="62.632804450974" lon="17.992038615197">
        <ele>99.2</ele>
        <time>2018-02-18T13:40:07Z</time>
      </trkpt>
      <trkpt lat="62.632829596674" lon="17.992042806147">
        <ele>99.4</ele>
        <time>2018-02-18T13:40:08Z</time>
      </trkpt>
      <trkpt lat="62.632850299967" lon="17.992043476699">
        <ele>99.4</ele>
        <time>2018-02-18T13:40:09Z</time>
      </trkpt>
      <trkpt lat="62.632877876418" lon="17.992045320717">
        <ele>99.4</ele>
        <time>2018-02-18T13:40:10Z</time>
      </trkpt>
      <trkpt lat="62.632901261919" lon="17.992040543034">
        <ele>99.4</ele>
        <time>2018-02-18T13:40:11Z</time>
      </trkpt>
      <trkpt lat="62.632932358768" lon="17.992046494183">
        <ele>99.4</ele>
        <time>2018-02-18T13:40:12Z</time>
      </trkpt>
      <trkpt lat="62.632951720957" lon="17.992058815576">
        <ele>99.2</ele>
        <time>2018-02-18T13:40:13Z</time>
      </trkpt>
      <trkpt lat="62.632985332376" lon="17.992056384825">
        <ele>99.2</ele>
        <time>2018-02-18T13:40:14Z</time>
      </trkpt>
      <trkpt lat="62.63299589357" lon="17.992070801693">
        <ele>99.2</ele>
        <time>2018-02-18T13:40:15Z</time>
      </trkpt>
      <trkpt lat="62.63302187746" lon="17.992093935737">
        <ele>99.2</ele>
        <time>2018-02-18T13:40:16Z</time>
      </trkpt>
      <trkpt lat="62.633040988192" lon="17.992077423394">
        <ele>99.2</ele>
        <time>2018-02-18T13:40:17Z</time>
      </trkpt>
      <trkpt lat="62.633074012878" lon="17.992093768099">
        <ele>99.2</ele>
        <time>2018-02-18T13:40:18Z</time>
      </trkpt>
      <trkpt lat="62.633111899066" lon="17.992110280442">
        <ele>99</ele>
        <time>2018-02-18T13:40:19Z</time>
      </trkpt>
      <trkpt lat="62.633148276512" lon="17.992131067554">
        <ele>99</ele>
        <time>2018-02-18T13:40:20Z</time>
      </trkpt>
      <trkpt lat="62.633174176583" lon="17.992155626521">
        <ele>99.2</ele>
        <time>2018-02-18T13:40:21Z</time>
      </trkpt>
      <trkpt lat="62.633213487694" lon="17.992160655661">
        <ele>99.2</ele>
        <time>2018-02-18T13:40:22Z</time>
      </trkpt>
      <trkpt lat="62.633232430788" lon="17.992180185488">
        <ele>99.2</ele>
        <time>2018-02-18T13:40:23Z</time>
      </trkpt>
      <trkpt lat="62.633257911764" lon="17.992177419461">
        <ele>99.2</ele>
        <time>2018-02-18T13:40:24Z</time>
      </trkpt>
      <trkpt lat="62.633285488215" lon="17.992184711714">
        <ele>99.2</ele>
        <time>2018-02-18T13:40:25Z</time>
      </trkpt>
      <trkpt lat="62.633323793498" lon="17.992198038935">
        <ele>99.2</ele>
        <time>2018-02-18T13:40:26Z</time>
      </trkpt>
      <trkpt lat="62.633353968338" lon="17.992179012022">
        <ele>99</ele>
        <time>2018-02-18T13:40:27Z</time>
      </trkpt>
      <trkpt lat="62.633389423775" lon="17.992201726971">
        <ele>99</ele>
        <time>2018-02-18T13:40:28Z</time>
      </trkpt>
      <trkpt lat="62.633446336876" lon="17.992222262626">
        <ele>99</ele>
        <time>2018-02-18T13:40:29Z</time>
      </trkpt>
      <trkpt lat="62.633485815625" lon="17.992244390842">
        <ele>98.8</ele>
        <time>2018-02-18T13:40:30Z</time>
      </trkpt>
      <trkpt lat="62.633521773976" lon="17.992281774116">
        <ele>98.6</ele>
        <time>2018-02-18T13:40:31Z</time>
      </trkpt>
      <trkpt lat="62.633563012924" lon="17.992348326402">
        <ele>98.4</ele>
        <time>2018-02-18T13:40:32Z</time>
      </trkpt>
      <trkpt lat="62.633589583547" lon="17.992379171794">
        <ele>98.2</ele>
        <time>2018-02-18T13:40:33Z</time>
      </trkpt>
      <trkpt lat="62.633638366205" lon="17.992430217565">
        <ele>98</ele>
        <time>2018-02-18T13:40:34Z</time>
      </trkpt>
      <trkpt lat="62.633661751706" lon="17.992484783734">
        <ele>97.8</ele>
        <time>2018-02-18T13:40:35Z</time>
      </trkpt>
      <trkpt lat="62.63369410584" lon="17.99252954308">
        <ele>97.6</ele>
        <time>2018-02-18T13:40:36Z</time>
      </trkpt>
      <trkpt lat="62.633710702002" lon="17.992593580796">
        <ele>97.4</ele>
        <time>2018-02-18T13:40:37Z</time>
      </trkpt>
      <trkpt lat="62.633730315648" lon="17.992652170277">
        <ele>97.4</ele>
        <time>2018-02-18T13:40:38Z</time>
      </trkpt>
      <trkpt lat="62.63377038113" lon="17.992689385913">
        <ele>97.2</ele>
        <time>2018-02-18T13:40:39Z</time>
      </trkpt>
      <trkpt lat="62.633808015861" lon="17.992764068642">
        <ele>96.8</ele>
        <time>2018-02-18T13:40:40Z</time>
      </trkpt>
      <trkpt lat="62.633840453814" lon="17.992838667552">
        <ele>96.8</ele>
        <time>2018-02-18T13:40:41Z</time>
      </trkpt>
      <trkpt lat="62.633874651966" lon="17.992906393304">
        <ele>96.6</ele>
        <time>2018-02-18T13:40:42Z</time>
      </trkpt>
      <trkpt lat="62.633912370516" lon="17.992961630025">
        <ele>96.2</ele>
        <time>2018-02-18T13:40:43Z</time>
      </trkpt>
      <trkpt lat="62.633957716595" lon="17.993022817895">
        <ele>96</ele>
        <time>2018-02-18T13:40:44Z</time>
      </trkpt>
      <trkpt lat="62.63398998691" lon="17.993082497023">
        <ele>95.4</ele>
        <time>2018-02-18T13:40:45Z</time>
      </trkpt>
      <trkpt lat="62.634018653008" lon="17.993140835047">
        <ele>94.8</ele>
        <time>2018-02-18T13:40:46Z</time>
      </trkpt>
      <trkpt lat="62.634051258599" lon="17.993196993777">
        <ele>94.2</ele>
        <time>2018-02-18T13:40:47Z</time>
      </trkpt>
      <trkpt lat="62.634092749004" lon="17.993262372597">
        <ele>93.6</ele>
        <time>2018-02-18T13:40:48Z</time>
      </trkpt>
      <trkpt lat="62.634127366251" lon="17.993323057553">
        <ele>93</ele>
        <time>2018-02-18T13:40:49Z</time>
      </trkpt>
      <trkpt lat="62.634159971842" lon="17.993360524646">
        <ele>92.6</ele>
        <time>2018-02-18T13:40:50Z</time>
      </trkpt>
      <trkpt lat="62.634211101432" lon="17.993404026707">
        <ele>92.2</ele>
        <time>2018-02-18T13:40:51Z</time>
      </trkpt>
      <trkpt lat="62.634259716452" lon="17.993457838505">
        <ele>91.8</ele>
        <time>2018-02-18T13:40:52Z</time>
      </trkpt>
      <trkpt lat="62.634312438603" lon="17.99348088873">
        <ele>91.4</ele>
        <time>2018-02-18T13:40:53Z</time>
      </trkpt>
      <trkpt lat="62.634375889586" lon="17.993519194013">
        <ele>91</ele>
        <time>2018-02-18T13:40:54Z</time>
      </trkpt>
      <trkpt lat="62.63444009494" lon="17.993552302518">
        <ele>90.6</ele>
        <time>2018-02-18T13:40:55Z</time>
      </trkpt>
      <trkpt lat="62.63451385566" lon="17.993579376055">
        <ele>90.2</ele>
        <time>2018-02-18T13:40:56Z</time>
      </trkpt>
      <trkpt lat="62.634579737394" lon="17.993607874515">
        <ele>89.8</ele>
        <time>2018-02-18T13:40:57Z</time>
      </trkpt>
      <trkpt lat="62.634644278024" lon="17.993633187853">
        <ele>89.2</ele>
        <time>2018-02-18T13:40:58Z</time>
      </trkpt>
      <trkpt lat="62.634720301857" lon="17.993639055183">
        <ele>88.4</ele>
        <time>2018-02-18T13:40:59Z</time>
      </trkpt>
      <trkpt lat="62.634792050921" lon="17.993649448739">
        <ele>87.4</ele>
        <time>2018-02-18T13:41:00Z</time>
      </trkpt>
      <trkpt lat="62.634861285415" lon="17.993665458168">
        <ele>86.4</ele>
        <time>2018-02-18T13:41:01Z</time>
      </trkpt>
      <trkpt lat="62.634917360326" lon="17.993681970511">
        <ele>85.6</ele>
        <time>2018-02-18T13:41:02Z</time>
      </trkpt>
      <trkpt lat="62.634969411925" lon="17.99370803822">
        <ele>85</ele>
        <time>2018-02-18T13:41:03Z</time>
      </trkpt>
      <trkpt lat="62.635019787144" lon="17.993736201404">
        <ele>84.6</ele>
        <time>2018-02-18T13:41:04Z</time>
      </trkpt>
      <trkpt lat="62.635076029693" lon="17.99375330048">
        <ele>84.4</ele>
        <time>2018-02-18T13:41:05Z</time>
      </trkpt>
      <trkpt lat="62.635134283898" lon="17.993756820878">
        <ele>84.2</ele>
        <time>2018-02-18T13:41:06Z</time>
      </trkpt>
      <trkpt lat="62.6351894368" lon="17.993769812823">
        <ele>83.8</ele>
        <time>2018-02-18T13:41:07Z</time>
      </trkpt>
      <trkpt lat="62.635249618842" lon="17.993770734832">
        <ele>83.6</ele>
        <time>2018-02-18T13:41:08Z</time>
      </trkpt>
      <trkpt lat="62.635304352649" lon="17.993780709293">
        <ele>83</ele>
        <time>2018-02-18T13:41:09Z</time>
      </trkpt>
      <trkpt lat="62.635361181931" lon="17.993782301854">
        <ele>82.6</ele>
        <time>2018-02-18T13:41:10Z</time>
      </trkpt>
      <trkpt lat="62.63542077724" lon="17.99379437179">
        <ele>82.4</ele>
        <time>2018-02-18T13:41:11Z</time>
      </trkpt>
      <trkpt lat="62.635486407517" lon="17.993800574396">
        <ele>82</ele>
        <time>2018-02-18T13:41:12Z</time>
      </trkpt>
      <trkpt lat="62.635545919007" lon="17.993806190269">
        <ele>81.8</ele>
        <time>2018-02-18T13:41:13Z</time>
      </trkpt>
      <trkpt lat="62.635610543456" lon="17.993817757291">
        <ele>81.6</ele>
        <time>2018-02-18T13:41:14Z</time>
      </trkpt>
      <trkpt lat="62.63567139605" lon="17.993850111425">
        <ele>81.4</ele>
        <time>2018-02-18T13:41:15Z</time>
      </trkpt>
      <trkpt lat="62.635729817893" lon="17.993875257125">
        <ele>81</ele>
        <time>2018-02-18T13:41:16Z</time>
      </trkpt>
      <trkpt lat="62.635778349094" lon="17.993896295694">
        <ele>80.6</ele>
        <time>2018-02-18T13:41:17Z</time>
      </trkpt>
      <trkpt lat="62.635829311046" lon="17.993895289866">
        <ele>80.2</ele>
        <time>2018-02-18T13:41:18Z</time>
      </trkpt>
      <trkpt lat="62.635882200835" lon="17.993903085033">
        <ele>80</ele>
        <time>2018-02-18T13:41:19Z</time>
      </trkpt>
      <trkpt lat="62.635931654045" lon="17.993895289866">
        <ele>79.6</ele>
        <time>2018-02-18T13:41:20Z</time>
      </trkpt>
      <trkpt lat="62.635993428648" lon="17.993848351226">
        <ele>79.8</ele>
        <time>2018-02-18T13:41:21Z</time>
      </trkpt>
      <trkpt lat="62.636056292898" lon="17.993816835282">
        <ele>79.8</ele>
        <time>2018-02-18T13:41:22Z</time>
      </trkpt>
      <trkpt lat="62.636107087212" lon="17.99378179894">
        <ele>79.6</ele>
        <time>2018-02-18T13:41:23Z</time>
      </trkpt>
      <trkpt lat="62.63616592815" lon="17.993738632155">
        <ele>79</ele>
        <time>2018-02-18T13:41:24Z</time>
      </trkpt>
      <trkpt lat="62.636218063568" lon="17.993677528104">
        <ele>78.6</ele>
        <time>2018-02-18T13:41:25Z</time>
      </trkpt>
      <trkpt lat="62.636264247837" lon="17.993614244759">
        <ele>77.8</ele>
        <time>2018-02-18T13:41:26Z</time>
      </trkpt>
      <trkpt lat="62.636297691618" lon="17.99354626755">
        <ele>77</ele>
        <time>2018-02-18T13:41:27Z</time>
      </trkpt>
      <trkpt lat="62.636337338005" lon="17.993493964494">
        <ele>76.8</ele>
        <time>2018-02-18T13:41:28Z</time>
      </trkpt>
      <trkpt lat="62.636391317441" lon="17.993414839358">
        <ele>76.8</ele>
        <time>2018-02-18T13:41:29Z</time>
      </trkpt>
      <trkpt lat="62.636452002397" lon="17.993339905172">
        <ele>77</ele>
        <time>2018-02-18T13:41:30Z</time>
      </trkpt>
      <trkpt lat="62.636509921326" lon="17.993273352886">
        <ele>76.8</ele>
        <time>2018-02-18T13:41:31Z</time>
      </trkpt>
      <trkpt lat="62.636569768092" lon="17.993202274374">
        <ele>76.4</ele>
        <time>2018-02-18T13:41:32Z</time>
      </trkpt>
      <trkpt lat="62.636634811636" lon="17.993109319103">
        <ele>75</ele>
        <time>2018-02-18T13:41:33Z</time>
      </trkpt>
      <trkpt lat="62.636687030873" lon="17.993023320809">
        <ele>74.4</ele>
        <time>2018-02-18T13:41:34Z</time>
      </trkpt>
      <trkpt lat="62.636715026419" lon="17.992958025808">
        <ele>73.4</ele>
        <time>2018-02-18T13:41:35Z</time>
      </trkpt>
      <trkpt lat="62.636745201259" lon="17.992864986718">
        <ele>72.4</ele>
        <time>2018-02-18T13:41:36Z</time>
      </trkpt>
      <trkpt lat="62.636782416895" lon="17.992829698919">
        <ele>71.8</ele>
        <time>2018-02-18T13:41:37Z</time>
      </trkpt>
      <trkpt lat="62.636797169039" lon="17.992756608751">
        <ele>71.8</ele>
        <time>2018-02-18T13:41:38Z</time>
      </trkpt>
      <trkpt lat="62.636813429925" lon="17.992656696503">
        <ele>72</ele>
        <time>2018-02-18T13:41:39Z</time>
      </trkpt>
      <trkpt lat="62.63681133445" lon="17.992578493376">
        <ele>72.2</ele>
        <time>2018-02-18T13:41:40Z</time>
      </trkpt>
      <trkpt lat="62.636798929238" lon="17.992509175063">
        <ele>72.6</ele>
        <time>2018-02-18T13:41:41Z</time>
      </trkpt>
      <trkpt lat="62.6367987616" lon="17.992421751846">
        <ele>73.2</ele>
        <time>2018-02-18T13:41:42Z</time>
      </trkpt>
      <trkpt lat="62.636792726632" lon="17.992352768809">
        <ele>73.6</ele>
        <time>2018-02-18T13:41:43Z</time>
      </trkpt>
      <trkpt lat="62.636788032768" lon="17.99225629314">
        <ele>73.8</ele>
        <time>2018-02-18T13:41:44Z</time>
      </trkpt>
      <trkpt lat="62.636790631157" lon="17.99220851631">
        <ele>74</ele>
        <time>2018-02-18T13:41:45Z</time>
      </trkpt>
      <trkpt lat="62.636803036369" lon="17.992136599608">
        <ele>74.2</ele>
        <time>2018-02-18T13:41:46Z</time>
      </trkpt>
      <trkpt lat="62.63680965807" lon="17.992077423394">
        <ele>74.2</ele>
        <time>2018-02-18T13:41:47Z</time>
      </trkpt>
      <trkpt lat="62.63680798169" lon="17.992027383451">
        <ele>74.4</ele>
        <time>2018-02-18T13:41:48Z</time>
      </trkpt>
      <trkpt lat="62.636826170413" lon="17.991975080395">
        <ele>74.4</ele>
        <time>2018-02-18T13:41:49Z</time>
      </trkpt>
      <trkpt lat="62.636839078539" lon="17.991888495368">
        <ele>74.6</ele>
        <time>2018-02-18T13:41:50Z</time>
      </trkpt>
      <trkpt lat="62.636850980837" lon="17.991821104892">
        <ele>74.6</ele>
        <time>2018-02-18T13:41:51Z</time>
      </trkpt>
      <trkpt lat="62.636871600311" lon="17.991773579519">
        <ele>74.8</ele>
        <time>2018-02-18T13:41:52Z</time>
      </trkpt>
      <trkpt lat="62.636892135966" lon="17.991725215956">
        <ele>74.8</ele>
        <time>2018-02-18T13:41:53Z</time>
      </trkpt>
      <trkpt lat="62.636885178989" lon="17.99168213299">
        <ele>74.8</ele>
        <time>2018-02-18T13:41:54Z</time>
      </trkpt>
      <trkpt lat="62.636889034663" lon="17.991635026712">
        <ele>75</ele>
        <time>2018-02-18T13:41:55Z</time>
      </trkpt>
      <trkpt lat="62.636925160652" lon="17.991587249882">
        <ele>74.8</ele>
        <time>2018-02-18T13:41:56Z</time>
      </trkpt>
      <trkpt lat="62.636919963874" lon="17.991545424201">
        <ele>74.8</ele>
        <time>2018-02-18T13:41:57Z</time>
      </trkpt>
      <trkpt lat="62.636957766243" lon="17.991457414251">
        <ele>75</ele>
        <time>2018-02-18T13:41:58Z</time>
      </trkpt>
      <trkpt lat="62.637000178657" lon="17.991357250546">
        <ele>75</ele>
        <time>2018-02-18T13:42:00Z</time>
      </trkpt>
      <trkpt lat="62.637024486167" lon="17.99129488921">
        <ele>75</ele>
        <time>2018-02-18T13:42:01Z</time>
      </trkpt>
      <trkpt lat="62.63703680756" lon="17.99124375962">
        <ele>75</ele>
        <time>2018-02-18T13:42:02Z</time>
      </trkpt>
      <trkpt lat="62.637069580789" lon="17.991150217616">
        <ele>75</ele>
        <time>2018-02-18T13:42:03Z</time>
      </trkpt>
      <trkpt lat="62.637085171123" lon="17.991079306742">
        <ele>74.8</ele>
        <time>2018-02-18T13:42:04Z</time>
      </trkpt>
      <trkpt lat="62.637099085077" lon="17.991018957062">
        <ele>75</ele>
        <time>2018-02-18T13:42:05Z</time>
      </trkpt>
      <trkpt lat="62.637112663755" lon="17.990946872722">
        <ele>74.8</ele>
        <time>2018-02-18T13:42:06Z</time>
      </trkpt>
      <trkpt lat="62.637113334307" lon="17.990892306553">
        <ele>74.8</ele>
        <time>2018-02-18T13:42:07Z</time>
      </trkpt>
      <trkpt lat="62.637115010687" lon="17.990832543606">
        <ele>74.8</ele>
        <time>2018-02-18T13:42:08Z</time>
      </trkpt>
      <trkpt lat="62.637107886072" lon="17.990755849221">
        <ele>74.6</ele>
        <time>2018-02-18T13:42:09Z</time>
      </trkpt>
      <trkpt lat="62.637123895501" lon="17.990693404066">
        <ele>74.6</ele>
        <time>2018-02-18T13:42:10Z</time>
      </trkpt>
      <trkpt lat="62.637138815283" lon="17.990599610605">
        <ele>74.8</ele>
        <time>2018-02-18T13:42:11Z</time>
      </trkpt>
      <trkpt lat="62.63713990493" lon="17.990522497125">
        <ele>74.8</ele>
        <time>2018-02-18T13:42:12Z</time>
      </trkpt>
      <trkpt lat="62.637147951554" lon="17.990453849364">
        <ele>74.6</ele>
        <time>2018-02-18T13:42:13Z</time>
      </trkpt>
      <trkpt lat="62.637155998178" lon="17.990366845242">
        <ele>74.4</ele>
        <time>2018-02-18T13:42:14Z</time>
      </trkpt>
      <trkpt lat="62.637167481381" lon="17.990288558296">
        <ele>74.2</ele>
        <time>2018-02-18T13:42:15Z</time>
      </trkpt>
      <trkpt lat="62.637178713127" lon="17.990231561376">
        <ele>74.2</ele>
        <time>2018-02-18T13:42:16Z</time>
      </trkpt>
      <trkpt lat="62.637197237126" lon="17.990174732094">
        <ele>74</ele>
        <time>2018-02-18T13:42:17Z</time>
      </trkpt>
      <trkpt lat="62.637211570175" lon="17.990126703807">
        <ele>74</ele>
        <time>2018-02-18T13:42:18Z</time>
      </trkpt>
      <trkpt lat="62.637229758898" lon="17.990067192317">
        <ele>74</ele>
        <time>2018-02-18T13:42:19Z</time>
      </trkpt>
      <trkpt lat="62.637247779983" lon="17.990003154601">
        <ele>74.2</ele>
        <time>2018-02-18T13:42:20Z</time>
      </trkpt>
      <trkpt lat="62.637255742788" lon="17.98994791788">
        <ele>74.2</ele>
        <time>2018-02-18T13:42:21Z</time>
      </trkpt>
      <trkpt lat="62.637274602063" lon="17.989907181846">
        <ele>74.4</ele>
        <time>2018-02-18T13:42:22Z</time>
      </trkpt>
      <trkpt lat="62.637303519618" lon="17.989838366447">
        <ele>74.4</ele>
        <time>2018-02-18T13:42:23Z</time>
      </trkpt>
      <trkpt lat="62.637313829355" lon="17.989783297364">
        <ele>74.4</ele>
        <time>2018-02-18T13:42:24Z</time>
      </trkpt>
      <trkpt lat="62.637330090241" lon="17.989722193313">
        <ele>74.6</ele>
        <time>2018-02-18T13:42:25Z</time>
      </trkpt>
      <trkpt lat="62.63734861424" lon="17.989641643254">
        <ele>74.6</ele>
        <time>2018-02-18T13:42:26Z</time>
      </trkpt>
      <trkpt lat="62.637370826275" lon="17.989572660217">
        <ele>74.6</ele>
        <time>2018-02-18T13:42:27Z</time>
      </trkpt>
      <trkpt lat="62.637413909241" lon="17.989495714375">
        <ele>74.4</ele>
        <time>2018-02-18T13:42:28Z</time>
      </trkpt>
      <trkpt lat="62.637443916443" lon="17.989443411319">
        <ele>74.4</ele>
        <time>2018-02-18T13:42:29Z</time>
      </trkpt>
      <trkpt lat="62.637491022721" lon="17.989365543468">
        <ele>74.4</ele>
        <time>2018-02-18T13:42:30Z</time>
      </trkpt>
      <trkpt lat="62.637534440963" lon="17.98926646941">
        <ele>74.2</ele>
        <time>2018-02-18T13:42:31Z</time>
      </trkpt>
      <trkpt lat="62.637577859205" lon="17.989171083388">
        <ele>74</ele>
        <time>2018-02-18T13:42:32Z</time>
      </trkpt>
      <trkpt lat="62.637609710425" lon="17.989070249131">
        <ele>74</ele>
        <time>2018-02-18T13:42:33Z</time>
      </trkpt>
      <trkpt lat="62.637626641863" lon="17.988995231126">
        <ele>73.6</ele>
        <time>2018-02-18T13:42:34Z</time>
      </trkpt>
      <trkpt lat="62.637651452287" lon="17.988910154841">
        <ele>73</ele>
        <time>2018-02-18T13:42:35Z</time>
      </trkpt>
      <trkpt lat="62.637662264938" lon="17.988846955315">
        <ele>72.6</ele>
        <time>2018-02-18T13:42:36Z</time>
      </trkpt>
      <trkpt lat="62.637660923834" lon="17.988757604261">
        <ele>72.4</ele>
        <time>2018-02-18T13:42:37Z</time>
      </trkpt>
      <trkpt lat="62.637679615471" lon="17.988684430274">
        <ele>72.2</ele>
        <time>2018-02-18T13:42:38Z</time>
      </trkpt>
      <trkpt lat="62.637684896068" lon="17.988593654297">
        <ele>72.2</ele>
        <time>2018-02-18T13:42:39Z</time>
      </trkpt>
      <trkpt lat="62.637693361787" lon="17.988522072871">
        <ele>72.4</ele>
        <time>2018-02-18T13:42:40Z</time>
      </trkpt>
      <trkpt lat="62.637713729804" lon="17.988424675193">
        <ele>72.4</ele>
        <time>2018-02-18T13:42:41Z</time>
      </trkpt>
      <trkpt lat="62.637708030112" lon="17.988334066854">
        <ele>72.4</ele>
        <time>2018-02-18T13:42:42Z</time>
      </trkpt>
      <trkpt lat="62.637718172211" lon="17.988254187347">
        <ele>72.2</ele>
        <time>2018-02-18T13:42:43Z</time>
      </trkpt>
      <trkpt lat="62.637718842763" lon="17.988163579008">
        <ele>72</ele>
        <time>2018-02-18T13:42:44Z</time>
      </trkpt>
      <trkpt lat="62.637715322365" lon="17.988077161619">
        <ele>72</ele>
        <time>2018-02-18T13:42:45Z</time>
      </trkpt>
      <trkpt lat="62.637736444753" lon="17.987987726746">
        <ele>71.8</ele>
        <time>2018-02-18T13:42:46Z</time>
      </trkpt>
      <trkpt lat="62.637772319285" lon="17.987881444254">
        <ele>71.6</ele>
        <time>2018-02-18T13:42:47Z</time>
      </trkpt>
      <trkpt lat="62.637804841057" lon="17.987771809002">
        <ele>70.8</ele>
        <time>2018-02-18T13:42:48Z</time>
      </trkpt>
      <trkpt lat="62.63782889711" lon="17.987679440464">
        <ele>70</ele>
        <time>2018-02-18T13:42:49Z</time>
      </trkpt>
      <trkpt lat="62.637857647027" lon="17.987587742478">
        <ele>69.2</ele>
        <time>2018-02-18T13:42:50Z</time>
      </trkpt>
      <trkpt lat="62.637887235134" lon="17.987494032836">
        <ele>68.6</ele>
        <time>2018-02-18T13:42:51Z</time>
      </trkpt>
      <trkpt lat="62.637906094409" lon="17.987403927411">
        <ele>68.2</ele>
        <time>2018-02-18T13:42:52Z</time>
      </trkpt>
      <trkpt lat="62.637918667259" lon="17.98731013395">
        <ele>68.4</ele>
        <time>2018-02-18T13:42:53Z</time>
      </trkpt>
      <trkpt lat="62.637934844326" lon="17.987203180906">
        <ele>68.6</ele>
        <time>2018-02-18T13:42:54Z</time>
      </trkpt>
      <trkpt lat="62.637951105212" lon="17.987107711065">
        <ele>68.8</ele>
        <time>2018-02-18T13:42:55Z</time>
      </trkpt>
      <trkpt lat="62.637968623383" lon="17.986999919831">
        <ele>68.6</ele>
        <time>2018-02-18T13:42:56Z</time>
      </trkpt>
      <trkpt lat="62.637956553447" lon="17.986898666479">
        <ele>68.4</ele>
        <time>2018-02-18T13:42:57Z</time>
      </trkpt>
      <trkpt lat="62.637965605899" lon="17.986797916041">
        <ele>68.2</ele>
        <time>2018-02-18T13:42:58Z</time>
      </trkpt>
      <trkpt lat="62.637966192632" lon="17.986708984082">
        <ele>68</ele>
        <time>2018-02-18T13:42:59Z</time>
      </trkpt>
      <trkpt lat="62.637959403293" lon="17.986631954421">
        <ele>68</ele>
        <time>2018-02-18T13:43:00Z</time>
      </trkpt>
      <trkpt lat="62.637953200687" lon="17.98656414485">
        <ele>67.8</ele>
        <time>2018-02-18T13:43:01Z</time>
      </trkpt>
      <trkpt lat="62.637959906207" lon="17.986488623931">
        <ele>67.8</ele>
        <time>2018-02-18T13:43:02Z</time>
      </trkpt>
      <trkpt lat="62.637967701374" lon="17.986408157691">
        <ele>67.6</ele>
        <time>2018-02-18T13:43:03Z</time>
      </trkpt>
      <trkpt lat="62.637969629211" lon="17.986346047812">
        <ele>67.8</ele>
        <time>2018-02-18T13:43:04Z</time>
      </trkpt>
      <trkpt lat="62.637965605899" lon="17.986244626822">
        <ele>67.8</ele>
        <time>2018-02-18T13:43:05Z</time>
      </trkpt>
      <trkpt lat="62.637968707202" lon="17.986178158355">
        <ele>67.8</ele>
        <time>2018-02-18T13:43:06Z</time>
      </trkpt>
      <trkpt lat="62.637983710803" lon="17.986111438431">
        <ele>67.6</ele>
        <time>2018-02-18T13:43:07Z</time>
      </trkpt>
      <trkpt lat="62.638011538711" lon="17.986032564752">
        <ele>67.8</ele>
        <time>2018-02-18T13:43:08Z</time>
      </trkpt>
      <trkpt lat="62.638029727434" lon="17.985963414077">
        <ele>67.8</ele>
        <time>2018-02-18T13:43:09Z</time>
      </trkpt>
      <trkpt lat="62.638054286401" lon="17.985903818768">
        <ele>67.8</ele>
        <time>2018-02-18T13:43:10Z</time>
      </trkpt>
      <trkpt lat="62.63807532497" lon="17.985840367785">
        <ele>67.8</ele>
        <time>2018-02-18T13:43:11Z</time>
      </trkpt>
      <trkpt lat="62.638094016607" lon="17.985797536276">
        <ele>67.8</ele>
        <time>2018-02-18T13:43:12Z</time>
      </trkpt>
      <trkpt lat="62.638114803719" lon="17.985751352007">
        <ele>67.8</ele>
        <time>2018-02-18T13:43:13Z</time>
      </trkpt>
      <trkpt lat="62.63813064551" lon="17.985710113059">
        <ele>67.6</ele>
        <time>2018-02-18T13:43:14Z</time>
      </trkpt>
      <trkpt lat="62.638145984387" lon="17.985669377025">
        <ele>67.6</ele>
        <time>2018-02-18T13:43:15Z</time>
      </trkpt>
      <trkpt lat="62.638161071807" lon="17.985629563">
        <ele>67.6</ele>
        <time>2018-02-18T13:43:16Z</time>
      </trkpt>
      <trkpt lat="62.638178087064" lon="17.98558513893">
        <ele>67.6</ele>
        <time>2018-02-18T13:43:17Z</time>
      </trkpt>
      <trkpt lat="62.638173225562" lon="17.985526968544">
        <ele>67.4</ele>
        <time>2018-02-18T13:43:18Z</time>
      </trkpt>
      <trkpt lat="62.638186133688" lon="17.985473911117">
        <ele>67.2</ele>
        <time>2018-02-18T13:43:19Z</time>
      </trkpt>
      <trkpt lat="62.638205495877" lon="17.9854283974">
        <ele>67.2</ele>
        <time>2018-02-18T13:43:20Z</time>
      </trkpt>
      <trkpt lat="62.638233659061" lon="17.985390427393">
        <ele>67.2</ele>
        <time>2018-02-18T13:43:21Z</time>
      </trkpt>
      <trkpt lat="62.638256960743" lon="17.985345668047">
        <ele>67.2</ele>
        <time>2018-02-18T13:43:22Z</time>
      </trkpt>
      <trkpt lat="62.638280178606" lon="17.98528087596">
        <ele>67.2</ele>
        <time>2018-02-18T13:43:23Z</time>
      </trkpt>
      <trkpt lat="62.638308425609" lon="17.985227399438">
        <ele>67.4</ele>
        <time>2018-02-18T13:43:24Z</time>
      </trkpt>
      <trkpt lat="62.638329045083" lon="17.985169145233">
        <ele>67.4</ele>
        <time>2018-02-18T13:43:25Z</time>
      </trkpt>
      <trkpt lat="62.638361566855" lon="17.985102592947">
        <ele>67.4</ele>
        <time>2018-02-18T13:43:26Z</time>
      </trkpt>
      <trkpt lat="62.638392412247" lon="17.985041824172">
        <ele>67.2</ele>
        <time>2018-02-18T13:43:27Z</time>
      </trkpt>
      <trkpt lat="62.63842317382" lon="17.984966470891">
        <ele>67</ele>
        <time>2018-02-18T13:43:28Z</time>
      </trkpt>
      <trkpt lat="62.638455527954" lon="17.9849003377">
        <ele>66.8</ele>
        <time>2018-02-18T13:43:29Z</time>
      </trkpt>
      <trkpt lat="62.638492073038" lon="17.984833701595">
        <ele>66.4</ele>
        <time>2018-02-18T13:43:30Z</time>
      </trkpt>
      <trkpt lat="62.638517805471" lon="17.984783410195">
        <ele>66.2</ele>
        <time>2018-02-18T13:43:31Z</time>
      </trkpt>
      <trkpt lat="62.638558038591" lon="17.984715265348">
        <ele>66</ele>
        <time>2018-02-18T13:43:32Z</time>
      </trkpt>
      <trkpt lat="62.638600115729" lon="17.984650054166">
        <ele>65.8</ele>
        <time>2018-02-18T13:43:33Z</time>
      </trkpt>
      <trkpt lat="62.6386260158" lon="17.984578640378">
        <ele>65.4</ele>
        <time>2018-02-18T13:43:34Z</time>
      </trkpt>
      <trkpt lat="62.638648311654" lon="17.984477135569">
        <ele>65.2</ele>
        <time>2018-02-18T13:43:35Z</time>
      </trkpt>
      <trkpt lat="62.63867043987" lon="17.984383509746">
        <ele>65.2</ele>
        <time>2018-02-18T13:43:36Z</time>
      </trkpt>
      <trkpt lat="62.638688963869" lon="17.984310084302">
        <ele>65.2</ele>
        <time>2018-02-18T13:43:37Z</time>
      </trkpt>
      <trkpt lat="62.638697513407" lon="17.984199024127">
        <ele>65</ele>
        <time>2018-02-18T13:43:38Z</time>
      </trkpt>
      <trkpt lat="62.638702123452" lon="17.984116713869">
        <ele>64.6</ele>
        <time>2018-02-18T13:43:39Z</time>
      </trkpt>
      <trkpt lat="62.638698603054" lon="17.984025854073">
        <ele>64.2</ele>
        <time>2018-02-18T13:43:40Z</time>
      </trkpt>
      <trkpt lat="62.638700447072" lon="17.98393139006">
        <ele>63.8</ele>
        <time>2018-02-18T13:43:41Z</time>
      </trkpt>
      <trkpt lat="62.638699860339" lon="17.983867184706">
        <ele>63.6</ele>
        <time>2018-02-18T13:43:42Z</time>
      </trkpt>
      <trkpt lat="62.638697429588" lon="17.983780767317">
        <ele>63.4</ele>
        <time>2018-02-18T13:43:43Z</time>
      </trkpt>
      <trkpt lat="62.638675133734" lon="17.983695523394">
        <ele>63.2</ele>
        <time>2018-02-18T13:43:44Z</time>
      </trkpt>
      <trkpt lat="62.638679073227" lon="17.983620756846">
        <ele>63.4</ele>
        <time>2018-02-18T13:43:45Z</time>
      </trkpt>
      <trkpt lat="62.638672870621" lon="17.983563759926">
        <ele>63.2</ele>
        <time>2018-02-18T13:43:46Z</time>
      </trkpt>
      <trkpt lat="62.638660130133" lon="17.983488741921">
        <ele>63.4</ele>
        <time>2018-02-18T13:43:47Z</time>
      </trkpt>
      <trkpt lat="62.63865032331" lon="17.983430822992">
        <ele>63.2</ele>
        <time>2018-02-18T13:43:48Z</time>
      </trkpt>
      <trkpt lat="62.638652167328" lon="17.983381956515">
        <ele>63.4</ele>
        <time>2018-02-18T13:43:49Z</time>
      </trkpt>
      <trkpt lat="62.638651496776" lon="17.983297215506">
        <ele>63.4</ele>
        <time>2018-02-18T13:43:50Z</time>
      </trkpt>
      <trkpt lat="62.638653005518" lon="17.983228735383">
        <ele>63.4</ele>
        <time>2018-02-18T13:43:51Z</time>
      </trkpt>
      <trkpt lat="62.638657699382" lon="17.983178108707">
        <ele>63.6</ele>
        <time>2018-02-18T13:43:52Z</time>
      </trkpt>
      <trkpt lat="62.638667673843" lon="17.983092445689">
        <ele>63.6</ele>
        <time>2018-02-18T13:43:53Z</time>
      </trkpt>
      <trkpt lat="62.638668092938" lon="17.983023127376">
        <ele>63.4</ele>
        <time>2018-02-18T13:43:54Z</time>
      </trkpt>
      <trkpt lat="62.638677480666" lon="17.982962190963">
        <ele>63.6</ele>
        <time>2018-02-18T13:43:55Z</time>
      </trkpt>
      <trkpt lat="62.63868720367" lon="17.982878204325">
        <ele>63.8</ele>
        <time>2018-02-18T13:43:56Z</time>
      </trkpt>
      <trkpt lat="62.638684353824" lon="17.982806874356">
        <ele>63.6</ele>
        <time>2018-02-18T13:43:57Z</time>
      </trkpt>
      <trkpt lat="62.638680330512" lon="17.982751721454">
        <ele>63.6</ele>
        <time>2018-02-18T13:43:58Z</time>
      </trkpt>
      <trkpt lat="62.638682509806" lon="17.982671087576">
        <ele>63.6</ele>
        <time>2018-02-18T13:43:59Z</time>
      </trkpt>
      <trkpt lat="62.638684437643" lon="17.982614174475">
        <ele>63.6</ele>
        <time>2018-02-18T13:44:00Z</time>
      </trkpt>
      <trkpt lat="62.638679995236" lon="17.982551645501">
        <ele>63.6</ele>
        <time>2018-02-18T13:44:01Z</time>
      </trkpt>
      <trkpt lat="62.638687119851" lon="17.982477214229">
        <ele>63.6</ele>
        <time>2018-02-18T13:44:02Z</time>
      </trkpt>
      <trkpt lat="62.638689466783" lon="17.982396245075">
        <ele>63.6</ele>
        <time>2018-02-18T13:44:03Z</time>
      </trkpt>
      <trkpt lat="62.638695082656" lon="17.982351150453">
        <ele>63.8</ele>
        <time>2018-02-18T13:44:04Z</time>
      </trkpt>
      <trkpt lat="62.638721150365" lon="17.982270684213">
        <ele>63.6</ele>
        <time>2018-02-18T13:44:05Z</time>
      </trkpt>
      <trkpt lat="62.638739590545" lon="17.982196672036">
        <ele>63.8</ele>
        <time>2018-02-18T13:44:06Z</time>
      </trkpt>
      <trkpt lat="62.638761215847" lon="17.982133137234">
        <ele>63.6</ele>
        <time>2018-02-18T13:44:07Z</time>
      </trkpt>
      <trkpt lat="62.638792564153" lon="17.982055688478">
        <ele>63.8</ele>
        <time>2018-02-18T13:44:08Z</time>
      </trkpt>
      <trkpt lat="62.638819302414" lon="17.981997601911">
        <ele>63.6</ele>
        <time>2018-02-18T13:44:09Z</time>
      </trkpt>
      <trkpt lat="62.638849477254" lon="17.981926607218">
        <ele>63.6</ele>
        <time>2018-02-18T13:44:10Z</time>
      </trkpt>
      <trkpt lat="62.638860541362" lon="17.981849745195">
        <ele>63.4</ele>
        <time>2018-02-18T13:44:11Z</time>
      </trkpt>
      <trkpt lat="62.63887998737" lon="17.981780426882">
        <ele>63.4</ele>
        <time>2018-02-18T13:44:12Z</time>
      </trkpt>
      <trkpt lat="62.638899852473" lon="17.981684621765">
        <ele>63.4</ele>
        <time>2018-02-18T13:44:13Z</time>
      </trkpt>
      <trkpt lat="62.638918208834" lon="17.981615722547">
        <ele>63.2</ele>
        <time>2018-02-18T13:44:14Z</time>
      </trkpt>
      <trkpt lat="62.638940588507" lon="17.981530310986">
        <ele>63.2</ele>
        <time>2018-02-18T13:44:15Z</time>
      </trkpt>
      <trkpt lat="62.638968584053" lon="17.981460657397">
        <ele>63</ele>
        <time>2018-02-18T13:44:16Z</time>
      </trkpt>
      <trkpt lat="62.638995070857" lon="17.981386142306">
        <ele>62.8</ele>
        <time>2018-02-18T13:44:17Z</time>
      </trkpt>
      <trkpt lat="62.639030693932" lon="17.981296623614">
        <ele>62.6</ele>
        <time>2018-02-18T13:44:18Z</time>
      </trkpt>
      <trkpt lat="62.639053241243" lon="17.981215905917">
        <ele>62.2</ele>
        <time>2018-02-18T13:44:19Z</time>
      </trkpt>
      <trkpt lat="62.639095150743" lon="17.981129069433">
        <ele>62.2</ele>
        <time>2018-02-18T13:44:20Z</time>
      </trkpt>
      <trkpt lat="62.639125241764" lon="17.981034521601">
        <ele>61.8</ele>
        <time>2018-02-18T13:44:21Z</time>
      </trkpt>
      <trkpt lat="62.639156422432" lon="17.980988756427">
        <ele>61.8</ele>
        <time>2018-02-18T13:44:22Z</time>
      </trkpt>
      <trkpt lat="62.639195733543" lon="17.980921533589">
        <ele>61.6</ele>
        <time>2018-02-18T13:44:23Z</time>
      </trkpt>
      <trkpt lat="62.639226914211" lon="17.980852550552">
        <ele>61.6</ele>
        <time>2018-02-18T13:44:24Z</time>
      </trkpt>
      <trkpt lat="62.639260860906" lon="17.980775269434">
        <ele>61.4</ele>
        <time>2018-02-18T13:44:25Z</time>
      </trkpt>
      <trkpt lat="62.639288940271" lon="17.980692707719">
        <ele>61.4</ele>
        <time>2018-02-18T13:44:26Z</time>
      </trkpt>
      <trkpt lat="62.639309895021" lon="17.980598076068">
        <ele>61.2</ele>
        <time>2018-02-18T13:44:27Z</time>
      </trkpt>
      <trkpt lat="62.639329760124" lon="17.980502857684">
        <ele>61</ele>
        <time>2018-02-18T13:44:28Z</time>
      </trkpt>
      <trkpt lat="62.639353229444" lon="17.980415350648">
        <ele>60.8</ele>
        <time>2018-02-18T13:44:29Z</time>
      </trkpt>
      <trkpt lat="62.639367227217" lon="17.980301021532">
        <ele>60.8</ele>
        <time>2018-02-18T13:44:30Z</time>
      </trkpt>
      <trkpt lat="62.639392372917" lon="17.980208569175">
        <ele>60.4</ele>
        <time>2018-02-18T13:44:31Z</time>
      </trkpt>
      <trkpt lat="62.639412405658" lon="17.980136652473">
        <ele>60</ele>
        <time>2018-02-18T13:44:32Z</time>
      </trkpt>
      <trkpt lat="62.639426822526" lon="17.980042691374">
        <ele>59.6</ele>
        <time>2018-02-18T13:44:33Z</time>
      </trkpt>
      <trkpt lat="62.639437467539" lon="17.980004721367">
        <ele>59.6</ele>
        <time>2018-02-18T13:44:34Z</time>
      </trkpt>
      <trkpt lat="62.639451297674" lon="17.979920567091">
        <ele>59.2</ele>
        <time>2018-02-18T13:44:35Z</time>
      </trkpt>
      <trkpt lat="62.639463786705" lon="17.979838424471">
        <ele>59.2</ele>
        <time>2018-02-18T13:44:36Z</time>
      </trkpt>
      <trkpt lat="62.639463199972" lon="17.979774722031">
        <ele>59.2</ele>
        <time>2018-02-18T13:44:37Z</time>
      </trkpt>
      <trkpt lat="62.639478957944" lon="17.979705738994">
        <ele>59.2</ele>
        <time>2018-02-18T13:44:38Z</time>
      </trkpt>
      <trkpt lat="62.63949689521" lon="17.979627368229">
        <ele>59.2</ele>
        <time>2018-02-18T13:44:39Z</time>
      </trkpt>
      <trkpt lat="62.639517682322" lon="17.979560396848">
        <ele>59.2</ele>
        <time>2018-02-18T13:44:40Z</time>
      </trkpt>
      <trkpt lat="62.639550036456" lon="17.979500885358">
        <ele>59.2</ele>
        <time>2018-02-18T13:44:41Z</time>
      </trkpt>
      <trkpt lat="62.639575182156" lon="17.979448833759">
        <ele>59.2</ele>
        <time>2018-02-18T13:44:42Z</time>
      </trkpt>
      <trkpt lat="62.639598148562" lon="17.979397033617">
        <ele>59.2</ele>
        <time>2018-02-18T13:44:43Z</time>
      </trkpt>
      <trkpt lat="62.639629496868" lon="17.979323189078">
        <ele>59.2</ele>
        <time>2018-02-18T13:44:44Z</time>
      </trkpt>
      <trkpt lat="62.639655732215" lon="17.979247919616">
        <ele>59</ele>
        <time>2018-02-18T13:44:45Z</time>
      </trkpt>
      <trkpt lat="62.639678530983" lon="17.979186564108">
        <ele>59</ele>
        <time>2018-02-18T13:44:46Z</time>
      </trkpt>
      <trkpt lat="62.639719434655" lon="17.979102828927">
        <ele>59</ele>
        <time>2018-02-18T13:44:47Z</time>
      </trkpt>
      <trkpt lat="62.639759835413" lon="17.979041054324">
        <ele>58.8</ele>
        <time>2018-02-18T13:44:48Z</time>
      </trkpt>
      <trkpt lat="62.639797134868" lon="17.978983973585">
        <ele>58.8</ele>
        <time>2018-02-18T13:44:49Z</time>
      </trkpt>
      <trkpt lat="62.639839295825" lon="17.978922953353">
        <ele>58.6</ele>
        <time>2018-02-18T13:44:50Z</time>
      </trkpt>
      <trkpt lat="62.639871482321" lon="17.978878864559">
        <ele>58.4</ele>
        <time>2018-02-18T13:44:51Z</time>
      </trkpt>
      <trkpt lat="62.639912302174" lon="17.978833099385">
        <ele>58.2</ele>
        <time>2018-02-18T13:44:52Z</time>
      </trkpt>
      <trkpt lat="62.639953122027" lon="17.978780209596">
        <ele>57.8</ele>
        <time>2018-02-18T13:44:53Z</time>
      </trkpt>
      <trkpt lat="62.639983799781" lon="17.978731343119">
        <ele>57</ele>
        <time>2018-02-18T13:44:54Z</time>
      </trkpt>
      <trkpt lat="62.640030738421" lon="17.97868012971">
        <ele>56.6</ele>
        <time>2018-02-18T13:44:55Z</time>
      </trkpt>
      <trkpt lat="62.64007021717" lon="17.978627994292">
        <ele>56</ele>
        <time>2018-02-18T13:44:56Z</time>
      </trkpt>
      <trkpt lat="62.640110366471" lon="17.978559765626">
        <ele>55.4</ele>
        <time>2018-02-18T13:44:57Z</time>
      </trkpt>
      <trkpt lat="62.640150096677" lon="17.978531015709">
        <ele>55.2</ele>
        <time>2018-02-18T13:44:58Z</time>
      </trkpt>
      <trkpt lat="62.640192257634" lon="17.978477790644">
        <ele>55.2</ele>
        <time>2018-02-18T13:44:59Z</time>
      </trkpt>
      <trkpt lat="62.640234670048" lon="17.978410819263">
        <ele>55</ele>
        <time>2018-02-18T13:45:00Z</time>
      </trkpt>
      <trkpt lat="62.640281357231" lon="17.978364551175">
        <ele>54.8</ele>
        <time>2018-02-18T13:45:01Z</time>
      </trkpt>
      <trkpt lat="62.640337851237" lon="17.978310068825">
        <ele>54.6</ele>
        <time>2018-02-18T13:45:02Z</time>
      </trkpt>
      <trkpt lat="62.640386298619" lon="17.978253658638">
        <ele>54.2</ele>
        <time>2018-02-18T13:45:03Z</time>
      </trkpt>
      <trkpt lat="62.640421670237" lon="17.978192051673">
        <ele>54.2</ele>
        <time>2018-02-18T13:45:04Z</time>
      </trkpt>
      <trkpt lat="62.640471123447" lon="17.978128516871">
        <ele>53.8</ele>
        <time>2018-02-18T13:45:05Z</time>
      </trkpt>
      <trkpt lat="62.640501130649" lon="17.978050481382">
        <ele>53.6</ele>
        <time>2018-02-18T13:45:06Z</time>
      </trkpt>
      <trkpt lat="62.640544800348" lon="17.977977055938">
        <ele>53.4</ele>
        <time>2018-02-18T13:45:07Z</time>
      </trkpt>
      <trkpt lat="62.640596851947" lon="17.977913018222">
        <ele>52.8</ele>
        <time>2018-02-18T13:45:08Z</time>
      </trkpt>
      <trkpt lat="62.640640354008" lon="17.977833641629">
        <ele>52.6</ele>
        <time>2018-02-18T13:45:09Z</time>
      </trkpt>
      <trkpt lat="62.640680251852" lon="17.977745128765">
        <ele>52</ele>
        <time>2018-02-18T13:45:10Z</time>
      </trkpt>
      <trkpt lat="62.640720065877" lon="17.977669607846">
        <ele>51.8</ele>
        <time>2018-02-18T13:45:11Z</time>
      </trkpt>
      <trkpt lat="62.640761304825" lon="17.977578161317">
        <ele>51.6</ele>
        <time>2018-02-18T13:45:12Z</time>
      </trkpt>
      <trkpt lat="62.640802124678" lon="17.97747984163">
        <ele>51.8</ele>
        <time>2018-02-18T13:45:13Z</time>
      </trkpt>
      <trkpt lat="62.640848560404" lon="17.977386383445">
        <ele>51.8</ele>
        <time>2018-02-18T13:45:14Z</time>
      </trkpt>
      <trkpt lat="62.640890386085" lon="17.977299379323">
        <ele>51.8</ele>
        <time>2018-02-18T13:45:15Z</time>
      </trkpt>
      <trkpt lat="62.640928942825" lon="17.977217320522">
        <ele>51.6</ele>
        <time>2018-02-18T13:45:16Z</time>
      </trkpt>
      <trkpt lat="62.640968505393" lon="17.977135764635">
        <ele>51.4</ele>
        <time>2018-02-18T13:45:17Z</time>
      </trkpt>
      <trkpt lat="62.641018293879" lon="17.977051442721">
        <ele>51</ele>
        <time>2018-02-18T13:45:18Z</time>
      </trkpt>
      <trkpt lat="62.641075709894" lon="17.976984555159">
        <ele>50</ele>
        <time>2018-02-18T13:45:19Z</time>
      </trkpt>
      <trkpt lat="62.641131198072" lon="17.976932419741">
        <ele>49.4</ele>
        <time>2018-02-18T13:45:20Z</time>
      </trkpt>
      <trkpt lat="62.64118584806" lon="17.976907441679">
        <ele>48.8</ele>
        <time>2018-02-18T13:45:21Z</time>
      </trkpt>
      <trkpt lat="62.641243766989" lon="17.976872489156">
        <ele>48.2</ele>
        <time>2018-02-18T13:45:22Z</time>
      </trkpt>
      <trkpt lat="62.64131576751" lon="17.976839213013">
        <ele>47.6</ele>
        <time>2018-02-18T13:45:23Z</time>
      </trkpt>
      <trkpt lat="62.641375614276" lon="17.976807948526">
        <ele>47</ele>
        <time>2018-02-18T13:45:24Z</time>
      </trkpt>
      <trkpt lat="62.641437388879" lon="17.97676402737">
        <ele>46.4</ele>
        <time>2018-02-18T13:45:25Z</time>
      </trkpt>
      <trkpt lat="62.641495307808" lon="17.976720776766">
        <ele>45.8</ele>
        <time>2018-02-18T13:45:26Z</time>
      </trkpt>
      <trkpt lat="62.641552891461" lon="17.97667098828">
        <ele>45.4</ele>
        <time>2018-02-18T13:45:27Z</time>
      </trkpt>
      <trkpt lat="62.641612905865" lon="17.976610554781">
        <ele>45</ele>
        <time>2018-02-18T13:45:28Z</time>
      </trkpt>
      <trkpt lat="62.64167618921" lon="17.97653184874">
        <ele>44.4</ele>
        <time>2018-02-18T13:45:29Z</time>
      </trkpt>
      <trkpt lat="62.641733353768" lon="17.976462530427">
        <ele>44</ele>
        <time>2018-02-18T13:45:30Z</time>
      </trkpt>
      <trkpt lat="62.641788255213" lon="17.976384830214">
        <ele>43.6</ele>
        <time>2018-02-18T13:45:31Z</time>
      </trkpt>
      <trkpt lat="62.641850951825" lon="17.976326156914">
        <ele>43.2</ele>
        <time>2018-02-18T13:45:32Z</time>
      </trkpt>
      <trkpt lat="62.641910463315" lon="17.976238985154">
        <ele>42.4</ele>
        <time>2018-02-18T13:45:33Z</time>
      </trkpt>
      <trkpt lat="62.641957318136" lon="17.976159440923">
        <ele>41.8</ele>
        <time>2018-02-18T13:45:34Z</time>
      </trkpt>
      <trkpt lat="62.642008615364" lon="17.97607252062">
        <ele>41</ele>
        <time>2018-02-18T13:45:35Z</time>
      </trkpt>
      <trkpt lat="62.642047088285" lon="17.976007560895">
        <ele>40.4</ele>
        <time>2018-02-18T13:45:36Z</time>
      </trkpt>
      <trkpt lat="62.642107354146" lon="17.975916449642">
        <ele>39.8</ele>
        <time>2018-02-18T13:45:37Z</time>
      </trkpt>
      <trkpt lat="62.642161417401" lon="17.975837995058">
        <ele>39</ele>
        <time>2018-02-18T13:45:38Z</time>
      </trkpt>
      <trkpt lat="62.642216570303" lon="17.975769598754">
        <ele>38.4</ele>
        <time>2018-02-18T13:45:39Z</time>
      </trkpt>
      <trkpt lat="62.642272058481" lon="17.975700867174">
        <ele>37.8</ele>
        <time>2018-02-18T13:45:40Z</time>
      </trkpt>
      <trkpt lat="62.642322768976" lon="17.97562241259">
        <ele>37.2</ele>
        <time>2018-02-18T13:45:41Z</time>
      </trkpt>
      <trkpt lat="62.642373814747" lon="17.975532810079">
        <ele>36.6</ele>
        <time>2018-02-18T13:45:42Z</time>
      </trkpt>
      <trkpt lat="62.642421926853" lon="17.975418900058">
        <ele>36.4</ele>
        <time>2018-02-18T13:45:43Z</time>
      </trkpt>
      <trkpt lat="62.642462327611" lon="17.975318484896">
        <ele>36</ele>
        <time>2018-02-18T13:45:44Z</time>
      </trkpt>
      <trkpt lat="62.642498956514" lon="17.975213459689">
        <ele>35.8</ele>
        <time>2018-02-18T13:45:45Z</time>
      </trkpt>
      <trkpt lat="62.642532400295" lon="17.975113379803">
        <ele>35.4</ele>
        <time>2018-02-18T13:45:46Z</time>
      </trkpt>
      <trkpt lat="62.6425655088" lon="17.975016568858">
        <ele>35.2</ele>
        <time>2018-02-18T13:45:47Z</time>
      </trkpt>
      <trkpt lat="62.642596857106" lon="17.974901066276">
        <ele>34.6</ele>
        <time>2018-02-18T13:45:48Z</time>
      </trkpt>
      <trkpt lat="62.64262334391" lon="17.97480182458">
        <ele>34.2</ele>
        <time>2018-02-18T13:45:49Z</time>
      </trkpt>
      <trkpt lat="62.642640191529" lon="17.974707360567">
        <ele>34</ele>
        <time>2018-02-18T13:45:50Z</time>
      </trkpt>
      <trkpt lat="62.642678329174" lon="17.974613986201">
        <ele>33.6</ele>
        <time>2018-02-18T13:45:51Z</time>
      </trkpt>
      <trkpt lat="62.642698278096" lon="17.974522288215">
        <ele>33.6</ele>
        <time>2018-02-18T13:45:52Z</time>
      </trkpt>
      <trkpt lat="62.64272225033" lon="17.974412233868">
        <ele>33.6</ele>
        <time>2018-02-18T13:45:53Z</time>
      </trkpt>
      <trkpt lat="62.642745971107" lon="17.974319362416">
        <ele>33.6</ele>
        <time>2018-02-18T13:45:54Z</time>
      </trkpt>
      <trkpt lat="62.64277086535" lon="17.974218360521">
        <ele>33.8</ele>
        <time>2018-02-18T13:45:55Z</time>
      </trkpt>
      <trkpt lat="62.642784444028" lon="17.974132194589">
        <ele>33.8</ele>
        <time>2018-02-18T13:45:56Z</time>
      </trkpt>
      <trkpt lat="62.642803470941" lon="17.974050973978">
        <ele>33.8</ele>
        <time>2018-02-18T13:45:57Z</time>
      </trkpt>
      <trkpt lat="62.642820821474" lon="17.973941254907">
        <ele>33.4</ele>
        <time>2018-02-18T13:45:58Z</time>
      </trkpt>
      <trkpt lat="62.642831382668" lon="17.973828769809">
        <ele>33.4</ele>
        <time>2018-02-18T13:45:59Z</time>
      </trkpt>
      <trkpt lat="62.64285216978" lon="17.973705723517">
        <ele>33.2</ele>
        <time>2018-02-18T13:46:00Z</time>
      </trkpt>
      <trkpt lat="62.642851750685" lon="17.973598099921">
        <ele>33</ele>
        <time>2018-02-18T13:46:01Z</time>
      </trkpt>
      <trkpt lat="62.642833394324" lon="17.973511682532">
        <ele>32.8</ele>
        <time>2018-02-18T13:46:02Z</time>
      </trkpt>
      <trkpt lat="62.642835825075" lon="17.973429623731">
        <ele>33</ele>
        <time>2018-02-18T13:46:03Z</time>
      </trkpt>
      <trkpt lat="62.642833561962" lon="17.973349073672">
        <ele>32.6</ele>
        <time>2018-02-18T13:46:04Z</time>
      </trkpt>
      <trkpt lat="62.642824593329" lon="17.973262237188">
        <ele>32.6</ele>
        <time>2018-02-18T13:46:05Z</time>
      </trkpt>
      <trkpt lat="62.642820402379" lon="17.973180848939">
        <ele>32.6</ele>
        <time>2018-02-18T13:46:06Z</time>
      </trkpt>
      <trkpt lat="62.642813110126" lon="17.97312293001">
        <ele>32.6</ele>
        <time>2018-02-18T13:46:07Z</time>
      </trkpt>
      <trkpt lat="62.642800453457" lon="17.973046822358">
        <ele>32.6</ele>
        <time>2018-02-18T13:46:08Z</time>
      </trkpt>
      <trkpt lat="62.642802548932" lon="17.972969792697">
        <ele>32.6</ele>
        <time>2018-02-18T13:46:09Z</time>
      </trkpt>
      <trkpt lat="62.642791401005" lon="17.972924195161">
        <ele>32.4</ele>
        <time>2018-02-18T13:46:10Z</time>
      </trkpt>
      <trkpt lat="62.64277924725" lon="17.972866946784">
        <ele>32.6</ele>
        <time>2018-02-18T13:46:11Z</time>
      </trkpt>
      <trkpt lat="62.642762399631" lon="17.972809530769">
        <ele>32.6</ele>
        <time>2018-02-18T13:46:12Z</time>
      </trkpt>
      <trkpt lat="62.642744210908" lon="17.972757982084">
        <ele>32.6</ele>
        <time>2018-02-18T13:46:13Z</time>
      </trkpt>
      <trkpt lat="62.642724178167" lon="17.972709450883">
        <ele>32.8</ele>
        <time>2018-02-18T13:46:14Z</time>
      </trkpt>
      <trkpt lat="62.64270548653" lon="17.97265019085">
        <ele>32.8</ele>
        <time>2018-02-18T13:46:15Z</time>
      </trkpt>
      <trkpt lat="62.642687716902" lon="17.972596295233">
        <ele>33</ele>
        <time>2018-02-18T13:46:16Z</time>
      </trkpt>
      <trkpt lat="62.642674641138" lon="17.972543992177">
        <ele>33</ele>
        <time>2018-02-18T13:46:17Z</time>
      </trkpt>
      <trkpt lat="62.642662319745" lon="17.972487917266">
        <ele>33.2</ele>
        <time>2018-02-18T13:46:18Z</time>
      </trkpt>
      <trkpt lat="62.642651674732" lon="17.972422622265">
        <ele>33.2</ele>
        <time>2018-02-18T13:46:19Z</time>
      </trkpt>
      <trkpt lat="62.642637006407" lon="17.972371576494">
        <ele>33.2</ele>
        <time>2018-02-18T13:46:20Z</time>
      </trkpt>
      <trkpt lat="62.642624685014" lon="17.972339054722">
        <ele>33.4</ele>
        <time>2018-02-18T13:46:21Z</time>
      </trkpt>
      <trkpt lat="62.642613537087" lon="17.972283147449">
        <ele>33.6</ele>
        <time>2018-02-18T13:46:22Z</time>
      </trkpt>
      <trkpt lat="62.642594761631" lon="17.972219277371">
        <ele>33.6</ele>
        <time>2018-02-18T13:46:23Z</time>
      </trkpt>
      <trkpt lat="62.642581769686" lon="17.972155910207">
        <ele>33.8</ele>
        <time>2018-02-18T13:46:24Z</time>
      </trkpt>
      <trkpt lat="62.642566514628" lon="17.972082903858">
        <ele>33.8</ele>
        <time>2018-02-18T13:46:25Z</time>
      </trkpt>
      <trkpt lat="62.642555701977" lon="17.972024398196">
        <ele>33.8</ele>
        <time>2018-02-18T13:46:26Z</time>
      </trkpt>
      <trkpt lat="62.642543548222" lon="17.971958013548">
        <ele>33.8</ele>
        <time>2018-02-18T13:46:27Z</time>
      </trkpt>
      <trkpt lat="62.642536842702" lon="17.971903112103">
        <ele>33.8</ele>
        <time>2018-02-18T13:46:28Z</time>
      </trkpt>
      <trkpt lat="62.642547739172" lon="17.971857430748">
        <ele>33.8</ele>
        <time>2018-02-18T13:46:29Z</time>
      </trkpt>
      <trkpt lat="62.642581937324" lon="17.971830357211">
        <ele>34</ele>
        <time>2018-02-18T13:46:30Z</time>
      </trkpt>
      <trkpt lat="62.642608843223" lon="17.97183966112">
        <ele>34</ele>
        <time>2018-02-18T13:46:31Z</time>
      </trkpt>
      <trkpt lat="62.642630971439" lon="17.971871596159">
        <ele>34</ele>
        <time>2018-02-18T13:46:32Z</time>
      </trkpt>
      <trkpt lat="62.642655949501" lon="17.971930101821">
        <ele>34.2</ele>
        <time>2018-02-18T13:46:33Z</time>
      </trkpt>
      <trkpt lat="62.642672294206" lon="17.971969161475">
        <ele>34.2</ele>
        <time>2018-02-18T13:46:34Z</time>
      </trkpt>
      <trkpt lat="62.642696014983" lon="17.972027918594">
        <ele>34.2</ele>
        <time>2018-02-18T13:46:35Z</time>
      </trkpt>
      <trkpt lat="62.642717807923" lon="17.97207183975">
        <ele>34</ele>
        <time>2018-02-18T13:46:36Z</time>
      </trkpt>
      <trkpt lat="62.642729626402" lon="17.972121712055">
        <ele>33.8</ele>
        <time>2018-02-18T13:46:37Z</time>
      </trkpt>
      <trkpt lat="62.642747647487" lon="17.972198825535">
        <ele>33.6</ele>
        <time>2018-02-18T13:46:38Z</time>
      </trkpt>
      <trkpt lat="62.64276164526" lon="17.972252218238">
        <ele>33.2</ele>
        <time>2018-02-18T13:46:39Z</time>
      </trkpt>
      <trkpt lat="62.642774553386" lon="17.972303264009">
        <ele>33</ele>
        <time>2018-02-18T13:46:40Z</time>
      </trkpt>
      <trkpt lat="62.642791484824" lon="17.972370319209">
        <ele>33</ele>
        <time>2018-02-18T13:46:41Z</time>
      </trkpt>
      <trkpt lat="62.642804309131" lon="17.972440391893">
        <ele>33</ele>
        <time>2018-02-18T13:46:42Z</time>
      </trkpt>
      <trkpt lat="62.642819648008" lon="17.972501495944">
        <ele>32.8</ele>
        <time>2018-02-18T13:46:43Z</time>
      </trkpt>
      <trkpt lat="62.642835825075" lon="17.972564946927">
        <ele>32.8</ele>
        <time>2018-02-18T13:46:44Z</time>
      </trkpt>
      <trkpt lat="62.642854935807" lon="17.972604844771">
        <ele>32.8</ele>
        <time>2018-02-18T13:46:45Z</time>
      </trkpt>
      <trkpt lat="62.642868011571" lon="17.972688077038">
        <ele>32.8</ele>
        <time>2018-02-18T13:46:46Z</time>
      </trkpt>
      <trkpt lat="62.64287647729" lon="17.972754545505">
        <ele>32.6</ele>
        <time>2018-02-18T13:46:47Z</time>
      </trkpt>
      <trkpt lat="62.642886787027" lon="17.972833167727">
        <ele>32.4</ele>
        <time>2018-02-18T13:46:48Z</time>
      </trkpt>
      <trkpt lat="62.642902293542" lon="17.972918746926">
        <ele>32.2</ele>
        <time>2018-02-18T13:46:49Z</time>
      </trkpt>
      <trkpt lat="62.642914363478" lon="17.972993681112">
        <ele>32</ele>
        <time>2018-02-18T13:46:50Z</time>
      </trkpt>
      <trkpt lat="62.64291922498" lon="17.973072051877">
        <ele>31.8</ele>
        <time>2018-02-18T13:46:51Z</time>
      </trkpt>
      <trkpt lat="62.642926936328" lon="17.973130725177">
        <ele>31.8</ele>
        <time>2018-02-18T13:46:52Z</time>
      </trkpt>
      <trkpt lat="62.642948058716" lon="17.973196523092">
        <ele>31.8</ele>
        <time>2018-02-18T13:46:53Z</time>
      </trkpt>
      <trkpt lat="62.642955015693" lon="17.973278162798">
        <ele>31.8</ele>
        <time>2018-02-18T13:46:54Z</time>
      </trkpt>
      <trkpt lat="62.642966498896" lon="17.9733500795">
        <ele>31.6</ele>
        <time>2018-02-18T13:46:55Z</time>
      </trkpt>
      <trkpt lat="62.642971108941" lon="17.973417637614">
        <ele>31.8</ele>
        <time>2018-02-18T13:46:56Z</time>
      </trkpt>
      <trkpt lat="62.642977563004" lon="17.973497517121">
        <ele>31.4</ele>
        <time>2018-02-18T13:46:57Z</time>
      </trkpt>
      <trkpt lat="62.642985693447" lon="17.973568092719">
        <ele>31.4</ele>
        <time>2018-02-18T13:46:58Z</time>
      </trkpt>
      <trkpt lat="62.64298544199" lon="17.97365685704">
        <ele>31.2</ele>
        <time>2018-02-18T13:46:59Z</time>
      </trkpt>
      <trkpt lat="62.64299214751" lon="17.973734221977">
        <ele>31.2</ele>
        <time>2018-02-18T13:47:00Z</time>
      </trkpt>
      <trkpt lat="62.642997511926" lon="17.973811000181">
        <ele>31.2</ele>
        <time>2018-02-18T13:47:01Z</time>
      </trkpt>
      <trkpt lat="62.643003546894" lon="17.973890963507">
        <ele>31.4</ele>
        <time>2018-02-18T13:47:02Z</time>
      </trkpt>
      <trkpt lat="62.643001702876" lon="17.973979811647">
        <ele>31.2</ele>
        <time>2018-02-18T13:47:03Z</time>
      </trkpt>
      <trkpt lat="62.643001116143" lon="17.97404158625">
        <ele>31.4</ele>
        <time>2018-02-18T13:47:04Z</time>
      </trkpt>
      <trkpt lat="62.642995248813" lon="17.974141247041">
        <ele>31.4</ele>
        <time>2018-02-18T13:47:05Z</time>
      </trkpt>
      <trkpt lat="62.642991141682" lon="17.974212660829">
        <ele>31.2</ele>
        <time>2018-02-18T13:47:06Z</time>
      </trkpt>
      <trkpt lat="62.642988208017" lon="17.974283739341">
        <ele>31.2</ele>
        <time>2018-02-18T13:47:07Z</time>
      </trkpt>
      <trkpt lat="62.642985777266" lon="17.974368899445">
        <ele>31.4</ele>
        <time>2018-02-18T13:47:08Z</time>
      </trkpt>
      <trkpt lat="62.642983178877" lon="17.974454143368">
        <ele>31.2</ele>
        <time>2018-02-18T13:47:09Z</time>
      </trkpt>
      <trkpt lat="62.642984687619" lon="17.974515917971">
        <ele>31.2</ele>
        <time>2018-02-18T13:47:10Z</time>
      </trkpt>
      <trkpt lat="62.642975299891" lon="17.974605352844">
        <ele>31.2</ele>
        <time>2018-02-18T13:47:11Z</time>
      </trkpt>
      <trkpt lat="62.642972952959" lon="17.974664277601">
        <ele>31.2</ele>
        <time>2018-02-18T13:47:12Z</time>
      </trkpt>
      <trkpt lat="62.642970019294" lon="17.974740385253">
        <ele>31.2</ele>
        <time>2018-02-18T13:47:13Z</time>
      </trkpt>
      <trkpt lat="62.642972282407" lon="17.97481523562">
        <ele>31.2</ele>
        <time>2018-02-18T13:47:14Z</time>
      </trkpt>
      <trkpt lat="62.642974880796" lon="17.974883464286">
        <ele>31</ele>
        <time>2018-02-18T13:47:15Z</time>
      </trkpt>
      <trkpt lat="62.642979071746" lon="17.974953788427">
        <ele>31.2</ele>
        <time>2018-02-18T13:47:16Z</time>
      </trkpt>
      <trkpt lat="62.642988208017" lon="17.975028471156">
        <ele>31.2</ele>
        <time>2018-02-18T13:47:17Z</time>
      </trkpt>
      <trkpt lat="62.642992315148" lon="17.97509770565">
        <ele>31.2</ele>
        <time>2018-02-18T13:47:18Z</time>
      </trkpt>
      <trkpt lat="62.642991560777" lon="17.975172891293">
        <ele>31</ele>
        <time>2018-02-18T13:47:19Z</time>
      </trkpt>
      <trkpt lat="62.642987621284" lon="17.97523768338">
        <ele>31</ele>
        <time>2018-02-18T13:47:20Z</time>
      </trkpt>
      <trkpt lat="62.642977982099" lon="17.975292081911">
        <ele>31.2</ele>
        <time>2018-02-18T13:47:21Z</time>
      </trkpt>
      <trkpt lat="62.642967923819" lon="17.975338182361">
        <ele>31.2</ele>
        <time>2018-02-18T13:47:22Z</time>
      </trkpt>
      <trkpt lat="62.642956189159" lon="17.97540029224">
        <ele>31.2</ele>
        <time>2018-02-18T13:47:23Z</time>
      </trkpt>
      <trkpt lat="62.642938838626" lon="17.975461061015">
        <ele>31.2</ele>
        <time>2018-02-18T13:47:24Z</time>
      </trkpt>
      <trkpt lat="62.642932049287" lon="17.975511100958">
        <ele>31.4</ele>
        <time>2018-02-18T13:47:25Z</time>
      </trkpt>
      <trkpt lat="62.64292257774" lon="17.975558542512">
        <ele>31.4</ele>
        <time>2018-02-18T13:47:26Z</time>
      </trkpt>
      <trkpt lat="62.642916375134" lon="17.975601709297">
        <ele>31.4</ele>
        <time>2018-02-18T13:47:27Z</time>
      </trkpt>
      <trkpt lat="62.642909334338" lon="17.975663902995">
        <ele>31.4</ele>
        <time>2018-02-18T13:47:28Z</time>
      </trkpt>
      <trkpt lat="62.642907406501" lon="17.975712685653">
        <ele>31.6</ele>
        <time>2018-02-18T13:47:29Z</time>
      </trkpt>
      <trkpt lat="62.642907574139" lon="17.975790385866">
        <ele>31.6</ele>
        <time>2018-02-18T13:47:30Z</time>
      </trkpt>
      <trkpt lat="62.642902042085" lon="17.975867331708">
        <ele>31.8</ele>
        <time>2018-02-18T13:47:31Z</time>
      </trkpt>
      <trkpt lat="62.642895504203" lon="17.975928435759">
        <ele>31.8</ele>
        <time>2018-02-18T13:47:32Z</time>
      </trkpt>
      <trkpt lat="62.642897851135" lon="17.976000771556">
        <ele>31.8</ele>
        <time>2018-02-18T13:47:33Z</time>
      </trkpt>
      <trkpt lat="62.642898354049" lon="17.976060450684">
        <ele>31.8</ele>
        <time>2018-02-18T13:47:34Z</time>
      </trkpt>
      <trkpt lat="62.64289407928" lon="17.976125578047">
        <ele>31.8</ele>
        <time>2018-02-18T13:47:35Z</time>
      </trkpt>
      <trkpt lat="62.642883350448" lon="17.976205876649">
        <ele>31.8</ele>
        <time>2018-02-18T13:47:36Z</time>
      </trkpt>
      <trkpt lat="62.642887289941" lon="17.976253904936">
        <ele>31.8</ele>
        <time>2018-02-18T13:47:37Z</time>
      </trkpt>
      <trkpt lat="62.642883434267" lon="17.976311237132">
        <ele>31.8</ele>
        <time>2018-02-18T13:47:38Z</time>
      </trkpt>
      <trkpt lat="62.642873375987" lon="17.976381142178">
        <ele>31.8</ele>
        <time>2018-02-18T13:47:39Z</time>
      </trkpt>
      <trkpt lat="62.642869101218" lon="17.976431768854">
        <ele>31.8</ele>
        <time>2018-02-18T13:47:40Z</time>
      </trkpt>
      <trkpt lat="62.642867843933" lon="17.976486251204">
        <ele>31.8</ele>
        <time>2018-02-18T13:47:41Z</time>
      </trkpt>
      <trkpt lat="62.642864072078" lon="17.976555737155">
        <ele>31.8</ele>
        <time>2018-02-18T13:47:42Z</time>
      </trkpt>
      <trkpt lat="62.642863652983" lon="17.97662824059">
        <ele>31.8</ele>
        <time>2018-02-18T13:47:43Z</time>
      </trkpt>
      <trkpt lat="62.642859126757" lon="17.976697642722">
        <ele>31.8</ele>
        <time>2018-02-18T13:47:44Z</time>
      </trkpt>
      <trkpt lat="62.642853259427" lon="17.976781210265">
        <ele>31.8</ele>
        <time>2018-02-18T13:47:45Z</time>
      </trkpt>
      <trkpt lat="62.642848314106" lon="17.976826807801">
        <ele>31.8</ele>
        <time>2018-02-18T13:47:46Z</time>
      </trkpt>
      <trkpt lat="62.642839261654" lon="17.976877853572">
        <ele>31.8</ele>
        <time>2018-02-18T13:47:47Z</time>
      </trkpt>
      <trkpt lat="62.642825515338" lon="17.976935437225">
        <ele>31.8</ele>
        <time>2018-02-18T13:47:48Z</time>
      </trkpt>
      <trkpt lat="62.642813110126" lon="17.976985728625">
        <ele>31.8</ele>
        <time>2018-02-18T13:47:49Z</time>
      </trkpt>
      <trkpt lat="62.642803890036" lon="17.977030487971">
        <ele>32</ele>
        <time>2018-02-18T13:47:50Z</time>
      </trkpt>
      <trkpt lat="62.642795591955" lon="17.977086646701">
        <ele>32</ele>
        <time>2018-02-18T13:47:51Z</time>
      </trkpt>
      <trkpt lat="62.642787461512" lon="17.977146325829">
        <ele>32.2</ele>
        <time>2018-02-18T13:47:52Z</time>
      </trkpt>
      <trkpt lat="62.642786874779" lon="17.977202819835">
        <ele>32.2</ele>
        <time>2018-02-18T13:47:53Z</time>
      </trkpt>
      <trkpt lat="62.642782683829" lon="17.977254787615">
        <ele>32.4</ele>
        <time>2018-02-18T13:47:54Z</time>
      </trkpt>
      <trkpt lat="62.642769524246" lon="17.977322345729">
        <ele>32.4</ele>
        <time>2018-02-18T13:47:55Z</time>
      </trkpt>
      <trkpt lat="62.642759382147" lon="17.977374397328">
        <ele>32.6</ele>
        <time>2018-02-18T13:47:56Z</time>
      </trkpt>
      <trkpt lat="62.642746306383" lon="17.977418989036">
        <ele>32.4</ele>
        <time>2018-02-18T13:47:57Z</time>
      </trkpt>
      <trkpt lat="62.642729458764" lon="17.977482020924">
        <ele>32.6</ele>
        <time>2018-02-18T13:47:58Z</time>
      </trkpt>
      <trkpt lat="62.642713700792" lon="17.977539269301">
        <ele>32.4</ele>
        <time>2018-02-18T13:47:59Z</time>
      </trkpt>
      <trkpt lat="62.642701211761" lon="17.977583525733">
        <ele>32.6</ele>
        <time>2018-02-18T13:48:00Z</time>
      </trkpt>
      <trkpt lat="62.642689812377" lon="17.977617975342">
        <ele>32.8</ele>
        <time>2018-02-18T13:48:01Z</time>
      </trkpt>
      <trkpt lat="62.642675144052" lon="17.977652927865">
        <ele>32.8</ele>
        <time>2018-02-18T13:48:02Z</time>
      </trkpt>
      <trkpt lat="62.642660308089" lon="17.977685952551">
        <ele>33</ele>
        <time>2018-02-18T13:48:03Z</time>
      </trkpt>
      <trkpt lat="62.642634408018" lon="17.977715624477">
        <ele>33.4</ele>
        <time>2018-02-18T13:48:04Z</time>
      </trkpt>
      <trkpt lat="62.64261496201" lon="17.977754684131">
        <ele>33.6</ele>
        <time>2018-02-18T13:48:05Z</time>
      </trkpt>
      <trkpt lat="62.642599706952" lon="17.977778069632">
        <ele>33.6</ele>
        <time>2018-02-18T13:48:06Z</time>
      </trkpt>
      <trkpt lat="62.642582356419" lon="17.977800616943">
        <ele>33.8</ele>
        <time>2018-02-18T13:48:07Z</time>
      </trkpt>
      <trkpt lat="62.642557797452" lon="17.977829031584">
        <ele>33.8</ele>
        <time>2018-02-18T13:48:08Z</time>
      </trkpt>
      <trkpt lat="62.642536758883" lon="17.977849651058">
        <ele>33.8</ele>
        <time>2018-02-18T13:48:09Z</time>
      </trkpt>
      <trkpt lat="62.64251940835" lon="17.977878317156">
        <ele>34</ele>
        <time>2018-02-18T13:48:10Z</time>
      </trkpt>
      <trkpt lat="62.642503734197" lon="17.977900780648">
        <ele>34.2</ele>
        <time>2018-02-18T13:48:11Z</time>
      </trkpt>
      <trkpt lat="62.642478420859" lon="17.977927267452">
        <ele>34.4</ele>
        <time>2018-02-18T13:48:12Z</time>
      </trkpt>
      <trkpt lat="62.64244983858" lon="17.977955179179">
        <ele>34.6</ele>
        <time>2018-02-18T13:48:13Z</time>
      </trkpt>
      <trkpt lat="62.642441289042" lon="17.977983258544">
        <ele>34.8</ele>
        <time>2018-02-18T13:48:14Z</time>
      </trkpt>
      <trkpt lat="62.642427123631" lon="17.978006057312">
        <ele>34.8</ele>
        <time>2018-02-18T13:48:15Z</time>
      </trkpt>
      <trkpt lat="62.642414383143" lon="17.978031622107">
        <ele>34.8</ele>
        <time>2018-02-18T13:48:16Z</time>
      </trkpt>
      <trkpt lat="62.642400553008" lon="17.978062216042">
        <ele>34.8</ele>
        <time>2018-02-18T13:48:17Z</time>
      </trkpt>
      <trkpt lat="62.642383202475" lon="17.978098593488">
        <ele>35</ele>
        <time>2018-02-18T13:48:18Z</time>
      </trkpt>
      <trkpt lat="62.642365684304" lon="17.978147795241">
        <ele>35.4</ele>
        <time>2018-02-18T13:48:19Z</time>
      </trkpt>
      <trkpt lat="62.642357386223" lon="17.978193895691">
        <ele>35.6</ele>
        <time>2018-02-18T13:48:20Z</time>
      </trkpt>
      <trkpt lat="62.642349423418" lon="17.978230692232">
        <ele>36</ele>
        <time>2018-02-18T13:48:21Z</time>
      </trkpt>
      <trkpt lat="62.64233416836" lon="17.978272601732">
        <ele>36</ele>
        <time>2018-02-18T13:48:22Z</time>
      </trkpt>
      <trkpt lat="62.642320170587" lon="17.978330688299">
        <ele>36.2</ele>
        <time>2018-02-18T13:48:23Z</time>
      </trkpt>
      <trkpt lat="62.642312794515" lon="17.978374357998">
        <ele>36.2</ele>
        <time>2018-02-18T13:48:24Z</time>
      </trkpt>
      <trkpt lat="62.642295276344" lon="17.978407131227">
        <ele>36.2</ele>
        <time>2018-02-18T13:48:25Z</time>
      </trkpt>
      <trkpt lat="62.642282703494" lon="17.978439150085">
        <ele>36.4</ele>
        <time>2018-02-18T13:48:26Z</time>
      </trkpt>
      <trkpt lat="62.642268286626" lon="17.978472510047">
        <ele>36.4</ele>
        <time>2018-02-18T13:48:27Z</time>
      </trkpt>
      <trkpt lat="62.642252277197" lon="17.978503355439">
        <ele>36.4</ele>
        <time>2018-02-18T13:48:28Z</time>
      </trkpt>
      <trkpt lat="62.642233753198" lon="17.978541493084">
        <ele>36.6</ele>
        <time>2018-02-18T13:48:29Z</time>
      </trkpt>
      <trkpt lat="62.64221263081" lon="17.978562196377">
        <ele>36.8</ele>
        <time>2018-02-18T13:48:30Z</time>
      </trkpt>
      <trkpt lat="62.642200979969" lon="17.978587761172">
        <ele>37</ele>
        <time>2018-02-18T13:48:31Z</time>
      </trkpt>
      <trkpt lat="62.642187988024" lon="17.97861223632">
        <ele>37</ele>
        <time>2018-02-18T13:48:32Z</time>
      </trkpt>
      <trkpt lat="62.642168793473" lon="17.97863738202">
        <ele>37.2</ele>
        <time>2018-02-18T13:48:33Z</time>
      </trkpt>
      <trkpt lat="62.64215395751" lon="17.97866252772">
        <ele>37.6</ele>
        <time>2018-02-18T13:48:34Z</time>
      </trkpt>
      <trkpt lat="62.642143480135" lon="17.97868264428">
        <ele>37.6</ele>
        <time>2018-02-18T13:48:35Z</time>
      </trkpt>
      <trkpt lat="62.642129482362" lon="17.978705945962">
        <ele>37.8</ele>
        <time>2018-02-18T13:48:36Z</time>
      </trkpt>
      <trkpt lat="62.642106515956" lon="17.978721536296">
        <ele>38</ele>
        <time>2018-02-18T13:48:37Z</time>
      </trkpt>
      <trkpt lat="62.642072569261" lon="17.97873880301">
        <ele>38.2</ele>
        <time>2018-02-18T13:48:38Z</time>
      </trkpt>
      <trkpt lat="62.642055218728" lon="17.978745759987">
        <ele>38.2</ele>
        <time>2018-02-18T13:48:39Z</time>
      </trkpt>
      <trkpt lat="62.642041891507" lon="17.978751040584">
        <ele>38.2</ele>
        <time>2018-02-18T13:48:40Z</time>
      </trkpt>
      <trkpt lat="62.642030575942" lon="17.978749615661">
        <ele>38.4</ele>
        <time>2018-02-18T13:48:41Z</time>
      </trkpt>
      <trkpt lat="62.64201649435" lon="17.97875221405">
        <ele>38.4</ele>
        <time>2018-02-18T13:48:42Z</time>
      </trkpt>
      <trkpt lat="62.641999311455" lon="17.978757578466">
        <ele>38.6</ele>
        <time>2018-02-18T13:48:43Z</time>
      </trkpt>
      <trkpt lat="62.641978524343" lon="17.978764535443">
        <ele>38.8</ele>
        <time>2018-02-18T13:48:44Z</time>
      </trkpt>
      <trkpt lat="62.64196033562" lon="17.978758751932">
        <ele>39.2</ele>
        <time>2018-02-18T13:48:45Z</time>
      </trkpt>
      <trkpt lat="62.641939632327" lon="17.97877484518">
        <ele>39.4</ele>
        <time>2018-02-18T13:48:46Z</time>
      </trkpt>
      <trkpt lat="62.641921862699" lon="17.978778868492">
        <ele>39.6</ele>
        <time>2018-02-18T13:48:47Z</time>
      </trkpt>
      <trkpt lat="62.64189579499" lon="17.978792698627">
        <ele>39.8</ele>
        <time>2018-02-18T13:48:48Z</time>
      </trkpt>
      <trkpt lat="62.641880037018" lon="17.978803846554">
        <ele>40</ele>
        <time>2018-02-18T13:48:49Z</time>
      </trkpt>
      <trkpt lat="62.641858998449" lon="17.978815748852">
        <ele>40.2</ele>
        <time>2018-02-18T13:48:50Z</time>
      </trkpt>
      <trkpt lat="62.641841480278" lon="17.978825723313">
        <ele>40.4</ele>
        <time>2018-02-18T13:48:51Z</time>
      </trkpt>
      <trkpt lat="62.641823543012" lon="17.978830836272">
        <ele>40.6</ele>
        <time>2018-02-18T13:48:52Z</time>
      </trkpt>
      <trkpt lat="62.64180862323" lon="17.978837541792">
        <ele>40.6</ele>
        <time>2018-02-18T13:48:53Z</time>
      </trkpt>
      <trkpt lat="62.641781633512" lon="17.978838463801">
        <ele>40.8</ele>
        <time>2018-02-18T13:48:54Z</time>
      </trkpt>
      <trkpt lat="62.641769144481" lon="17.978842654751">
        <ele>41</ele>
        <time>2018-02-18T13:48:55Z</time>
      </trkpt>
      <trkpt lat="62.641746178075" lon="17.978844834045">
        <ele>41.2</ele>
        <time>2018-02-18T13:48:56Z</time>
      </trkpt>
      <trkpt lat="62.641732431759" lon="17.978850869013">
        <ele>41.4</ele>
        <time>2018-02-18T13:48:57Z</time>
      </trkpt>
      <trkpt lat="62.641721619108" lon="17.978854054135">
        <ele>41.6</ele>
        <time>2018-02-18T13:48:58Z</time>
      </trkpt>
      <trkpt lat="62.641703095109" lon="17.978857993628">
        <ele>41.8</ele>
        <time>2018-02-18T13:48:59Z</time>
      </trkpt>
      <trkpt lat="62.641687169499" lon="17.97885950237">
        <ele>42.2</ele>
        <time>2018-02-18T13:49:00Z</time>
      </trkpt>
      <trkpt lat="62.641676692124" lon="17.978863609501">
        <ele>42.4</ele>
        <time>2018-02-18T13:49:01Z</time>
      </trkpt>
      <trkpt lat="62.641661353247" lon="17.97886201694">
        <ele>42.6</ele>
        <time>2018-02-18T13:49:02Z</time>
      </trkpt>
      <trkpt lat="62.641646601103" lon="17.978864280053">
        <ele>43</ele>
        <time>2018-02-18T13:49:03Z</time>
      </trkpt>
      <trkpt lat="62.641626233086" lon="17.978861765483">
        <ele>43</ele>
        <time>2018-02-18T13:49:04Z</time>
      </trkpt>
      <trkpt lat="62.641610894209" lon="17.978856233429">
        <ele>43.2</ele>
        <time>2018-02-18T13:49:05Z</time>
      </trkpt>
      <trkpt lat="62.641592705486" lon="17.978856568705">
        <ele>43.4</ele>
        <time>2018-02-18T13:49:06Z</time>
      </trkpt>
      <trkpt lat="62.641574852039" lon="17.978844247312">
        <ele>43.4</ele>
        <time>2018-02-18T13:49:07Z</time>
      </trkpt>
      <trkpt lat="62.641560854266" lon="17.978816419404">
        <ele>43.6</ele>
        <time>2018-02-18T13:49:08Z</time>
      </trkpt>
      <trkpt lat="62.641540234792" lon="17.9787983145">
        <ele>44</ele>
        <time>2018-02-18T13:49:09Z</time>
      </trkpt>
      <trkpt lat="62.641521207879" lon="17.978791776618">
        <ele>44.4</ele>
        <time>2018-02-18T13:49:10Z</time>
      </trkpt>
      <trkpt lat="62.641500672224" lon="17.978795548473">
        <ele>44.6</ele>
        <time>2018-02-18T13:49:11Z</time>
      </trkpt>
      <trkpt lat="62.641485417166" lon="17.978790603152">
        <ele>44.8</ele>
        <time>2018-02-18T13:49:12Z</time>
      </trkpt>
      <trkpt lat="62.641467228443" lon="17.978780041958">
        <ele>45.2</ele>
        <time>2018-02-18T13:49:13Z</time>
      </trkpt>
      <trkpt lat="62.641458343629" lon="17.978775431913">
        <ele>45.4</ele>
        <time>2018-02-18T13:49:14Z</time>
      </trkpt>
      <trkpt lat="62.641448704444" lon="17.978766714737">
        <ele>46</ele>
        <time>2018-02-18T13:49:15Z</time>
      </trkpt>
      <trkpt lat="62.641429090798" lon="17.978760093036">
        <ele>46</ele>
        <time>2018-02-18T13:49:16Z</time>
      </trkpt>
      <trkpt lat="62.641409141876" lon="17.978741652856">
        <ele>46.2</ele>
        <time>2018-02-18T13:49:17Z</time>
      </trkpt>
      <trkpt lat="62.64138869004" lon="17.978728577092">
        <ele>46.6</ele>
        <time>2018-02-18T13:49:18Z</time>
      </trkpt>
      <trkpt lat="62.641371674783" lon="17.97871281912">
        <ele>46.8</ele>
        <time>2018-02-18T13:49:19Z</time>
      </trkpt>
      <trkpt lat="62.64135097149" lon="17.978716088061">
        <ele>46.6</ele>
        <time>2018-02-18T13:49:20Z</time>
      </trkpt>
      <trkpt lat="62.641336051708" lon="17.978715836604">
        <ele>46.8</ele>
        <time>2018-02-18T13:49:21Z</time>
      </trkpt>
      <trkpt lat="62.641316018967" lon="17.978725475789">
        <ele>46.8</ele>
        <time>2018-02-18T13:49:22Z</time>
      </trkpt>
      <trkpt lat="62.641296740597" lon="17.978726984531">
        <ele>47</ele>
        <time>2018-02-18T13:49:23Z</time>
      </trkpt>
      <trkpt lat="62.641277294589" lon="17.978735953164">
        <ele>47.2</ele>
        <time>2018-02-18T13:49:24Z</time>
      </trkpt>
      <trkpt lat="62.641255669287" lon="17.978743748331">
        <ele>47.2</ele>
        <time>2018-02-18T13:49:25Z</time>
      </trkpt>
      <trkpt lat="62.641230775044" lon="17.978752716964">
        <ele>47.2</ele>
        <time>2018-02-18T13:49:26Z</time>
      </trkpt>
      <trkpt lat="62.641212334864" lon="17.978755818267">
        <ele>47.4</ele>
        <time>2018-02-18T13:49:27Z</time>
      </trkpt>
      <trkpt lat="62.641192385942" lon="17.978759925398">
        <ele>47.6</ele>
        <time>2018-02-18T13:49:28Z</time>
      </trkpt>
      <trkpt lat="62.641171766468" lon="17.978770318954">
        <ele>47.8</ele>
        <time>2018-02-18T13:49:29Z</time>
      </trkpt>
      <trkpt lat="62.641144860569" lon="17.97877484518">
        <ele>47.8</ele>
        <time>2018-02-18T13:49:30Z</time>
      </trkpt>
      <trkpt lat="62.641122313258" lon="17.978780880148">
        <ele>48.2</ele>
        <time>2018-02-18T13:49:31Z</time>
      </trkpt>
      <trkpt lat="62.641102531974" lon="17.978790686971">
        <ele>48.4</ele>
        <time>2018-02-18T13:49:32Z</time>
      </trkpt>
      <trkpt lat="62.641078895016" lon="17.978796051387">
        <ele>48.4</ele>
        <time>2018-02-18T13:49:33Z</time>
      </trkpt>
      <trkpt lat="62.641056934438" lon="17.978802673088">
        <ele>48.6</ele>
        <time>2018-02-18T13:49:34Z</time>
      </trkpt>
      <trkpt lat="62.641036817878" lon="17.978816167947">
        <ele>48.8</ele>
        <time>2018-02-18T13:49:35Z</time>
      </trkpt>
      <trkpt lat="62.641022317191" lon="17.978826310046">
        <ele>48.8</ele>
        <time>2018-02-18T13:49:36Z</time>
      </trkpt>
      <trkpt lat="62.640999937518" lon="17.97885363504">
        <ele>49</ele>
        <time>2018-02-18T13:49:37Z</time>
      </trkpt>
      <trkpt lat="62.640977557845" lon="17.978885402441">
        <ele>49.4</ele>
        <time>2018-02-18T13:49:38Z</time>
      </trkpt>
      <trkpt lat="62.640966745194" lon="17.978925132647">
        <ele>49.4</ele>
        <time>2018-02-18T13:49:39Z</time>
      </trkpt>
      <trkpt lat="62.640959285303" lon="17.978976597513">
        <ele>49.6</ele>
        <time>2018-02-18T13:49:40Z</time>
      </trkpt>
      <trkpt lat="62.640953250335" lon="17.97902965494">
        <ele>49.8</ele>
        <time>2018-02-18T13:49:41Z</time>
      </trkpt>
      <trkpt lat="62.640953920887" lon="17.979073659915">
        <ele>50</ele>
        <time>2018-02-18T13:49:42Z</time>
      </trkpt>
      <trkpt lat="62.640946293358" lon="17.979138452002">
        <ele>50.2</ele>
        <time>2018-02-18T13:49:43Z</time>
      </trkpt>
      <trkpt lat="62.640944952254" lon="17.979187989031">
        <ele>50.4</ele>
        <time>2018-02-18T13:49:44Z</time>
      </trkpt>
      <trkpt lat="62.64094528753" lon="17.97923752606">
        <ele>50.4</ele>
        <time>2018-02-18T13:49:45Z</time>
      </trkpt>
      <trkpt lat="62.640935480707" lon="17.979290248211">
        <ele>50.2</ele>
        <time>2018-02-18T13:49:46Z</time>
      </trkpt>
      <trkpt lat="62.640928020816" lon="17.979346826036">
        <ele>50.4</ele>
        <time>2018-02-18T13:49:47Z</time>
      </trkpt>
      <trkpt lat="62.640927266445" lon="17.979378258161">
        <ele>50.2</ele>
        <time>2018-02-18T13:49:48Z</time>
      </trkpt>
      <trkpt lat="62.640922907857" lon="17.979431818502">
        <ele>50</ele>
        <time>2018-02-18T13:49:49Z</time>
      </trkpt>
      <trkpt lat="62.6409142745" lon="17.979488647784">
        <ele>50</ele>
        <time>2018-02-18T13:49:50Z</time>
      </trkpt>
      <trkpt lat="62.640914023043" lon="17.979535837881">
        <ele>50</ele>
        <time>2018-02-18T13:49:51Z</time>
      </trkpt>
      <trkpt lat="62.640910502645" lon="17.979572131508">
        <ele>50</ele>
        <time>2018-02-18T13:49:52Z</time>
      </trkpt>
      <trkpt lat="62.640903461849" lon="17.979645976047">
        <ele>50</ele>
        <time>2018-02-18T13:49:53Z</time>
      </trkpt>
      <trkpt lat="62.640893990302" lon="17.979698698198">
        <ele>50.2</ele>
        <time>2018-02-18T13:49:54Z</time>
      </trkpt>
      <trkpt lat="62.640893571207" lon="17.979741781164">
        <ele>50.2</ele>
        <time>2018-02-18T13:49:55Z</time>
      </trkpt>
      <trkpt lat="62.64088158509" lon="17.979806908527">
        <ele>50.2</ele>
        <time>2018-02-18T13:49:56Z</time>
      </trkpt>
      <trkpt lat="62.640878902882" lon="17.979856194099">
        <ele>50.4</ele>
        <time>2018-02-18T13:49:57Z</time>
      </trkpt>
      <trkpt lat="62.640877477959" lon="17.979927440249">
        <ele>50.4</ele>
        <time>2018-02-18T13:49:58Z</time>
      </trkpt>
      <trkpt lat="62.640873287009" lon="17.98000111715">
        <ele>50.6</ele>
        <time>2018-02-18T13:49:59Z</time>
      </trkpt>
      <trkpt lat="62.640875298665" lon="17.980055096586">
        <ele>50.6</ele>
        <time>2018-02-18T13:50:00Z</time>
      </trkpt>
      <trkpt lat="62.640882255642" lon="17.980123995804">
        <ele>50.6</ele>
        <time>2018-02-18T13:50:01Z</time>
      </trkpt>
      <trkpt lat="62.640881249814" lon="17.980198594714">
        <ele>50.6</ele>
        <time>2018-02-18T13:50:02Z</time>
      </trkpt>
      <trkpt lat="62.640892565379" lon="17.980258022385">
        <ele>50.6</ele>
        <time>2018-02-18T13:50:03Z</time>
      </trkpt>
      <trkpt lat="62.640895582863" lon="17.98033890772">
        <ele>50.6</ele>
        <time>2018-02-18T13:50:04Z</time>
      </trkpt>
      <trkpt lat="62.640902288383" lon="17.980392468061">
        <ele>50.6</ele>
        <time>2018-02-18T13:50:05Z</time>
      </trkpt>
      <trkpt lat="62.640901534012" lon="17.980470922645">
        <ele>50.4</ele>
        <time>2018-02-18T13:50:06Z</time>
      </trkpt>
      <trkpt lat="62.64091511269" lon="17.980518364199">
        <ele>50.6</ele>
        <time>2018-02-18T13:50:07Z</time>
      </trkpt>
      <trkpt lat="62.640916369975" lon="17.980596986421">
        <ele>50.4</ele>
        <time>2018-02-18T13:50:08Z</time>
      </trkpt>
      <trkpt lat="62.640919471278" lon="17.980662365241">
        <ele>50.4</ele>
        <time>2018-02-18T13:50:09Z</time>
      </trkpt>
      <trkpt lat="62.640923913685" lon="17.980732354106">
        <ele>50</ele>
        <time>2018-02-18T13:50:10Z</time>
      </trkpt>
      <trkpt lat="62.64092852373" lon="17.980793374338">
        <ele>50</ele>
        <time>2018-02-18T13:50:11Z</time>
      </trkpt>
      <trkpt lat="62.64094444934" lon="17.980876522786">
        <ele>49.6</ele>
        <time>2018-02-18T13:50:12Z</time>
      </trkpt>
      <trkpt lat="62.640965320271" lon="17.980968639867">
        <ele>49.4</ele>
        <time>2018-02-18T13:50:13Z</time>
      </trkpt>
      <trkpt lat="62.640992142351" lon="17.981043574053">
        <ele>48.8</ele>
        <time>2018-02-18T13:50:14Z</time>
      </trkpt>
      <trkpt lat="62.641010414893" lon="17.981140384998">
        <ele>48.4</ele>
        <time>2018-02-18T13:50:15Z</time>
      </trkpt>
      <trkpt lat="62.641029357987" lon="17.981247086585">
        <ele>48</ele>
        <time>2018-02-18T13:50:16Z</time>
      </trkpt>
      <trkpt lat="62.641033716575" lon="17.981359068769">
        <ele>47.4</ele>
        <time>2018-02-18T13:50:17Z</time>
      </trkpt>
      <trkpt lat="62.64102575377" lon="17.981452191678">
        <ele>46.6</ele>
        <time>2018-02-18T13:50:18Z</time>
      </trkpt>
      <trkpt lat="62.641023323019" lon="17.981550762822">
        <ele>46.4</ele>
        <time>2018-02-18T13:50:19Z</time>
      </trkpt>
      <trkpt lat="62.64101401911" lon="17.981646148844">
        <ele>46.4</ele>
        <time>2018-02-18T13:50:20Z</time>
      </trkpt>
      <trkpt lat="62.64103245929" lon="17.98171856846">
        <ele>46.4</ele>
        <time>2018-02-18T13:50:21Z</time>
      </trkpt>
      <trkpt lat="62.641034303308" lon="17.981787551497">
        <ele>46.6</ele>
        <time>2018-02-18T13:50:22Z</time>
      </trkpt>
      <trkpt lat="62.641040338276" lon="17.981874974714">
        <ele>47</ele>
        <time>2018-02-18T13:50:23Z</time>
      </trkpt>
      <trkpt lat="62.641045618873" lon="17.981958542257">
        <ele>47.2</ele>
        <time>2018-02-18T13:50:24Z</time>
      </trkpt>
      <trkpt lat="62.641044780683" lon="17.982036913022">
        <ele>47</ele>
        <time>2018-02-18T13:50:25Z</time>
      </trkpt>
      <trkpt lat="62.641059532827" lon="17.982117295443">
        <ele>47</ele>
        <time>2018-02-18T13:50:26Z</time>
      </trkpt>
      <trkpt lat="62.641069591107" lon="17.982178902408">
        <ele>47</ele>
        <time>2018-02-18T13:50:27Z</time>
      </trkpt>
      <trkpt lat="62.641075123161" lon="17.982247633988">
        <ele>46.8</ele>
        <time>2018-02-18T13:50:28Z</time>
      </trkpt>
      <trkpt lat="62.641087193097" lon="17.982333297006">
        <ele>46.8</ele>
        <time>2018-02-18T13:50:29Z</time>
      </trkpt>
      <trkpt lat="62.641101442327" lon="17.982413595608">
        <ele>46.8</ele>
        <time>2018-02-18T13:50:30Z</time>
      </trkpt>
      <trkpt lat="62.641112003521" lon="17.982484003568">
        <ele>47</ele>
        <time>2018-02-18T13:50:31Z</time>
      </trkpt>
      <trkpt lat="62.64111879286" lon="17.982540749031">
        <ele>47</ele>
        <time>2018-02-18T13:50:32Z</time>
      </trkpt>
      <trkpt lat="62.641126671846" lon="17.982604451471">
        <ele>47</ele>
        <time>2018-02-18T13:50:33Z</time>
      </trkpt>
      <trkpt lat="62.641133545004" lon="17.982694556896">
        <ele>47</ele>
        <time>2018-02-18T13:50:34Z</time>
      </trkpt>
      <trkpt lat="62.641146117854" lon="17.98278306976">
        <ele>46.8</ele>
        <time>2018-02-18T13:50:35Z</time>
      </trkpt>
      <trkpt lat="62.641145112026" lon="17.982838809395">
        <ele>47</ele>
        <time>2018-02-18T13:50:36Z</time>
      </trkpt>
      <trkpt lat="62.641137484497" lon="17.982927573716">
        <ele>46.6</ele>
        <time>2018-02-18T13:50:37Z</time>
      </trkpt>
      <trkpt lat="62.641147123682" lon="17.983042657203">
        <ele>46.2</ele>
        <time>2018-02-18T13:50:38Z</time>
      </trkpt>
      <trkpt lat="62.641149470614" lon="17.983121782339">
        <ele>46.2</ele>
        <time>2018-02-18T13:50:39Z</time>
      </trkpt>
      <trkpt lat="62.641157601057" lon="17.983199314914">
        <ele>46</ele>
        <time>2018-02-18T13:50:40Z</time>
      </trkpt>
      <trkpt lat="62.641172772296" lon="17.983285648484">
        <ele>45.6</ele>
        <time>2018-02-18T13:50:41Z</time>
      </trkpt>
      <trkpt lat="62.641192972675" lon="17.983351865494">
        <ele>45.6</ele>
        <time>2018-02-18T13:50:42Z</time>
      </trkpt>
      <trkpt lat="62.641217531642" lon="17.983442390014">
        <ele>45.6</ele>
        <time>2018-02-18T13:50:43Z</time>
      </trkpt>
      <trkpt lat="62.641222057868" lon="17.983563843745">
        <ele>45.2</ele>
        <time>2018-02-18T13:50:44Z</time>
      </trkpt>
      <trkpt lat="62.641217950737" lon="17.983687644408">
        <ele>44.8</ele>
        <time>2018-02-18T13:50:45Z</time>
      </trkpt>
      <trkpt lat="62.641214514158" lon="17.983791496149">
        <ele>44.4</ele>
        <time>2018-02-18T13:50:46Z</time>
      </trkpt>
      <trkpt lat="62.641213592149" lon="17.983896940451">
        <ele>43.8</ele>
        <time>2018-02-18T13:50:47Z</time>
      </trkpt>
      <trkpt lat="62.641211245217" lon="17.984019735286">
        <ele>43.8</ele>
        <time>2018-02-18T13:50:48Z</time>
      </trkpt>
      <trkpt lat="62.641210323208" lon="17.984140686103">
        <ele>43.4</ele>
        <time>2018-02-18T13:50:49Z</time>
      </trkpt>
      <trkpt lat="62.641210490846" lon="17.984258787074">
        <ele>43</ele>
        <time>2018-02-18T13:50:50Z</time>
      </trkpt>
      <trkpt lat="62.641198756186" lon="17.984375379303">
        <ele>42.8</ele>
        <time>2018-02-18T13:50:51Z</time>
      </trkpt>
      <trkpt lat="62.641197666539" lon="17.984470010954">
        <ele>42.4</ele>
        <time>2018-02-18T13:50:52Z</time>
      </trkpt>
      <trkpt lat="62.641195403426" lon="17.984604875725">
        <ele>42.4</ele>
        <time>2018-02-18T13:50:53Z</time>
      </trkpt>
      <trkpt lat="62.641193894684" lon="17.984710403846">
        <ele>42</ele>
        <time>2018-02-18T13:50:54Z</time>
      </trkpt>
      <trkpt lat="62.641187021526" lon="17.98481903327">
        <ele>41.8</ele>
        <time>2018-02-18T13:50:55Z</time>
      </trkpt>
      <trkpt lat="62.641173107572" lon="17.984931434549">
        <ele>41.6</ele>
        <time>2018-02-18T13:50:56Z</time>
      </trkpt>
      <trkpt lat="62.641165647681" lon="17.985015588825">
        <ele>41.6</ele>
        <time>2018-02-18T13:50:57Z</time>
      </trkpt>
      <trkpt lat="62.641164138939" lon="17.985099575463">
        <ele>41.6</ele>
        <time>2018-02-18T13:50:58Z</time>
      </trkpt>
      <trkpt lat="62.641161875826" lon="17.985186328128">
        <ele>41.8</ele>
        <time>2018-02-18T13:50:59Z</time>
      </trkpt>
      <trkpt lat="62.641165647681" lon="17.985283893444">
        <ele>41.6</ele>
        <time>2018-02-18T13:51:00Z</time>
      </trkpt>
      <trkpt lat="62.641159528894" lon="17.985386404081">
        <ele>41.4</ele>
        <time>2018-02-18T13:51:01Z</time>
      </trkpt>
      <trkpt lat="62.641149722071" lon="17.985476425687">
        <ele>41.2</ele>
        <time>2018-02-18T13:51:02Z</time>
      </trkpt>
      <trkpt lat="62.641142765094" lon="17.985588826966">
        <ele>41.2</ele>
        <time>2018-02-18T13:51:03Z</time>
      </trkpt>
      <trkpt lat="62.641128348226" lon="17.985677004554">
        <ele>40.8</ele>
        <time>2018-02-18T13:51:04Z</time>
      </trkpt>
      <trkpt lat="62.641121055973" lon="17.985751352007">
        <ele>40.8</ele>
        <time>2018-02-18T13:51:05Z</time>
      </trkpt>
      <trkpt lat="62.64111627829" lon="17.985804577072">
        <ele>40.8</ele>
        <time>2018-02-18T13:51:06Z</time>
      </trkpt>
      <trkpt lat="62.641099765947" lon="17.985883115475">
        <ele>40.8</ele>
        <time>2018-02-18T13:51:07Z</time>
      </trkpt>
      <trkpt lat="62.641087444554" lon="17.985999875342">
        <ele>40.8</ele>
        <time>2018-02-18T13:51:08Z</time>
      </trkpt>
      <trkpt lat="62.641079481749" lon="17.986054860606">
        <ele>40.8</ele>
        <time>2018-02-18T13:51:09Z</time>
      </trkpt>
      <trkpt lat="62.641067830908" lon="17.986119317417">
        <ele>40.6</ele>
        <time>2018-02-18T13:51:10Z</time>
      </trkpt>
      <trkpt lat="62.641057018257" lon="17.986206992091">
        <ele>40.8</ele>
        <time>2018-02-18T13:51:11Z</time>
      </trkpt>
      <trkpt lat="62.641049474547" lon="17.98626742559">
        <ele>40.8</ele>
        <time>2018-02-18T13:51:12Z</time>
      </trkpt>
      <trkpt lat="62.641033129842" lon="17.986361889603">
        <ele>40.8</ele>
        <time>2018-02-18T13:51:13Z</time>
      </trkpt>
      <trkpt lat="62.641025586132" lon="17.986446882069">
        <ele>40.8</ele>
        <time>2018-02-18T13:51:14Z</time>
      </trkpt>
      <trkpt lat="62.641021059906" lon="17.986514272545">
        <ele>40.6</ele>
        <time>2018-02-18T13:51:15Z</time>
      </trkpt>
      <trkpt lat="62.641013097101" lon="17.986584512867">
        <ele>40.8</ele>
        <time>2018-02-18T13:51:16Z</time>
      </trkpt>
      <trkpt lat="62.640999937518" lon="17.986674199197">
        <ele>40.8</ele>
        <time>2018-02-18T13:51:17Z</time>
      </trkpt>
      <trkpt lat="62.64098384427" lon="17.986753827247">
        <ele>40.8</ele>
        <time>2018-02-18T13:51:18Z</time>
      </trkpt>
      <trkpt lat="62.6409729478" lon="17.986829683442">
        <ele>40.8</ele>
        <time>2018-02-18T13:51:19Z</time>
      </trkpt>
      <trkpt lat="62.640971606696" lon="17.986895313719">
        <ele>40.6</ele>
        <time>2018-02-18T13:51:20Z</time>
      </trkpt>
      <trkpt lat="62.640960291131" lon="17.986969325896">
        <ele>40.6</ele>
        <time>2018-02-18T13:51:21Z</time>
      </trkpt>
      <trkpt lat="62.640952495964" lon="17.987040152951">
        <ele>40.6</ele>
        <time>2018-02-18T13:51:22Z</time>
      </trkpt>
      <trkpt lat="62.640950819584" lon="17.987129001091">
        <ele>40.6</ele>
        <time>2018-02-18T13:51:23Z</time>
      </trkpt>
      <trkpt lat="62.640946544815" lon="17.987199828146">
        <ele>40.6</ele>
        <time>2018-02-18T13:51:24Z</time>
      </trkpt>
      <trkpt lat="62.640938079096" lon="17.987278618006">
        <ele>40.6</ele>
        <time>2018-02-18T13:51:25Z</time>
      </trkpt>
      <trkpt lat="62.640925422427" lon="17.987356821133">
        <ele>40.6</ele>
        <time>2018-02-18T13:51:26Z</time>
      </trkpt>
      <trkpt lat="62.640907652799" lon="17.987431084767">
        <ele>40.6</ele>
        <time>2018-02-18T13:51:27Z</time>
      </trkpt>
      <trkpt lat="62.640896421053" lon="17.987503923478">
        <ele>40.6</ele>
        <time>2018-02-18T13:51:28Z</time>
      </trkpt>
      <trkpt lat="62.640881501271" lon="17.987584808813">
        <ele>40.6</ele>
        <time>2018-02-18T13:51:29Z</time>
      </trkpt>
      <trkpt lat="62.640877226502" lon="17.987640464629">
        <ele>40.6</ele>
        <time>2018-02-18T13:51:30Z</time>
      </trkpt>
      <trkpt lat="62.640869598973" lon="17.987699976119">
        <ele>40.6</ele>
        <time>2018-02-18T13:51:31Z</time>
      </trkpt>
      <trkpt lat="62.640856942304" lon="17.987763846197">
        <ele>40.6</ele>
        <time>2018-02-18T13:51:32Z</time>
      </trkpt>
      <trkpt lat="62.640851577888" lon="17.987825453162">
        <ele>40.4</ele>
        <time>2018-02-18T13:51:33Z</time>
      </trkpt>
      <trkpt lat="62.640839591771" lon="17.987892759819">
        <ele>40.2</ele>
        <time>2018-02-18T13:51:34Z</time>
      </trkpt>
      <trkpt lat="62.640827857111" lon="17.987969035109">
        <ele>40.2</ele>
        <time>2018-02-18T13:51:35Z</time>
      </trkpt>
      <trkpt lat="62.640828862939" lon="17.98803265373">
        <ele>40.2</ele>
        <time>2018-02-18T13:51:36Z</time>
      </trkpt>
      <trkpt lat="62.640820061944" lon="17.988090321202">
        <ele>40.2</ele>
        <time>2018-02-18T13:51:38Z</time>
      </trkpt>
      <trkpt lat="62.640807069999" lon="17.988142624258">
        <ele>40</ele>
        <time>2018-02-18T13:51:39Z</time>
      </trkpt>
      <trkpt lat="62.640791982579" lon="17.988205739965">
        <ele>40</ele>
        <time>2018-02-18T13:51:40Z</time>
      </trkpt>
      <trkpt lat="62.640770692553" lon="17.988258294478">
        <ele>40</ele>
        <time>2018-02-18T13:51:41Z</time>
      </trkpt>
      <trkpt lat="62.640749737803" lon="17.988305316937">
        <ele>40</ele>
        <time>2018-02-18T13:51:42Z</time>
      </trkpt>
      <trkpt lat="62.640730627071" lon="17.988357619993">
        <ele>40</ele>
        <time>2018-02-18T13:51:43Z</time>
      </trkpt>
      <trkpt lat="62.640697770023" lon="17.988394667991">
        <ele>40</ele>
        <time>2018-02-18T13:51:44Z</time>
      </trkpt>
      <trkpt lat="62.640669355382" lon="17.988427022125">
        <ele>40</ele>
        <time>2018-02-18T13:51:45Z</time>
      </trkpt>
      <trkpt lat="62.64064940646" lon="17.988477564982">
        <ele>40</ele>
        <time>2018-02-18T13:51:46Z</time>
      </trkpt>
      <trkpt lat="62.64062509895" lon="17.988519139206">
        <ele>40</ele>
        <time>2018-02-18T13:51:47Z</time>
      </trkpt>
      <trkpt lat="62.640615375946" lon="17.988554259367">
        <ele>40.2</ele>
        <time>2018-02-18T13:51:48Z</time>
      </trkpt>
      <trkpt lat="62.640592744816" lon="17.988595498315">
        <ele>40.2</ele>
        <time>2018-02-18T13:51:49Z</time>
      </trkpt>
      <trkpt lat="62.640571370971" lon="17.988636401987">
        <ele>40.4</ele>
        <time>2018-02-18T13:51:50Z</time>
      </trkpt>
      <trkpt lat="62.64054127995" lon="17.988664732809">
        <ele>40.4</ele>
        <time>2018-02-18T13:51:51Z</time>
      </trkpt>
      <trkpt lat="62.64051445787" lon="17.988706474671">
        <ele>40.6</ele>
        <time>2018-02-18T13:51:52Z</time>
      </trkpt>
      <trkpt lat="62.640500795373" lon="17.988734470217">
        <ele>40.6</ele>
        <time>2018-02-18T13:51:53Z</time>
      </trkpt>
      <trkpt lat="62.640486713781" lon="17.98876355541">
        <ele>40.6</ele>
        <time>2018-02-18T13:51:54Z</time>
      </trkpt>
      <trkpt lat="62.640467351592" lon="17.988808063299">
        <ele>41</ele>
        <time>2018-02-18T13:51:55Z</time>
      </trkpt>
      <trkpt lat="62.640447737946" lon="17.9888482126">
        <ele>41</ele>
        <time>2018-02-18T13:51:56Z</time>
      </trkpt>
      <trkpt lat="62.640430806508" lon="17.988894480688">
        <ele>41.2</ele>
        <time>2018-02-18T13:51:57Z</time>
      </trkpt>
      <trkpt lat="62.640414880898" lon="17.988947621934">
        <ele>41.2</ele>
        <time>2018-02-18T13:51:58Z</time>
      </trkpt>
      <trkpt lat="62.640399793478" lon="17.98899992499">
        <ele>41.2</ele>
        <time>2018-02-18T13:51:59Z</time>
      </trkpt>
      <trkpt lat="62.64039375851" lon="17.98903596716">
        <ele>41.4</ele>
        <time>2018-02-18T13:52:00Z</time>
      </trkpt>
      <trkpt lat="62.640377162348" lon="17.989081648515">
        <ele>41.4</ele>
        <time>2018-02-18T13:52:01Z</time>
      </trkpt>
      <trkpt lat="62.640361488195" lon="17.989134789761">
        <ele>41.4</ele>
        <time>2018-02-18T13:52:02Z</time>
      </trkpt>
      <trkpt lat="62.640347825698" lon="17.989168987913">
        <ele>41.6</ele>
        <time>2018-02-18T13:52:03Z</time>
      </trkpt>
      <trkpt lat="62.640330391346" lon="17.98921450163">
        <ele>41.6</ele>
        <time>2018-02-18T13:52:04Z</time>
      </trkpt>
      <trkpt lat="62.640303904542" lon="17.989255321483">
        <ele>41.6</ele>
        <time>2018-02-18T13:52:05Z</time>
      </trkpt>
      <trkpt lat="62.640284123258" lon="17.989305612883">
        <ele>41.8</ele>
        <time>2018-02-18T13:52:06Z</time>
      </trkpt>
      <trkpt lat="62.640269371114" lon="17.989346516555">
        <ele>41.8</ele>
        <time>2018-02-18T13:52:07Z</time>
      </trkpt>
      <trkpt lat="62.640251014753" lon="17.989393706652">
        <ele>41.8</ele>
        <time>2018-02-18T13:52:08Z</time>
      </trkpt>
      <trkpt lat="62.640232490754" lon="17.989433185401">
        <ele>42</ele>
        <time>2018-02-18T13:52:09Z</time>
      </trkpt>
      <trkpt lat="62.640222516293" lon="17.989461348585">
        <ele>42</ele>
        <time>2018-02-18T13:52:10Z</time>
      </trkpt>
      <trkpt lat="62.640208015606" lon="17.989502587533">
        <ele>42</ele>
        <time>2018-02-18T13:52:11Z</time>
      </trkpt>
      <trkpt lat="62.640189659245" lon="17.98954893944">
        <ele>42.2</ele>
        <time>2018-02-18T13:52:12Z</time>
      </trkpt>
      <trkpt lat="62.640179433327" lon="17.989566876706">
        <ele>42.4</ele>
        <time>2018-02-18T13:52:13Z</time>
      </trkpt>
      <trkpt lat="62.640169542685" lon="17.98960845093">
        <ele>42.4</ele>
        <time>2018-02-18T13:52:14Z</time>
      </trkpt>
      <trkpt lat="62.640154539084" lon="17.989672069551">
        <ele>42.6</ele>
        <time>2018-02-18T13:52:15Z</time>
      </trkpt>
      <trkpt lat="62.640144564623" lon="17.989727306272">
        <ele>42.8</ele>
        <time>2018-02-18T13:52:16Z</time>
      </trkpt>
      <trkpt lat="62.640140541311" lon="17.989758738397">
        <ele>42.8</ele>
        <time>2018-02-18T13:52:17Z</time>
      </trkpt>
      <trkpt lat="62.640125872986" lon="17.98981883662">
        <ele>43</ele>
        <time>2018-02-18T13:52:18Z</time>
      </trkpt>
      <trkpt lat="62.640126627357" lon="17.989883461069">
        <ele>43</ele>
        <time>2018-02-18T13:52:19Z</time>
      </trkpt>
      <trkpt lat="62.640123190778" lon="17.989924783836">
        <ele>43.2</ele>
        <time>2018-02-18T13:52:20Z</time>
      </trkpt>
      <trkpt lat="62.640112797222" lon="17.989983876231">
        <ele>43</ele>
        <time>2018-02-18T13:52:21Z</time>
      </trkpt>
      <trkpt lat="62.640095279051" lon="17.990043387721">
        <ele>43.2</ele>
        <time>2018-02-18T13:52:22Z</time>
      </trkpt>
      <trkpt lat="62.640088405893" lon="17.99007783733">
        <ele>43.4</ele>
        <time>2018-02-18T13:52:23Z</time>
      </trkpt>
      <trkpt lat="62.640073318473" lon="17.990125697979">
        <ele>43.4</ele>
        <time>2018-02-18T13:52:24Z</time>
      </trkpt>
      <trkpt lat="62.640043646547" lon="17.990170205868">
        <ele>43.6</ele>
        <time>2018-02-18T13:52:25Z</time>
      </trkpt>
      <trkpt lat="62.640022691797" lon="17.990215803404">
        <ele>43.6</ele>
        <time>2018-02-18T13:52:26Z</time>
      </trkpt>
      <trkpt lat="62.640006263273" lon="17.990260311293">
        <ele>43.8</ele>
        <time>2018-02-18T13:52:27Z</time>
      </trkpt>
      <trkpt lat="62.639985895256" lon="17.99031001596">
        <ele>44</ele>
        <time>2018-02-18T13:52:28Z</time>
      </trkpt>
      <trkpt lat="62.639963934678" lon="17.990363911577">
        <ele>44.2</ele>
        <time>2018-02-18T13:52:29Z</time>
      </trkpt>
      <trkpt lat="62.639952619113" lon="17.990403725602">
        <ele>44.4</ele>
        <time>2018-02-18T13:52:30Z</time>
      </trkpt>
      <trkpt lat="62.639927054318" lon="17.990456783029">
        <ele>44.4</ele>
        <time>2018-02-18T13:52:31Z</time>
      </trkpt>
      <trkpt lat="62.639907189215" lon="17.99050447604">
        <ele>44.4</ele>
        <time>2018-02-18T13:52:32Z</time>
      </trkpt>
      <trkpt lat="62.639896628021" lon="17.990545463531">
        <ele>44.4</ele>
        <time>2018-02-18T13:52:33Z</time>
      </trkpt>
      <trkpt lat="62.639870979407" lon="17.990598437139">
        <ele>44.4</ele>
        <time>2018-02-18T13:52:34Z</time>
      </trkpt>
      <trkpt lat="62.639850443752" lon="17.990632635291">
        <ele>44.6</ele>
        <time>2018-02-18T13:52:35Z</time>
      </trkpt>
      <trkpt lat="62.639839631101" lon="17.990670186203">
        <ele>44.6</ele>
        <time>2018-02-18T13:52:36Z</time>
      </trkpt>
      <trkpt lat="62.639817335247" lon="17.990723746544">
        <ele>44.6</ele>
        <time>2018-02-18T13:52:37Z</time>
      </trkpt>
      <trkpt lat="62.639804259483" lon="17.990760626904">
        <ele>44.6</ele>
        <time>2018-02-18T13:52:38Z</time>
      </trkpt>
      <trkpt lat="62.639791267538" lon="17.990785521147">
        <ele>44.6</ele>
        <time>2018-02-18T13:52:39Z</time>
      </trkpt>
      <trkpt lat="62.639767882037" lon="17.990825921905">
        <ele>44.8</ele>
        <time>2018-02-18T13:52:40Z</time>
      </trkpt>
      <trkpt lat="62.639751788789" lon="17.990847463388">
        <ele>45</ele>
        <time>2018-02-18T13:52:41Z</time>
      </trkpt>
      <trkpt lat="62.639738796844" lon="17.99088166154">
        <ele>45</ele>
        <time>2018-02-18T13:52:42Z</time>
      </trkpt>
      <trkpt lat="62.639727648917" lon="17.9909185419">
        <ele>45.2</ele>
        <time>2018-02-18T13:52:43Z</time>
      </trkpt>
      <trkpt lat="62.639720943397" lon="17.990953242966">
        <ele>45.4</ele>
        <time>2018-02-18T13:52:44Z</time>
      </trkpt>
      <trkpt lat="62.63970979547" lon="17.991002193262">
        <ele>45.6</ele>
        <time>2018-02-18T13:52:45Z</time>
      </trkpt>
      <trkpt lat="62.639694037498" lon="17.991043935124">
        <ele>45.6</ele>
        <time>2018-02-18T13:52:46Z</time>
      </trkpt>
      <trkpt lat="62.639692444937" lon="17.991081569855">
        <ele>46</ele>
        <time>2018-02-18T13:52:47Z</time>
      </trkpt>
      <trkpt lat="62.63967794425" lon="17.991123311717">
        <ele>46</ele>
        <time>2018-02-18T13:52:48Z</time>
      </trkpt>
      <trkpt lat="62.63967123873" lon="17.991179721904">
        <ele>46</ele>
        <time>2018-02-18T13:52:49Z</time>
      </trkpt>
      <trkpt lat="62.639665119943" lon="17.991215512617">
        <ele>46.2</ele>
        <time>2018-02-18T13:52:50Z</time>
      </trkpt>
      <trkpt lat="62.639653720559" lon="17.991278879781">
        <ele>46</ele>
        <time>2018-02-18T13:52:51Z</time>
      </trkpt>
      <trkpt lat="62.639645003383" lon="17.991329674095">
        <ele>46</ele>
        <time>2018-02-18T13:52:52Z</time>
      </trkpt>
      <trkpt lat="62.639644751926" lon="17.991361692953">
        <ele>46</ele>
        <time>2018-02-18T13:52:53Z</time>
      </trkpt>
      <trkpt lat="62.639631927619" lon="17.991418606054">
        <ele>46.2</ele>
        <time>2018-02-18T13:52:54Z</time>
      </trkpt>
      <trkpt lat="62.63962430009" lon="17.991470154739">
        <ele>46.2</ele>
        <time>2018-02-18T13:52:55Z</time>
      </trkpt>
      <trkpt lat="62.639618265122" lon="17.991518434483">
        <ele>46.6</ele>
        <time>2018-02-18T13:52:56Z</time>
      </trkpt>
      <trkpt lat="62.639618684217" lon="17.991555901576">
        <ele>46.8</ele>
        <time>2018-02-18T13:52:57Z</time>
      </trkpt>
      <trkpt lat="62.639614912362" lon="17.991603175492">
        <ele>47</ele>
        <time>2018-02-18T13:52:58Z</time>
      </trkpt>
      <trkpt lat="62.639608625937" lon="17.991665117733">
        <ele>47</ele>
        <time>2018-02-18T13:52:59Z</time>
      </trkpt>
      <trkpt lat="62.639603764435" lon="17.99170392593">
        <ele>47</ele>
        <time>2018-02-18T13:53:00Z</time>
      </trkpt>
      <trkpt lat="62.639601082227" lon="17.991748182362">
        <ele>47</ele>
        <time>2018-02-18T13:53:01Z</time>
      </trkpt>
      <trkpt lat="62.639591191585" lon="17.991821523987">
        <ele>47</ele>
        <time>2018-02-18T13:53:02Z</time>
      </trkpt>
      <trkpt lat="62.639592113594" lon="17.991850441542">
        <ele>47.2</ele>
        <time>2018-02-18T13:53:03Z</time>
      </trkpt>
      <trkpt lat="62.639583480237" lon="17.991899643295">
        <ele>47.2</ele>
        <time>2018-02-18T13:53:04Z</time>
      </trkpt>
      <trkpt lat="62.639578115821" lon="17.991969213065">
        <ele>47.4</ele>
        <time>2018-02-18T13:53:05Z</time>
      </trkpt>
      <trkpt lat="62.639573924871" lon="17.992002153932">
        <ele>47.4</ele>
        <time>2018-02-18T13:53:06Z</time>
      </trkpt>
      <trkpt lat="62.639557161071" lon="17.992080692335">
        <ele>47.4</ele>
        <time>2018-02-18T13:53:07Z</time>
      </trkpt>
      <trkpt lat="62.639554059768" lon="17.992113549383">
        <ele>47.4</ele>
        <time>2018-02-18T13:53:08Z</time>
      </trkpt>
      <trkpt lat="62.63954299566" lon="17.992165936258">
        <ele>47.6</ele>
        <time>2018-02-18T13:53:09Z</time>
      </trkpt>
      <trkpt lat="62.639537044511" lon="17.99222947106">
        <ele>47.8</ele>
        <time>2018-02-18T13:53:10Z</time>
      </trkpt>
      <trkpt lat="62.639528662611" lon="17.992264591221">
        <ele>47.8</ele>
        <time>2018-02-18T13:53:11Z</time>
      </trkpt>
      <trkpt lat="62.639513575191" lon="17.992314212069">
        <ele>47.8</ele>
        <time>2018-02-18T13:53:12Z</time>
      </trkpt>
      <trkpt lat="62.639510222431" lon="17.992360815433">
        <ele>47.8</ele>
        <time>2018-02-18T13:53:13Z</time>
      </trkpt>
      <trkpt lat="62.639508126956" lon="17.992405993874">
        <ele>48</ele>
        <time>2018-02-18T13:53:14Z</time>
      </trkpt>
      <trkpt lat="62.639495805563" lon="17.992465673002">
        <ele>48</ele>
        <time>2018-02-18T13:53:15Z</time>
      </trkpt>
      <trkpt lat="62.639486417835" lon="17.99252032299">
        <ele>48</ele>
        <time>2018-02-18T13:53:16Z</time>
      </trkpt>
      <trkpt lat="62.639488094215" lon="17.992565669069">
        <ele>48.2</ele>
        <time>2018-02-18T13:53:17Z</time>
      </trkpt>
      <trkpt lat="62.639489854414" lon="17.992638675418">
        <ele>48.2</ele>
        <time>2018-02-18T13:53:18Z</time>
      </trkpt>
      <trkpt lat="62.639491614613" lon="17.992691146112">
        <ele>48.2</ele>
        <time>2018-02-18T13:53:19Z</time>
      </trkpt>
      <trkpt lat="62.639495805563" lon="17.99273238506">
        <ele>48.2</ele>
        <time>2018-02-18T13:53:20Z</time>
      </trkpt>
      <trkpt lat="62.639491949889" lon="17.992825927064">
        <ele>48.2</ele>
        <time>2018-02-18T13:53:21Z</time>
      </trkpt>
      <trkpt lat="62.639498320133" lon="17.992861047225">
        <ele>48.2</ele>
        <time>2018-02-18T13:53:22Z</time>
      </trkpt>
      <trkpt lat="62.639496559934" lon="17.992901615621">
        <ele>48.2</ele>
        <time>2018-02-18T13:53:23Z</time>
      </trkpt>
      <trkpt lat="62.639507540223" lon="17.992991804865">
        <ele>48.2</ele>
        <time>2018-02-18T13:53:24Z</time>
      </trkpt>
      <trkpt lat="62.639508378413" lon="17.99302156061">
        <ele>48.4</ele>
        <time>2018-02-18T13:53:25Z</time>
      </trkpt>
      <trkpt lat="62.639510473888" lon="17.993064811214">
        <ele>48.4</ele>
        <time>2018-02-18T13:53:26Z</time>
      </trkpt>
      <trkpt lat="62.639505528567" lon="17.993122059591">
        <ele>48.4</ele>
        <time>2018-02-18T13:53:27Z</time>
      </trkpt>
      <trkpt lat="62.639506282938" lon="17.993157682666">
        <ele>48.4</ele>
        <time>2018-02-18T13:53:28Z</time>
      </trkpt>
      <trkpt lat="62.639512317906" lon="17.993196658501">
        <ele>48.4</ele>
        <time>2018-02-18T13:53:29Z</time>
      </trkpt>
      <trkpt lat="62.639501672893" lon="17.993284584632">
        <ele>48.4</ele>
        <time>2018-02-18T13:53:30Z</time>
      </trkpt>
      <trkpt lat="62.639498068676" lon="17.993331104177">
        <ele>48.6</ele>
        <time>2018-02-18T13:53:31Z</time>
      </trkpt>
      <trkpt lat="62.639493290993" lon="17.993377707541">
        <ele>48.6</ele>
        <time>2018-02-18T13:53:32Z</time>
      </trkpt>
      <trkpt lat="62.639479879953" lon="17.993460353075">
        <ele>48.8</ele>
        <time>2018-02-18T13:53:33Z</time>
      </trkpt>
      <trkpt lat="62.639474766994" lon="17.993525228981">
        <ele>48.8</ele>
        <time>2018-02-18T13:53:34Z</time>
      </trkpt>
      <trkpt lat="62.639471665691" lon="17.993583818462">
        <ele>49</ele>
        <time>2018-02-18T13:53:35Z</time>
      </trkpt>
      <trkpt lat="62.639447861095" lon="17.993659004105">
        <ele>48.8</ele>
        <time>2018-02-18T13:53:36Z</time>
      </trkpt>
      <trkpt lat="62.639410645459" lon="17.993710468971">
        <ele>48.8</ele>
        <time>2018-02-18T13:53:37Z</time>
      </trkpt>
      <trkpt lat="62.63939882698" lon="17.993752881385">
        <ele>49</ele>
        <time>2018-02-18T13:53:38Z</time>
      </trkpt>
      <trkpt lat="62.639382146999" lon="17.993784062053">
        <ele>49</ele>
        <time>2018-02-18T13:53:39Z</time>
      </trkpt>
      <trkpt lat="62.639362617172" lon="17.993812979608">
        <ele>49</ele>
        <time>2018-02-18T13:53:40Z</time>
      </trkpt>
      <trkpt lat="62.639340656594" lon="17.993840639878">
        <ele>49</ele>
        <time>2018-02-18T13:53:41Z</time>
      </trkpt>
      <trkpt lat="62.639324395708" lon="17.993874418935">
        <ele>49.2</ele>
        <time>2018-02-18T13:53:42Z</time>
      </trkpt>
      <trkpt lat="62.639300842569" lon="17.993913310951">
        <ele>49.2</ele>
        <time>2018-02-18T13:53:43Z</time>
      </trkpt>
      <trkpt lat="62.639273433756" lon="17.993956561555">
        <ele>49.4</ele>
        <time>2018-02-18T13:53:44Z</time>
      </trkpt>
      <trkpt lat="62.639251556997" lon="17.993994112467">
        <ele>49.4</ele>
        <time>2018-02-18T13:53:45Z</time>
      </trkpt>
      <trkpt lat="62.639236050482" lon="17.994009535163">
        <ele>49.4</ele>
        <time>2018-02-18T13:53:46Z</time>
      </trkpt>
      <trkpt lat="62.639223729089" lon="17.99405001974">
        <ele>49.6</ele>
        <time>2018-02-18T13:53:47Z</time>
      </trkpt>
      <trkpt lat="62.639213922266" lon="17.994084217892">
        <ele>49.8</ele>
        <time>2018-02-18T13:53:48Z</time>
      </trkpt>
      <trkpt lat="62.639201181778" lon="17.994125037745">
        <ele>49.8</ele>
        <time>2018-02-18T13:53:49Z</time>
      </trkpt>
      <trkpt lat="62.639191123498" lon="17.994171305833">
        <ele>50.2</ele>
        <time>2018-02-18T13:53:50Z</time>
      </trkpt>
      <trkpt lat="62.639176119897" lon="17.994207767098">
        <ele>50.4</ele>
        <time>2018-02-18T13:53:51Z</time>
      </trkpt>
      <trkpt lat="62.63916161921" lon="17.994252191168">
        <ele>50.6</ele>
        <time>2018-02-18T13:53:52Z</time>
      </trkpt>
      <trkpt lat="62.639154243138" lon="17.994287059872">
        <ele>50.8</ele>
        <time>2018-02-18T13:53:53Z</time>
      </trkpt>
      <trkpt lat="62.639139239537" lon="17.994345146439">
        <ele>50.8</ele>
        <time>2018-02-18T13:53:54Z</time>
      </trkpt>
      <trkpt lat="62.639121469909" lon="17.99439451583">
        <ele>50.8</ele>
        <time>2018-02-18T13:53:55Z</time>
      </trkpt>
      <trkpt lat="62.639113926199" lon="17.994424271575">
        <ele>51</ele>
        <time>2018-02-18T13:53:56Z</time>
      </trkpt>
      <trkpt lat="62.639093474363" lon="17.994480933219">
        <ele>51</ele>
        <time>2018-02-18T13:53:57Z</time>
      </trkpt>
      <trkpt lat="62.639078806038" lon="17.994514209362">
        <ele>51.2</ele>
        <time>2018-02-18T13:53:58Z</time>
      </trkpt>
      <trkpt lat="62.639070675595" lon="17.994534577379">
        <ele>51.4</ele>
        <time>2018-02-18T13:53:59Z</time>
      </trkpt>
      <trkpt lat="62.639047541551" lon="17.994590484652">
        <ele>51.4</ele>
        <time>2018-02-18T13:54:00Z</time>
      </trkpt>
      <trkpt lat="62.63903253795" lon="17.994632897066">
        <ele>51.4</ele>
        <time>2018-02-18T13:54:01Z</time>
      </trkpt>
      <trkpt lat="62.639014768322" lon="17.994668352503">
        <ele>51.6</ele>
        <time>2018-02-18T13:54:02Z</time>
      </trkpt>
      <trkpt lat="62.638991215183" lon="17.994706825424">
        <ele>51.6</ele>
        <time>2018-02-18T13:54:03Z</time>
      </trkpt>
      <trkpt lat="62.638976295401" lon="17.994739095739">
        <ele>51.8</ele>
        <time>2018-02-18T13:54:04Z</time>
      </trkpt>
      <trkpt lat="62.638961962352" lon="17.994776395194">
        <ele>51.8</ele>
        <time>2018-02-18T13:54:05Z</time>
      </trkpt>
      <trkpt lat="62.638938912127" lon="17.994821741273">
        <ele>51.8</ele>
        <time>2018-02-18T13:54:06Z</time>
      </trkpt>
      <trkpt lat="62.638926255458" lon="17.994854514502">
        <ele>52</ele>
        <time>2018-02-18T13:54:07Z</time>
      </trkpt>
      <trkpt lat="62.638911670952" lon="17.994886952455">
        <ele>51.8</ele>
        <time>2018-02-18T13:54:08Z</time>
      </trkpt>
      <trkpt lat="62.638889123641" lon="17.994930203059">
        <ele>52</ele>
        <time>2018-02-18T13:54:09Z</time>
      </trkpt>
      <trkpt lat="62.638870348185" lon="17.994968089247">
        <ele>52</ele>
        <time>2018-02-18T13:54:10Z</time>
      </trkpt>
      <trkpt lat="62.638858864982" lon="17.995001197752">
        <ele>52.4</ele>
        <time>2018-02-18T13:54:11Z</time>
      </trkpt>
      <trkpt lat="62.638850231625" lon="17.995026008176">
        <ele>52.4</ele>
        <time>2018-02-18T13:54:12Z</time>
      </trkpt>
      <trkpt lat="62.638839418974" lon="17.995064062002">
        <ele>52.6</ele>
        <time>2018-02-18T13:54:13Z</time>
      </trkpt>
      <trkpt lat="62.638813854179" lon="17.995099098344">
        <ele>52.8</ele>
        <time>2018-02-18T13:54:14Z</time>
      </trkpt>
      <trkpt lat="62.638800275501" lon="17.995128099718">
        <ele>52.8</ele>
        <time>2018-02-18T13:54:15Z</time>
      </trkpt>
      <trkpt lat="62.638768256643" lon="17.995167159372">
        <ele>52.8</ele>
        <time>2018-02-18T13:54:16Z</time>
      </trkpt>
      <trkpt lat="62.638750989929" lon="17.995202195714">
        <ele>53</ele>
        <time>2018-02-18T13:54:17Z</time>
      </trkpt>
      <trkpt lat="62.638741183106" lon="17.995234046934">
        <ele>53</ele>
        <time>2018-02-18T13:54:18Z</time>
      </trkpt>
      <trkpt lat="62.638721318003" lon="17.995273106588">
        <ele>53.2</ele>
        <time>2018-02-18T13:54:19Z</time>
      </trkpt>
      <trkpt lat="62.638701536719" lon="17.995313088251">
        <ele>53.2</ele>
        <time>2018-02-18T13:54:20Z</time>
      </trkpt>
      <trkpt lat="62.638693490095" lon="17.995338150132">
        <ele>53.4</ele>
        <time>2018-02-18T13:54:21Z</time>
      </trkpt>
      <trkpt lat="62.638666500377" lon="17.99537603632">
        <ele>53.4</ele>
        <time>2018-02-18T13:54:22Z</time>
      </trkpt>
      <trkpt lat="62.638646886731" lon="17.995410653567">
        <ele>53.6</ele>
        <time>2018-02-18T13:54:23Z</time>
      </trkpt>
      <trkpt lat="62.638625931981" lon="17.995447366289">
        <ele>53.6</ele>
        <time>2018-02-18T13:54:24Z</time>
      </trkpt>
      <trkpt lat="62.63860003191" lon="17.995489443427">
        <ele>53.4</ele>
        <time>2018-02-18T13:54:25Z</time>
      </trkpt>
      <trkpt lat="62.638581256454" lon="17.995530347099">
        <ele>53.6</ele>
        <time>2018-02-18T13:54:26Z</time>
      </trkpt>
      <trkpt lat="62.638572706916" lon="17.995559683749">
        <ele>53.4</ele>
        <time>2018-02-18T13:54:27Z</time>
      </trkpt>
      <trkpt lat="62.63855393146" lon="17.995593630444">
        <ele>53.6</ele>
        <time>2018-02-18T13:54:28Z</time>
      </trkpt>
      <trkpt lat="62.638531467968" lon="17.995637970695">
        <ele>53.8</ele>
        <time>2018-02-18T13:54:29Z</time>
      </trkpt>
      <trkpt lat="62.638513195426" lon="17.995688010638">
        <ele>53.8</ele>
        <time>2018-02-18T13:54:30Z</time>
      </trkpt>
      <trkpt lat="62.638492408314" lon="17.995729333405">
        <ele>54</ele>
        <time>2018-02-18T13:54:31Z</time>
      </trkpt>
      <trkpt lat="62.638477907627" lon="17.995761771358">
        <ele>54.2</ele>
        <time>2018-02-18T13:54:32Z</time>
      </trkpt>
      <trkpt lat="62.638461646741" lon="17.995800495736">
        <ele>54.2</ele>
        <time>2018-02-18T13:54:33Z</time>
      </trkpt>
      <trkpt lat="62.638445972588" lon="17.995837711372">
        <ele>54.4</ele>
        <time>2018-02-18T13:54:34Z</time>
      </trkpt>
      <trkpt lat="62.638430046978" lon="17.9958806267">
        <ele>54.4</ele>
        <time>2018-02-18T13:54:35Z</time>
      </trkpt>
      <trkpt lat="62.63841227735" lon="17.995920943639">
        <ele>54.6</ele>
        <time>2018-02-18T13:54:36Z</time>
      </trkpt>
      <trkpt lat="62.638395010636" lon="17.995950531746">
        <ele>54.6</ele>
        <time>2018-02-18T13:54:37Z</time>
      </trkpt>
      <trkpt lat="62.638378833569" lon="17.995976264179">
        <ele>54.8</ele>
        <time>2018-02-18T13:54:38Z</time>
      </trkpt>
      <trkpt lat="62.638360225751" lon="17.996010713788">
        <ele>55</ele>
        <time>2018-02-18T13:54:39Z</time>
      </trkpt>
      <trkpt lat="62.638338432811" lon="17.99605999936">
        <ele>55</ele>
        <time>2018-02-18T13:54:40Z</time>
      </trkpt>
      <trkpt lat="62.63833097292" lon="17.9960817923">
        <ele>55.2</ele>
        <time>2018-02-18T13:54:41Z</time>
      </trkpt>
      <trkpt lat="62.638303731745" lon="17.99612705456">
        <ele>55.2</ele>
        <time>2018-02-18T13:54:42Z</time>
      </trkpt>
      <trkpt lat="62.638287135583" lon="17.996165276024">
        <ele>55.2</ele>
        <time>2018-02-18T13:54:43Z</time>
      </trkpt>
      <trkpt lat="62.638268024851" lon="17.996201234375">
        <ele>55.4</ele>
        <time>2018-02-18T13:54:44Z</time>
      </trkpt>
      <trkpt lat="62.638250841956" lon="17.99624272478">
        <ele>55.4</ele>
        <time>2018-02-18T13:54:45Z</time>
      </trkpt>
      <trkpt lat="62.63823961021" lon="17.996257393105">
        <ele>55.4</ele>
        <time>2018-02-18T13:54:46Z</time>
      </trkpt>
      <trkpt lat="62.638230138663" lon="17.996284885737">
        <ele>55.4</ele>
        <time>2018-02-18T13:54:47Z</time>
      </trkpt>
      <trkpt lat="62.63821194994" lon="17.996336518241">
        <ele>55.6</ele>
        <time>2018-02-18T13:54:48Z</time>
      </trkpt>
      <trkpt lat="62.638188564439" lon="17.996372057497">
        <ele>55.8</ele>
        <time>2018-02-18T13:54:49Z</time>
      </trkpt>
      <trkpt lat="62.638171046268" lon="17.996414134635">
        <ele>55.8</ele>
        <time>2018-02-18T13:54:50Z</time>
      </trkpt>
      <trkpt lat="62.638149001871" lon="17.996463671664">
        <ele>56</ele>
        <time>2018-02-18T13:54:51Z</time>
      </trkpt>
      <trkpt lat="62.638143637455" lon="17.996487057165">
        <ele>56</ele>
        <time>2018-02-18T13:54:52Z</time>
      </trkpt>
      <trkpt lat="62.638123017981" lon="17.996507173725">
        <ele>56</ele>
        <time>2018-02-18T13:54:53Z</time>
      </trkpt>
      <trkpt lat="62.638100973584" lon="17.996552519804">
        <ele>56</ele>
        <time>2018-02-18T13:54:54Z</time>
      </trkpt>
      <trkpt lat="62.638085131793" lon="17.996579844798">
        <ele>56.2</ele>
        <time>2018-02-18T13:54:55Z</time>
      </trkpt>
      <trkpt lat="62.638070714925" lon="17.996606163964">
        <ele>56.4</ele>
        <time>2018-02-18T13:54:56Z</time>
      </trkpt>
      <trkpt lat="62.638061327197" lon="17.996634243329">
        <ele>56.4</ele>
        <time>2018-02-18T13:54:57Z</time>
      </trkpt>
      <trkpt lat="62.638059734636" lon="17.996661652142">
        <ele>56.6</ele>
        <time>2018-02-18T13:54:58Z</time>
      </trkpt>
      <trkpt lat="62.638043976664" lon="17.996692665172">
        <ele>56.8</ele>
        <time>2018-02-18T13:54:59Z</time>
      </trkpt>
      <trkpt lat="62.638028302511" lon="17.99670792023">
        <ele>57</ele>
        <time>2018-02-18T13:55:00Z</time>
      </trkpt>
      <trkpt lat="62.63800743158" lon="17.99672971317">
        <ele>57</ele>
        <time>2018-02-18T13:55:01Z</time>
      </trkpt>
      <trkpt lat="62.637988488486" lon="17.996749913549">
        <ele>57.2</ele>
        <time>2018-02-18T13:55:02Z</time>
      </trkpt>
      <trkpt lat="62.637968791021" lon="17.996776567991">
        <ele>57.4</ele>
        <time>2018-02-18T13:55:03Z</time>
      </trkpt>
      <trkpt lat="62.637938783819" lon="17.99681520855">
        <ele>57.6</ele>
        <time>2018-02-18T13:55:04Z</time>
      </trkpt>
      <trkpt lat="62.637911207368" lon="17.996849155245">
        <ele>57.6</ele>
        <time>2018-02-18T13:55:05Z</time>
      </trkpt>
      <trkpt lat="62.637887821867" lon="17.996876899334">
        <ele>57.8</ele>
        <time>2018-02-18T13:55:06Z</time>
      </trkpt>
      <trkpt lat="62.63786745385" lon="17.996901206844">
        <ele>57.8</ele>
        <time>2018-02-18T13:55:07Z</time>
      </trkpt>
      <trkpt lat="62.637854881" lon="17.99694009886">
        <ele>58</ele>
        <time>2018-02-18T13:55:08Z</time>
      </trkpt>
      <trkpt lat="62.637846750557" lon="17.996979158514">
        <ele>58</ele>
        <time>2018-02-18T13:55:09Z</time>
      </trkpt>
      <trkpt lat="62.637823365056" lon="17.997034059959">
        <ele>58</ele>
        <time>2018-02-18T13:55:10Z</time>
      </trkpt>
      <trkpt lat="62.637806098342" lon="17.997059205659">
        <ele>58.2</ele>
        <time>2018-02-18T13:55:11Z</time>
      </trkpt>
      <trkpt lat="62.637792603483" lon="17.997087285024">
        <ele>58</ele>
        <time>2018-02-18T13:55:12Z</time>
      </trkpt>
      <trkpt lat="62.637766619593" lon="17.997116370217">
        <ele>58.2</ele>
        <time>2018-02-18T13:55:13Z</time>
      </trkpt>
      <trkpt lat="62.637747089766" lon="17.997153166758">
        <ele>58.2</ele>
        <time>2018-02-18T13:55:14Z</time>
      </trkpt>
      <trkpt lat="62.637729655414" lon="17.997181162304">
        <ele>58.4</ele>
        <time>2018-02-18T13:55:15Z</time>
      </trkpt>
      <trkpt lat="62.637708030112" lon="17.997235812292">
        <ele>58.4</ele>
        <time>2018-02-18T13:55:16Z</time>
      </trkpt>
      <trkpt lat="62.637692104502" lon="17.997279062896">
        <ele>58.6</ele>
        <time>2018-02-18T13:55:17Z</time>
      </trkpt>
      <trkpt lat="62.637678190548" lon="17.99732901902">
        <ele>58.6</ele>
        <time>2018-02-18T13:55:18Z</time>
      </trkpt>
      <trkpt lat="62.637656313789" lon="17.997403031197">
        <ele>58.4</ele>
        <time>2018-02-18T13:55:19Z</time>
      </trkpt>
      <trkpt lat="62.637658409264" lon="17.997437480806">
        <ele>58.6</ele>
        <time>2018-02-18T13:55:20Z</time>
      </trkpt>
      <trkpt lat="62.637629826985" lon="17.997503530178">
        <ele>58.6</ele>
        <time>2018-02-18T13:55:21Z</time>
      </trkpt>
      <trkpt lat="62.637616751221" lon="17.997562706392">
        <ele>58.6</ele>
        <time>2018-02-18T13:55:22Z</time>
      </trkpt>
      <trkpt lat="62.637603507819" lon="17.997603777702">
        <ele>58.6</ele>
        <time>2018-02-18T13:55:23Z</time>
      </trkpt>
      <trkpt lat="62.637575428454" lon="17.997687429064">
        <ele>58.6</ele>
        <time>2018-02-18T13:55:24Z</time>
      </trkpt>
      <trkpt lat="62.637563777613" lon="17.997752556427">
        <ele>58.8</ele>
        <time>2018-02-18T13:55:25Z</time>
      </trkpt>
      <trkpt lat="62.637541314121" lon="17.997787928045">
        <ele>58.8</ele>
        <time>2018-02-18T13:55:26Z</time>
      </trkpt>
      <trkpt lat="62.637525975244" lon="17.997839141454">
        <ele>58.8</ele>
        <time>2018-02-18T13:55:27Z</time>
      </trkpt>
      <trkpt lat="62.63752128138" lon="17.997885409542">
        <ele>58.8</ele>
        <time>2018-02-18T13:55:28Z</time>
      </trkpt>
      <trkpt lat="62.637501332458" lon="17.997929582155">
        <ele>58.8</ele>
        <time>2018-02-18T13:55:29Z</time>
      </trkpt>
      <trkpt lat="62.637480461527" lon="17.997977861899">
        <ele>58.8</ele>
        <time>2018-02-18T13:55:30Z</time>
      </trkpt>
      <trkpt lat="62.637454729094" lon="17.998009294024">
        <ele>59</ele>
        <time>2018-02-18T13:55:31Z</time>
      </trkpt>
      <trkpt lat="62.637428158471" lon="17.998052796085">
        <ele>58.8</ele>
        <time>2018-02-18T13:55:32Z</time>
      </trkpt>
      <trkpt lat="62.637412651956" lon="17.998093867395">
        <ele>58.8</ele>
        <time>2018-02-18T13:55:33Z</time>
      </trkpt>
      <trkpt lat="62.637399911468" lon="17.998119599828">
        <ele>58.8</ele>
        <time>2018-02-18T13:55:34Z</time>
      </trkpt>
      <trkpt lat="62.637381219831" lon="17.998147763012">
        <ele>58.8</ele>
        <time>2018-02-18T13:55:35Z</time>
      </trkpt>
      <trkpt lat="62.637350458258" lon="17.998182966992">
        <ele>58.8</ele>
        <time>2018-02-18T13:55:36Z</time>
      </trkpt>
      <trkpt lat="62.63732933587" lon="17.998208783244">
        <ele>59</ele>
        <time>2018-02-18T13:55:37Z</time>
      </trkpt>
      <trkpt lat="62.637306872378" lon="17.998241640292">
        <ele>59.4</ele>
        <time>2018-02-18T13:55:38Z</time>
      </trkpt>
      <trkpt lat="62.637281139945" lon="17.998278855928">
        <ele>59.6</ele>
        <time>2018-02-18T13:55:39Z</time>
      </trkpt>
      <trkpt lat="62.637265130516" lon="17.998312048252">
        <ele>59.6</ele>
        <time>2018-02-18T13:55:40Z</time>
      </trkpt>
      <trkpt lat="62.637241745015" lon="17.998363094023">
        <ele>59.8</ele>
        <time>2018-02-18T13:55:41Z</time>
      </trkpt>
      <trkpt lat="62.637218946247" lon="17.998424784807">
        <ele>59.8</ele>
        <time>2018-02-18T13:55:42Z</time>
      </trkpt>
      <trkpt lat="62.637198242954" lon="17.998485050668">
        <ele>59.8</ele>
        <time>2018-02-18T13:55:43Z</time>
      </trkpt>
      <trkpt lat="62.63717259434" lon="17.998553698429">
        <ele>59.8</ele>
        <time>2018-02-18T13:55:44Z</time>
      </trkpt>
      <trkpt lat="62.637163290431" lon="17.998604660381">
        <ele>60</ele>
        <time>2018-02-18T13:55:45Z</time>
      </trkpt>
      <trkpt lat="62.637131774487" lon="17.998680600395">
        <ele>60</ele>
        <time>2018-02-18T13:55:46Z</time>
      </trkpt>
      <trkpt lat="62.637114926868" lon="17.998724521551">
        <ele>60</ele>
        <time>2018-02-18T13:55:47Z</time>
      </trkpt>
      <trkpt lat="62.637097073421" lon="17.998754109658">
        <ele>60</ele>
        <time>2018-02-18T13:55:48Z</time>
      </trkpt>
      <trkpt lat="62.637069748427" lon="17.998795097149">
        <ele>60</ele>
        <time>2018-02-18T13:55:49Z</time>
      </trkpt>
      <trkpt lat="62.63704854222" lon="17.99882937912">
        <ele>59.8</ele>
        <time>2018-02-18T13:55:50Z</time>
      </trkpt>
      <trkpt lat="62.637034376809" lon="17.998852261707">
        <ele>60</ele>
        <time>2018-02-18T13:55:51Z</time>
      </trkpt>
      <trkpt lat="62.63700914729" lon="17.998882604185">
        <ele>60</ele>
        <time>2018-02-18T13:55:52Z</time>
      </trkpt>
      <trkpt lat="62.636993389318" lon="17.998905905867">
        <ele>60</ele>
        <time>2018-02-18T13:55:53Z</time>
      </trkpt>
      <trkpt lat="62.636980984106" lon="17.998940606933">
        <ele>60.2</ele>
        <time>2018-02-18T13:55:54Z</time>
      </trkpt>
      <trkpt lat="62.636967908342" lon="17.998967848108">
        <ele>60.2</ele>
        <time>2018-02-18T13:55:55Z</time>
      </trkpt>
      <trkpt lat="62.636946031583" lon="17.998996681844">
        <ele>60.4</ele>
        <time>2018-02-18T13:55:56Z</time>
      </trkpt>
      <trkpt lat="62.636921388797" lon="17.999020737897">
        <ele>60.6</ele>
        <time>2018-02-18T13:55:57Z</time>
      </trkpt>
      <trkpt lat="62.636905714644" lon="17.999067760356">
        <ele>60.8</ele>
        <time>2018-02-18T13:55:58Z</time>
      </trkpt>
      <trkpt lat="62.636901523694" lon="17.999070694021">
        <ele>60.8</ele>
        <time>2018-02-18T13:55:59Z</time>
      </trkpt>
      <trkpt lat="62.636879730754" lon="17.999111430055">
        <ele>60.8</ele>
        <time>2018-02-18T13:56:00Z</time>
      </trkpt>
      <trkpt lat="62.636853411588" lon="17.999140012334">
        <ele>61</ele>
        <time>2018-02-18T13:56:01Z</time>
      </trkpt>
      <trkpt lat="62.63683145101" lon="17.999173120839">
        <ele>61.2</ele>
        <time>2018-02-18T13:56:02Z</time>
      </trkpt>
      <trkpt lat="62.63682139273" lon="17.999202960403">
        <ele>61.4</ele>
        <time>2018-02-18T13:56:03Z</time>
      </trkpt>
      <trkpt lat="62.636796163211" lon="17.99923506308">
        <ele>61.6</ele>
        <time>2018-02-18T13:56:04Z</time>
      </trkpt>
      <trkpt lat="62.636775040823" lon="17.999264986463">
        <ele>61.6</ele>
        <time>2018-02-18T13:56:05Z</time>
      </trkpt>
      <trkpt lat="62.63676104305" lon="17.999287952869">
        <ele>61.6</ele>
        <time>2018-02-18T13:56:06Z</time>
      </trkpt>
      <trkpt lat="62.636731957857" lon="17.999323324487">
        <ele>61.6</ele>
        <time>2018-02-18T13:56:07Z</time>
      </trkpt>
      <trkpt lat="62.63670991346" lon="17.999351068576">
        <ele>61.6</ele>
        <time>2018-02-18T13:56:08Z</time>
      </trkpt>
      <trkpt lat="62.636689629262" lon="17.999395492646">
        <ele>61.8</ele>
        <time>2018-02-18T13:56:09Z</time>
      </trkpt>
      <trkpt lat="62.63666632758" lon="17.999438827069">
        <ele>61.8</ele>
        <time>2018-02-18T13:56:10Z</time>
      </trkpt>
      <trkpt lat="62.636645540468" lon="17.999486939175">
        <ele>61.8</ele>
        <time>2018-02-18T13:56:11Z</time>
      </trkpt>
      <trkpt lat="62.636633805808" lon="17.999538906955">
        <ele>62</ele>
        <time>2018-02-18T13:56:12Z</time>
      </trkpt>
      <trkpt lat="62.636627603202" lon="17.999594898047">
        <ele>62</ele>
        <time>2018-02-18T13:56:13Z</time>
      </trkpt>
      <trkpt lat="62.63662106532" lon="17.999643680705">
        <ele>62</ele>
        <time>2018-02-18T13:56:14Z</time>
      </trkpt>
      <trkpt lat="62.636599942932" lon="17.999695648485">
        <ele>62.2</ele>
        <time>2018-02-18T13:56:15Z</time>
      </trkpt>
      <trkpt lat="62.636578820544" lon="17.999740324012">
        <ele>62.2</ele>
        <time>2018-02-18T13:56:16Z</time>
      </trkpt>
      <trkpt lat="62.636568846083" lon="17.999780976227">
        <ele>62.4</ele>
        <time>2018-02-18T13:56:17Z</time>
      </trkpt>
      <trkpt lat="62.636560548002" lon="17.999822466632">
        <ele>62.2</ele>
        <time>2018-02-18T13:56:18Z</time>
      </trkpt>
      <trkpt lat="62.636547639876" lon="17.999882648674">
        <ele>62.2</ele>
        <time>2018-02-18T13:56:19Z</time>
      </trkpt>
      <trkpt lat="62.636529870248" lon="17.999918690844">
        <ele>62.2</ele>
        <time>2018-02-18T13:56:20Z</time>
      </trkpt>
      <trkpt lat="62.636513106448" lon="17.999966383855">
        <ele>62.4</ele>
        <time>2018-02-18T13:56:21Z</time>
      </trkpt>
      <trkpt lat="62.636503215806" lon="18.000019944196">
        <ele>62.4</ele>
        <time>2018-02-18T13:56:22Z</time>
      </trkpt>
      <trkpt lat="62.636491816422" lon="18.00007492946">
        <ele>62.4</ele>
        <time>2018-02-18T13:56:23Z</time>
      </trkpt>
      <trkpt lat="62.636477231916" lon="18.00013276457">
        <ele>62.4</ele>
        <time>2018-02-18T13:56:24Z</time>
      </trkpt>
      <trkpt lat="62.636464742885" lon="18.000186827825">
        <ele>62.4</ele>
        <time>2018-02-18T13:56:25Z</time>
      </trkpt>
      <trkpt lat="62.636451164207" lon="18.000248853885">
        <ele>62.4</ele>
        <time>2018-02-18T13:56:26Z</time>
      </trkpt>
      <trkpt lat="62.636444458687" lon="18.000309874117">
        <ele>62.4</ele>
        <time>2018-02-18T13:56:27Z</time>
      </trkpt>
      <trkpt lat="62.636426269964" lon="18.000350945427">
        <ele>62.6</ele>
        <time>2018-02-18T13:56:28Z</time>
      </trkpt>
      <trkpt lat="62.636402130092" lon="18.00040769089">
        <ele>62.6</ele>
        <time>2018-02-18T13:56:29Z</time>
      </trkpt>
      <trkpt lat="62.636400286074" lon="18.00044960039">
        <ele>62.6</ele>
        <time>2018-02-18T13:56:30Z</time>
      </trkpt>
      <trkpt lat="62.636379163686" lon="18.000505172387">
        <ele>62.6</ele>
        <time>2018-02-18T13:56:31Z</time>
      </trkpt>
      <trkpt lat="62.636358795669" lon="18.000558648909">
        <ele>62.4</ele>
        <time>2018-02-18T13:56:32Z</time>
      </trkpt>
      <trkpt lat="62.636353263615" lon="18.000587231188">
        <ele>62.6</ele>
        <time>2018-02-18T13:56:33Z</time>
      </trkpt>
      <trkpt lat="62.636328117915" lon="18.000651185085">
        <ele>62.6</ele>
        <time>2018-02-18T13:56:34Z</time>
      </trkpt>
      <trkpt lat="62.636312192305" lon="18.000715055163">
        <ele>62.6</ele>
        <time>2018-02-18T13:56:35Z</time>
      </trkpt>
      <trkpt lat="62.636291153736" lon="18.000760065966">
        <ele>62.8</ele>
        <time>2018-02-18T13:56:36Z</time>
      </trkpt>
      <trkpt lat="62.63627237828" lon="18.000818906904">
        <ele>62.8</ele>
        <time>2018-02-18T13:56:37Z</time>
      </trkpt>
      <trkpt lat="62.636254608652" lon="18.000876658195">
        <ele>62.8</ele>
        <time>2018-02-18T13:56:38Z</time>
      </trkpt>
      <trkpt lat="62.636240778517" lon="18.000925440853">
        <ele>62.8</ele>
        <time>2018-02-18T13:56:39Z</time>
      </trkpt>
      <trkpt lat="62.636218398844" lon="18.000970535475">
        <ele>62.8</ele>
        <time>2018-02-18T13:56:40Z</time>
      </trkpt>
      <trkpt lat="62.63619945575" lon="18.001024850187">
        <ele>62.6</ele>
        <time>2018-02-18T13:56:41Z</time>
      </trkpt>
      <trkpt lat="62.636187637271" lon="18.001057204321">
        <ele>62.6</ele>
        <time>2018-02-18T13:56:42Z</time>
      </trkpt>
      <trkpt lat="62.636165425236" lon="18.001112273404">
        <ele>62.6</ele>
        <time>2018-02-18T13:56:43Z</time>
      </trkpt>
      <trkpt lat="62.636150589273" lon="18.001168851229">
        <ele>62.6</ele>
        <time>2018-02-18T13:56:44Z</time>
      </trkpt>
      <trkpt lat="62.636140363355" lon="18.001213862032">
        <ele>62.6</ele>
        <time>2018-02-18T13:56:45Z</time>
      </trkpt>
      <trkpt lat="62.636114882379" lon="18.001274630807">
        <ele>62.8</ele>
        <time>2018-02-18T13:56:46Z</time>
      </trkpt>
      <trkpt lat="62.636097615665" lon="18.001325928035">
        <ele>62.8</ele>
        <time>2018-02-18T13:56:47Z</time>
      </trkpt>
      <trkpt lat="62.636083366435" lon="18.001386361534">
        <ele>63</ele>
        <time>2018-02-18T13:56:48Z</time>
      </trkpt>
      <trkpt lat="62.63605444888" lon="18.001454171105">
        <ele>63</ele>
        <time>2018-02-18T13:56:49Z</time>
      </trkpt>
      <trkpt lat="62.636035505786" lon="18.001515023699">
        <ele>63</ele>
        <time>2018-02-18T13:56:50Z</time>
      </trkpt>
      <trkpt lat="62.636026453334" lon="18.00155601119">
        <ele>63</ele>
        <time>2018-02-18T13:56:51Z</time>
      </trkpt>
      <trkpt lat="62.636002648738" lon="18.001609487712">
        <ele>62.8</ele>
        <time>2018-02-18T13:56:52Z</time>
      </trkpt>
      <trkpt lat="62.63598907006" lon="18.001640584561">
        <ele>62.8</ele>
        <time>2018-02-18T13:56:53Z</time>
      </trkpt>
      <trkpt lat="62.635976581029" lon="18.001703867906">
        <ele>62.8</ele>
        <time>2018-02-18T13:56:54Z</time>
      </trkpt>
      <trkpt lat="62.635953363166" lon="18.001755835686">
        <ele>62.8</ele>
        <time>2018-02-18T13:56:55Z</time>
      </trkpt>
      <trkpt lat="62.635931905502" lon="18.001785926707">
        <ele>62.6</ele>
        <time>2018-02-18T13:56:56Z</time>
      </trkpt>
      <trkpt lat="62.635913213865" lon="18.001836469564">
        <ele>62.6</ele>
        <time>2018-02-18T13:56:57Z</time>
      </trkpt>
      <trkpt lat="62.635885469776" lon="18.00189799271">
        <ele>62.8</ele>
        <time>2018-02-18T13:56:58Z</time>
      </trkpt>
      <trkpt lat="62.635870801451" lon="18.001938561106">
        <ele>62.6</ele>
        <time>2018-02-18T13:56:59Z</time>
      </trkpt>
      <trkpt lat="62.63584993052" lon="18.001968903584">
        <ele>62.8</ele>
        <time>2018-02-18T13:57:00Z</time>
      </trkpt>
      <trkpt lat="62.635832412349" lon="18.001994887474">
        <ele>62.8</ele>
        <time>2018-02-18T13:57:01Z</time>
      </trkpt>
      <trkpt lat="62.635810703228" lon="18.002036713155">
        <ele>62.8</ele>
        <time>2018-02-18T13:57:02Z</time>
      </trkpt>
      <trkpt lat="62.635795615808" lon="18.002062864683">
        <ele>62.8</ele>
        <time>2018-02-18T13:57:03Z</time>
      </trkpt>
      <trkpt lat="62.635767955538" lon="18.002133356462">
        <ele>62.8</ele>
        <time>2018-02-18T13:57:04Z</time>
      </trkpt>
      <trkpt lat="62.635759322181" lon="18.002182306758">
        <ele>62.8</ele>
        <time>2018-02-18T13:57:05Z</time>
      </trkpt>
      <trkpt lat="62.635736188137" lon="18.002256486573">
        <ele>62.8</ele>
        <time>2018-02-18T13:57:06Z</time>
      </trkpt>
      <trkpt lat="62.635728728246" lon="18.002317255348">
        <ele>63</ele>
        <time>2018-02-18T13:57:07Z</time>
      </trkpt>
      <trkpt lat="62.635713473188" lon="18.002386322204">
        <ele>62.8</ele>
        <time>2018-02-18T13:57:08Z</time>
      </trkpt>
      <trkpt lat="62.635697463759" lon="18.002466201711">
        <ele>62.8</ele>
        <time>2018-02-18T13:57:09Z</time>
      </trkpt>
      <trkpt lat="62.635697799035" lon="18.002512302161">
        <ele>62.8</ele>
        <time>2018-02-18T13:57:10Z</time>
      </trkpt>
      <trkpt lat="62.635674329715" lon="18.002596037342">
        <ele>62.8</ele>
        <time>2018-02-18T13:57:11Z</time>
      </trkpt>
      <trkpt lat="62.635660918675" lon="18.002665690931">
        <ele>62.6</ele>
        <time>2018-02-18T13:57:12Z</time>
      </trkpt>
      <trkpt lat="62.635642478495" lon="18.002739703108">
        <ele>62.2</ele>
        <time>2018-02-18T13:57:13Z</time>
      </trkpt>
      <trkpt lat="62.635634934785" lon="18.002823689746">
        <ele>61.6</ele>
        <time>2018-02-18T13:57:14Z</time>
      </trkpt>
      <trkpt lat="62.635619763546" lon="18.00290382071">
        <ele>61.4</ele>
        <time>2018-02-18T13:57:15Z</time>
      </trkpt>
      <trkpt lat="62.635606101049" lon="18.002980766552">
        <ele>61.2</ele>
        <time>2018-02-18T13:57:16Z</time>
      </trkpt>
      <trkpt lat="62.635613477121" lon="18.003054359634">
        <ele>60.8</ele>
        <time>2018-02-18T13:57:17Z</time>
      </trkpt>
      <trkpt lat="62.635586152127" lon="18.003129712915">
        <ele>60.6</ele>
        <time>2018-02-18T13:57:18Z</time>
      </trkpt>
      <trkpt lat="62.635553630355" lon="18.003240521633">
        <ele>60.6</ele>
        <time>2018-02-18T13:57:19Z</time>
      </trkpt>
      <trkpt lat="62.635543404437" lon="18.00328687354">
        <ele>60.8</ele>
        <time>2018-02-18T13:57:20Z</time>
      </trkpt>
      <trkpt lat="62.635525467171" lon="18.003352000903">
        <ele>60.4</ele>
        <time>2018-02-18T13:57:21Z</time>
      </trkpt>
      <trkpt lat="62.635518174918" lon="18.003390976738">
        <ele>60.4</ele>
        <time>2018-02-18T13:57:22Z</time>
      </trkpt>
      <trkpt lat="62.635493951227" lon="18.003481752715">
        <ele>60.4</ele>
        <time>2018-02-18T13:57:23Z</time>
      </trkpt>
      <trkpt lat="62.635473918486" lon="18.003589292492">
        <ele>60</ele>
        <time>2018-02-18T13:57:24Z</time>
      </trkpt>
      <trkpt lat="62.635454723935" lon="18.003680403745">
        <ele>59.8</ele>
        <time>2018-02-18T13:57:25Z</time>
      </trkpt>
      <trkpt lat="62.635437792497" lon="18.003767575505">
        <ele>59.6</ele>
        <time>2018-02-18T13:57:26Z</time>
      </trkpt>
      <trkpt lat="62.6354157481" lon="18.003825494434">
        <ele>59.4</ele>
        <time>2018-02-18T13:57:27Z</time>
      </trkpt>
      <trkpt lat="62.635395380083" lon="18.003892968729">
        <ele>59.2</ele>
        <time>2018-02-18T13:57:28Z</time>
      </trkpt>
      <trkpt lat="62.635379286835" lon="18.003972848236">
        <ele>59.4</ele>
        <time>2018-02-18T13:57:29Z</time>
      </trkpt>
      <trkpt lat="62.635378113369" lon="18.004055326132">
        <ele>59.2</ele>
        <time>2018-02-18T13:57:30Z</time>
      </trkpt>
      <trkpt lat="62.635351458927" lon="18.004138306942">
        <ele>59.2</ele>
        <time>2018-02-18T13:57:31Z</time>
      </trkpt>
      <trkpt lat="62.635326648503" lon="18.004209469273">
        <ele>59</ele>
        <time>2018-02-18T13:57:32Z</time>
      </trkpt>
      <trkpt lat="62.635308962694" lon="18.004270154229">
        <ele>59</ele>
        <time>2018-02-18T13:57:33Z</time>
      </trkpt>
      <trkpt lat="62.635280464234" lon="18.00434299294">
        <ele>58.8</ele>
        <time>2018-02-18T13:57:34Z</time>
      </trkpt>
      <trkpt lat="62.635260766769" lon="18.004397726747">
        <ele>58.8</ele>
        <time>2018-02-18T13:57:35Z</time>
      </trkpt>
      <trkpt lat="62.635231513938" lon="18.004461848282">
        <ele>58.8</ele>
        <time>2018-02-18T13:57:36Z</time>
      </trkpt>
      <trkpt lat="62.635199914175" lon="18.004514905709">
        <ele>58.8</ele>
        <time>2018-02-18T13:57:37Z</time>
      </trkpt>
      <trkpt lat="62.635174684656" lon="18.004559329779">
        <ele>58.8</ele>
        <time>2018-02-18T13:57:38Z</time>
      </trkpt>
      <trkpt lat="62.635146102377" lon="18.004595120492">
        <ele>58.6</ele>
        <time>2018-02-18T13:57:39Z</time>
      </trkpt>
      <trkpt lat="62.635117184822" lon="18.004645076616">
        <ele>58.8</ele>
        <time>2018-02-18T13:57:40Z</time>
      </trkpt>
      <trkpt lat="62.635099666651" lon="18.004679861501">
        <ele>59</ele>
        <time>2018-02-18T13:57:41Z</time>
      </trkpt>
      <trkpt lat="62.63506538468" lon="18.004735936412">
        <ele>59</ele>
        <time>2018-02-18T13:57:42Z</time>
      </trkpt>
      <trkpt lat="62.635044094654" lon="18.004778600283">
        <ele>58.8</ele>
        <time>2018-02-18T13:57:43Z</time>
      </trkpt>
      <trkpt lat="62.635026325026" lon="18.004812295521">
        <ele>59</ele>
        <time>2018-02-18T13:57:44Z</time>
      </trkpt>
      <trkpt lat="62.634995563453" lon="18.004877171427">
        <ele>59</ele>
        <time>2018-02-18T13:57:45Z</time>
      </trkpt>
      <trkpt lat="62.634974189608" lon="18.004922936601">
        <ele>59</ele>
        <time>2018-02-18T13:57:46Z</time>
      </trkpt>
      <trkpt lat="62.634958515455" lon="18.004957050934">
        <ele>58.8</ele>
        <time>2018-02-18T13:57:47Z</time>
      </trkpt>
      <trkpt lat="62.634934459402" lon="18.005007509972">
        <ele>59</ele>
        <time>2018-02-18T13:57:48Z</time>
      </trkpt>
      <trkpt lat="62.634912582643" lon="18.005064590711">
        <ele>59</ele>
        <time>2018-02-18T13:57:49Z</time>
      </trkpt>
      <trkpt lat="62.63489439392" lon="18.005107254582">
        <ele>59</ele>
        <time>2018-02-18T13:57:50Z</time>
      </trkpt>
      <trkpt lat="62.634870002591" lon="18.005162491303">
        <ele>59</ele>
        <time>2018-02-18T13:57:51Z</time>
      </trkpt>
      <trkpt lat="62.634855753361" lon="18.005204400803">
        <ele>59.4</ele>
        <time>2018-02-18T13:57:52Z</time>
      </trkpt>
      <trkpt lat="62.634830775299" lon="18.005241867896">
        <ele>59.4</ele>
        <time>2018-02-18T13:57:53Z</time>
      </trkpt>
      <trkpt lat="62.634799594631" lon="18.005282268654">
        <ele>59.2</ele>
        <time>2018-02-18T13:57:54Z</time>
      </trkpt>
      <trkpt lat="62.634777717872" lon="18.005306827621">
        <ele>59.2</ele>
        <time>2018-02-18T13:57:55Z</time>
      </trkpt>
      <trkpt lat="62.63475190162" lon="18.00532116067">
        <ele>59.2</ele>
        <time>2018-02-18T13:57:56Z</time>
      </trkpt>
      <trkpt lat="62.63471753583" lon="18.005352592795">
        <ele>59.2</ele>
        <time>2018-02-18T13:57:57Z</time>
      </trkpt>
      <trkpt lat="62.63469406651" lon="18.005372374079">
        <ele>59.2</ele>
        <time>2018-02-18T13:57:58Z</time>
      </trkpt>
      <trkpt lat="62.634671938294" lon="18.005395340485">
        <ele>59.2</ele>
        <time>2018-02-18T13:57:59Z</time>
      </trkpt>
      <trkpt lat="62.634648468974" lon="18.005423922764">
        <ele>59.2</ele>
        <time>2018-02-18T13:58:00Z</time>
      </trkpt>
      <trkpt lat="62.634617958858" lon="18.005459964934">
        <ele>59.4</ele>
        <time>2018-02-18T13:58:01Z</time>
      </trkpt>
      <trkpt lat="62.63459348371" lon="18.005496090923">
        <ele>59.4</ele>
        <time>2018-02-18T13:58:02Z</time>
      </trkpt>
      <trkpt lat="62.634578228652" lon="18.00552484084">
        <ele>59.6</ele>
        <time>2018-02-18T13:58:03Z</time>
      </trkpt>
      <trkpt lat="62.634556687169" lon="18.005568929634">
        <ele>59.8</ele>
        <time>2018-02-18T13:58:04Z</time>
      </trkpt>
      <trkpt lat="62.63453061946" lon="18.005615532998">
        <ele>59.8</ele>
        <time>2018-02-18T13:58:05Z</time>
      </trkpt>
      <trkpt lat="62.634512933651" lon="18.005653670643">
        <ele>60</ele>
        <time>2018-02-18T13:58:06Z</time>
      </trkpt>
      <trkpt lat="62.634498013869" lon="18.005691724469">
        <ele>60.2</ele>
        <time>2018-02-18T13:58:07Z</time>
      </trkpt>
      <trkpt lat="62.634470102142" lon="18.005740842403">
        <ele>60.2</ele>
        <time>2018-02-18T13:58:08Z</time>
      </trkpt>
      <trkpt lat="62.63445685874" lon="18.005778058039">
        <ele>60.2</ele>
        <time>2018-02-18T13:58:09Z</time>
      </trkpt>
      <trkpt lat="62.634439675845" lon="18.005818123521">
        <ele>60.4</ele>
        <time>2018-02-18T13:58:10Z</time>
      </trkpt>
      <trkpt lat="62.634415116878" lon="18.005872354414">
        <ele>60.4</ele>
        <time>2018-02-18T13:58:11Z</time>
      </trkpt>
      <trkpt lat="62.634401370562" lon="18.005907474575">
        <ele>60.4</ele>
        <time>2018-02-18T13:58:12Z</time>
      </trkpt>
      <trkpt lat="62.634379996717" lon="18.005950306084">
        <ele>60.2</ele>
        <time>2018-02-18T13:58:13Z</time>
      </trkpt>
      <trkpt lat="62.634356778854" lon="18.006001351855">
        <ele>60.4</ele>
        <time>2018-02-18T13:58:14Z</time>
      </trkpt>
      <trkpt lat="62.634338254855" lon="18.006041752613">
        <ele>60.4</ele>
        <time>2018-02-18T13:58:15Z</time>
      </trkpt>
      <trkpt lat="62.63432107196" lon="18.006092630746">
        <ele>60.4</ele>
        <time>2018-02-18T13:58:16Z</time>
      </trkpt>
      <trkpt lat="62.634303050875" lon="18.00612414669">
        <ele>60.4</ele>
        <time>2018-02-18T13:58:17Z</time>
      </trkpt>
      <trkpt lat="62.634280671202" lon="18.006168738398">
        <ele>60.4</ele>
        <time>2018-02-18T13:58:18Z</time>
      </trkpt>
      <trkpt lat="62.634261141375" lon="18.006210312622">
        <ele>60.4</ele>
        <time>2018-02-18T13:58:19Z</time>
      </trkpt>
      <trkpt lat="62.634244042299" lon="18.006258676185">
        <ele>60.4</ele>
        <time>2018-02-18T13:58:20Z</time>
      </trkpt>
      <trkpt lat="62.63422887106" lon="18.00630351935">
        <ele>60.4</ele>
        <time>2018-02-18T13:58:21Z</time>
      </trkpt>
      <trkpt lat="62.634210514699" lon="18.006336544036">
        <ele>60.4</ele>
        <time>2018-02-18T13:58:22Z</time>
      </trkpt>
      <trkpt lat="62.634191236329" lon="18.006367640885">
        <ele>60.4</ele>
        <time>2018-02-18T13:58:23Z</time>
      </trkpt>
      <trkpt lat="62.634169108113" lon="18.006422290873">
        <ele>60.4</ele>
        <time>2018-02-18T13:58:24Z</time>
      </trkpt>
      <trkpt lat="62.634156870539" lon="18.006463948916">
        <ele>60.4</ele>
        <time>2018-02-18T13:58:25Z</time>
      </trkpt>
      <trkpt lat="62.634135412875" lon="18.00650803771">
        <ele>60.4</ele>
        <time>2018-02-18T13:58:26Z</time>
      </trkpt>
      <trkpt lat="62.634114374306" lon="18.006549695753">
        <ele>60.4</ele>
        <time>2018-02-18T13:58:27Z</time>
      </trkpt>
      <trkpt lat="62.634105992406" lon="18.00659688585">
        <ele>60.6</ele>
        <time>2018-02-18T13:58:28Z</time>
      </trkpt>
      <trkpt lat="62.634080930525" lon="18.006658576634">
        <ele>60.6</ele>
        <time>2018-02-18T13:58:29Z</time>
      </trkpt>
      <trkpt lat="62.634061316879" lon="18.006708281301">
        <ele>60.4</ele>
        <time>2018-02-18T13:58:30Z</time>
      </trkpt>
      <trkpt lat="62.634050001314" lon="18.006738204684">
        <ele>60.4</ele>
        <time>2018-02-18T13:58:31Z</time>
      </trkpt>
      <trkpt lat="62.63402351451" lon="18.006789082817">
        <ele>60.6</ele>
        <time>2018-02-18T13:58:32Z</time>
      </trkpt>
      <trkpt lat="62.634013372411" lon="18.006838703665">
        <ele>60.6</ele>
        <time>2018-02-18T13:58:33Z</time>
      </trkpt>
      <trkpt lat="62.634000129009" lon="18.006879523518">
        <ele>60.6</ele>
        <time>2018-02-18T13:58:34Z</time>
      </trkpt>
      <trkpt lat="62.633981437372" lon="18.006945824347">
        <ele>60.6</ele>
        <time>2018-02-18T13:58:35Z</time>
      </trkpt>
      <trkpt lat="62.633961236993" lon="18.007001061068">
        <ele>60.6</ele>
        <time>2018-02-18T13:58:36Z</time>
      </trkpt>
      <trkpt lat="62.633942964451" lon="18.007058309445">
        <ele>60.6</ele>
        <time>2018-02-18T13:58:37Z</time>
      </trkpt>
      <trkpt lat="62.633924188995" lon="18.007118323849">
        <ele>60.6</ele>
        <time>2018-02-18T13:58:38Z</time>
      </trkpt>
      <trkpt lat="62.633905581177" lon="18.007175069312">
        <ele>60.6</ele>
        <time>2018-02-18T13:58:39Z</time>
      </trkpt>
      <trkpt lat="62.633887476273" lon="18.007205579428">
        <ele>60.6</ele>
        <time>2018-02-18T13:58:40Z</time>
      </trkpt>
      <trkpt lat="62.633864174591" lon="18.007258888312">
        <ele>60.6</ele>
        <time>2018-02-18T13:58:41Z</time>
      </trkpt>
      <trkpt lat="62.633850679732" lon="18.00729425993">
        <ele>60.6</ele>
        <time>2018-02-18T13:58:42Z</time>
      </trkpt>
      <trkpt lat="62.633825450213" lon="18.007330888833">
        <ele>60.6</ele>
        <time>2018-02-18T13:58:43Z</time>
      </trkpt>
      <trkpt lat="62.633801310341" lon="18.007357459456">
        <ele>60.6</ele>
        <time>2018-02-18T13:58:44Z</time>
      </trkpt>
      <trkpt lat="62.633784546541" lon="18.007380090586">
        <ele>60.4</ele>
        <time>2018-02-18T13:58:45Z</time>
      </trkpt>
      <trkpt lat="62.633747079448" lon="18.007370954315">
        <ele>60.4</ele>
        <time>2018-02-18T13:58:46Z</time>
      </trkpt>
      <trkpt lat="62.633717658979" lon="18.00736215332">
        <ele>60.4</ele>
        <time>2018-02-18T13:58:47Z</time>
      </trkpt>
      <trkpt lat="62.633698212971" lon="18.007347987909">
        <ele>60.4</ele>
        <time>2018-02-18T13:58:48Z</time>
      </trkpt>
      <trkpt lat="62.633664601552" lon="18.007322423114">
        <ele>60.6</ele>
        <time>2018-02-18T13:58:49Z</time>
      </trkpt>
      <trkpt lat="62.633643898259" lon="18.007297696509">
        <ele>60.6</ele>
        <time>2018-02-18T13:58:50Z</time>
      </trkpt>
      <trkpt lat="62.633628140287" lon="18.007289482247">
        <ele>60.6</ele>
        <time>2018-02-18T13:58:51Z</time>
      </trkpt>
      <trkpt lat="62.63361112503" lon="18.007270958248">
        <ele>60.8</ele>
        <time>2018-02-18T13:58:52Z</time>
      </trkpt>
      <trkpt lat="62.633596540524" lon="18.007254781181">
        <ele>60.8</ele>
        <time>2018-02-18T13:58:53Z</time>
      </trkpt>
      <trkpt lat="62.633570808091" lon="18.007233742612">
        <ele>60.8</ele>
        <time>2018-02-18T13:58:54Z</time>
      </trkpt>
      <trkpt lat="62.633550523893" lon="18.007208429274">
        <ele>60.8</ele>
        <time>2018-02-18T13:58:55Z</time>
      </trkpt>
      <trkpt lat="62.633531413161" lon="18.007190240551">
        <ele>61.2</ele>
        <time>2018-02-18T13:58:56Z</time>
      </trkpt>
      <trkpt lat="62.633509787859" lon="18.007167609421">
        <ele>61.4</ele>
        <time>2018-02-18T13:58:57Z</time>
      </trkpt>
      <trkpt lat="62.633494784258" lon="18.007150594164">
        <ele>61.6</ele>
        <time>2018-02-18T13:58:58Z</time>
      </trkpt>
      <trkpt lat="62.633476679354" lon="18.00712997469">
        <ele>61.6</ele>
        <time>2018-02-18T13:58:59Z</time>
      </trkpt>
      <trkpt lat="62.633444409039" lon="18.007098542565">
        <ele>61.8</ele>
        <time>2018-02-18T13:59:00Z</time>
      </trkpt>
      <trkpt lat="62.633425801221" lon="18.007080102385">
        <ele>62</ele>
        <time>2018-02-18T13:59:01Z</time>
      </trkpt>
      <trkpt lat="62.633401912806" lon="18.00705286121">
        <ele>62</ele>
        <time>2018-02-18T13:59:02Z</time>
      </trkpt>
      <trkpt lat="62.633385987196" lon="18.007029056614">
        <ele>62</ele>
        <time>2018-02-18T13:59:03Z</time>
      </trkpt>
      <trkpt lat="62.633366038274" lon="18.007008018045">
        <ele>62</ele>
        <time>2018-02-18T13:59:04Z</time>
      </trkpt>
      <trkpt lat="62.633344999705" lon="18.00697071859">
        <ele>62</ele>
        <time>2018-02-18T13:59:05Z</time>
      </trkpt>
      <trkpt lat="62.633327481534" lon="18.006915733326">
        <ele>62.2</ele>
        <time>2018-02-18T13:59:06Z</time>
      </trkpt>
      <trkpt lat="62.633313819037" lon="18.00688689959">
        <ele>62.2</ele>
        <time>2018-02-18T13:59:07Z</time>
      </trkpt>
      <trkpt lat="62.633300575635" lon="18.006844906271">
        <ele>62.2</ele>
        <time>2018-02-18T13:59:08Z</time>
      </trkpt>
      <trkpt lat="62.633290433536" lon="18.006779443632">
        <ele>62.4</ele>
        <time>2018-02-18T13:59:09Z</time>
      </trkpt>
      <trkpt lat="62.633277609229" lon="18.006736528304">
        <ele>62.4</ele>
        <time>2018-02-18T13:59:10Z</time>
      </trkpt>
      <trkpt lat="62.633275262297" lon="18.006708616577">
        <ele>62.6</ele>
        <time>2018-02-18T13:59:11Z</time>
      </trkpt>
      <trkpt lat="62.633270987528" lon="18.006650027096">
        <ele>62.6</ele>
        <time>2018-02-18T13:59:12Z</time>
      </trkpt>
      <trkpt lat="62.633264282008" lon="18.006597975497">
        <ele>62.8</ele>
        <time>2018-02-18T13:59:13Z</time>
      </trkpt>
      <trkpt lat="62.63326243799" lon="18.006548941382">
        <ele>63</ele>
        <time>2018-02-18T13:59:14Z</time>
      </trkpt>
      <trkpt lat="62.633261767438" lon="18.006515916696">
        <ele>63</ele>
        <time>2018-02-18T13:59:15Z</time>
      </trkpt>
      <trkpt lat="62.6332532179" lon="18.006449615867">
        <ele>63</ele>
        <time>2018-02-18T13:59:16Z</time>
      </trkpt>
      <trkpt lat="62.633254978099" lon="18.006399408286">
        <ele>63.2</ele>
        <time>2018-02-18T13:59:17Z</time>
      </trkpt>
      <trkpt lat="62.633251206244" lon="18.006354146026">
        <ele>63.2</ele>
        <time>2018-02-18T13:59:18Z</time>
      </trkpt>
      <trkpt lat="62.633246428561" lon="18.006295808002">
        <ele>63.4</ele>
        <time>2018-02-18T13:59:19Z</time>
      </trkpt>
      <trkpt lat="62.633245087457" lon="18.006260101108">
        <ele>63.6</ele>
        <time>2018-02-18T13:59:20Z</time>
      </trkpt>
      <trkpt lat="62.633242237611" lon="18.006195141383">
        <ele>63.6</ele>
        <time>2018-02-18T13:59:21Z</time>
      </trkpt>
      <trkpt lat="62.633241399421" lon="18.006148286562">
        <ele>63.8</ele>
        <time>2018-02-18T13:59:22Z</time>
      </trkpt>
      <trkpt lat="62.633244500724" lon="18.006128002364">
        <ele>63.8</ele>
        <time>2018-02-18T13:59:23Z</time>
      </trkpt>
      <trkpt lat="62.633234274806" lon="18.006089026529">
        <ele>64</ele>
        <time>2018-02-18T13:59:24Z</time>
      </trkpt>
      <trkpt lat="62.633239303946" lon="18.00605876787">
        <ele>64</ele>
        <time>2018-02-18T13:59:25Z</time>
      </trkpt>
      <trkpt lat="62.633234442444" lon="18.006035130912">
        <ele>64.4</ele>
        <time>2018-02-18T13:59:26Z</time>
      </trkpt>
      <trkpt lat="62.633235280634" lon="18.006012583601">
        <ele>64.6</ele>
        <time>2018-02-18T13:59:27Z</time>
      </trkpt>
      <trkpt lat="62.633230167675" lon="18.005965561142">
        <ele>64.8</ele>
        <time>2018-02-18T13:59:28Z</time>
      </trkpt>
      <trkpt lat="62.633232430788" lon="18.005936224492">
        <ele>65</ele>
        <time>2018-02-18T13:59:29Z</time>
      </trkpt>
      <trkpt lat="62.633237124652" lon="18.00588945349">
        <ele>65.4</ele>
        <time>2018-02-18T13:59:30Z</time>
      </trkpt>
      <trkpt lat="62.633229413304" lon="18.005849639465">
        <ele>65.4</ele>
        <time>2018-02-18T13:59:31Z</time>
      </trkpt>
      <trkpt lat="62.633232430788" lon="18.005847041076">
        <ele>65.6</ele>
        <time>2018-02-18T13:59:32Z</time>
      </trkpt>
      <trkpt lat="62.63323393953" lon="18.005821308643">
        <ele>65.8</ele>
        <time>2018-02-18T13:59:33Z</time>
      </trkpt>
      <trkpt lat="62.633235280634" lon="18.005792474907">
        <ele>66</ele>
        <time>2018-02-18T13:59:34Z</time>
      </trkpt>
      <trkpt lat="62.633230419132" lon="18.00577629784">
        <ele>66.2</ele>
        <time>2018-02-18T13:59:35Z</time>
      </trkpt>
      <trkpt lat="62.633230502951" lon="18.00577043051">
        <ele>66.4</ele>
        <time>2018-02-18T13:59:36Z</time>
      </trkpt>
      <trkpt lat="62.633234526263" lon="18.005760958963">
        <ele>66.6</ele>
        <time>2018-02-18T13:59:37Z</time>
      </trkpt>
      <trkpt lat="62.633231173503" lon="18.005734220702">
        <ele>66.8</ele>
        <time>2018-02-18T13:59:38Z</time>
      </trkpt>
      <trkpt lat="62.633233017521" lon="18.00570840445">
        <ele>67</ele>
        <time>2018-02-18T13:59:39Z</time>
      </trkpt>
      <trkpt lat="62.633232346969" lon="18.005695915419">
        <ele>67.2</ele>
        <time>2018-02-18T13:59:40Z</time>
      </trkpt>
      <trkpt lat="62.63323561591" lon="18.005701028378">
        <ele>67.4</ele>
        <time>2018-02-18T13:59:41Z</time>
      </trkpt>
      <trkpt lat="62.633234945358" lon="18.005666997864">
        <ele>67.8</ele>
        <time>2018-02-18T13:59:42Z</time>
      </trkpt>
      <trkpt lat="62.633234526263" lon="18.005630201323">
        <ele>68</ele>
        <time>2018-02-18T13:59:43Z</time>
      </trkpt>
      <trkpt lat="62.633232179331" lon="18.005597679551">
        <ele>68.2</ele>
        <time>2018-02-18T13:59:44Z</time>
      </trkpt>
      <trkpt lat="62.633232514607" lon="18.005587369814">
        <ele>68.4</ele>
        <time>2018-02-18T13:59:45Z</time>
      </trkpt>
      <trkpt lat="62.633237962842" lon="18.005578904095">
        <ele>68.8</ele>
        <time>2018-02-18T13:59:46Z</time>
      </trkpt>
      <trkpt lat="62.633236286462" lon="18.005549064531">
        <ele>69</ele>
        <time>2018-02-18T13:59:47Z</time>
      </trkpt>
      <trkpt lat="62.633236370281" lon="18.005526684858">
        <ele>69.2</ele>
        <time>2018-02-18T13:59:48Z</time>
      </trkpt>
      <trkpt lat="62.63323561591" lon="18.005511094524">
        <ele>69.6</ele>
        <time>2018-02-18T13:59:49Z</time>
      </trkpt>
      <trkpt lat="62.633237543747" lon="18.005499611321">
        <ele>69.8</ele>
        <time>2018-02-18T13:59:50Z</time>
      </trkpt>
      <trkpt lat="62.633234693901" lon="18.005480500589">
        <ele>70.2</ele>
        <time>2018-02-18T13:59:51Z</time>
      </trkpt>
      <trkpt lat="62.633232011693" lon="18.005438171994">
        <ele>70.4</ele>
        <time>2018-02-18T13:59:52Z</time>
      </trkpt>
      <trkpt lat="62.633229664761" lon="18.005420234728">
        <ele>70.8</ele>
        <time>2018-02-18T13:59:53Z</time>
      </trkpt>
      <trkpt lat="62.633230335313" lon="18.005403973842">
        <ele>71</ele>
        <time>2018-02-18T13:59:54Z</time>
      </trkpt>
      <trkpt lat="62.633230754408" lon="18.0053857013">
        <ele>71.2</ele>
        <time>2018-02-18T13:59:55Z</time>
      </trkpt>
      <trkpt lat="62.633230502951" lon="18.005361058514">
        <ele>71.4</ele>
        <time>2018-02-18T13:59:56Z</time>
      </trkpt>
      <trkpt lat="62.633228491295" lon="18.005325435439">
        <ele>71.6</ele>
        <time>2018-02-18T13:59:57Z</time>
      </trkpt>
      <trkpt lat="62.633225892906" lon="18.00530858782">
        <ele>71.6</ele>
        <time>2018-02-18T13:59:58Z</time>
      </trkpt>
      <trkpt lat="62.633227485467" lon="18.005294003314">
        <ele>71.8</ele>
        <time>2018-02-18T13:59:59Z</time>
      </trkpt>
      <trkpt lat="62.63322388125" lon="18.005273886754">
        <ele>72.2</ele>
        <time>2018-02-18T14:00:00Z</time>
      </trkpt>
      <trkpt lat="62.633218768291" lon="18.005249746882">
        <ele>72.4</ele>
        <time>2018-02-18T14:00:01Z</time>
      </trkpt>
      <trkpt lat="62.633223294517" lon="18.005222757164">
        <ele>72.6</ele>
        <time>2018-02-18T14:00:02Z</time>
      </trkpt>
      <trkpt lat="62.633219606481" lon="18.00519375579">
        <ele>72.8</ele>
        <time>2018-02-18T14:00:03Z</time>
      </trkpt>
      <trkpt lat="62.633223629793" lon="18.005168861547">
        <ele>73</ele>
        <time>2018-02-18T14:00:04Z</time>
      </trkpt>
      <trkpt lat="62.63322052849" lon="18.005139943992">
        <ele>73</ele>
        <time>2018-02-18T14:00:05Z</time>
      </trkpt>
      <trkpt lat="62.633219941757" lon="18.005108930962">
        <ele>73.2</ele>
        <time>2018-02-18T14:00:06Z</time>
      </trkpt>
      <trkpt lat="62.633216086083" lon="18.005083869081">
        <ele>73.4</ele>
        <time>2018-02-18T14:00:07Z</time>
      </trkpt>
      <trkpt lat="62.633216505178" lon="18.005067859652">
        <ele>73.6</ele>
        <time>2018-02-18T14:00:08Z</time>
      </trkpt>
      <trkpt lat="62.633213990608" lon="18.005049503291">
        <ele>74</ele>
        <time>2018-02-18T14:00:09Z</time>
      </trkpt>
      <trkpt lat="62.633210889305" lon="18.005024106134">
        <ele>74.2</ele>
        <time>2018-02-18T14:00:10Z</time>
      </trkpt>
      <trkpt lat="62.633210134934" lon="18.005003402841">
        <ele>74.6</ele>
        <time>2018-02-18T14:00:11Z</time>
      </trkpt>
      <trkpt lat="62.633207368907" lon="18.00497331182">
        <ele>74.8</ele>
        <time>2018-02-18T14:00:12Z</time>
      </trkpt>
      <trkpt lat="62.633199657559" lon="18.004946825016">
        <ele>75</ele>
        <time>2018-02-18T14:00:13Z</time>
      </trkpt>
      <trkpt lat="62.633195215152" lon="18.004927546646">
        <ele>75.2</ele>
        <time>2018-02-18T14:00:14Z</time>
      </trkpt>
      <trkpt lat="62.633191024202" lon="18.004913297416">
        <ele>75.4</ele>
        <time>2018-02-18T14:00:15Z</time>
      </trkpt>
      <trkpt lat="62.633187336166" lon="18.004891001562">
        <ele>75.6</ele>
        <time>2018-02-18T14:00:16Z</time>
      </trkpt>
      <trkpt lat="62.633178786628" lon="18.004873986305">
        <ele>75.8</ele>
        <time>2018-02-18T14:00:17Z</time>
      </trkpt>
      <trkpt lat="62.633168393072" lon="18.004854372659">
        <ele>76</ele>
        <time>2018-02-18T14:00:18Z</time>
      </trkpt>
      <trkpt lat="62.633156323136" lon="18.004839117601">
        <ele>76.4</ele>
        <time>2018-02-18T14:00:19Z</time>
      </trkpt>
      <trkpt lat="62.633143079734" lon="18.004830568063">
        <ele>76.6</ele>
        <time>2018-02-18T14:00:20Z</time>
      </trkpt>
      <trkpt lat="62.633130758341" lon="18.004822186163">
        <ele>76.8</ele>
        <time>2018-02-18T14:00:21Z</time>
      </trkpt>
      <trkpt lat="62.633117598758" lon="18.004821012697">
        <ele>77</ele>
        <time>2018-02-18T14:00:22Z</time>
      </trkpt>
      <trkpt lat="62.633107959573" lon="18.0048157321">
        <ele>77.2</ele>
        <time>2018-02-18T14:00:23Z</time>
      </trkpt>
      <trkpt lat="62.633091782506" lon="18.004820593602">
        <ele>77.4</ele>
        <time>2018-02-18T14:00:24Z</time>
      </trkpt>
      <trkpt lat="62.63308222714" lon="18.004821096516">
        <ele>78</ele>
        <time>2018-02-18T14:00:25Z</time>
      </trkpt>
      <trkpt lat="62.633068564643" lon="18.00482327581">
        <ele>78.2</ele>
        <time>2018-02-18T14:00:26Z</time>
      </trkpt>
      <trkpt lat="62.633053980137" lon="18.004825538923">
        <ele>78.4</ele>
        <time>2018-02-18T14:00:27Z</time>
      </trkpt>
      <trkpt lat="62.633039814726" lon="18.004827382941">
        <ele>78.8</ele>
        <time>2018-02-18T14:00:28Z</time>
      </trkpt>
      <trkpt lat="62.633020620175" lon="18.004832412081">
        <ele>79</ele>
        <time>2018-02-18T14:00:29Z</time>
      </trkpt>
      <trkpt lat="62.633010394257" lon="18.004845990759">
        <ele>79</ele>
        <time>2018-02-18T14:00:30Z</time>
      </trkpt>
      <trkpt lat="62.632989104231" lon="18.004869460079">
        <ele>79.2</ele>
        <time>2018-02-18T14:00:31Z</time>
      </trkpt>
      <trkpt lat="62.632975274096" lon="18.00489284558">
        <ele>79.4</ele>
        <time>2018-02-18T14:00:32Z</time>
      </trkpt>
      <trkpt lat="62.632955995726" lon="18.004917320728">
        <ele>79.4</ele>
        <time>2018-02-18T14:00:33Z</time>
      </trkpt>
      <trkpt lat="62.632941243582" lon="18.004952608527">
        <ele>79.6</ele>
        <time>2018-02-18T14:00:34Z</time>
      </trkpt>
      <trkpt lat="62.632928419275" lon="18.004981777539">
        <ele>79.8</ele>
        <time>2018-02-18T14:00:35Z</time>
      </trkpt>
      <trkpt lat="62.632914756778" lon="18.005011449465">
        <ele>79.8</ele>
        <time>2018-02-18T14:00:36Z</time>
      </trkpt>
      <trkpt lat="62.632892209467" lon="18.005064003978">
        <ele>80</ele>
        <time>2018-02-18T14:00:37Z</time>
      </trkpt>
      <trkpt lat="62.632874775115" lon="18.005094094999">
        <ele>80.2</ele>
        <time>2018-02-18T14:00:38Z</time>
      </trkpt>
      <trkpt lat="62.632858765686" lon="18.005142039467">
        <ele>80.2</ele>
        <time>2018-02-18T14:00:39Z</time>
      </trkpt>
      <trkpt lat="62.632831943606" lon="18.005195348351">
        <ele>80.2</ele>
        <time>2018-02-18T14:00:40Z</time>
      </trkpt>
      <trkpt lat="62.632820376584" lon="18.005224852639">
        <ele>80.2</ele>
        <time>2018-02-18T14:00:41Z</time>
      </trkpt>
      <trkpt lat="62.632796320531" lon="18.005257206773">
        <ele>80.2</ele>
        <time>2018-02-18T14:00:42Z</time>
      </trkpt>
      <trkpt lat="62.632762709112" lon="18.005279502627">
        <ele>80</ele>
        <time>2018-02-18T14:00:43Z</time>
      </trkpt>
      <trkpt lat="62.632729935883" lon="18.005297356074">
        <ele>80</ele>
        <time>2018-02-18T14:00:44Z</time>
      </trkpt>
      <trkpt lat="62.632712250074" lon="18.005294757685">
        <ele>79.8</ele>
        <time>2018-02-18T14:00:45Z</time>
      </trkpt>
      <trkpt lat="62.632697917025" lon="18.005293668038">
        <ele>79.8</ele>
        <time>2018-02-18T14:00:46Z</time>
      </trkpt>
      <trkpt lat="62.632685930908" lon="18.005297356074">
        <ele>79.8</ele>
        <time>2018-02-18T14:00:47Z</time>
      </trkpt>
      <trkpt lat="62.632668077461" lon="18.005295931151">
        <ele>79.8</ele>
        <time>2018-02-18T14:00:48Z</time>
      </trkpt>
      <trkpt lat="62.632648128539" lon="18.005288052165">
        <ele>80.2</ele>
        <time>2018-02-18T14:00:49Z</time>
      </trkpt>
      <trkpt lat="62.632629101626" lon="18.005285286138">
        <ele>80.6</ele>
        <time>2018-02-18T14:00:50Z</time>
      </trkpt>
      <trkpt lat="62.632610996722" lon="18.005281095188">
        <ele>80.8</ele>
        <time>2018-02-18T14:00:51Z</time>
      </trkpt>
      <trkpt lat="62.63258937142" lon="18.005273886754">
        <ele>81.2</ele>
        <time>2018-02-18T14:00:52Z</time>
      </trkpt>
      <trkpt lat="62.632578726407" lon="18.005278999713">
        <ele>81.4</ele>
        <time>2018-02-18T14:00:53Z</time>
      </trkpt>
      <trkpt lat="62.632560621503" lon="18.005290315278">
        <ele>81.6</ele>
        <time>2018-02-18T14:00:54Z</time>
      </trkpt>
      <trkpt lat="62.632547126644" lon="18.005313784598">
        <ele>81.6</ele>
        <time>2018-02-18T14:00:55Z</time>
      </trkpt>
      <trkpt lat="62.632518628184" lon="18.00531696972">
        <ele>81.6</ele>
        <time>2018-02-18T14:00:56Z</time>
      </trkpt>
      <trkpt lat="62.632499768909" lon="18.005312443494">
        <ele>81.6</ele>
        <time>2018-02-18T14:00:57Z</time>
      </trkpt>
      <trkpt lat="62.632472611553" lon="18.005307665811">
        <ele>81.8</ele>
        <time>2018-02-18T14:00:58Z</time>
      </trkpt>
      <trkpt lat="62.632446711482" lon="18.005301966119">
        <ele>81.8</ele>
        <time>2018-02-18T14:00:59Z</time>
      </trkpt>
      <trkpt lat="62.6324234098" lon="18.005293584219">
        <ele>81.8</ele>
        <time>2018-02-18T14:01:00Z</time>
      </trkpt>
      <trkpt lat="62.632399605204" lon="18.005293751857">
        <ele>81.8</ele>
        <time>2018-02-18T14:01:01Z</time>
      </trkpt>
      <trkpt lat="62.632375716789" lon="18.005292997486">
        <ele>81.8</ele>
        <time>2018-02-18T14:01:02Z</time>
      </trkpt>
      <trkpt lat="62.632356438419" lon="18.005302971947">
        <ele>81.8</ele>
        <time>2018-02-18T14:01:03Z</time>
      </trkpt>
      <trkpt lat="62.632333388194" lon="18.005302469033">
        <ele>82</ele>
        <time>2018-02-18T14:01:04Z</time>
      </trkpt>
      <trkpt lat="62.632316624394" lon="18.005320071023">
        <ele>82</ele>
        <time>2018-02-18T14:01:05Z</time>
      </trkpt>
      <trkpt lat="62.632296088739" lon="18.005329794027">
        <ele>82</ele>
        <time>2018-02-18T14:01:06Z</time>
      </trkpt>
      <trkpt lat="62.632273792885" lon="18.005336583366">
        <ele>82</ele>
        <time>2018-02-18T14:01:07Z</time>
      </trkpt>
      <trkpt lat="62.632249401556" lon="18.00533792447">
        <ele>82</ele>
        <time>2018-02-18T14:01:08Z</time>
      </trkpt>
      <trkpt lat="62.632228446806" lon="18.005356867564">
        <ele>82</ele>
        <time>2018-02-18T14:01:09Z</time>
      </trkpt>
      <trkpt lat="62.632205983314" lon="18.00536223198">
        <ele>82</ele>
        <time>2018-02-18T14:01:10Z</time>
      </trkpt>
      <trkpt lat="62.632176898121" lon="18.005374637192">
        <ele>82.2</ele>
        <time>2018-02-18T14:01:11Z</time>
      </trkpt>
      <trkpt lat="62.632156697742" lon="18.005381091255">
        <ele>82.2</ele>
        <time>2018-02-18T14:01:12Z</time>
      </trkpt>
      <trkpt lat="62.632142280874" lon="18.005395843399">
        <ele>82.2</ele>
        <time>2018-02-18T14:01:13Z</time>
      </trkpt>
      <trkpt lat="62.632107831265" lon="18.00540330329">
        <ele>82.2</ele>
        <time>2018-02-18T14:01:14Z</time>
      </trkpt>
      <trkpt lat="62.632088385257" lon="18.005418306891">
        <ele>82.6</ele>
        <time>2018-02-18T14:01:15Z</time>
      </trkpt>
      <trkpt lat="62.632072375828" lon="18.00543263994">
        <ele>82.6</ele>
        <time>2018-02-18T14:01:16Z</time>
      </trkpt>
      <trkpt lat="62.632038261495" lon="18.0054359927">
        <ele>82.6</ele>
        <time>2018-02-18T14:01:17Z</time>
      </trkpt>
      <trkpt lat="62.632016720012" lon="18.005447559722">
        <ele>83</ele>
        <time>2018-02-18T14:01:18Z</time>
      </trkpt>
      <trkpt lat="62.63199006557" lon="18.00545610926">
        <ele>83.2</ele>
        <time>2018-02-18T14:01:19Z</time>
      </trkpt>
      <trkpt lat="62.631961483291" lon="18.005466251359">
        <ele>83</ele>
        <time>2018-02-18T14:01:20Z</time>
      </trkpt>
      <trkpt lat="62.631939606532" lon="18.005475471449">
        <ele>83</ele>
        <time>2018-02-18T14:01:21Z</time>
      </trkpt>
      <trkpt lat="62.631918651782" lon="18.005480835865">
        <ele>83.2</ele>
        <time>2018-02-18T14:01:22Z</time>
      </trkpt>
      <trkpt lat="62.631885710915" lon="18.005480584408">
        <ele>83</ele>
        <time>2018-02-18T14:01:23Z</time>
      </trkpt>
      <trkpt lat="62.631859727025" lon="18.005474130345">
        <ele>83</ele>
        <time>2018-02-18T14:01:24Z</time>
      </trkpt>
      <trkpt lat="62.631832066755" lon="18.00546449116">
        <ele>83</ele>
        <time>2018-02-18T14:01:25Z</time>
      </trkpt>
      <trkpt lat="62.631812285471" lon="18.005456193079">
        <ele>83</ele>
        <time>2018-02-18T14:01:26Z</time>
      </trkpt>
      <trkpt lat="62.631796192223" lon="18.005441943849">
        <ele>83.2</ele>
        <time>2018-02-18T14:01:27Z</time>
      </trkpt>
      <trkpt lat="62.631773058179" lon="18.005413277751">
        <ele>83.2</ele>
        <time>2018-02-18T14:01:28Z</time>
      </trkpt>
      <trkpt lat="62.631751600515" lon="18.005389724612">
        <ele>83.2</ele>
        <time>2018-02-18T14:01:29Z</time>
      </trkpt>
      <trkpt lat="62.631730981041" lon="18.005354352994">
        <ele>83.2</ele>
        <time>2018-02-18T14:01:30Z</time>
      </trkpt>
      <trkpt lat="62.631704075142" lon="18.005313030227">
        <ele>83.4</ele>
        <time>2018-02-18T14:01:31Z</time>
      </trkpt>
      <trkpt lat="62.631677923614" lon="18.005280759912">
        <ele>83.4</ele>
        <time>2018-02-18T14:01:32Z</time>
      </trkpt>
      <trkpt lat="62.63166736242" lon="18.005241448801">
        <ele>83.4</ele>
        <time>2018-02-18T14:01:33Z</time>
      </trkpt>
      <trkpt lat="62.631652442638" lon="18.005200293672">
        <ele>83.4</ele>
        <time>2018-02-18T14:01:34Z</time>
      </trkpt>
      <trkpt lat="62.631634505372" lon="18.005138099974">
        <ele>83.6</ele>
        <time>2018-02-18T14:01:35Z</time>
      </trkpt>
      <trkpt lat="62.631618076848" lon="18.005116558491">
        <ele>83.6</ele>
        <time>2018-02-18T14:01:36Z</time>
      </trkpt>
      <trkpt lat="62.631599217573" lon="18.005076912104">
        <ele>83.8</ele>
        <time>2018-02-18T14:01:37Z</time>
      </trkpt>
      <trkpt lat="62.631581280307" lon="18.005017819709">
        <ele>83.8</ele>
        <time>2018-02-18T14:01:38Z</time>
      </trkpt>
      <trkpt lat="62.631563007765" lon="18.004976161666">
        <ele>84</ele>
        <time>2018-02-18T14:01:39Z</time>
      </trkpt>
      <trkpt lat="62.63154414849" lon="18.004950261595">
        <ele>84</ele>
        <time>2018-02-18T14:01:40Z</time>
      </trkpt>
      <trkpt lat="62.631530569812" lon="18.004917656004">
        <ele>84</ele>
        <time>2018-02-18T14:01:41Z</time>
      </trkpt>
      <trkpt lat="62.631514728021" lon="18.004888151716">
        <ele>83.8</ele>
        <time>2018-02-18T14:01:42Z</time>
      </trkpt>
      <trkpt lat="62.631487738303" lon="18.004855043211">
        <ele>84</ele>
        <time>2018-02-18T14:01:43Z</time>
      </trkpt>
      <trkpt lat="62.631469214304" lon="18.004832998814">
        <ele>84.2</ele>
        <time>2018-02-18T14:01:44Z</time>
      </trkpt>
      <trkpt lat="62.631449181563" lon="18.004808020752">
        <ele>84.6</ele>
        <time>2018-02-18T14:01:45Z</time>
      </trkpt>
      <trkpt lat="62.631426382795" lon="18.004771559487">
        <ele>84.6</ele>
        <time>2018-02-18T14:01:46Z</time>
      </trkpt>
      <trkpt lat="62.63140500895" lon="18.004725710494">
        <ele>84.8</ele>
        <time>2018-02-18T14:01:47Z</time>
      </trkpt>
      <trkpt lat="62.631400566543" lon="18.004691177066">
        <ele>84.8</ele>
        <time>2018-02-18T14:01:48Z</time>
      </trkpt>
      <trkpt lat="62.631372906273" lon="18.004665276995">
        <ele>85</ele>
        <time>2018-02-18T14:01:49Z</time>
      </trkpt>
      <trkpt lat="62.63135136479" lon="18.004656895095">
        <ele>85</ele>
        <time>2018-02-18T14:01:50Z</time>
      </trkpt>
      <trkpt lat="62.631334433352" lon="18.004647675005">
        <ele>85.2</ele>
        <time>2018-02-18T14:01:51Z</time>
      </trkpt>
      <trkpt lat="62.631317418095" lon="18.004627642264">
        <ele>85.2</ele>
        <time>2018-02-18T14:01:52Z</time>
      </trkpt>
      <trkpt lat="62.631287746169" lon="18.004620014735">
        <ele>85.2</ele>
        <time>2018-02-18T14:01:53Z</time>
      </trkpt>
      <trkpt lat="62.631270814731" lon="18.004614734138">
        <ele>85.2</ele>
        <time>2018-02-18T14:01:54Z</time>
      </trkpt>
      <trkpt lat="62.631253883293" lon="18.004609453541">
        <ele>85.2</ele>
        <time>2018-02-18T14:01:55Z</time>
      </trkpt>
      <trkpt lat="62.631215997105" lon="18.004543655626">
        <ele>85.2</ele>
        <time>2018-02-18T14:01:56Z</time>
      </trkpt>
      <trkpt lat="62.631212057612" lon="18.004543823264">
        <ele>85.2</ele>
        <time>2018-02-18T14:01:57Z</time>
      </trkpt>
      <trkpt lat="62.631197640744" lon="18.004523036152">
        <ele>85.6</ele>
        <time>2018-02-18T14:01:58Z</time>
      </trkpt>
      <trkpt lat="62.631166543895" lon="18.004500656479">
        <ele>85.6</ele>
        <time>2018-02-18T14:01:59Z</time>
      </trkpt>
      <trkpt lat="62.631137793978" lon="18.004492945131">
        <ele>85.8</ele>
        <time>2018-02-18T14:02:00Z</time>
      </trkpt>
      <trkpt lat="62.631124885852" lon="18.004465787775">
        <ele>86</ele>
        <time>2018-02-18T14:02:01Z</time>
      </trkpt>
      <trkpt lat="62.631108624966" lon="18.004443240464">
        <ele>86.2</ele>
        <time>2018-02-18T14:02:02Z</time>
      </trkpt>
      <trkpt lat="62.631087167302" lon="18.004436786401">
        <ele>86.2</ele>
        <time>2018-02-18T14:02:03Z</time>
      </trkpt>
      <trkpt lat="62.631064368534" lon="18.004422537171">
        <ele>86.4</ele>
        <time>2018-02-18T14:02:04Z</time>
      </trkpt>
      <trkpt lat="62.631050203123" lon="18.00440585719">
        <ele>86.6</ele>
        <time>2018-02-18T14:02:05Z</time>
      </trkpt>
      <trkpt lat="62.631035450979" lon="18.00439160796">
        <ele>86.8</ele>
        <time>2018-02-18T14:02:06Z</time>
      </trkpt>
      <trkpt lat="62.631025644156" lon="18.004377274911">
        <ele>86.8</ele>
        <time>2018-02-18T14:02:07Z</time>
      </trkpt>
      <trkpt lat="62.630988847615" lon="18.004336035963">
        <ele>87</ele>
        <time>2018-02-18T14:02:08Z</time>
      </trkpt>
      <trkpt lat="62.630972419091" lon="18.004317511964">
        <ele>87</ele>
        <time>2018-02-18T14:02:09Z</time>
      </trkpt>
      <trkpt lat="62.630956493481" lon="18.004296557214">
        <ele>87.4</ele>
        <time>2018-02-18T14:02:10Z</time>
      </trkpt>
      <trkpt lat="62.630932437428" lon="18.004255485904">
        <ele>87.4</ele>
        <time>2018-02-18T14:02:11Z</time>
      </trkpt>
      <trkpt lat="62.630915841266" lon="18.004222628856">
        <ele>87.4</ele>
        <time>2018-02-18T14:02:12Z</time>
      </trkpt>
      <trkpt lat="62.630899915656" lon="18.004185161763">
        <ele>87.6</ele>
        <time>2018-02-18T14:02:13Z</time>
      </trkpt>
      <trkpt lat="62.63087946382" lon="18.004143000806">
        <ele>87.6</ele>
        <time>2018-02-18T14:02:14Z</time>
      </trkpt>
      <trkpt lat="62.63085934726" lon="18.004105198437">
        <ele>87.6</ele>
        <time>2018-02-18T14:02:15Z</time>
      </trkpt>
      <trkpt lat="62.630844511297" lon="18.004082651126">
        <ele>87.8</ele>
        <time>2018-02-18T14:02:16Z</time>
      </trkpt>
      <trkpt lat="62.630837721958" lon="18.00405381739">
        <ele>88</ele>
        <time>2018-02-18T14:02:17Z</time>
      </trkpt>
      <trkpt lat="62.63082749604" lon="18.004029006966">
        <ele>88</ele>
        <time>2018-02-18T14:02:18Z</time>
      </trkpt>
      <trkpt lat="62.630814671733" lon="18.003977458281">
        <ele>88.4</ele>
        <time>2018-02-18T14:02:19Z</time>
      </trkpt>
      <trkpt lat="62.630807128023" lon="18.003930519641">
        <ele>88.8</ele>
        <time>2018-02-18T14:02:20Z</time>
      </trkpt>
      <trkpt lat="62.63080067396" lon="18.003886933761">
        <ele>88.6</ele>
        <time>2018-02-18T14:02:21Z</time>
      </trkpt>
      <trkpt lat="62.63080318853" lon="18.003856088369">
        <ele>88.6</ele>
        <time>2018-02-18T14:02:22Z</time>
      </trkpt>
      <trkpt lat="62.630806708928" lon="18.003839911302">
        <ele>89</ele>
        <time>2018-02-18T14:02:23Z</time>
      </trkpt>
      <trkpt lat="62.630794555173" lon="18.003782746744">
        <ele>89.2</ele>
        <time>2018-02-18T14:02:24Z</time>
      </trkpt>
      <trkpt lat="62.630789861309" lon="18.003733042077">
        <ele>89.2</ele>
        <time>2018-02-18T14:02:25Z</time>
      </trkpt>
      <trkpt lat="62.630788604024" lon="18.00367747008">
        <ele>89.4</ele>
        <time>2018-02-18T14:02:26Z</time>
      </trkpt>
      <trkpt lat="62.630793297888" lon="18.003612175079">
        <ele>89.6</ele>
        <time>2018-02-18T14:02:27Z</time>
      </trkpt>
      <trkpt lat="62.630788604024" lon="18.003582084058">
        <ele>89.6</ele>
        <time>2018-02-18T14:02:28Z</time>
      </trkpt>
      <trkpt lat="62.630794136078" lon="18.003520141817">
        <ele>89.8</ele>
        <time>2018-02-18T14:02:29Z</time>
      </trkpt>
      <trkpt lat="62.630800171046" lon="18.003473873729">
        <ele>89.8</ele>
        <time>2018-02-18T14:02:30Z</time>
      </trkpt>
      <trkpt lat="62.630804613453" lon="18.003424252881">
        <ele>89.6</ele>
        <time>2018-02-18T14:02:31Z</time>
      </trkpt>
      <trkpt lat="62.6308057031" lon="18.003366166314">
        <ele>89.6</ele>
        <time>2018-02-18T14:02:32Z</time>
      </trkpt>
      <trkpt lat="62.63079983577" lon="18.003343619003">
        <ele>89.6</ele>
        <time>2018-02-18T14:02:33Z</time>
      </trkpt>
      <trkpt lat="62.630803859082" lon="18.003280670934">
        <ele>89.8</ele>
        <time>2018-02-18T14:02:34Z</time>
      </trkpt>
      <trkpt lat="62.630807463299" lon="18.003227613507">
        <ele>89.8</ele>
        <time>2018-02-18T14:02:35Z</time>
      </trkpt>
      <trkpt lat="62.630814839371" lon="18.003191236061">
        <ele>90</ele>
        <time>2018-02-18T14:02:36Z</time>
      </trkpt>
      <trkpt lat="62.630826993126" lon="18.00315779228">
        <ele>90</ele>
        <time>2018-02-18T14:02:37Z</time>
      </trkpt>
      <trkpt lat="62.630828669506" lon="18.003088390148">
        <ele>90.2</ele>
        <time>2018-02-18T14:02:38Z</time>
      </trkpt>
      <trkpt lat="62.630831016438" lon="18.003032482875">
        <ele>90.2</ele>
        <time>2018-02-18T14:02:39Z</time>
      </trkpt>
      <trkpt lat="62.630834704474" lon="18.002988226443">
        <ele>90.4</ele>
        <time>2018-02-18T14:02:40Z</time>
      </trkpt>
      <trkpt lat="62.630833111913" lon="18.002935755749">
        <ele>90.6</ele>
        <time>2018-02-18T14:02:41Z</time>
      </trkpt>
      <trkpt lat="62.630832776637" lon="18.00288957148">
        <ele>90.6</ele>
        <time>2018-02-18T14:02:42Z</time>
      </trkpt>
      <trkpt lat="62.630831184076" lon="18.002832239284">
        <ele>90.8</ele>
        <time>2018-02-18T14:02:43Z</time>
      </trkpt>
      <trkpt lat="62.630831100257" lon="18.002780187685">
        <ele>91</ele>
        <time>2018-02-18T14:02:44Z</time>
      </trkpt>
      <trkpt lat="62.630829759153" lon="18.002735260701">
        <ele>91.2</ele>
        <time>2018-02-18T14:02:45Z</time>
      </trkpt>
      <trkpt lat="62.630831351714" lon="18.002692764468">
        <ele>91.2</ele>
        <time>2018-02-18T14:02:46Z</time>
      </trkpt>
      <trkpt lat="62.630825987298" lon="18.002637024833">
        <ele>91.4</ele>
        <time>2018-02-18T14:02:47Z</time>
      </trkpt>
      <trkpt lat="62.630821461072" lon="18.002582207207">
        <ele>91.6</ele>
        <time>2018-02-18T14:02:48Z</time>
      </trkpt>
      <trkpt lat="62.630824562375" lon="18.002540632983">
        <ele>91.8</ele>
        <time>2018-02-18T14:02:49Z</time>
      </trkpt>
      <trkpt lat="62.63081492319" lon="18.002490676859">
        <ele>91.8</ele>
        <time>2018-02-18T14:02:50Z</time>
      </trkpt>
      <trkpt lat="62.630807630937" lon="18.002437032699">
        <ele>91.8</ele>
        <time>2018-02-18T14:02:51Z</time>
      </trkpt>
      <trkpt lat="62.630798327028" lon="18.002381041607">
        <ele>91.8</ele>
        <time>2018-02-18T14:02:52Z</time>
      </trkpt>
      <trkpt lat="62.630798829942" lon="18.002347346369">
        <ele>91.8</ele>
        <time>2018-02-18T14:02:53Z</time>
      </trkpt>
      <trkpt lat="62.630795896277" lon="18.002292109648">
        <ele>92</ele>
        <time>2018-02-18T14:02:54Z</time>
      </trkpt>
      <trkpt lat="62.630790950956" lon="18.002240560963">
        <ele>92</ele>
        <time>2018-02-18T14:02:55Z</time>
      </trkpt>
      <trkpt lat="62.630788604024" lon="18.002200830757">
        <ele>92.2</ele>
        <time>2018-02-18T14:02:56Z</time>
      </trkpt>
      <trkpt lat="62.630784915988" lon="18.002160681456">
        <ele>92.4</ele>
        <time>2018-02-18T14:02:57Z</time>
      </trkpt>
      <trkpt lat="62.630775360622" lon="18.002125477476">
        <ele>92.6</ele>
        <time>2018-02-18T14:02:58Z</time>
      </trkpt>
      <trkpt lat="62.630768990378" lon="18.002045597969">
        <ele>92.6</ele>
        <time>2018-02-18T14:02:59Z</time>
      </trkpt>
      <trkpt lat="62.630760608478" lon="18.00200276646">
        <ele>92.8</ele>
        <time>2018-02-18T14:03:00Z</time>
      </trkpt>
      <trkpt lat="62.630756752804" lon="18.001945937178">
        <ele>93</ele>
        <time>2018-02-18T14:03:01Z</time>
      </trkpt>
      <trkpt lat="62.630755076424" lon="18.001887599154">
        <ele>93.2</ele>
        <time>2018-02-18T14:03:02Z</time>
      </trkpt>
      <trkpt lat="62.630753316225" lon="18.0018401576">
        <ele>93</ele>
        <time>2018-02-18T14:03:03Z</time>
      </trkpt>
      <trkpt lat="62.630748287085" lon="18.001789195648">
        <ele>93.2</ele>
        <time>2018-02-18T14:03:04Z</time>
      </trkpt>
      <trkpt lat="62.630749041456" lon="18.001733539832">
        <ele>93.2</ele>
        <time>2018-02-18T14:03:05Z</time>
      </trkpt>
      <trkpt lat="62.63075373532" lon="18.00168844521">
        <ele>93.2</ele>
        <time>2018-02-18T14:03:06Z</time>
      </trkpt>
      <trkpt lat="62.630752813311" lon="18.001634884869">
        <ele>93.4</ele>
        <time>2018-02-18T14:03:07Z</time>
      </trkpt>
      <trkpt lat="62.630752729492" lon="18.001579229053">
        <ele>93.4</ele>
        <time>2018-02-18T14:03:08Z</time>
      </trkpt>
      <trkpt lat="62.630747113619" lon="18.001533966793">
        <ele>93.6</ele>
        <time>2018-02-18T14:03:09Z</time>
      </trkpt>
      <trkpt lat="62.630737222977" lon="18.001484094488">
        <ele>93.6</ele>
        <time>2018-02-18T14:03:10Z</time>
      </trkpt>
      <trkpt lat="62.630734792226" lon="18.001434725097">
        <ele>93.6</ele>
        <time>2018-02-18T14:03:11Z</time>
      </trkpt>
      <trkpt lat="62.630731607104" lon="18.001392899416">
        <ele>93.8</ele>
        <time>2018-02-18T14:03:12Z</time>
      </trkpt>
      <trkpt lat="62.630726661783" lon="18.001328777881">
        <ele>93.6</ele>
        <time>2018-02-18T14:03:13Z</time>
      </trkpt>
      <trkpt lat="62.630714927123" lon="18.001274127893">
        <ele>93.8</ele>
        <time>2018-02-18T14:03:14Z</time>
      </trkpt>
      <trkpt lat="62.630705036481" lon="18.001230458194">
        <ele>93.8</ele>
        <time>2018-02-18T14:03:15Z</time>
      </trkpt>
      <trkpt lat="62.630696151667" lon="18.0011779875">
        <ele>94</ele>
        <time>2018-02-18T14:03:16Z</time>
      </trkpt>
      <trkpt lat="62.630686512482" lon="18.001119733295">
        <ele>94</ele>
        <time>2018-02-18T14:03:17Z</time>
      </trkpt>
      <trkpt lat="62.630675616012" lon="18.001071034456">
        <ele>94.2</ele>
        <time>2018-02-18T14:03:18Z</time>
      </trkpt>
      <trkpt lat="62.630666312103" lon="18.001017474115">
        <ele>94.2</ele>
        <time>2018-02-18T14:03:19Z</time>
      </trkpt>
      <trkpt lat="62.63065818166" lon="18.000955196598">
        <ele>94.2</ele>
        <time>2018-02-18T14:03:20Z</time>
      </trkpt>
      <trkpt lat="62.630652481968" lon="18.000907168311">
        <ele>94.2</ele>
        <time>2018-02-18T14:03:21Z</time>
      </trkpt>
      <trkpt lat="62.630642339869" lon="18.00085193159">
        <ele>94.4</ele>
        <time>2018-02-18T14:03:22Z</time>
      </trkpt>
      <trkpt lat="62.630630102295" lon="18.000780517802">
        <ele>94.4</ele>
        <time>2018-02-18T14:03:23Z</time>
      </trkpt>
      <trkpt lat="62.630620798386" lon="18.000733243886">
        <ele>94.6</ele>
        <time>2018-02-18T14:03:24Z</time>
      </trkpt>
      <trkpt lat="62.630610069554" lon="18.000680521735">
        <ele>94.6</ele>
        <time>2018-02-18T14:03:25Z</time>
      </trkpt>
      <trkpt lat="62.630597748161" lon="18.000624865919">
        <ele>94.8</ele>
        <time>2018-02-18T14:03:26Z</time>
      </trkpt>
      <trkpt lat="62.630589030985" lon="18.000590332491">
        <ele>94.8</ele>
        <time>2018-02-18T14:03:27Z</time>
      </trkpt>
      <trkpt lat="62.630576206678" lon="18.000544064403">
        <ele>94.8</ele>
        <time>2018-02-18T14:03:28Z</time>
      </trkpt>
      <trkpt lat="62.630564891113" lon="18.000493521546">
        <ele>95</ele>
        <time>2018-02-18T14:03:29Z</time>
      </trkpt>
      <trkpt lat="62.630557347403" lon="18.000456725005">
        <ele>95</ele>
        <time>2018-02-18T14:03:30Z</time>
      </trkpt>
      <trkpt lat="62.630548546408" lon="18.00041355822">
        <ele>95</ele>
        <time>2018-02-18T14:03:31Z</time>
      </trkpt>
      <trkpt lat="62.630537314662" lon="18.000365446114">
        <ele>95</ele>
        <time>2018-02-18T14:03:32Z</time>
      </trkpt>
      <trkpt lat="62.630527172563" lon="18.000323368976">
        <ele>95</ele>
        <time>2018-02-18T14:03:33Z</time>
      </trkpt>
      <trkpt lat="62.630514599713" lon="18.000271149739">
        <ele>95.2</ele>
        <time>2018-02-18T14:03:34Z</time>
      </trkpt>
      <trkpt lat="62.630506050175" lon="18.000214739552">
        <ele>95.2</ele>
        <time>2018-02-18T14:03:35Z</time>
      </trkpt>
      <trkpt lat="62.63049976375" lon="18.000176434269">
        <ele>95.2</ele>
        <time>2018-02-18T14:03:36Z</time>
      </trkpt>
      <trkpt lat="62.630492722954" lon="18.000142906669">
        <ele>95.4</ele>
        <time>2018-02-18T14:03:37Z</time>
      </trkpt>
      <trkpt lat="62.630479144276" lon="18.000079036591">
        <ele>95.4</ele>
        <time>2018-02-18T14:03:38Z</time>
      </trkpt>
      <trkpt lat="62.63046707434" lon="18.000025057155">
        <ele>95.6</ele>
        <time>2018-02-18T14:03:39Z</time>
      </trkpt>
      <trkpt lat="62.630457770431" lon="17.999988931166">
        <ele>95.6</ele>
        <time>2018-02-18T14:03:40Z</time>
      </trkpt>
      <trkpt lat="62.630445029943" lon="17.999926821287">
        <ele>95.6</ele>
        <time>2018-02-18T14:03:41Z</time>
      </trkpt>
      <trkpt lat="62.630434049654" lon="17.999872506575">
        <ele>95.8</ele>
        <time>2018-02-18T14:03:42Z</time>
      </trkpt>
      <trkpt lat="62.630420554795" lon="17.999830680894">
        <ele>95.8</ele>
        <time>2018-02-18T14:03:43Z</time>
      </trkpt>
      <trkpt lat="62.630406892298" lon="17.999788855213">
        <ele>96</ele>
        <time>2018-02-18T14:03:44Z</time>
      </trkpt>
      <trkpt lat="62.630394235629" lon="17.999736468338">
        <ele>96</ele>
        <time>2018-02-18T14:03:45Z</time>
      </trkpt>
      <trkpt lat="62.630384344987" lon="17.999693133915">
        <ele>96.2</ele>
        <time>2018-02-18T14:03:46Z</time>
      </trkpt>
      <trkpt lat="62.630376633639" lon="17.999657175564">
        <ele>96.2</ele>
        <time>2018-02-18T14:03:47Z</time>
      </trkpt>
      <trkpt lat="62.63036565335" lon="17.999607303259">
        <ele>96.4</ele>
        <time>2018-02-18T14:03:48Z</time>
      </trkpt>
      <trkpt lat="62.630354840699" lon="17.999565645216">
        <ele>96.6</ele>
        <time>2018-02-18T14:03:49Z</time>
      </trkpt>
      <trkpt lat="62.630337909261" lon="17.999527842847">
        <ele>96.8</ele>
        <time>2018-02-18T14:03:50Z</time>
      </trkpt>
      <trkpt lat="62.630316619235" lon="17.999485933347">
        <ele>97.2</ele>
        <time>2018-02-18T14:03:51Z</time>
      </trkpt>
      <trkpt lat="62.630300190711" lon="17.999439246164">
        <ele>97.2</ele>
        <time>2018-02-18T14:03:52Z</time>
      </trkpt>
      <trkpt lat="62.630288707508" lon="17.999369257299">
        <ele>97.4</ele>
        <time>2018-02-18T14:03:53Z</time>
      </trkpt>
      <trkpt lat="62.630282421083" lon="17.999305973954">
        <ele>97.4</ele>
        <time>2018-02-18T14:03:54Z</time>
      </trkpt>
      <trkpt lat="62.630274458278" lon="17.999254425269">
        <ele>97.4</ele>
        <time>2018-02-18T14:03:55Z</time>
      </trkpt>
      <trkpt lat="62.630266495473" lon="17.999208911552">
        <ele>97.4</ele>
        <time>2018-02-18T14:03:56Z</time>
      </trkpt>
      <trkpt lat="62.630255599003" lon="17.999148897148">
        <ele>97.6</ele>
        <time>2018-02-18T14:03:57Z</time>
      </trkpt>
      <trkpt lat="62.63024830675" lon="17.999078740645">
        <ele>97.4</ele>
        <time>2018-02-18T14:03:58Z</time>
      </trkpt>
      <trkpt lat="62.630245540723" lon="17.999019564431">
        <ele>97.4</ele>
        <time>2018-02-18T14:03:59Z</time>
      </trkpt>
      <trkpt lat="62.630239002841" lon="17.998969105393">
        <ele>97.4</ele>
        <time>2018-02-18T14:04:00Z</time>
      </trkpt>
      <trkpt lat="62.630234560434" lon="17.998908671894">
        <ele>97.6</ele>
        <time>2018-02-18T14:04:01Z</time>
      </trkpt>
      <trkpt lat="62.630232297321" lon="17.998855530648">
        <ele>97.6</ele>
        <time>2018-02-18T14:04:02Z</time>
      </trkpt>
      <trkpt lat="62.630227687276" lon="17.998801215936">
        <ele>97.6</ele>
        <time>2018-02-18T14:04:03Z</time>
      </trkpt>
      <trkpt lat="62.630225759439" lon="17.998741536808">
        <ele>97.8</ele>
        <time>2018-02-18T14:04:04Z</time>
      </trkpt>
      <trkpt lat="62.630218299548" lon="17.998675571255">
        <ele>97.8</ele>
        <time>2018-02-18T14:04:05Z</time>
      </trkpt>
      <trkpt lat="62.630212599856" lon="17.998620418353">
        <ele>98</ele>
        <time>2018-02-18T14:04:06Z</time>
      </trkpt>
      <trkpt lat="62.630210672019" lon="17.998555123352">
        <ele>98</ele>
        <time>2018-02-18T14:04:07Z</time>
      </trkpt>
      <trkpt lat="62.630212767494" lon="17.998489828351">
        <ele>98</ele>
        <time>2018-02-18T14:04:08Z</time>
      </trkpt>
      <trkpt lat="62.630216120254" lon="17.998444230815">
        <ele>98</ele>
        <time>2018-02-18T14:04:09Z</time>
      </trkpt>
      <trkpt lat="62.630223831602" lon="17.998386647162">
        <ele>98</ele>
        <time>2018-02-18T14:04:10Z</time>
      </trkpt>
      <trkpt lat="62.630231123855" lon="17.998323028541">
        <ele>98.2</ele>
        <time>2018-02-18T14:04:11Z</time>
      </trkpt>
      <trkpt lat="62.630228693104" lon="17.998272401865">
        <ele>98</ele>
        <time>2018-02-18T14:04:12Z</time>
      </trkpt>
      <trkpt lat="62.630226010896" lon="17.998221104637">
        <ele>98</ele>
        <time>2018-02-18T14:04:13Z</time>
      </trkpt>
      <trkpt lat="62.630227016724" lon="17.998125467158">
        <ele>98.2</ele>
        <time>2018-02-18T14:04:14Z</time>
      </trkpt>
      <trkpt lat="62.630226429991" lon="17.998069559885">
        <ele>98.2</ele>
        <time>2018-02-18T14:04:15Z</time>
      </trkpt>
      <trkpt lat="62.630228106371" lon="17.998009713119">
        <ele>98.2</ele>
        <time>2018-02-18T14:04:16Z</time>
      </trkpt>
      <trkpt lat="62.630233638425" lon="17.997952967656">
        <ele>98.2</ele>
        <time>2018-02-18T14:04:17Z</time>
      </trkpt>
      <trkpt lat="62.6302357339" lon="17.997897730935">
        <ele>98.4</ele>
        <time>2018-02-18T14:04:18Z</time>
      </trkpt>
      <trkpt lat="62.630242774696" lon="17.997845763155">
        <ele>98.4</ele>
        <time>2018-02-18T14:04:19Z</time>
      </trkpt>
      <trkpt lat="62.630243864343" lon="17.997800165619">
        <ele>98.4</ele>
        <time>2018-02-18T14:04:20Z</time>
      </trkpt>
      <trkpt lat="62.630247720017" lon="17.997753059341">
        <ele>98.6</ele>
        <time>2018-02-18T14:04:21Z</time>
      </trkpt>
      <trkpt lat="62.630258616487" lon="17.997704444321">
        <ele>98.8</ele>
        <time>2018-02-18T14:04:22Z</time>
      </trkpt>
      <trkpt lat="62.630274625916" lon="17.997647279763">
        <ele>98.8</ele>
        <time>2018-02-18T14:04:23Z</time>
      </trkpt>
      <trkpt lat="62.630280577065" lon="17.997604029159">
        <ele>99</ele>
        <time>2018-02-18T14:04:24Z</time>
      </trkpt>
      <trkpt lat="62.630290719164" lon="17.997553318664">
        <ele>99</ele>
        <time>2018-02-18T14:04:25Z</time>
      </trkpt>
      <trkpt lat="62.630311925371" lon="17.997485592912">
        <ele>99</ele>
        <time>2018-02-18T14:04:26Z</time>
      </trkpt>
      <trkpt lat="62.630323408574" lon="17.997427757802">
        <ele>99</ele>
        <time>2018-02-18T14:04:27Z</time>
      </trkpt>
      <trkpt lat="62.630338412175" lon="17.997367659579">
        <ele>99</ele>
        <time>2018-02-18T14:04:28Z</time>
      </trkpt>
      <trkpt lat="62.630354840699" lon="17.997310746478">
        <ele>98.8</ele>
        <time>2018-02-18T14:04:29Z</time>
      </trkpt>
      <trkpt lat="62.630368922291" lon="17.997252995187">
        <ele>98.8</ele>
        <time>2018-02-18T14:04:30Z</time>
      </trkpt>
      <trkpt lat="62.630384177349" lon="17.99719323224">
        <ele>98.6</ele>
        <time>2018-02-18T14:04:31Z</time>
      </trkpt>
      <trkpt lat="62.630399683864" lon="17.997140258632">
        <ele>98.8</ele>
        <time>2018-02-18T14:04:32Z</time>
      </trkpt>
      <trkpt lat="62.630418291682" lon="17.997091978888">
        <ele>98.8</ele>
        <time>2018-02-18T14:04:33Z</time>
      </trkpt>
      <trkpt lat="62.630434301111" lon="17.997050656121">
        <ele>98.8</ele>
        <time>2018-02-18T14:04:34Z</time>
      </trkpt>
      <trkpt lat="62.630452657472" lon="17.996998185427">
        <ele>99</ele>
        <time>2018-02-18T14:04:35Z</time>
      </trkpt>
      <trkpt lat="62.630472019661" lon="17.996967256216">
        <ele>99</ele>
        <time>2018-02-18T14:04:36Z</time>
      </trkpt>
      <trkpt lat="62.630491633307" lon="17.996951246787">
        <ele>99</ele>
        <time>2018-02-18T14:04:37Z</time>
      </trkpt>
      <trkpt lat="62.63051317479" lon="17.99690154212">
        <ele>99</ele>
        <time>2018-02-18T14:04:38Z</time>
      </trkpt>
      <trkpt lat="62.630522981613" lon="17.996839767517">
        <ele>99.2</ele>
        <time>2018-02-18T14:04:39Z</time>
      </trkpt>
      <trkpt lat="62.630532285522" lon="17.996777070905">
        <ele>99.2</ele>
        <time>2018-02-18T14:04:40Z</time>
      </trkpt>
      <trkpt lat="62.63054837877" lon="17.996707165859">
        <ele>99.2</ele>
        <time>2018-02-18T14:04:41Z</time>
      </trkpt>
      <trkpt lat="62.630561035439" lon="17.996643295781">
        <ele>99.4</ele>
        <time>2018-02-18T14:04:42Z</time>
      </trkpt>
      <trkpt lat="62.630576541954" lon="17.996575653848">
        <ele>99.4</ele>
        <time>2018-02-18T14:04:43Z</time>
      </trkpt>
      <trkpt lat="62.630589366261" lon="17.996525949181">
        <ele>99.4</ele>
        <time>2018-02-18T14:04:44Z</time>
      </trkpt>
      <trkpt lat="62.630599843636" lon="17.996473646125">
        <ele>99.4</ele>
        <time>2018-02-18T14:04:45Z</time>
      </trkpt>
      <trkpt lat="62.630616691255" lon="17.996416984481">
        <ele>99.4</ele>
        <time>2018-02-18T14:04:46Z</time>
      </trkpt>
      <trkpt lat="62.630632868322" lon="17.996352443851">
        <ele>99.4</ele>
        <time>2018-02-18T14:04:47Z</time>
      </trkpt>
      <trkpt lat="62.630650973226" lon="17.996283209357">
        <ele>99.6</ele>
        <time>2018-02-18T14:04:48Z</time>
      </trkpt>
      <trkpt lat="62.630672598528" lon="17.996214310139">
        <ele>99.6</ele>
        <time>2018-02-18T14:04:49Z</time>
      </trkpt>
      <trkpt lat="62.630699588246" lon="17.996144908007">
        <ele>99.6</ele>
        <time>2018-02-18T14:04:50Z</time>
      </trkpt>
      <trkpt lat="62.630724063394" lon="17.996105848353">
        <ele>99.6</ele>
        <time>2018-02-18T14:04:51Z</time>
      </trkpt>
      <trkpt lat="62.630745437239" lon="17.996073075124">
        <ele>99.8</ele>
        <time>2018-02-18T14:04:52Z</time>
      </trkpt>
      <trkpt lat="62.630776953183" lon="17.996022699905">
        <ele>99.6</ele>
        <time>2018-02-18T14:04:53Z</time>
      </trkpt>
      <trkpt lat="62.630816348113" lon="17.995988669391">
        <ele>99.6</ele>
        <time>2018-02-18T14:04:54Z</time>
      </trkpt>
      <trkpt lat="62.630846271496" lon="17.995952794859">
        <ele>99.4</ele>
        <time>2018-02-18T14:04:55Z</time>
      </trkpt>
      <trkpt lat="62.630873680309" lon="17.995916165956">
        <ele>99.6</ele>
        <time>2018-02-18T14:04:56Z</time>
      </trkpt>
      <trkpt lat="62.630897233448" lon="17.995880961976">
        <ele>99.6</ele>
        <time>2018-02-18T14:04:57Z</time>
      </trkpt>
      <trkpt lat="62.630918691112" lon="17.995843411064">
        <ele>99.6</ele>
        <time>2018-02-18T14:04:58Z</time>
      </trkpt>
      <trkpt lat="62.630948614495" lon="17.995798735537">
        <ele>99.6</ele>
        <time>2018-02-18T14:04:59Z</time>
      </trkpt>
      <trkpt lat="62.630977029136" lon="17.995762190453">
        <ele>99.6</ele>
        <time>2018-02-18T14:05:00Z</time>
      </trkpt>
      <trkpt lat="62.631004605587" lon="17.99572472336">
        <ele>99.6</ele>
        <time>2018-02-18T14:05:01Z</time>
      </trkpt>
      <trkpt lat="62.631027069079" lon="17.995690106113">
        <ele>99.8</ele>
        <time>2018-02-18T14:05:02Z</time>
      </trkpt>
      <trkpt lat="62.631056154272" lon="17.995653225753">
        <ele>99.6</ele>
        <time>2018-02-18T14:05:03Z</time>
      </trkpt>
      <trkpt lat="62.631080377963" lon="17.995621709809">
        <ele>99.6</ele>
        <time>2018-02-18T14:05:04Z</time>
      </trkpt>
      <trkpt lat="62.631104769292" lon="17.995589858589">
        <ele>99.6</ele>
        <time>2018-02-18T14:05:05Z</time>
      </trkpt>
      <trkpt lat="62.631126897508" lon="17.995559264654">
        <ele>99.6</ele>
        <time>2018-02-18T14:05:06Z</time>
      </trkpt>
      <trkpt lat="62.631147181706" lon="17.995530766194">
        <ele>99.6</ele>
        <time>2018-02-18T14:05:07Z</time>
      </trkpt>
      <trkpt lat="62.631169729017" lon="17.995500172259">
        <ele>99.8</ele>
        <time>2018-02-18T14:05:08Z</time>
      </trkpt>
      <trkpt lat="62.631187163369" lon="17.99548081007">
        <ele>99.8</ele>
        <time>2018-02-18T14:05:09Z</time>
      </trkpt>
      <trkpt lat="62.631207112291" lon="17.995450383773">
        <ele>99.8</ele>
        <time>2018-02-18T14:05:10Z</time>
      </trkpt>
      <trkpt lat="62.631222702625" lon="17.995415934164">
        <ele>99.8</ele>
        <time>2018-02-18T14:05:11Z</time>
      </trkpt>
      <trkpt lat="62.631242819185" lon="17.995381987469">
        <ele>100</ele>
        <time>2018-02-18T14:05:12Z</time>
      </trkpt>
      <trkpt lat="62.631273161663" lon="17.995333959182">
        <ele>100</ele>
        <time>2018-02-18T14:05:13Z</time>
      </trkpt>
      <trkpt lat="62.631295289879" lon="17.99529137913">
        <ele>100</ele>
        <time>2018-02-18T14:05:14Z</time>
      </trkpt>
      <trkpt lat="62.631318591561" lon="17.995245446318">
        <ele>100.2</ele>
        <time>2018-02-18T14:05:15Z</time>
      </trkpt>
      <trkpt lat="62.631344994546" lon="17.99518744357">
        <ele>100.2</ele>
        <time>2018-02-18T14:05:16Z</time>
      </trkpt>
      <trkpt lat="62.631365027287" lon="17.995135727247">
        <ele>100.4</ele>
        <time>2018-02-18T14:05:17Z</time>
      </trkpt>
      <trkpt lat="62.63137651049" lon="17.9950927281">
        <ele>100.4</ele>
        <time>2018-02-18T14:05:18Z</time>
      </trkpt>
      <trkpt lat="62.631395202127" lon="17.995042855795">
        <ele>100.4</ele>
        <time>2018-02-18T14:05:19Z</time>
      </trkpt>
      <trkpt lat="62.631414145221" lon="17.994988876359">
        <ele>100.4</ele>
        <time>2018-02-18T14:05:20Z</time>
      </trkpt>
      <trkpt lat="62.631430238469" lon="17.994935316018">
        <ele>100.4</ele>
        <time>2018-02-18T14:05:21Z</time>
      </trkpt>
      <trkpt lat="62.631444068604" lon="17.994879660202">
        <ele>100.4</ele>
        <time>2018-02-18T14:05:22Z</time>
      </trkpt>
      <trkpt lat="62.631458317834" lon="17.99479852341">
        <ele>100.8</ele>
        <time>2018-02-18T14:05:23Z</time>
      </trkpt>
      <trkpt lat="62.631466615915" lon="17.994721745206">
        <ele>100.8</ele>
        <time>2018-02-18T14:05:24Z</time>
      </trkpt>
      <trkpt lat="62.631473237616" lon="17.994639602586">
        <ele>100.8</ele>
        <time>2018-02-18T14:05:25Z</time>
      </trkpt>
      <trkpt lat="62.631486564837" lon="17.994581516019">
        <ele>100.8</ele>
        <time>2018-02-18T14:05:26Z</time>
      </trkpt>
      <trkpt lat="62.63149218071" lon="17.994513287353">
        <ele>100.8</ele>
        <time>2018-02-18T14:05:27Z</time>
      </trkpt>
      <trkpt lat="62.631489833778" lon="17.994430725638">
        <ele>100.6</ele>
        <time>2018-02-18T14:05:28Z</time>
      </trkpt>
      <trkpt lat="62.631483463534" lon="17.99434087167">
        <ele>100.6</ele>
        <time>2018-02-18T14:05:29Z</time>
      </trkpt>
      <trkpt lat="62.631474411082" lon="17.994245150372">
        <ele>100.4</ele>
        <time>2018-02-18T14:05:30Z</time>
      </trkpt>
      <trkpt lat="62.63146200587" lon="17.994162923933">
        <ele>100.4</ele>
        <time>2018-02-18T14:05:31Z</time>
      </trkpt>
      <trkpt lat="62.631449516839" lon="17.994094527629">
        <ele>100.4</ele>
        <time>2018-02-18T14:05:32Z</time>
      </trkpt>
      <trkpt lat="62.631438955645" lon="17.994012133552">
        <ele>100.2</ele>
        <time>2018-02-18T14:05:33Z</time>
      </trkpt>
      <trkpt lat="62.631427556261" lon="17.993950610406">
        <ele>100</ele>
        <time>2018-02-18T14:05:34Z</time>
      </trkpt>
      <trkpt lat="62.631417330343" lon="17.993871820546">
        <ele>99.8</ele>
        <time>2018-02-18T14:05:35Z</time>
      </trkpt>
      <trkpt lat="62.631411295375" lon="17.993804513889">
        <ele>99.6</ele>
        <time>2018-02-18T14:05:36Z</time>
      </trkpt>
      <trkpt lat="62.631407104425" lon="17.993752629928">
        <ele>99.4</ele>
        <time>2018-02-18T14:05:37Z</time>
      </trkpt>
      <trkpt lat="62.631405428045" lon="17.993679707398">
        <ele>99.4</ele>
        <time>2018-02-18T14:05:38Z</time>
      </trkpt>
      <trkpt lat="62.631403248751" lon="17.993609383257">
        <ele>99.2</ele>
        <time>2018-02-18T14:05:39Z</time>
      </trkpt>
      <trkpt lat="62.631402410561" lon="17.993536125451">
        <ele>99.2</ele>
        <time>2018-02-18T14:05:40Z</time>
      </trkpt>
      <trkpt lat="62.631407272063" lon="17.993446942035">
        <ele>99.2</ele>
        <time>2018-02-18T14:05:41Z</time>
      </trkpt>
      <trkpt lat="62.631413642307" lon="17.993374354781">
        <ele>99</ele>
        <time>2018-02-18T14:05:42Z</time>
      </trkpt>
      <trkpt lat="62.631424454958" lon="17.993299672052">
        <ele>99</ele>
        <time>2018-02-18T14:05:43Z</time>
      </trkpt>
      <trkpt lat="62.631433675048" lon="17.993208896075">
        <ele>99.2</ele>
        <time>2018-02-18T14:05:44Z</time>
      </trkpt>
      <trkpt lat="62.631441218758" lon="17.993125328532">
        <ele>99</ele>
        <time>2018-02-18T14:05:45Z</time>
      </trkpt>
      <trkpt lat="62.631450019753" lon="17.993054333839">
        <ele>98.8</ele>
        <time>2018-02-18T14:05:46Z</time>
      </trkpt>
      <trkpt lat="62.631461083861" lon="17.992972694133">
        <ele>98.8</ele>
        <time>2018-02-18T14:05:47Z</time>
      </trkpt>
      <trkpt lat="62.631464688078" lon="17.992900693612">
        <ele>98.6</ele>
        <time>2018-02-18T14:05:48Z</time>
      </trkpt>
      <trkpt lat="62.631471477417" lon="17.992838416095">
        <ele>98.4</ele>
        <time>2018-02-18T14:05:49Z</time>
      </trkpt>
      <trkpt lat="62.631484720819" lon="17.9927793237">
        <ele>98.2</ele>
        <time>2018-02-18T14:05:50Z</time>
      </trkpt>
      <trkpt lat="62.631505340293" lon="17.992731295413">
        <ele>98.2</ele>
        <time>2018-02-18T14:05:51Z</time>
      </trkpt>
      <trkpt lat="62.631513051641" lon="17.992677735072">
        <ele>98</ele>
        <time>2018-02-18T14:05:52Z</time>
      </trkpt>
      <trkpt lat="62.631523445197" lon="17.992607159474">
        <ele>98</ele>
        <time>2018-02-18T14:05:53Z</time>
      </trkpt>
      <trkpt lat="62.631545238137" lon="17.992536080962">
        <ele>98</ele>
        <time>2018-02-18T14:05:54Z</time>
      </trkpt>
      <trkpt lat="62.631568539819" lon="17.992465924459">
        <ele>98</ele>
        <time>2018-02-18T14:05:55Z</time>
      </trkpt>
      <trkpt lat="62.631590668035" lon="17.992414459593">
        <ele>98</ele>
        <time>2018-02-18T14:05:56Z</time>
      </trkpt>
      <trkpt lat="62.631618998857" lon="17.992380512898">
        <ele>98.2</ele>
        <time>2018-02-18T14:05:57Z</time>
      </trkpt>
      <trkpt lat="62.631650682439" lon="17.992357797949">
        <ele>98</ele>
        <time>2018-02-18T14:05:58Z</time>
      </trkpt>
      <trkpt lat="62.631686137876" lon="17.992341620882">
        <ele>98</ele>
        <time>2018-02-18T14:05:59Z</time>
      </trkpt>
      <trkpt lat="62.631720419847" lon="17.99233173024">
        <ele>98</ele>
        <time>2018-02-18T14:06:00Z</time>
      </trkpt>
      <trkpt lat="62.631752690162" lon="17.992324689444">
        <ele>98.2</ele>
        <time>2018-02-18T14:06:01Z</time>
      </trkpt>
      <trkpt lat="62.631777081491" lon="17.992320498494">
        <ele>98.2</ele>
        <time>2018-02-18T14:06:02Z</time>
      </trkpt>
      <trkpt lat="62.631799544983" lon="17.992319744123">
        <ele>98.2</ele>
        <time>2018-02-18T14:06:03Z</time>
      </trkpt>
      <trkpt lat="62.63182494214" lon="17.992314631164">
        <ele>98.2</ele>
        <time>2018-02-18T14:06:04Z</time>
      </trkpt>
      <trkpt lat="62.631852853867" lon="17.992309015291">
        <ele>98.2</ele>
        <time>2018-02-18T14:06:05Z</time>
      </trkpt>
      <trkpt lat="62.631879089214" lon="17.992299208468">
        <ele>98.2</ele>
        <time>2018-02-18T14:06:06Z</time>
      </trkpt>
      <trkpt lat="62.631903564362" lon="17.992289066369">
        <ele>98.2</ele>
        <time>2018-02-18T14:06:07Z</time>
      </trkpt>
      <trkpt lat="62.631931140813" lon="17.992273476035">
        <ele>98.4</ele>
        <time>2018-02-18T14:06:08Z</time>
      </trkpt>
      <trkpt lat="62.631955029228" lon="17.992255371131">
        <ele>98.4</ele>
        <time>2018-02-18T14:06:09Z</time>
      </trkpt>
      <trkpt lat="62.631977911815" lon="17.992236847132">
        <ele>98.6</ele>
        <time>2018-02-18T14:06:10Z</time>
      </trkpt>
      <trkpt lat="62.631998950384" lon="17.992216646753">
        <ele>98.6</ele>
        <time>2018-02-18T14:06:11Z</time>
      </trkpt>
      <trkpt lat="62.632016720012" lon="17.992199463858">
        <ele>98.8</ele>
        <time>2018-02-18T14:06:12Z</time>
      </trkpt>
      <trkpt lat="62.632042284807" lon="17.99218001785">
        <ele>99</ele>
        <time>2018-02-18T14:06:13Z</time>
      </trkpt>
      <trkpt lat="62.632063155738" lon="17.992168115552">
        <ele>99.2</ele>
        <time>2018-02-18T14:06:14Z</time>
      </trkpt>
      <trkpt lat="62.632095006958" lon="17.99213475559">
        <ele>99.2</ele>
        <time>2018-02-18T14:06:15Z</time>
      </trkpt>
      <trkpt lat="62.63211914683" lon="17.99211547722">
        <ele>99.4</ele>
        <time>2018-02-18T14:06:16Z</time>
      </trkpt>
      <trkpt lat="62.632145717453" lon="17.992095695936">
        <ele>99.6</ele>
        <time>2018-02-18T14:06:17Z</time>
      </trkpt>
      <trkpt lat="62.632172874809" lon="17.992070717874">
        <ele>99.6</ele>
        <time>2018-02-18T14:06:18Z</time>
      </trkpt>
      <trkpt lat="62.632208916979" lon="17.992061078689">
        <ele>99.6</ele>
        <time>2018-02-18T14:06:19Z</time>
      </trkpt>
      <trkpt lat="62.632247138443" lon="17.992049092572">
        <ele>99.6</ele>
        <time>2018-02-18T14:06:20Z</time>
      </trkpt>
      <trkpt lat="62.632277145645" lon="17.99203082003">
        <ele>99.8</ele>
        <time>2018-02-18T14:06:21Z</time>
      </trkpt>
      <trkpt lat="62.632303967725" lon="17.992012798945">
        <ele>99.8</ele>
        <time>2018-02-18T14:06:22Z</time>
      </trkpt>
      <trkpt lat="62.632340345171" lon="17.99199729243">
        <ele>99.8</ele>
        <time>2018-02-18T14:06:23Z</time>
      </trkpt>
      <trkpt lat="62.632369178907" lon="17.99198136682">
        <ele>99.8</ele>
        <time>2018-02-18T14:06:24Z</time>
      </trkpt>
      <trkpt lat="62.632401868317" lon="17.99196376483">
        <ele>99.8</ele>
        <time>2018-02-18T14:06:25Z</time>
      </trkpt>
      <trkpt lat="62.632431624062" lon="17.991948509772">
        <ele>99.8</ele>
        <time>2018-02-18T14:06:26Z</time>
      </trkpt>
      <trkpt lat="62.632463140006" lon="17.991941468976">
        <ele>99.6</ele>
        <time>2018-02-18T14:06:27Z</time>
      </trkpt>
      <trkpt lat="62.632495075045" lon="17.991937864759">
        <ele>99.6</ele>
        <time>2018-02-18T14:06:28Z</time>
      </trkpt>
      <trkpt lat="62.632530781939" lon="17.991931662153">
        <ele>99.6</ele>
        <time>2018-02-18T14:06:29Z</time>
      </trkpt>
      <trkpt lat="62.632564393358" lon="17.991926633013">
        <ele>99.6</ele>
        <time>2018-02-18T14:06:30Z</time>
      </trkpt>
      <trkpt lat="62.6325910478" lon="17.991918334932">
        <ele>99.6</ele>
        <time>2018-02-18T14:06:31Z</time>
      </trkpt>
      <trkpt lat="62.63260948798" lon="17.991897128725">
        <ele>99.6</ele>
        <time>2018-02-18T14:06:32Z</time>
      </trkpt>
      <trkpt lat="62.632619630079" lon="17.991852872293">
        <ele>99.6</ele>
        <time>2018-02-18T14:06:33Z</time>
      </trkpt>
      <trkpt lat="62.632624156305" lon="17.991801742703">
        <ele>99.6</ele>
        <time>2018-02-18T14:06:34Z</time>
      </trkpt>
      <trkpt lat="62.632631867653" lon="17.991740387195">
        <ele>99.6</ele>
        <time>2018-02-18T14:06:35Z</time>
      </trkpt>
      <trkpt lat="62.632637902621" lon="17.991680205153">
        <ele>99.6</ele>
        <time>2018-02-18T14:06:36Z</time>
      </trkpt>
      <trkpt lat="62.63264469196" lon="17.991634607617">
        <ele>99.6</ele>
        <time>2018-02-18T14:06:37Z</time>
      </trkpt>
      <trkpt lat="62.632658270638" lon="17.991584400036">
        <ele>99.4</ele>
        <time>2018-02-18T14:06:38Z</time>
      </trkpt>
      <trkpt lat="62.632672519868" lon="17.991548776961">
        <ele>99.4</ele>
        <time>2018-02-18T14:06:39Z</time>
      </trkpt>
      <trkpt lat="62.632689367487" lon="17.991507118918">
        <ele>99.2</ele>
        <time>2018-02-18T14:06:40Z</time>
      </trkpt>
      <trkpt lat="62.632704035812" lon="17.99146587997">
        <ele>99.4</ele>
        <time>2018-02-18T14:06:41Z</time>
      </trkpt>
      <trkpt lat="62.632720045241" lon="17.991430927447">
        <ele>99.2</ele>
        <time>2018-02-18T14:06:42Z</time>
      </trkpt>
      <trkpt lat="62.632740497077" lon="17.991379965495">
        <ele>99.4</ele>
        <time>2018-02-18T14:06:43Z</time>
      </trkpt>
      <trkpt lat="62.632754662488" lon="17.991333697407">
        <ele>99.4</ele>
        <time>2018-02-18T14:06:44Z</time>
      </trkpt>
      <trkpt lat="62.632770671917" lon="17.991293799563">
        <ele>99.2</ele>
        <time>2018-02-18T14:06:45Z</time>
      </trkpt>
      <trkpt lat="62.63279472797" lon="17.991248621122">
        <ele>99.2</ele>
        <time>2018-02-18T14:06:46Z</time>
      </trkpt>
      <trkpt lat="62.632816856186" lon="17.991202017758">
        <ele>99.2</ele>
        <time>2018-02-18T14:06:47Z</time>
      </trkpt>
      <trkpt lat="62.632830602502" lon="17.991164383027">
        <ele>99.2</ele>
        <time>2018-02-18T14:06:48Z</time>
      </trkpt>
      <trkpt lat="62.632848958863" lon="17.991119623681">
        <ele>99.2</ele>
        <time>2018-02-18T14:06:49Z</time>
      </trkpt>
      <trkpt lat="62.632867985776" lon="17.991077546543">
        <ele>99.2</ele>
        <time>2018-02-18T14:06:50Z</time>
      </trkpt>
      <trkpt lat="62.632880390988" lon="17.99103840307">
        <ele>99.2</ele>
        <time>2018-02-18T14:06:51Z</time>
      </trkpt>
      <trkpt lat="62.632896819512" lon="17.990998337588">
        <ele>99.2</ele>
        <time>2018-02-18T14:06:52Z</time>
      </trkpt>
      <trkpt lat="62.632920540289" lon="17.990938407003">
        <ele>99.2</ele>
        <time>2018-02-18T14:06:53Z</time>
      </trkpt>
      <trkpt lat="62.632936214442" lon="17.990879817522">
        <ele>99.4</ele>
        <time>2018-02-18T14:06:54Z</time>
      </trkpt>
      <trkpt lat="62.632951972414" lon="17.990820808946">
        <ele>99.4</ele>
        <time>2018-02-18T14:06:55Z</time>
      </trkpt>
      <trkpt lat="62.632968568576" lon="17.990774037944">
        <ele>99.2</ele>
        <time>2018-02-18T14:06:56Z</time>
      </trkpt>
      <trkpt lat="62.632988685136" lon="17.990720896698">
        <ele>99.2</ele>
        <time>2018-02-18T14:06:57Z</time>
      </trkpt>
      <trkpt lat="62.633009472248" lon="17.990656020792">
        <ele>99.2</ele>
        <time>2018-02-18T14:06:58Z</time>
      </trkpt>
      <trkpt lat="62.633031013731" lon="17.990605477935">
        <ele>99.2</ele>
        <time>2018-02-18T14:06:59Z</time>
      </trkpt>
      <trkpt lat="62.633058422544" lon="17.990552420508">
        <ele>99.2</ele>
        <time>2018-02-18T14:07:00Z</time>
      </trkpt>
      <trkpt lat="62.633089016479" lon="17.990495423588">
        <ele>99.2</ele>
        <time>2018-02-18T14:07:01Z</time>
      </trkpt>
      <trkpt lat="62.633111312333" lon="17.99045837559">
        <ele>99.2</ele>
        <time>2018-02-18T14:07:02Z</time>
      </trkpt>
      <trkpt lat="62.633132853816" lon="17.990416382271">
        <ele>99</ele>
        <time>2018-02-18T14:07:03Z</time>
      </trkpt>
      <trkpt lat="62.633155233489" lon="17.990389727829">
        <ele>99</ele>
        <time>2018-02-18T14:07:04Z</time>
      </trkpt>
      <trkpt lat="62.633183061397" lon="17.990359636808">
        <ele>99</ele>
        <time>2018-02-18T14:07:05Z</time>
      </trkpt>
      <trkpt lat="62.633209967296" lon="17.990338095325">
        <ele>99</ele>
        <time>2018-02-18T14:07:06Z</time>
      </trkpt>
      <trkpt lat="62.63323477772" lon="17.990325187199">
        <ele>99.2</ele>
        <time>2018-02-18T14:07:07Z</time>
      </trkpt>
      <trkpt lat="62.633260593972" lon="17.990312949625">
        <ele>99.2</ele>
        <time>2018-02-18T14:07:08Z</time>
      </trkpt>
      <trkpt lat="62.633282973645" lon="17.990305070639">
        <ele>99.2</ele>
        <time>2018-02-18T14:07:09Z</time>
      </trkpt>
      <trkpt lat="62.633312142657" lon="17.990293838893">
        <ele>99.2</ele>
        <time>2018-02-18T14:07:10Z</time>
      </trkpt>
      <trkpt lat="62.633346089352" lon="17.990276069265">
        <ele>99.2</ele>
        <time>2018-02-18T14:07:11Z</time>
      </trkpt>
      <trkpt lat="62.63337224088" lon="17.990258467275">
        <ele>99.4</ele>
        <time>2018-02-18T14:07:12Z</time>
      </trkpt>
      <trkpt lat="62.633403337729" lon="17.990235584688">
        <ele>99.4</ele>
        <time>2018-02-18T14:07:13Z</time>
      </trkpt>
      <trkpt lat="62.633432171465" lon="17.990208930246">
        <ele>99.4</ele>
        <time>2018-02-18T14:07:14Z</time>
      </trkpt>
      <trkpt lat="62.633463855047" lon="17.990171630791">
        <ele>99.2</ele>
        <time>2018-02-18T14:07:15Z</time>
      </trkpt>
      <trkpt lat="62.633492353507" lon="17.990126955264">
        <ele>99.4</ele>
        <time>2018-02-18T14:07:16Z</time>
      </trkpt>
      <trkpt lat="62.633520432872" lon="17.990071550905">
        <ele>99.6</ele>
        <time>2018-02-18T14:07:17Z</time>
      </trkpt>
      <trkpt lat="62.633553038463" lon="17.990001478221">
        <ele>99.4</ele>
        <time>2018-02-18T14:07:18Z</time>
      </trkpt>
      <trkpt lat="62.633572903566" lon="17.989938446333">
        <ele>99.4</ele>
        <time>2018-02-18T14:07:19Z</time>
      </trkpt>
      <trkpt lat="62.633597462533" lon="17.989872396961">
        <ele>99.2</ele>
        <time>2018-02-18T14:07:20Z</time>
      </trkpt>
      <trkpt lat="62.63361699236" lon="17.989810622358">
        <ele>99</ele>
        <time>2018-02-18T14:07:21Z</time>
      </trkpt>
      <trkpt lat="62.633634091436" lon="17.989757229655">
        <ele>98.8</ele>
        <time>2018-02-18T14:07:22Z</time>
      </trkpt>
      <trkpt lat="62.633656052014" lon="17.989682882202">
        <ele>98.6</ele>
        <time>2018-02-18T14:07:23Z</time>
      </trkpt>
      <trkpt lat="62.633677174402" lon="17.989617587201">
        <ele>98.4</ele>
        <time>2018-02-18T14:07:24Z</time>
      </trkpt>
      <trkpt lat="62.633706427233" lon="17.989560255005">
        <ele>98.4</ele>
        <time>2018-02-18T14:07:25Z</time>
      </trkpt>
      <trkpt lat="62.633746576534" lon="17.989516333849">
        <ele>98.4</ele>
        <time>2018-02-18T14:07:26Z</time>
      </trkpt>
      <trkpt lat="62.633782534885" lon="17.989482806249">
        <ele>98.4</ele>
        <time>2018-02-18T14:07:27Z</time>
      </trkpt>
      <trkpt lat="62.633817235951" lon="17.98944919483">
        <ele>98.4</ele>
        <time>2018-02-18T14:07:28Z</time>
      </trkpt>
      <trkpt lat="62.633853194302" lon="17.989408039701">
        <ele>98.4</ele>
        <time>2018-02-18T14:07:29Z</time>
      </trkpt>
      <trkpt lat="62.633888985015" lon="17.989379960336">
        <ele>98.4</ele>
        <time>2018-02-18T14:07:30Z</time>
      </trkpt>
      <trkpt lat="62.633931565067" lon="17.989337799379">
        <ele>98.4</ele>
        <time>2018-02-18T14:07:31Z</time>
      </trkpt>
      <trkpt lat="62.633969535074" lon="17.989291531291">
        <ele>98.2</ele>
        <time>2018-02-18T14:07:32Z</time>
      </trkpt>
      <trkpt lat="62.634010690203" lon="17.989233025629">
        <ele>98.2</ele>
        <time>2018-02-18T14:07:33Z</time>
      </trkpt>
      <trkpt lat="62.634048744029" lon="17.989184075333">
        <ele>98</ele>
        <time>2018-02-18T14:07:34Z</time>
      </trkpt>
      <trkpt lat="62.634088558054" lon="17.989119618522">
        <ele>97.8</ele>
        <time>2018-02-18T14:07:35Z</time>
      </trkpt>
      <trkpt lat="62.634127114794" lon="17.989079469221">
        <ele>97.4</ele>
        <time>2018-02-18T14:07:36Z</time>
      </trkpt>
      <trkpt lat="62.634160893851" lon="17.989044768155">
        <ele>97.2</ele>
        <time>2018-02-18T14:07:37Z</time>
      </trkpt>
      <trkpt lat="62.63419115251" lon="17.988993722384">
        <ele>97</ele>
        <time>2018-02-18T14:07:38Z</time>
      </trkpt>
      <trkpt lat="62.634213867459" lon="17.988948543943">
        <ele>96.8</ele>
        <time>2018-02-18T14:07:39Z</time>
      </trkpt>
      <trkpt lat="62.634237923512" lon="17.988901270027">
        <ele>96.8</ele>
        <time>2018-02-18T14:07:40Z</time>
      </trkpt>
      <trkpt lat="62.634249741991" lon="17.988848044962">
        <ele>97</ele>
        <time>2018-02-18T14:07:41Z</time>
      </trkpt>
      <trkpt lat="62.634262650117" lon="17.98880211215">
        <ele>97</ele>
        <time>2018-02-18T14:07:42Z</time>
      </trkpt>
      <trkpt lat="62.634286873808" lon="17.988751988388">
        <ele>97</ele>
        <time>2018-02-18T14:07:43Z</time>
      </trkpt>
      <trkpt lat="62.634316210458" lon="17.988705468843">
        <ele>96.8</ele>
        <time>2018-02-18T14:07:44Z</time>
      </trkpt>
      <trkpt lat="62.634344206004" lon="17.988670013406">
        <ele>96.8</ele>
        <time>2018-02-18T14:07:45Z</time>
      </trkpt>
      <trkpt lat="62.634370944265" lon="17.988625589336">
        <ele>96.4</ele>
        <time>2018-02-18T14:07:46Z</time>
      </trkpt>
      <trkpt lat="62.634407740806" lon="17.988573118642">
        <ele>96.4</ele>
        <time>2018-02-18T14:07:47Z</time>
      </trkpt>
      <trkpt lat="62.634439592026" lon="17.988530119495">
        <ele>96</ele>
        <time>2018-02-18T14:07:48Z</time>
      </trkpt>
      <trkpt lat="62.634472951988" lon="17.988499693198">
        <ele>96</ele>
        <time>2018-02-18T14:07:49Z</time>
      </trkpt>
      <trkpt lat="62.63451804661" lon="17.988476726792">
        <ele>95.8</ele>
        <time>2018-02-18T14:07:50Z</time>
      </trkpt>
      <trkpt lat="62.634561297214" lon="17.988447641599">
        <ele>95.8</ele>
        <time>2018-02-18T14:07:51Z</time>
      </trkpt>
      <trkpt lat="62.634596501194" lon="17.988436745129">
        <ele>95.6</ele>
        <time>2018-02-18T14:07:52Z</time>
      </trkpt>
      <trkpt lat="62.634643691291" lon="17.988414700732">
        <ele>95.2</ele>
        <time>2018-02-18T14:07:53Z</time>
      </trkpt>
      <trkpt lat="62.634687528628" lon="17.98838636991">
        <ele>94.8</ele>
        <time>2018-02-18T14:07:54Z</time>
      </trkpt>
      <trkpt lat="62.634739915503" lon="17.988351752663">
        <ele>94.2</ele>
        <time>2018-02-18T14:07:55Z</time>
      </trkpt>
      <trkpt lat="62.634772604913" lon="17.988315878131">
        <ele>93.8</ele>
        <time>2018-02-18T14:07:56Z</time>
      </trkpt>
      <trkpt lat="62.634806886884" lon="17.98828243435">
        <ele>93.6</ele>
        <time>2018-02-18T14:07:57Z</time>
      </trkpt>
      <trkpt lat="62.634844353977" lon="17.988246475999">
        <ele>93.4</ele>
        <time>2018-02-18T14:07:58Z</time>
      </trkpt>
      <trkpt lat="62.634881234337" lon="17.988209260363">
        <ele>93.6</ele>
        <time>2018-02-18T14:07:59Z</time>
      </trkpt>
      <trkpt lat="62.634911912091" lon="17.988163998103">
        <ele>93.6</ele>
        <time>2018-02-18T14:08:00Z</time>
      </trkpt>
      <trkpt lat="62.6349379798" lon="17.988112030323">
        <ele>93.8</ele>
        <time>2018-02-18T14:08:01Z</time>
      </trkpt>
      <trkpt lat="62.634954827419" lon="17.98804857934">
        <ele>93.8</ele>
        <time>2018-02-18T14:08:02Z</time>
      </trkpt>
      <trkpt lat="62.634971004486" lon="17.987980518312">
        <ele>93.8</ele>
        <time>2018-02-18T14:08:03Z</time>
      </trkpt>
      <trkpt lat="62.63499330034" lon="17.987925700686">
        <ele>93.8</ele>
        <time>2018-02-18T14:08:04Z</time>
      </trkpt>
      <trkpt lat="62.635014003633" lon="17.987858896943">
        <ele>93.4</ele>
        <time>2018-02-18T14:08:05Z</time>
      </trkpt>
      <trkpt lat="62.635025067741" lon="17.987798379625">
        <ele>93</ele>
        <time>2018-02-18T14:08:06Z</time>
      </trkpt>
      <trkpt lat="62.635032779089" lon="17.987746160388">
        <ele>92.6</ele>
        <time>2018-02-18T14:08:07Z</time>
      </trkpt>
      <trkpt lat="62.635037808229" lon="17.987688492916">
        <ele>92.4</ele>
        <time>2018-02-18T14:08:08Z</time>
      </trkpt>
      <trkpt lat="62.635035628935" lon="17.987639291163">
        <ele>92.2</ele>
        <time>2018-02-18T14:08:09Z</time>
      </trkpt>
      <trkpt lat="62.635023978094" lon="17.987599896233">
        <ele>92.4</ele>
        <time>2018-02-18T14:08:10Z</time>
      </trkpt>
      <trkpt lat="62.635003526258" lon="17.987583048614">
        <ele>92.4</ele>
        <time>2018-02-18T14:08:11Z</time>
      </trkpt>
      <trkpt lat="62.634983493517" lon="17.987591262876">
        <ele>92.4</ele>
        <time>2018-02-18T14:08:12Z</time>
      </trkpt>
      <trkpt lat="62.634963712233" lon="17.987616157119">
        <ele>92.6</ele>
        <time>2018-02-18T14:08:13Z</time>
      </trkpt>
      <trkpt lat="62.634945355872" lon="17.987639291163">
        <ele>92.4</ele>
        <time>2018-02-18T14:08:14Z</time>
      </trkpt>
      <trkpt lat="62.634928172977" lon="17.987670136555">
        <ele>92.2</ele>
        <time>2018-02-18T14:08:15Z</time>
      </trkpt>
      <trkpt lat="62.63491786324" lon="17.987706933096">
        <ele>92</ele>
        <time>2018-02-18T14:08:16Z</time>
      </trkpt>
      <trkpt lat="62.634908056417" lon="17.987742975266">
        <ele>92</ele>
        <time>2018-02-18T14:08:17Z</time>
      </trkpt>
      <trkpt lat="62.634890538246" lon="17.987776502866">
        <ele>91.8</ele>
        <time>2018-02-18T14:08:18Z</time>
      </trkpt>
      <trkpt lat="62.634872768618" lon="17.987812964131">
        <ele>91.8</ele>
        <time>2018-02-18T14:08:19Z</time>
      </trkpt>
      <trkpt lat="62.634860195768" lon="17.987839199478">
        <ele>91.8</ele>
        <time>2018-02-18T14:08:20Z</time>
      </trkpt>
      <trkpt lat="62.634845443624" lon="17.987861243875">
        <ele>91.8</ele>
        <time>2018-02-18T14:08:21Z</time>
      </trkpt>
      <trkpt lat="62.634829350376" lon="17.987886557213">
        <ele>91.8</ele>
        <time>2018-02-18T14:08:22Z</time>
      </trkpt>
      <trkpt lat="62.63480470759" lon="17.987915474768">
        <ele>92</ele>
        <time>2018-02-18T14:08:23Z</time>
      </trkpt>
      <trkpt lat="62.634785848315" lon="17.987931316559">
        <ele>92.2</ele>
        <time>2018-02-18T14:08:24Z</time>
      </trkpt>
      <trkpt lat="62.634767575773" lon="17.98794883473">
        <ele>92.4</ele>
        <time>2018-02-18T14:08:25Z</time>
      </trkpt>
      <trkpt lat="62.6347451961" lon="17.987966520539">
        <ele>92.4</ele>
        <time>2018-02-18T14:08:26Z</time>
      </trkpt>
      <trkpt lat="62.634726336825" lon="17.987982865244">
        <ele>92.8</ele>
        <time>2018-02-18T14:08:27Z</time>
      </trkpt>
      <trkpt lat="62.634707309912" lon="17.987996108646">
        <ele>92.8</ele>
        <time>2018-02-18T14:08:28Z</time>
      </trkpt>
      <trkpt lat="62.634683756773" lon="17.987999293768">
        <ele>93</ele>
        <time>2018-02-18T14:08:29Z</time>
      </trkpt>
      <trkpt lat="62.634658191978" lon="17.987998539397">
        <ele>93</ele>
        <time>2018-02-18T14:08:30Z</time>
      </trkpt>
      <trkpt lat="62.634643272196" lon="17.987999712863">
        <ele>93.2</ele>
        <time>2018-02-18T14:08:31Z</time>
      </trkpt>
      <trkpt lat="62.63462365855" lon="17.988001473062">
        <ele>93.2</ele>
        <time>2018-02-18T14:08:32Z</time>
      </trkpt>
      <trkpt lat="62.634597087927" lon="17.988007927125">
        <ele>93.4</ele>
        <time>2018-02-18T14:08:33Z</time>
      </trkpt>
      <trkpt lat="62.634570433485" lon="17.98800750803">
        <ele>93.6</ele>
        <time>2018-02-18T14:08:34Z</time>
      </trkpt>
      <trkpt lat="62.634543527586" lon="17.988009352048">
        <ele>93.6</ele>
        <time>2018-02-18T14:08:35Z</time>
      </trkpt>
      <trkpt lat="62.634519220076" lon="17.988011112247">
        <ele>93.8</ele>
        <time>2018-02-18T14:08:36Z</time>
      </trkpt>
      <trkpt lat="62.634492984729" lon="17.988018488319">
        <ele>93.8</ele>
        <time>2018-02-18T14:08:37Z</time>
      </trkpt>
      <trkpt lat="62.63446691702" lon="17.988027876047">
        <ele>93.8</ele>
        <time>2018-02-18T14:08:38Z</time>
      </trkpt>
      <trkpt lat="62.634435233438" lon="17.988039443069">
        <ele>93.8</ele>
        <time>2018-02-18T14:08:39Z</time>
      </trkpt>
      <trkpt lat="62.63440237639" lon="17.988052937928">
        <ele>93.8</ele>
        <time>2018-02-18T14:08:40Z</time>
      </trkpt>
      <trkpt lat="62.634375805767" lon="17.988064840226">
        <ele>93.8</ele>
        <time>2018-02-18T14:08:41Z</time>
      </trkpt>
      <trkpt lat="62.634351414438" lon="17.98807037228">
        <ele>93.8</ele>
        <time>2018-02-18T14:08:42Z</time>
      </trkpt>
      <trkpt lat="62.634322161607" lon="17.988073305945">
        <ele>94</ele>
        <time>2018-02-18T14:08:43Z</time>
      </trkpt>
      <trkpt lat="62.634299195201" lon="17.988083280406">
        <ele>94</ele>
        <time>2018-02-18T14:08:44Z</time>
      </trkpt>
      <trkpt lat="62.634269690913" lon="17.988094763609">
        <ele>94.2</ele>
        <time>2018-02-18T14:08:45Z</time>
      </trkpt>
      <trkpt lat="62.634239599892" lon="17.988101972043">
        <ele>94.2</ele>
        <time>2018-02-18T14:08:46Z</time>
      </trkpt>
      <trkpt lat="62.634209341233" lon="17.988111611228">
        <ele>94.4</ele>
        <time>2018-02-18T14:08:47Z</time>
      </trkpt>
      <trkpt lat="62.634176735642" lon="17.988115047807">
        <ele>94.6</ele>
        <time>2018-02-18T14:08:48Z</time>
      </trkpt>
      <trkpt lat="62.634146225526" lon="17.988112700875">
        <ele>94.6</ele>
        <time>2018-02-18T14:08:49Z</time>
      </trkpt>
      <trkpt lat="62.634121415102" lon="17.988117813834">
        <ele>94.6</ele>
        <time>2018-02-18T14:08:50Z</time>
      </trkpt>
      <trkpt lat="62.634091324081" lon="17.988115969816">
        <ele>94.6</ele>
        <time>2018-02-18T14:08:51Z</time>
      </trkpt>
      <trkpt lat="62.634064837277" lon="17.988099122197">
        <ele>94.8</ele>
        <time>2018-02-18T14:08:52Z</time>
      </trkpt>
      <trkpt lat="62.634035332989" lon="17.988076993981">
        <ele>94.8</ele>
        <time>2018-02-18T14:08:53Z</time>
      </trkpt>
      <trkpt lat="62.63401513261" lon="17.988064672588">
        <ele>95</ele>
        <time>2018-02-18T14:08:54Z</time>
      </trkpt>
      <trkpt lat="62.633991076557" lon="17.98805277029">
        <ele>95</ele>
        <time>2018-02-18T14:08:55Z</time>
      </trkpt>
      <trkpt lat="62.63396148845" lon="17.988041622363">
        <ele>95</ele>
        <time>2018-02-18T14:08:56Z</time>
      </trkpt>
      <trkpt lat="62.633939863148" lon="17.988033659558">
        <ele>95.2</ele>
        <time>2018-02-18T14:08:57Z</time>
      </trkpt>
      <trkpt lat="62.633923015529" lon="17.988025026201">
        <ele>95.4</ele>
        <time>2018-02-18T14:08:58Z</time>
      </trkpt>
      <trkpt lat="62.633880100201" lon="17.987995018999">
        <ele>95.4</ele>
        <time>2018-02-18T14:08:59Z</time>
      </trkpt>
      <trkpt lat="62.633849590085" lon="17.987982865244">
        <ele>95.6</ele>
        <time>2018-02-18T14:09:00Z</time>
      </trkpt>
      <trkpt lat="62.63382821624" lon="17.987966017625">
        <ele>95.8</ele>
        <time>2018-02-18T14:09:01Z</time>
      </trkpt>
      <trkpt lat="62.633802316169" lon="17.987944559961">
        <ele>95.8</ele>
        <time>2018-02-18T14:09:02Z</time>
      </trkpt>
      <trkpt lat="62.633776416098" lon="17.98792285084">
        <ele>96</ele>
        <time>2018-02-18T14:09:03Z</time>
      </trkpt>
      <trkpt lat="62.633758227375" lon="17.987904745936">
        <ele>96</ele>
        <time>2018-02-18T14:09:04Z</time>
      </trkpt>
      <trkpt lat="62.633732159666" lon="17.987878175313">
        <ele>96</ele>
        <time>2018-02-18T14:09:05Z</time>
      </trkpt>
      <trkpt lat="62.633704080301" lon="17.987851520871">
        <ele>96</ele>
        <time>2018-02-18T14:09:06Z</time>
      </trkpt>
      <trkpt lat="62.6336806948" lon="17.987830566121">
        <ele>96</ele>
        <time>2018-02-18T14:09:07Z</time>
      </trkpt>
      <trkpt lat="62.633652447797" lon="17.987805085145">
        <ele>96</ele>
        <time>2018-02-18T14:09:08Z</time>
      </trkpt>
      <trkpt lat="62.633625458079" lon="17.987778933617">
        <ele>96.2</ele>
        <time>2018-02-18T14:09:09Z</time>
      </trkpt>
      <trkpt lat="62.633604251872" lon="17.987757140677">
        <ele>96.2</ele>
        <time>2018-02-18T14:09:10Z</time>
      </trkpt>
      <trkpt lat="62.633581285466" lon="17.987731575882">
        <ele>96.4</ele>
        <time>2018-02-18T14:09:11Z</time>
      </trkpt>
      <trkpt lat="62.63356167182" lon="17.987707771286">
        <ele>96.6</ele>
        <time>2018-02-18T14:09:12Z</time>
      </trkpt>
      <trkpt lat="62.633541136165" lon="17.987682877043">
        <ele>96.8</ele>
        <time>2018-02-18T14:09:13Z</time>
      </trkpt>
      <trkpt lat="62.633521271062" lon="17.987664772139">
        <ele>97</ele>
        <time>2018-02-18T14:09:14Z</time>
      </trkpt>
      <trkpt lat="62.633500064855" lon="17.987642811561">
        <ele>97.2</ele>
        <time>2018-02-18T14:09:15Z</time>
      </trkpt>
      <trkpt lat="62.633481373218" lon="17.987616827671">
        <ele>97.4</ele>
        <time>2018-02-18T14:09:16Z</time>
      </trkpt>
      <trkpt lat="62.633461759572" lon="17.98758841303">
        <ele>97.4</ele>
        <time>2018-02-18T14:09:17Z</time>
      </trkpt>
      <trkpt lat="62.633435775682" lon="17.987546000616">
        <ele>97.6</ele>
        <time>2018-02-18T14:09:18Z</time>
      </trkpt>
      <trkpt lat="62.633411887267" lon="17.987504007297">
        <ele>97.8</ele>
        <time>2018-02-18T14:09:19Z</time>
      </trkpt>
      <trkpt lat="62.633389759051" lon="17.987465115281">
        <ele>97.8</ele>
        <time>2018-02-18T14:09:20Z</time>
      </trkpt>
      <trkpt lat="62.633369810129" lon="17.987424379247">
        <ele>97.8</ele>
        <time>2018-02-18T14:09:21Z</time>
      </trkpt>
      <trkpt lat="62.633353716881" lon="17.987393282398">
        <ele>98</ele>
        <time>2018-02-18T14:09:22Z</time>
      </trkpt>
      <trkpt lat="62.633336701624" lon="17.987359419522">
        <ele>98</ele>
        <time>2018-02-18T14:09:23Z</time>
      </trkpt>
      <trkpt lat="62.633321614204" lon="17.987337626582">
        <ele>98.2</ele>
        <time>2018-02-18T14:09:24Z</time>
      </trkpt>
      <trkpt lat="62.633304515128" lon="17.987299740394">
        <ele>98.4</ele>
        <time>2018-02-18T14:09:25Z</time>
      </trkpt>
      <trkpt lat="62.633284566206" lon="17.987256238333">
        <ele>98.6</ele>
        <time>2018-02-18T14:09:26Z</time>
      </trkpt>
      <trkpt lat="62.633265706931" lon="17.987202761811">
        <ele>99</ele>
        <time>2018-02-18T14:09:27Z</time>
      </trkpt>
      <trkpt lat="62.63324315962" lon="17.987147105995">
        <ele>99.2</ele>
        <time>2018-02-18T14:09:28Z</time>
      </trkpt>
      <trkpt lat="62.633222540146" lon="17.987102095192">
        <ele>99.2</ele>
        <time>2018-02-18T14:09:29Z</time>
      </trkpt>
      <trkpt lat="62.633203177957" lon="17.986978378348">
        <ele>99.4</ele>
        <time>2018-02-18T14:09:30Z</time>
      </trkpt>
      <trkpt lat="62.633188258175" lon="17.986878717557">
        <ele>98.8</ele>
        <time>2018-02-18T14:09:31Z</time>
      </trkpt>
      <trkpt lat="62.633170153271" lon="17.986777799481">
        <ele>97.8</ele>
        <time>2018-02-18T14:09:32Z</time>
      </trkpt>
      <trkpt lat="62.633148192693" lon="17.986673193369">
        <ele>97</ele>
        <time>2018-02-18T14:09:33Z</time>
      </trkpt>
      <trkpt lat="62.633132350902" lon="17.98657839408">
        <ele>96.4</ele>
        <time>2018-02-18T14:09:34Z</time>
      </trkpt>
      <trkpt lat="62.633115251826" lon="17.98649206051">
        <ele>96</ele>
        <time>2018-02-18T14:09:35Z</time>
      </trkpt>
      <trkpt lat="62.633104187718" lon="17.986402793275">
        <ele>95.8</ele>
        <time>2018-02-18T14:09:36Z</time>
      </trkpt>
      <trkpt lat="62.633095386723" lon="17.986323751958">
        <ele>96</ele>
        <time>2018-02-18T14:09:37Z</time>
      </trkpt>
      <trkpt lat="62.633094632352" lon="17.986219229665">
        <ele>96</ele>
        <time>2018-02-18T14:09:38Z</time>
      </trkpt>
      <trkpt lat="62.633102511338" lon="17.98611152225">
        <ele>95.6</ele>
        <time>2018-02-18T14:09:39Z</time>
      </trkpt>
      <trkpt lat="62.633108127211" lon="17.98601345402">
        <ele>95.2</ele>
        <time>2018-02-18T14:09:40Z</time>
      </trkpt>
      <trkpt lat="62.633113826903" lon="17.985901807112">
        <ele>95</ele>
        <time>2018-02-18T14:09:41Z</time>
      </trkpt>
      <trkpt lat="62.633117179663" lon="17.98580809747">
        <ele>94.6</ele>
        <time>2018-02-18T14:09:42Z</time>
      </trkpt>
      <trkpt lat="62.633121538251" lon="17.985702150254">
        <ele>94.2</ele>
        <time>2018-02-18T14:09:43Z</time>
      </trkpt>
      <trkpt lat="62.633125226287" lon="17.985595783943">
        <ele>94</ele>
        <time>2018-02-18T14:09:44Z</time>
      </trkpt>
      <trkpt lat="62.63312078388" lon="17.985493860039">
        <ele>93.8</ele>
        <time>2018-02-18T14:09:45Z</time>
      </trkpt>
      <trkpt lat="62.633120867699" lon="17.985412555609">
        <ele>93.8</ele>
        <time>2018-02-18T14:09:46Z</time>
      </trkpt>
      <trkpt lat="62.633122292622" lon="17.985318510691">
        <ele>93.6</ele>
        <time>2018-02-18T14:09:47Z</time>
      </trkpt>
      <trkpt lat="62.633133105273" lon="17.985189177974">
        <ele>93.8</ele>
        <time>2018-02-18T14:09:48Z</time>
      </trkpt>
      <trkpt lat="62.633151293996" lon="17.985064874397">
        <ele>93.8</ele>
        <time>2018-02-18T14:09:49Z</time>
      </trkpt>
      <trkpt lat="62.633171410556" lon="17.984945516141">
        <ele>93.2</ele>
        <time>2018-02-18T14:09:50Z</time>
      </trkpt>
      <trkpt lat="62.633194209324" lon="17.984827834265">
        <ele>92.6</ele>
        <time>2018-02-18T14:09:51Z</time>
      </trkpt>
      <trkpt lat="62.633213906789" lon="17.98473186151">
        <ele>91.6</ele>
        <time>2018-02-18T14:09:52Z</time>
      </trkpt>
      <trkpt lat="62.633238884851" lon="17.984624321733">
        <ele>90.6</ele>
        <time>2018-02-18T14:09:53Z</time>
      </trkpt>
      <trkpt lat="62.633256822117" lon="17.984542346751">
        <ele>90.2</ele>
        <time>2018-02-18T14:09:54Z</time>
      </trkpt>
      <trkpt lat="62.633270568433" lon="17.984469088945">
        <ele>90</ele>
        <time>2018-02-18T14:09:55Z</time>
      </trkpt>
      <trkpt lat="62.633280291437" lon="17.984394825311">
        <ele>90</ele>
        <time>2018-02-18T14:09:56Z</time>
      </trkpt>
      <trkpt lat="62.633289427708" lon="17.984323746799">
        <ele>90</ele>
        <time>2018-02-18T14:09:57Z</time>
      </trkpt>
      <trkpt lat="62.63329931835" lon="17.984255350495">
        <ele>90.2</ele>
        <time>2018-02-18T14:09:58Z</time>
      </trkpt>
      <trkpt lat="62.633305856232" lon="17.984176560635">
        <ele>90.6</ele>
        <time>2018-02-18T14:09:59Z</time>
      </trkpt>
      <trkpt lat="62.633318177625" lon="17.984111097996">
        <ele>90.8</ele>
        <time>2018-02-18T14:10:00Z</time>
      </trkpt>
      <trkpt lat="62.633327565353" lon="17.984043791339">
        <ele>91</ele>
        <time>2018-02-18T14:10:01Z</time>
      </trkpt>
      <trkpt lat="62.633335276701" lon="17.983977741967">
        <ele>91.2</ele>
        <time>2018-02-18T14:10:02Z</time>
      </trkpt>
      <trkpt lat="62.633349945026" lon="17.983911944052">
        <ele>91.2</ele>
        <time>2018-02-18T14:10:03Z</time>
      </trkpt>
      <trkpt lat="62.633364613351" lon="17.983845140309">
        <ele>91</ele>
        <time>2018-02-18T14:10:04Z</time>
      </trkpt>
      <trkpt lat="62.633377186201" lon="17.98378889776">
        <ele>91</ele>
        <time>2018-02-18T14:10:05Z</time>
      </trkpt>
      <trkpt lat="62.633392776535" lon="17.983752185038">
        <ele>91</ele>
        <time>2018-02-18T14:10:06Z</time>
      </trkpt>
      <trkpt lat="62.633408115412" lon="17.983709856443">
        <ele>91.2</ele>
        <time>2018-02-18T14:10:07Z</time>
      </trkpt>
      <trkpt lat="62.633425968859" lon="17.983657553387">
        <ele>91.2</ele>
        <time>2018-02-18T14:10:08Z</time>
      </trkpt>
      <trkpt lat="62.63344264884" lon="17.98360784872">
        <ele>91.2</ele>
        <time>2018-02-18T14:10:09Z</time>
      </trkpt>
      <trkpt lat="62.633456478975" lon="17.983558730786">
        <ele>91.2</ele>
        <time>2018-02-18T14:10:10Z</time>
      </trkpt>
      <trkpt lat="62.633474080965" lon="17.983504416074">
        <ele>91.4</ele>
        <time>2018-02-18T14:10:11Z</time>
      </trkpt>
      <trkpt lat="62.633491682955" lon="17.983435768313">
        <ele>91.6</ele>
        <time>2018-02-18T14:10:12Z</time>
      </trkpt>
      <trkpt lat="62.633502663244" lon="17.983364522163">
        <ele>91.4</ele>
        <time>2018-02-18T14:10:13Z</time>
      </trkpt>
      <trkpt lat="62.633510709868" lon="17.983300819723">
        <ele>91.4</ele>
        <time>2018-02-18T14:10:14Z</time>
      </trkpt>
      <trkpt lat="62.633523617994" lon="17.983227981012">
        <ele>91.4</ele>
        <time>2018-02-18T14:10:15Z</time>
      </trkpt>
      <trkpt lat="62.633540549432" lon="17.983154807025">
        <ele>91.4</ele>
        <time>2018-02-18T14:10:16Z</time>
      </trkpt>
      <trkpt lat="62.633560079259" lon="17.98309152368">
        <ele>91.4</ele>
        <time>2018-02-18T14:10:17Z</time>
      </trkpt>
      <trkpt lat="62.633575250498" lon="17.983024887575">
        <ele>91.4</ele>
        <time>2018-02-18T14:10:18Z</time>
      </trkpt>
      <trkpt lat="62.633588996814" lon="17.982953306149">
        <ele>91.4</ele>
        <time>2018-02-18T14:10:19Z</time>
      </trkpt>
      <trkpt lat="62.633596540524" lon="17.982883065827">
        <ele>91.4</ele>
        <time>2018-02-18T14:10:20Z</time>
      </trkpt>
      <trkpt lat="62.633606682623" lon="17.982817100274">
        <ele>91.2</ele>
        <time>2018-02-18T14:10:21Z</time>
      </trkpt>
      <trkpt lat="62.633616657084" lon="17.982760606268">
        <ele>91.4</ele>
        <time>2018-02-18T14:10:22Z</time>
      </trkpt>
      <trkpt lat="62.633633588522" lon="17.982687180824">
        <ele>91.4</ele>
        <time>2018-02-18T14:10:23Z</time>
      </trkpt>
      <trkpt lat="62.633643060069" lon="17.982619957986">
        <ele>91.4</ele>
        <time>2018-02-18T14:10:24Z</time>
      </trkpt>
      <trkpt lat="62.63365051996" lon="17.982542257773">
        <ele>91.4</ele>
        <time>2018-02-18T14:10:25Z</time>
      </trkpt>
      <trkpt lat="62.633657560756" lon="17.982464976655">
        <ele>91.4</ele>
        <time>2018-02-18T14:10:26Z</time>
      </trkpt>
      <trkpt lat="62.633664182457" lon="17.982397418541">
        <ele>91.4</ele>
        <time>2018-02-18T14:10:27Z</time>
      </trkpt>
      <trkpt lat="62.633664098638" lon="17.982318544862">
        <ele>91.4</ele>
        <time>2018-02-18T14:10:28Z</time>
      </trkpt>
      <trkpt lat="62.633664182457" lon="17.982251573481">
        <ele>91.2</ele>
        <time>2018-02-18T14:10:29Z</time>
      </trkpt>
      <trkpt lat="62.633671558529" lon="17.982193151638">
        <ele>91.4</ele>
        <time>2018-02-18T14:10:30Z</time>
      </trkpt>
      <trkpt lat="62.633686143035" lon="17.982135484166">
        <ele>91.2</ele>
        <time>2018-02-18T14:10:31Z</time>
      </trkpt>
      <trkpt lat="62.633696117496" lon="17.982072787554">
        <ele>91.2</ele>
        <time>2018-02-18T14:10:32Z</time>
      </trkpt>
      <trkpt lat="62.633701481912" lon="17.982017467014">
        <ele>91.4</ele>
        <time>2018-02-18T14:10:33Z</time>
      </trkpt>
      <trkpt lat="62.633708941803" lon="17.981962230293">
        <ele>91.4</ele>
        <time>2018-02-18T14:10:34Z</time>
      </trkpt>
      <trkpt lat="62.633716820789" lon="17.981895007455">
        <ele>91.4</ele>
        <time>2018-02-18T14:10:35Z</time>
      </trkpt>
      <trkpt lat="62.633714054762" lon="17.981828790445">
        <ele>91.6</ele>
        <time>2018-02-18T14:10:36Z</time>
      </trkpt>
      <trkpt lat="62.633714892952" lon="17.981763327806">
        <ele>91.4</ele>
        <time>2018-02-18T14:10:37Z</time>
      </trkpt>
      <trkpt lat="62.633718832445" lon="17.981677916245">
        <ele>91.6</ele>
        <time>2018-02-18T14:10:38Z</time>
      </trkpt>
      <trkpt lat="62.633724113042" lon="17.981599629299">
        <ele>91.6</ele>
        <time>2018-02-18T14:10:39Z</time>
      </trkpt>
      <trkpt lat="62.633725035051" lon="17.981520336525">
        <ele>91.8</ele>
        <time>2018-02-18T14:10:40Z</time>
      </trkpt>
      <trkpt lat="62.633720760282" lon="17.981435930792">
        <ele>91.6</ele>
        <time>2018-02-18T14:10:41Z</time>
      </trkpt>
      <trkpt lat="62.633725035051" lon="17.981373820913">
        <ele>91.8</ele>
        <time>2018-02-18T14:10:42Z</time>
      </trkpt>
      <trkpt lat="62.633736518254" lon="17.981322188409">
        <ele>91.6</ele>
        <time>2018-02-18T14:10:43Z</time>
      </trkpt>
      <trkpt lat="62.633750851303" lon="17.981263766566">
        <ele>91.6</ele>
        <time>2018-02-18T14:10:44Z</time>
      </trkpt>
      <trkpt lat="62.633764681438" lon="17.98120643437">
        <ele>91.8</ele>
        <time>2018-02-18T14:10:45Z</time>
      </trkpt>
      <trkpt lat="62.633776499917" lon="17.981162680852">
        <ele>91.8</ele>
        <time>2018-02-18T14:10:46Z</time>
      </trkpt>
      <trkpt lat="62.633796281201" lon="17.98111255709">
        <ele>92</ele>
        <time>2018-02-18T14:10:47Z</time>
      </trkpt>
      <trkpt lat="62.633814469924" lon="17.981059080568">
        <ele>92</ele>
        <time>2018-02-18T14:10:48Z</time>
      </trkpt>
      <trkpt lat="62.633834335027" lon="17.98101616524">
        <ele>92</ele>
        <time>2018-02-18T14:10:49Z</time>
      </trkpt>
      <trkpt lat="62.633853781035" lon="17.980971238256">
        <ele>92.2</ele>
        <time>2018-02-18T14:10:50Z</time>
      </trkpt>
      <trkpt lat="62.633874065233" lon="17.98092144977">
        <ele>92.2</ele>
        <time>2018-02-18T14:10:51Z</time>
      </trkpt>
      <trkpt lat="62.633896444906" lon="17.980874008216">
        <ele>92.4</ele>
        <time>2018-02-18T14:10:52Z</time>
      </trkpt>
      <trkpt lat="62.63391874076" lon="17.980820531694">
        <ele>92.4</ele>
        <time>2018-02-18T14:10:53Z</time>
      </trkpt>
      <trkpt lat="62.633937516216" lon="17.980775772348">
        <ele>92.6</ele>
        <time>2018-02-18T14:10:54Z</time>
      </trkpt>
      <trkpt lat="62.633966685228" lon="17.980694551737">
        <ele>92.8</ele>
        <time>2018-02-18T14:10:55Z</time>
      </trkpt>
      <trkpt lat="62.633996357154" lon="17.980617270619">
        <ele>92.8</ele>
        <time>2018-02-18T14:10:56Z</time>
      </trkpt>
      <trkpt lat="62.634010271108" lon="17.980574606748">
        <ele>92.8</ele>
        <time>2018-02-18T14:10:57Z</time>
      </trkpt>
      <trkpt lat="62.634026699632" lon="17.980529344488">
        <ele>92.6</ele>
        <time>2018-02-18T14:10:58Z</time>
      </trkpt>
      <trkpt lat="62.634048576391" lon="17.980481232382">
        <ele>92.6</ele>
        <time>2018-02-18T14:10:59Z</time>
      </trkpt>
      <trkpt lat="62.634065675467" lon="17.980436808312">
        <ele>92.6</ele>
        <time>2018-02-18T14:11:00Z</time>
      </trkpt>
      <trkpt lat="62.634084870018" lon="17.980390707862">
        <ele>92.6</ele>
        <time>2018-02-18T14:11:01Z</time>
      </trkpt>
      <trkpt lat="62.634109177528" lon="17.980339159177">
        <ele>92.6</ele>
        <time>2018-02-18T14:11:02Z</time>
      </trkpt>
      <trkpt lat="62.634133568857" lon="17.980286856121">
        <ele>92.6</ele>
        <time>2018-02-18T14:11:03Z</time>
      </trkpt>
      <trkpt lat="62.634160055661" lon="17.980241258585">
        <ele>92.8</ele>
        <time>2018-02-18T14:11:04Z</time>
      </trkpt>
      <trkpt lat="62.634190565777" lon="17.980184932217">
        <ele>92.8</ele>
        <time>2018-02-18T14:11:05Z</time>
      </trkpt>
      <trkpt lat="62.634221662626" lon="17.980142687441">
        <ele>92.6</ele>
        <time>2018-02-18T14:11:06Z</time>
      </trkpt>
      <trkpt lat="62.634245718679" lon="17.980100107389">
        <ele>92.8</ele>
        <time>2018-02-18T14:11:07Z</time>
      </trkpt>
      <trkpt lat="62.634274887691" lon="17.98004135027">
        <ele>92.8</ele>
        <time>2018-02-18T14:11:08Z</time>
      </trkpt>
      <trkpt lat="62.634299446658" lon="17.980007068299">
        <ele>92.8</ele>
        <time>2018-02-18T14:11:09Z</time>
      </trkpt>
      <trkpt lat="62.634321155779" lon="17.97995166394">
        <ele>93</ele>
        <time>2018-02-18T14:11:10Z</time>
      </trkpt>
      <trkpt lat="62.634337584303" lon="17.979875304831">
        <ele>93</ele>
        <time>2018-02-18T14:11:11Z</time>
      </trkpt>
      <trkpt lat="62.634351498257" lon="17.979820654843">
        <ele>93</ele>
        <time>2018-02-18T14:11:12Z</time>
      </trkpt>
      <trkpt lat="62.634368597333" lon="17.979752426177">
        <ele>93</ele>
        <time>2018-02-18T14:11:13Z</time>
      </trkpt>
      <trkpt lat="62.634381924554" lon="17.979689142832">
        <ele>93</ele>
        <time>2018-02-18T14:11:14Z</time>
      </trkpt>
      <trkpt lat="62.634393659214" lon="17.979634073749">
        <ele>93</ele>
        <time>2018-02-18T14:11:15Z</time>
      </trkpt>
      <trkpt lat="62.634406651159" lon="17.979567605282">
        <ele>93</ele>
        <time>2018-02-18T14:11:16Z</time>
      </trkpt>
      <trkpt lat="62.634422660588" lon="17.979488815422">
        <ele>93</ele>
        <time>2018-02-18T14:11:17Z</time>
      </trkpt>
      <trkpt lat="62.634434562886" lon="17.979421592584">
        <ele>93</ele>
        <time>2018-02-18T14:11:18Z</time>
      </trkpt>
      <trkpt lat="62.634444621166" lon="17.97935319628">
        <ele>92.8</ele>
        <time>2018-02-18T14:11:19Z</time>
      </trkpt>
      <trkpt lat="62.63445266779" lon="17.979286643994">
        <ele>92.8</ele>
        <time>2018-02-18T14:11:20Z</time>
      </trkpt>
      <trkpt lat="62.634456942559" lon="17.979226461952">
        <ele>92.8</ele>
        <time>2018-02-18T14:11:21Z</time>
      </trkpt>
      <trkpt lat="62.634466162649" lon="17.97916208896">
        <ele>92.8</ele>
        <time>2018-02-18T14:11:22Z</time>
      </trkpt>
      <trkpt lat="62.634483261725" lon="17.979075168657">
        <ele>92.8</ele>
        <time>2018-02-18T14:11:23Z</time>
      </trkpt>
      <trkpt lat="62.634494828747" lon="17.979008029638">
        <ele>92.8</ele>
        <time>2018-02-18T14:11:24Z</time>
      </trkpt>
      <trkpt lat="62.634503881199" lon="17.978934352737">
        <ele>92.8</ele>
        <time>2018-02-18T14:11:25Z</time>
      </trkpt>
      <trkpt lat="62.634511592547" lon="17.978865034424">
        <ele>93</ele>
        <time>2018-02-18T14:11:26Z</time>
      </trkpt>
      <trkpt lat="62.634519806809" lon="17.97880502002">
        <ele>93</ele>
        <time>2018-02-18T14:11:27Z</time>
      </trkpt>
      <trkpt lat="62.634529865089" lon="17.97872958292">
        <ele>92.8</ele>
        <time>2018-02-18T14:11:28Z</time>
      </trkpt>
      <trkpt lat="62.634536235333" lon="17.978658588227">
        <ele>93</ele>
        <time>2018-02-18T14:11:29Z</time>
      </trkpt>
      <trkpt lat="62.634545623061" lon="17.978589018457">
        <ele>92.8</ele>
        <time>2018-02-18T14:11:30Z</time>
      </trkpt>
      <trkpt lat="62.634552831495" lon="17.978515090099">
        <ele>93</ele>
        <time>2018-02-18T14:11:31Z</time>
      </trkpt>
      <trkpt lat="62.634559453196" lon="17.978442167569">
        <ele>92.8</ele>
        <time>2018-02-18T14:11:32Z</time>
      </trkpt>
      <trkpt lat="62.634568086553" lon="17.978348960841">
        <ele>93</ele>
        <time>2018-02-18T14:11:33Z</time>
      </trkpt>
      <trkpt lat="62.634579066842" lon="17.978256089389">
        <ele>92.8</ele>
        <time>2018-02-18T14:11:34Z</time>
      </trkpt>
      <trkpt lat="62.634592896977" lon="17.978161206281">
        <ele>92.6</ele>
        <time>2018-02-18T14:11:35Z</time>
      </trkpt>
      <trkpt lat="62.634605050732" lon="17.978066658449">
        <ele>92.4</ele>
        <time>2018-02-18T14:11:36Z</time>
      </trkpt>
      <trkpt lat="62.634614270822" lon="17.977989125874">
        <ele>92.2</ele>
        <time>2018-02-18T14:11:37Z</time>
      </trkpt>
      <trkpt lat="62.6346278495" lon="17.977899439544">
        <ele>91.8</ele>
        <time>2018-02-18T14:11:38Z</time>
      </trkpt>
      <trkpt lat="62.634636482857" lon="17.977815536725">
        <ele>91.4</ele>
        <time>2018-02-18T14:11:39Z</time>
      </trkpt>
      <trkpt lat="62.63464628968" lon="17.977744542032">
        <ele>91.4</ele>
        <time>2018-02-18T14:11:40Z</time>
      </trkpt>
      <trkpt lat="62.634657689064" lon="17.977665416896">
        <ele>91.4</ele>
        <time>2018-02-18T14:11:41Z</time>
      </trkpt>
      <trkpt lat="62.63466556805" lon="17.977604648121">
        <ele>91.2</ele>
        <time>2018-02-18T14:11:42Z</time>
      </trkpt>
      <trkpt lat="62.63467730271" lon="17.977530216849">
        <ele>91.2</ele>
        <time>2018-02-18T14:11:43Z</time>
      </trkpt>
      <trkpt lat="62.634688869732" lon="17.977453606283">
        <ele>91</ele>
        <time>2018-02-18T14:11:44Z</time>
      </trkpt>
      <trkpt lat="62.634695910528" lon="17.977387473092">
        <ele>91</ele>
        <time>2018-02-18T14:11:45Z</time>
      </trkpt>
      <trkpt lat="62.634705130618" lon="17.977329386525">
        <ele>91</ele>
        <time>2018-02-18T14:11:46Z</time>
      </trkpt>
      <trkpt lat="62.634715607993" lon="17.977254955253">
        <ele>91</ele>
        <time>2018-02-18T14:11:47Z</time>
      </trkpt>
      <trkpt lat="62.634726001549" lon="17.977184128198">
        <ele>91</ele>
        <time>2018-02-18T14:11:48Z</time>
      </trkpt>
      <trkpt lat="62.634739999322" lon="17.977116653903">
        <ele>91</ele>
        <time>2018-02-18T14:11:49Z</time>
      </trkpt>
      <trkpt lat="62.634756344027" lon="17.977036187663">
        <ele>91</ele>
        <time>2018-02-18T14:11:50Z</time>
      </trkpt>
      <trkpt lat="62.63476279809" lon="17.976967623721">
        <ele>91</ele>
        <time>2018-02-18T14:11:51Z</time>
      </trkpt>
      <trkpt lat="62.634769671248" lon="17.976906435851">
        <ele>91</ele>
        <time>2018-02-18T14:11:52Z</time>
      </trkpt>
      <trkpt lat="62.634777131139" lon="17.976834183873">
        <ele>90.8</ele>
        <time>2018-02-18T14:11:53Z</time>
      </trkpt>
      <trkpt lat="62.634787357057" lon="17.976772241632">
        <ele>90.8</ele>
        <time>2018-02-18T14:11:54Z</time>
      </trkpt>
      <trkpt lat="62.634800181364" lon="17.976687165347">
        <ele>90.6</ele>
        <time>2018-02-18T14:11:55Z</time>
      </trkpt>
      <trkpt lat="62.634815184965" lon="17.976605693279">
        <ele>90.6</ele>
        <time>2018-02-18T14:11:56Z</time>
      </trkpt>
      <trkpt lat="62.634829518014" lon="17.976536374966">
        <ele>90.6</ele>
        <time>2018-02-18T14:11:57Z</time>
      </trkpt>
      <trkpt lat="62.634844018701" lon="17.976457836563">
        <ele>90.4</ele>
        <time>2018-02-18T14:11:58Z</time>
      </trkpt>
      <trkpt lat="62.63486086632" lon="17.976383070015">
        <ele>90.8</ele>
        <time>2018-02-18T14:11:59Z</time>
      </trkpt>
      <trkpt lat="62.634882407803" lon="17.976310063666">
        <ele>90.4</ele>
        <time>2018-02-18T14:12:00Z</time>
      </trkpt>
      <trkpt lat="62.634906715313" lon="17.976224316829">
        <ele>90.2</ele>
        <time>2018-02-18T14:12:01Z</time>
      </trkpt>
      <trkpt lat="62.634929514081" lon="17.976150975204">
        <ele>90</ele>
        <time>2018-02-18T14:12:02Z</time>
      </trkpt>
      <trkpt lat="62.634952480487" lon="17.976068664946">
        <ele>90</ele>
        <time>2018-02-18T14:12:03Z</time>
      </trkpt>
      <trkpt lat="62.634969495744" lon="17.975990880914">
        <ele>89.8</ele>
        <time>2018-02-18T14:12:04Z</time>
      </trkpt>
      <trkpt lat="62.634987181553" lon="17.975911001407">
        <ele>89.6</ele>
        <time>2018-02-18T14:12:05Z</time>
      </trkpt>
      <trkpt lat="62.635003274801" lon="17.975823494371">
        <ele>89.4</ele>
        <time>2018-02-18T14:12:06Z</time>
      </trkpt>
      <trkpt lat="62.635018697497" lon="17.975735987335">
        <ele>89.4</ele>
        <time>2018-02-18T14:12:07Z</time>
      </trkpt>
      <trkpt lat="62.63503353346" lon="17.975656191647">
        <ele>89.2</ele>
        <time>2018-02-18T14:12:08Z</time>
      </trkpt>
      <trkpt lat="62.6350469445" lon="17.975571450638">
        <ele>89</ele>
        <time>2018-02-18T14:12:09Z</time>
      </trkpt>
      <trkpt lat="62.63505448821" lon="17.975496767909">
        <ele>88.8</ele>
        <time>2018-02-18T14:12:10Z</time>
      </trkpt>
      <trkpt lat="62.635061109911" lon="17.975419486791">
        <ele>88.6</ele>
        <time>2018-02-18T14:12:11Z</time>
      </trkpt>
      <trkpt lat="62.635068066888" lon="17.975336338343">
        <ele>88.6</ele>
        <time>2018-02-18T14:12:12Z</time>
      </trkpt>
      <trkpt lat="62.635068653621" lon="17.975233995344">
        <ele>88.6</ele>
        <time>2018-02-18T14:12:13Z</time>
      </trkpt>
      <trkpt lat="62.635069659449" lon="17.975130730336">
        <ele>88.6</ele>
        <time>2018-02-18T14:12:14Z</time>
      </trkpt>
      <trkpt lat="62.635063205386" lon="17.975049006811">
        <ele>88.6</ele>
        <time>2018-02-18T14:12:15Z</time>
      </trkpt>
      <trkpt lat="62.635048034147" lon="17.97496946258">
        <ele>88.4</ele>
        <time>2018-02-18T14:12:16Z</time>
      </trkpt>
      <trkpt lat="62.635028085225" lon="17.97488480539">
        <ele>88.4</ele>
        <time>2018-02-18T14:12:17Z</time>
      </trkpt>
      <trkpt lat="62.635014171271" lon="17.974792520671">
        <ele>88.2</ele>
        <time>2018-02-18T14:12:18Z</time>
      </trkpt>
      <trkpt lat="62.635007298113" lon="17.97469537445">
        <ele>87.6</ele>
        <time>2018-02-18T14:12:19Z</time>
      </trkpt>
      <trkpt lat="62.634992043055" lon="17.974607196862">
        <ele>87.2</ele>
        <time>2018-02-18T14:12:20Z</time>
      </trkpt>
      <trkpt lat="62.634969579563" lon="17.974535699255">
        <ele>86.6</ele>
        <time>2018-02-18T14:12:21Z</time>
      </trkpt>
      <trkpt lat="62.634949798279" lon="17.97446906315">
        <ele>86</ele>
        <time>2018-02-18T14:12:22Z</time>
      </trkpt>
      <trkpt lat="62.634923143837" lon="17.974389770376">
        <ele>85.8</ele>
        <time>2018-02-18T14:12:23Z</time>
      </trkpt>
      <trkpt lat="62.634905709485" lon="17.974313662724">
        <ele>85.6</ele>
        <time>2018-02-18T14:12:24Z</time>
      </trkpt>
      <trkpt lat="62.634888694228" lon="17.974232358294">
        <ele>85.2</ele>
        <time>2018-02-18T14:12:25Z</time>
      </trkpt>
      <trkpt lat="62.634865476365" lon="17.974155747728">
        <ele>85.2</ele>
        <time>2018-02-18T14:12:26Z</time>
      </trkpt>
      <trkpt lat="62.634853574067" lon="17.974095817143">
        <ele>85.4</ele>
        <time>2018-02-18T14:12:27Z</time>
      </trkpt>
      <trkpt lat="62.634837229362" lon="17.97402398426">
        <ele>85.4</ele>
        <time>2018-02-18T14:12:28Z</time>
      </trkpt>
      <trkpt lat="62.63482314777" lon="17.973949888264">
        <ele>85</ele>
        <time>2018-02-18T14:12:29Z</time>
      </trkpt>
      <trkpt lat="62.634814933508" lon="17.973893478077">
        <ele>85.4</ele>
        <time>2018-02-18T14:12:30Z</time>
      </trkpt>
      <trkpt lat="62.634802276839" lon="17.973817370425">
        <ele>85.2</ele>
        <time>2018-02-18T14:12:31Z</time>
      </trkpt>
      <trkpt lat="62.63478962017" lon="17.973742939153">
        <ele>85.4</ele>
        <time>2018-02-18T14:12:32Z</time>
      </trkpt>
      <trkpt lat="62.63477537094" lon="17.973664987483">
        <ele>85.4</ele>
        <time>2018-02-18T14:12:33Z</time>
      </trkpt>
      <trkpt lat="62.634757601312" lon="17.973589466564">
        <ele>85.2</ele>
        <time>2018-02-18T14:12:34Z</time>
      </trkpt>
      <trkpt lat="62.634744441729" lon="17.973506150478">
        <ele>85.2</ele>
        <time>2018-02-18T14:12:35Z</time>
      </trkpt>
      <trkpt lat="62.634738322942" lon="17.9734255166">
        <ele>85.2</ele>
        <time>2018-02-18T14:12:36Z</time>
      </trkpt>
      <trkpt lat="62.634727510291" lon="17.973348906034">
        <ele>85</ele>
        <time>2018-02-18T14:12:37Z</time>
      </trkpt>
      <trkpt lat="62.63471669764" lon="17.973278581893">
        <ele>85</ele>
        <time>2018-02-18T14:12:38Z</time>
      </trkpt>
      <trkpt lat="62.634709489206" lon="17.973202474241">
        <ele>85</ele>
        <time>2018-02-18T14:12:39Z</time>
      </trkpt>
      <trkpt lat="62.634706136446" lon="17.973131814824">
        <ele>84.8</ele>
        <time>2018-02-18T14:12:40Z</time>
      </trkpt>
      <trkpt lat="62.63470831574" lon="17.973050678032">
        <ele>84.8</ele>
        <time>2018-02-18T14:12:41Z</time>
      </trkpt>
      <trkpt lat="62.634720637133" lon="17.972965517928">
        <ele>84.6</ele>
        <time>2018-02-18T14:12:42Z</time>
      </trkpt>
      <trkpt lat="62.634740418417" lon="17.972874322856">
        <ele>84.6</ele>
        <time>2018-02-18T14:12:43Z</time>
      </trkpt>
      <trkpt lat="62.634759780606" lon="17.972803747258">
        <ele>84.4</ele>
        <time>2018-02-18T14:12:44Z</time>
      </trkpt>
      <trkpt lat="62.634784674849" lon="17.97272646614">
        <ele>84.2</ele>
        <time>2018-02-18T14:12:45Z</time>
      </trkpt>
      <trkpt lat="62.634811496929" lon="17.972656644913">
        <ele>84</ele>
        <time>2018-02-18T14:12:46Z</time>
      </trkpt>
      <trkpt lat="62.634843096692" lon="17.972600821459">
        <ele>83.8</ele>
        <time>2018-02-18T14:12:47Z</time>
      </trkpt>
      <trkpt lat="62.634872852437" lon="17.972533011888">
        <ele>83.8</ele>
        <time>2018-02-18T14:12:48Z</time>
      </trkpt>
      <trkpt lat="62.634898249594" lon="17.972463023023">
        <ele>83.8</ele>
        <time>2018-02-18T14:12:49Z</time>
      </trkpt>
      <trkpt lat="62.634920629267" lon="17.972404265904">
        <ele>83.8</ele>
        <time>2018-02-18T14:12:50Z</time>
      </trkpt>
      <trkpt lat="62.634946110243" lon="17.972327403881">
        <ele>83.6</ele>
        <time>2018-02-18T14:12:51Z</time>
      </trkpt>
      <trkpt lat="62.634965137156" lon="17.972248027288">
        <ele>83.6</ele>
        <time>2018-02-18T14:12:52Z</time>
      </trkpt>
      <trkpt lat="62.634988355019" lon="17.972153647094">
        <ele>83.6</ele>
        <time>2018-02-18T14:12:53Z</time>
      </trkpt>
      <trkpt lat="62.635016853479" lon="17.972059685995">
        <ele>83.4</ele>
        <time>2018-02-18T14:12:54Z</time>
      </trkpt>
      <trkpt lat="62.635043256464" lon="17.97195700772">
        <ele>83.2</ele>
        <time>2018-02-18T14:12:55Z</time>
      </trkpt>
      <trkpt lat="62.635065887594" lon="17.971843935889">
        <ele>83</ele>
        <time>2018-02-18T14:12:56Z</time>
      </trkpt>
      <trkpt lat="62.635083321946" lon="17.971734971189">
        <ele>82.8</ele>
        <time>2018-02-18T14:12:57Z</time>
      </trkpt>
      <trkpt lat="62.63510058866" lon="17.971622989005">
        <ele>82.4</ele>
        <time>2018-02-18T14:12:58Z</time>
      </trkpt>
      <trkpt lat="62.635112910053" lon="17.971495248849">
        <ele>81.6</ele>
        <time>2018-02-18T14:12:59Z</time>
      </trkpt>
      <trkpt lat="62.63512489617" lon="17.971390810375">
        <ele>81.2</ele>
        <time>2018-02-18T14:13:00Z</time>
      </trkpt>
      <trkpt lat="62.635137049925" lon="17.971286790996">
        <ele>80.4</ele>
        <time>2018-02-18T14:13:01Z</time>
      </trkpt>
      <trkpt lat="62.635150125689" lon="17.971181849608">
        <ele>79.6</ele>
        <time>2018-02-18T14:13:02Z</time>
      </trkpt>
      <trkpt lat="62.635165296928" lon="17.971066179388">
        <ele>78.8</ele>
        <time>2018-02-18T14:13:03Z</time>
      </trkpt>
      <trkpt lat="62.635177618321" lon="17.970969033167">
        <ele>78.2</ele>
        <time>2018-02-18T14:13:04Z</time>
      </trkpt>
      <trkpt lat="62.635191699913" lon="17.970864594693">
        <ele>77.8</ele>
        <time>2018-02-18T14:13:05Z</time>
      </trkpt>
      <trkpt lat="62.635207290247" lon="17.970757474011">
        <ele>77.2</ele>
        <time>2018-02-18T14:13:06Z</time>
      </trkpt>
      <trkpt lat="62.635220868925" lon="17.970666446577">
        <ele>76.8</ele>
        <time>2018-02-18T14:13:07Z</time>
      </trkpt>
      <trkpt lat="62.63523469906" lon="17.970558655343">
        <ele>76.6</ele>
        <time>2018-02-18T14:13:08Z</time>
      </trkpt>
      <trkpt lat="62.635249367385" lon="17.970444996779">
        <ele>76.4</ele>
        <time>2018-02-18T14:13:09Z</time>
      </trkpt>
      <trkpt lat="62.635262778425" lon="17.970341145038">
        <ele>76.6</ele>
        <time>2018-02-18T14:13:10Z</time>
      </trkpt>
      <trkpt lat="62.635278871673" lon="17.970231090691">
        <ele>76.8</ele>
        <time>2018-02-18T14:13:11Z</time>
      </trkpt>
      <trkpt lat="62.635294629645" lon="17.97012807714">
        <ele>77</ele>
        <time>2018-02-18T14:13:12Z</time>
      </trkpt>
      <trkpt lat="62.635318182784" lon="17.970013496567">
        <ele>77</ele>
        <time>2018-02-18T14:13:13Z</time>
      </trkpt>
      <trkpt lat="62.635342909389" lon="17.969907046437">
        <ele>77</ele>
        <time>2018-02-18T14:13:14Z</time>
      </trkpt>
      <trkpt lat="62.635368641822" lon="17.969803781429">
        <ele>77</ele>
        <time>2018-02-18T14:13:15Z</time>
      </trkpt>
      <trkpt lat="62.635394038979" lon="17.96970730576">
        <ele>76.8</ele>
        <time>2018-02-18T14:13:16Z</time>
      </trkpt>
      <trkpt lat="62.635419268498" lon="17.969606136227">
        <ele>76.6</ele>
        <time>2018-02-18T14:13:17Z</time>
      </trkpt>
      <trkpt lat="62.635448521329" lon="17.969494824595">
        <ele>76.2</ele>
        <time>2018-02-18T14:13:18Z</time>
      </trkpt>
      <trkpt lat="62.6354744214" lon="17.96938963175">
        <ele>75.8</ele>
        <time>2018-02-18T14:13:19Z</time>
      </trkpt>
      <trkpt lat="62.63549789072" lon="17.96929156352">
        <ele>75.4</ele>
        <time>2018-02-18T14:13:20Z</time>
      </trkpt>
      <trkpt lat="62.635526137723" lon="17.969181844449">
        <ele>74.8</ele>
        <time>2018-02-18T14:13:21Z</time>
      </trkpt>
      <trkpt lat="62.635550445233" lon="17.969086877522">
        <ele>74</ele>
        <time>2018-02-18T14:13:22Z</time>
      </trkpt>
      <trkpt lat="62.635582715548" lon="17.968978248098">
        <ele>73.2</ele>
        <time>2018-02-18T14:13:23Z</time>
      </trkpt>
      <trkpt lat="62.635614818225" lon="17.968872300882">
        <ele>72.4</ele>
        <time>2018-02-18T14:13:24Z</time>
      </trkpt>
      <trkpt lat="62.635648010549" lon="17.968775573756">
        <ele>71.4</ele>
        <time>2018-02-18T14:13:25Z</time>
      </trkpt>
      <trkpt lat="62.635686148194" lon="17.968686641797">
        <ele>70.8</ele>
        <time>2018-02-18T14:13:26Z</time>
      </trkpt>
      <trkpt lat="62.635724956391" lon="17.968614641276">
        <ele>70</ele>
        <time>2018-02-18T14:13:27Z</time>
      </trkpt>
      <trkpt lat="62.635770051013" lon="17.968552028483">
        <ele>69.4</ele>
        <time>2018-02-18T14:13:28Z</time>
      </trkpt>
      <trkpt lat="62.635817157291" lon="17.968497294676">
        <ele>69</ele>
        <time>2018-02-18T14:13:29Z</time>
      </trkpt>
      <trkpt lat="62.635864095931" lon="17.968453038244">
        <ele>68.6</ele>
        <time>2018-02-18T14:13:30Z</time>
      </trkpt>
      <trkpt lat="62.63591195658" lon="17.968430155657">
        <ele>68.4</ele>
        <time>2018-02-18T14:13:31Z</time>
      </trkpt>
      <trkpt lat="62.635953949899" lon="17.968423953051">
        <ele>68.2</ele>
        <time>2018-02-18T14:13:32Z</time>
      </trkpt>
      <trkpt lat="62.635988818603" lon="17.968421606119">
        <ele>68</ele>
        <time>2018-02-18T14:13:33Z</time>
      </trkpt>
    </trkseg>
  </trk>
</gpx>